<?xml version="1.0" encoding="UTF-8" standalone="no" ?>
<gpx xmlns="http://www.topografix.com/GPX/1/1" xmlns:xsi="http://www.w3.org/2001/XMLSchema-instance" xsi:schemaLocation="http://www.topografix.com/GPX/1/1 http://www.topografix.com/GPX/1/1/gpx.xsd" version="1.1" creator="VisuGPX - https://www.visugpx.com">
  <metadata>
    <name>Boucle Saint Michel en Beaumont, Croix de la Roche (Beaumont)</name>
    <desc><![CDATA[Boucle Saint Michel en Beaumont, Croix de la Roche (Beaumont) [13 novembre 2021]]]></desc>
  </metadata>
  <trk>
    <name><![CDATA[Boucle à partir de Saint Michel en Beaumont]]></name>
    <trkseg>
      <trkpt lat="44.86873" lon="5.89998">
        <ele>1211.597</ele>
        <time>2021-11-13T09:50:06Z</time>
      </trkpt>
      <trkpt lat="44.86886" lon="5.90003">
        <ele>1209.563</ele>
        <time>2021-11-13T09:50:08Z</time>
      </trkpt>
      <trkpt lat="44.86882" lon="5.90009">
        <ele>1203.204</ele>
        <time>2021-11-13T09:50:09Z</time>
      </trkpt>
      <trkpt lat="44.86884" lon="5.90007">
        <ele>1200.079</ele>
        <time>2021-11-13T09:50:12Z</time>
      </trkpt>
      <trkpt lat="44.86885" lon="5.90003">
        <ele>1202.659</ele>
        <time>2021-11-13T09:50:16Z</time>
      </trkpt>
      <trkpt lat="44.86884" lon="5.89999">
        <ele>1202.976</ele>
        <time>2021-11-13T09:50:19Z</time>
      </trkpt>
      <trkpt lat="44.86884" lon="5.89998">
        <ele>1204.188</ele>
        <time>2021-11-13T09:50:21Z</time>
      </trkpt>
      <trkpt lat="44.86884" lon="5.89998">
        <ele>1203.18</ele>
        <time>2021-11-13T09:50:23Z</time>
      </trkpt>
      <trkpt lat="44.86883" lon="5.89995">
        <ele>1202.789</ele>
        <time>2021-11-13T09:50:24Z</time>
      </trkpt>
      <trkpt lat="44.86879" lon="5.89986">
        <ele>1200.539</ele>
        <time>2021-11-13T09:50:33Z</time>
      </trkpt>
      <trkpt lat="44.86879" lon="5.89981">
        <ele>1200.26</ele>
        <time>2021-11-13T09:50:36Z</time>
      </trkpt>
      <trkpt lat="44.86879" lon="5.89961">
        <ele>1200.43</ele>
        <time>2021-11-13T09:50:48Z</time>
      </trkpt>
      <trkpt lat="44.86882" lon="5.89959">
        <ele>1198.877</ele>
        <time>2021-11-13T09:50:53Z</time>
      </trkpt>
      <trkpt lat="44.86884" lon="5.89956">
        <ele>1197.66</ele>
        <time>2021-11-13T09:50:57Z</time>
      </trkpt>
      <trkpt lat="44.86885" lon="5.8995">
        <ele>1197.061</ele>
        <time>2021-11-13T09:51:00Z</time>
      </trkpt>
      <trkpt lat="44.86883" lon="5.89925">
        <ele>1199.149</ele>
        <time>2021-11-13T09:51:16Z</time>
      </trkpt>
      <trkpt lat="44.86883" lon="5.89903">
        <ele>1198.334</ele>
        <time>2021-11-13T09:51:28Z</time>
      </trkpt>
      <trkpt lat="44.86884" lon="5.89898">
        <ele>1198.566</ele>
        <time>2021-11-13T09:51:31Z</time>
      </trkpt>
      <trkpt lat="44.86885" lon="5.89889">
        <ele>1199.074</ele>
        <time>2021-11-13T09:51:36Z</time>
      </trkpt>
      <trkpt lat="44.86884" lon="5.89867">
        <ele>1201.24</ele>
        <time>2021-11-13T09:51:53Z</time>
      </trkpt>
      <trkpt lat="44.86885" lon="5.89862">
        <ele>1201.296</ele>
        <time>2021-11-13T09:51:58Z</time>
      </trkpt>
      <trkpt lat="44.86888" lon="5.89847">
        <ele>1201.528</ele>
        <time>2021-11-13T09:52:09Z</time>
      </trkpt>
      <trkpt lat="44.86892" lon="5.89803">
        <ele>1202.708</ele>
        <time>2021-11-13T09:52:39Z</time>
      </trkpt>
      <trkpt lat="44.86892" lon="5.89797">
        <ele>1205.168</ele>
        <time>2021-11-13T09:52:43Z</time>
      </trkpt>
      <trkpt lat="44.86891" lon="5.89793">
        <ele>1204.822</ele>
        <time>2021-11-13T09:52:46Z</time>
      </trkpt>
      <trkpt lat="44.8689" lon="5.89791">
        <ele>1205.575</ele>
        <time>2021-11-13T09:52:48Z</time>
      </trkpt>
      <trkpt lat="44.86891" lon="5.89788">
        <ele>1205.427</ele>
        <time>2021-11-13T09:52:52Z</time>
      </trkpt>
      <trkpt lat="44.86892" lon="5.89783">
        <ele>1205.107</ele>
        <time>2021-11-13T09:52:55Z</time>
      </trkpt>
      <trkpt lat="44.86892" lon="5.89774">
        <ele>1205.269</ele>
        <time>2021-11-13T09:53:00Z</time>
      </trkpt>
      <trkpt lat="44.86893" lon="5.89765">
        <ele>1207.295</ele>
        <time>2021-11-13T09:53:06Z</time>
      </trkpt>
      <trkpt lat="44.86893" lon="5.89755">
        <ele>1208.268</ele>
        <time>2021-11-13T09:53:12Z</time>
      </trkpt>
      <trkpt lat="44.86879" lon="5.89667">
        <ele>1210.445</ele>
        <time>2021-11-13T09:54:13Z</time>
      </trkpt>
      <trkpt lat="44.86877" lon="5.89639">
        <ele>1210.256</ele>
        <time>2021-11-13T09:54:33Z</time>
      </trkpt>
      <trkpt lat="44.86878" lon="5.89615">
        <ele>1211.609</ele>
        <time>2021-11-13T09:54:48Z</time>
      </trkpt>
      <trkpt lat="44.86879" lon="5.89608">
        <ele>1211.789</ele>
        <time>2021-11-13T09:54:52Z</time>
      </trkpt>
      <trkpt lat="44.86878" lon="5.89599">
        <ele>1211.991</ele>
        <time>2021-11-13T09:55:00Z</time>
      </trkpt>
      <trkpt lat="44.86879" lon="5.8959">
        <ele>1212.369</ele>
        <time>2021-11-13T09:55:07Z</time>
      </trkpt>
      <trkpt lat="44.86879" lon="5.89589">
        <ele>1212.447</ele>
        <time>2021-11-13T09:55:08Z</time>
      </trkpt>
      <trkpt lat="44.86879" lon="5.89588">
        <ele>1212.462</ele>
        <time>2021-11-13T09:55:09Z</time>
      </trkpt>
      <trkpt lat="44.86879" lon="5.89584">
        <ele>1211.262</ele>
        <time>2021-11-13T09:55:12Z</time>
      </trkpt>
      <trkpt lat="44.8688" lon="5.89582">
        <ele>1210.874</ele>
        <time>2021-11-13T09:55:13Z</time>
      </trkpt>
      <trkpt lat="44.8688" lon="5.89577">
        <ele>1211.693</ele>
        <time>2021-11-13T09:55:16Z</time>
      </trkpt>
      <trkpt lat="44.86881" lon="5.89574">
        <ele>1211.659</ele>
        <time>2021-11-13T09:55:18Z</time>
      </trkpt>
      <trkpt lat="44.86882" lon="5.89572">
        <ele>1211.566</ele>
        <time>2021-11-13T09:55:19Z</time>
      </trkpt>
      <trkpt lat="44.86903" lon="5.89505">
        <ele>1209.544</ele>
        <time>2021-11-13T09:56:06Z</time>
      </trkpt>
      <trkpt lat="44.86909" lon="5.89498">
        <ele>1208.86</ele>
        <time>2021-11-13T09:56:16Z</time>
      </trkpt>
      <trkpt lat="44.86916" lon="5.89489">
        <ele>1208.463</ele>
        <time>2021-11-13T09:56:24Z</time>
      </trkpt>
      <trkpt lat="44.86919" lon="5.89478">
        <ele>1206.253</ele>
        <time>2021-11-13T09:56:33Z</time>
      </trkpt>
      <trkpt lat="44.8692" lon="5.89478">
        <ele>1206.343</ele>
        <time>2021-11-13T09:56:34Z</time>
      </trkpt>
      <trkpt lat="44.86923" lon="5.89474">
        <ele>1206.542</ele>
        <time>2021-11-13T09:56:38Z</time>
      </trkpt>
      <trkpt lat="44.86924" lon="5.89473">
        <ele>1206.151</ele>
        <time>2021-11-13T09:56:39Z</time>
      </trkpt>
      <trkpt lat="44.86935" lon="5.89466">
        <ele>1204.214</ele>
        <time>2021-11-13T09:56:50Z</time>
      </trkpt>
      <trkpt lat="44.86936" lon="5.89466">
        <ele>1203.996</ele>
        <time>2021-11-13T09:56:52Z</time>
      </trkpt>
      <trkpt lat="44.86937" lon="5.89465">
        <ele>1203.779</ele>
        <time>2021-11-13T09:56:53Z</time>
      </trkpt>
      <trkpt lat="44.86939" lon="5.89461">
        <ele>1204.078</ele>
        <time>2021-11-13T09:56:57Z</time>
      </trkpt>
      <trkpt lat="44.86949" lon="5.89447">
        <ele>1204.357</ele>
        <time>2021-11-13T09:57:12Z</time>
      </trkpt>
      <trkpt lat="44.86969" lon="5.89431">
        <ele>1204.855</ele>
        <time>2021-11-13T09:57:33Z</time>
      </trkpt>
      <trkpt lat="44.86985" lon="5.89421">
        <ele>1202.843</ele>
        <time>2021-11-13T09:57:49Z</time>
      </trkpt>
      <trkpt lat="44.87" lon="5.89412">
        <ele>1201.438</ele>
        <time>2021-11-13T09:58:06Z</time>
      </trkpt>
      <trkpt lat="44.87001" lon="5.89412">
        <ele>1201.653</ele>
        <time>2021-11-13T09:58:07Z</time>
      </trkpt>
      <trkpt lat="44.87001" lon="5.89412">
        <ele>1201.835</ele>
        <time>2021-11-13T09:58:08Z</time>
      </trkpt>
      <trkpt lat="44.87001" lon="5.89411">
        <ele>1201.953</ele>
        <time>2021-11-13T09:58:09Z</time>
      </trkpt>
      <trkpt lat="44.87012" lon="5.894">
        <ele>1203.461</ele>
        <time>2021-11-13T09:58:22Z</time>
      </trkpt>
      <trkpt lat="44.87014" lon="5.89398">
        <ele>1203.693</ele>
        <time>2021-11-13T09:58:24Z</time>
      </trkpt>
      <trkpt lat="44.87017" lon="5.89395">
        <ele>1203.812</ele>
        <time>2021-11-13T09:58:28Z</time>
      </trkpt>
      <trkpt lat="44.87018" lon="5.89395">
        <ele>1203.377</ele>
        <time>2021-11-13T09:58:29Z</time>
      </trkpt>
      <trkpt lat="44.8702" lon="5.89394">
        <ele>1202.896</ele>
        <time>2021-11-13T09:58:32Z</time>
      </trkpt>
      <trkpt lat="44.87021" lon="5.89393">
        <ele>1203.353</ele>
        <time>2021-11-13T09:58:33Z</time>
      </trkpt>
      <trkpt lat="44.87022" lon="5.89393">
        <ele>1203.157</ele>
        <time>2021-11-13T09:58:35Z</time>
      </trkpt>
      <trkpt lat="44.87023" lon="5.89392">
        <ele>1202.917</ele>
        <time>2021-11-13T09:58:37Z</time>
      </trkpt>
      <trkpt lat="44.87023" lon="5.89392">
        <ele>1202.917</ele>
        <time>2021-11-13T09:58:37Z</time>
      </trkpt>
      <trkpt lat="44.87024" lon="5.89392">
        <ele>1202.58</ele>
        <time>2021-11-13T09:58:38Z</time>
      </trkpt>
      <trkpt lat="44.87027" lon="5.89389">
        <ele>1202.585</ele>
        <time>2021-11-13T09:58:41Z</time>
      </trkpt>
      <trkpt lat="44.87027" lon="5.89389">
        <ele>1202.259</ele>
        <time>2021-11-13T09:58:42Z</time>
      </trkpt>
      <trkpt lat="44.87028" lon="5.89389">
        <ele>1202.101</ele>
        <time>2021-11-13T09:58:43Z</time>
      </trkpt>
      <trkpt lat="44.87031" lon="5.89387">
        <ele>1202.708</ele>
        <time>2021-11-13T09:58:47Z</time>
      </trkpt>
      <trkpt lat="44.87031" lon="5.89386">
        <ele>1202.443</ele>
        <time>2021-11-13T09:58:48Z</time>
      </trkpt>
      <trkpt lat="44.87034" lon="5.89382">
        <ele>1202.385</ele>
        <time>2021-11-13T09:58:52Z</time>
      </trkpt>
      <trkpt lat="44.87035" lon="5.89381">
        <ele>1202.404</ele>
        <time>2021-11-13T09:58:53Z</time>
      </trkpt>
      <trkpt lat="44.87036" lon="5.89377">
        <ele>1203.271</ele>
        <time>2021-11-13T09:58:56Z</time>
      </trkpt>
      <trkpt lat="44.87037" lon="5.89375">
        <ele>1203.566</ele>
        <time>2021-11-13T09:58:58Z</time>
      </trkpt>
      <trkpt lat="44.87037" lon="5.89374">
        <ele>1203.91</ele>
        <time>2021-11-13T09:58:59Z</time>
      </trkpt>
      <trkpt lat="44.87037" lon="5.89373">
        <ele>1203.838</ele>
        <time>2021-11-13T09:59:00Z</time>
      </trkpt>
      <trkpt lat="44.87037" lon="5.89372">
        <ele>1203.658</ele>
        <time>2021-11-13T09:59:01Z</time>
      </trkpt>
      <trkpt lat="44.87035" lon="5.8937">
        <ele>1203.574</ele>
        <time>2021-11-13T09:59:03Z</time>
      </trkpt>
      <trkpt lat="44.87033" lon="5.89367">
        <ele>1203.603</ele>
        <time>2021-11-13T09:59:06Z</time>
      </trkpt>
      <trkpt lat="44.87032" lon="5.89365">
        <ele>1204.47</ele>
        <time>2021-11-13T09:59:08Z</time>
      </trkpt>
      <trkpt lat="44.87032" lon="5.89365">
        <ele>1204.47</ele>
        <time>2021-11-13T09:59:08Z</time>
      </trkpt>
      <trkpt lat="44.87031" lon="5.89364">
        <ele>1204.431</ele>
        <time>2021-11-13T09:59:09Z</time>
      </trkpt>
      <trkpt lat="44.87029" lon="5.89361">
        <ele>1204.739</ele>
        <time>2021-11-13T09:59:12Z</time>
      </trkpt>
      <trkpt lat="44.87027" lon="5.89359">
        <ele>1205.259</ele>
        <time>2021-11-13T09:59:15Z</time>
      </trkpt>
      <trkpt lat="44.87026" lon="5.89358">
        <ele>1205.178</ele>
        <time>2021-11-13T09:59:16Z</time>
      </trkpt>
      <trkpt lat="44.87024" lon="5.89357">
        <ele>1204.703</ele>
        <time>2021-11-13T09:59:18Z</time>
      </trkpt>
      <trkpt lat="44.87022" lon="5.89354">
        <ele>1204.162</ele>
        <time>2021-11-13T09:59:21Z</time>
      </trkpt>
      <trkpt lat="44.87017" lon="5.89345">
        <ele>1204.847</ele>
        <time>2021-11-13T09:59:27Z</time>
      </trkpt>
      <trkpt lat="44.87016" lon="5.89344">
        <ele>1205.101</ele>
        <time>2021-11-13T09:59:28Z</time>
      </trkpt>
      <trkpt lat="44.87013" lon="5.89342">
        <ele>1205.549</ele>
        <time>2021-11-13T09:59:32Z</time>
      </trkpt>
      <trkpt lat="44.87012" lon="5.89341">
        <ele>1205.685</ele>
        <time>2021-11-13T09:59:33Z</time>
      </trkpt>
      <trkpt lat="44.87011" lon="5.89341">
        <ele>1205.833</ele>
        <time>2021-11-13T09:59:34Z</time>
      </trkpt>
      <trkpt lat="44.87009" lon="5.89341">
        <ele>1205.258</ele>
        <time>2021-11-13T09:59:38Z</time>
      </trkpt>
      <trkpt lat="44.87006" lon="5.89339">
        <ele>1205.145</ele>
        <time>2021-11-13T09:59:42Z</time>
      </trkpt>
      <trkpt lat="44.87003" lon="5.89336">
        <ele>1205.345</ele>
        <time>2021-11-13T09:59:46Z</time>
      </trkpt>
      <trkpt lat="44.87003" lon="5.89335">
        <ele>1205.135</ele>
        <time>2021-11-13T09:59:47Z</time>
      </trkpt>
      <trkpt lat="44.87002" lon="5.89335">
        <ele>1205.017</ele>
        <time>2021-11-13T09:59:48Z</time>
      </trkpt>
      <trkpt lat="44.87001" lon="5.89334">
        <ele>1204.844</ele>
        <time>2021-11-13T09:59:49Z</time>
      </trkpt>
      <trkpt lat="44.86999" lon="5.89332">
        <ele>1204.379</ele>
        <time>2021-11-13T09:59:52Z</time>
      </trkpt>
      <trkpt lat="44.86996" lon="5.89331">
        <ele>1204.509</ele>
        <time>2021-11-13T09:59:55Z</time>
      </trkpt>
      <trkpt lat="44.86996" lon="5.89331">
        <ele>1204.611</ele>
        <time>2021-11-13T09:59:56Z</time>
      </trkpt>
      <trkpt lat="44.86994" lon="5.8933">
        <ele>1204.353</ele>
        <time>2021-11-13T09:59:58Z</time>
      </trkpt>
      <trkpt lat="44.8699" lon="5.89327">
        <ele>1204.313</ele>
        <time>2021-11-13T10:00:03Z</time>
      </trkpt>
      <trkpt lat="44.8699" lon="5.89326">
        <ele>1204.03</ele>
        <time>2021-11-13T10:00:04Z</time>
      </trkpt>
      <trkpt lat="44.86986" lon="5.89324">
        <ele>1206.123</ele>
        <time>2021-11-13T10:00:08Z</time>
      </trkpt>
      <trkpt lat="44.86983" lon="5.89324">
        <ele>1206.793</ele>
        <time>2021-11-13T10:00:12Z</time>
      </trkpt>
      <trkpt lat="44.86982" lon="5.89323">
        <ele>1206.878</ele>
        <time>2021-11-13T10:00:13Z</time>
      </trkpt>
      <trkpt lat="44.86978" lon="5.89322">
        <ele>1206.866</ele>
        <time>2021-11-13T10:00:17Z</time>
      </trkpt>
      <trkpt lat="44.86976" lon="5.89319">
        <ele>1206.134</ele>
        <time>2021-11-13T10:00:22Z</time>
      </trkpt>
      <trkpt lat="44.86973" lon="5.89319">
        <ele>1207.263</ele>
        <time>2021-11-13T10:00:27Z</time>
      </trkpt>
      <trkpt lat="44.86973" lon="5.89319">
        <ele>1206.683</ele>
        <time>2021-11-13T10:00:28Z</time>
      </trkpt>
      <trkpt lat="44.86972" lon="5.89318">
        <ele>1206.839</ele>
        <time>2021-11-13T10:00:29Z</time>
      </trkpt>
      <trkpt lat="44.86971" lon="5.89317">
        <ele>1206.655</ele>
        <time>2021-11-13T10:00:30Z</time>
      </trkpt>
      <trkpt lat="44.8697" lon="5.89316">
        <ele>1206.493</ele>
        <time>2021-11-13T10:00:31Z</time>
      </trkpt>
      <trkpt lat="44.8697" lon="5.89316">
        <ele>1206.685</ele>
        <time>2021-11-13T10:00:32Z</time>
      </trkpt>
      <trkpt lat="44.8697" lon="5.89316">
        <ele>1206.685</ele>
        <time>2021-11-13T10:00:32Z</time>
      </trkpt>
      <trkpt lat="44.86969" lon="5.89314">
        <ele>1206.631</ele>
        <time>2021-11-13T10:00:33Z</time>
      </trkpt>
      <trkpt lat="44.86967" lon="5.89312">
        <ele>1205.646</ele>
        <time>2021-11-13T10:00:38Z</time>
      </trkpt>
      <trkpt lat="44.86966" lon="5.89312">
        <ele>1206.275</ele>
        <time>2021-11-13T10:00:40Z</time>
      </trkpt>
      <trkpt lat="44.86966" lon="5.89312">
        <ele>1206.275</ele>
        <time>2021-11-13T10:00:40Z</time>
      </trkpt>
      <trkpt lat="44.86965" lon="5.8931">
        <ele>1206.108</ele>
        <time>2021-11-13T10:00:41Z</time>
      </trkpt>
      <trkpt lat="44.86965" lon="5.8931">
        <ele>1206.108</ele>
        <time>2021-11-13T10:00:41Z</time>
      </trkpt>
      <trkpt lat="44.86964" lon="5.8931">
        <ele>1206.298</ele>
        <time>2021-11-13T10:00:42Z</time>
      </trkpt>
      <trkpt lat="44.86963" lon="5.89308">
        <ele>1206.815</ele>
        <time>2021-11-13T10:00:44Z</time>
      </trkpt>
      <trkpt lat="44.86962" lon="5.89307">
        <ele>1206.983</ele>
        <time>2021-11-13T10:00:46Z</time>
      </trkpt>
      <trkpt lat="44.86959" lon="5.89305">
        <ele>1206.694</ele>
        <time>2021-11-13T10:00:50Z</time>
      </trkpt>
      <trkpt lat="44.86959" lon="5.89305">
        <ele>1206.967</ele>
        <time>2021-11-13T10:00:51Z</time>
      </trkpt>
      <trkpt lat="44.86958" lon="5.89304">
        <ele>1206.876</ele>
        <time>2021-11-13T10:00:52Z</time>
      </trkpt>
      <trkpt lat="44.86957" lon="5.89303">
        <ele>1207.524</ele>
        <time>2021-11-13T10:00:54Z</time>
      </trkpt>
      <trkpt lat="44.86956" lon="5.89303">
        <ele>1207.325</ele>
        <time>2021-11-13T10:00:56Z</time>
      </trkpt>
      <trkpt lat="44.86955" lon="5.89302">
        <ele>1207.652</ele>
        <time>2021-11-13T10:00:57Z</time>
      </trkpt>
      <trkpt lat="44.86955" lon="5.89302">
        <ele>1207.951</ele>
        <time>2021-11-13T10:00:59Z</time>
      </trkpt>
      <trkpt lat="44.86955" lon="5.89302">
        <ele>1207.868</ele>
        <time>2021-11-13T10:01:00Z</time>
      </trkpt>
      <trkpt lat="44.86954" lon="5.893">
        <ele>1208.19</ele>
        <time>2021-11-13T10:01:01Z</time>
      </trkpt>
      <trkpt lat="44.86953" lon="5.89297">
        <ele>1208.409</ele>
        <time>2021-11-13T10:01:05Z</time>
      </trkpt>
      <trkpt lat="44.86953" lon="5.89297">
        <ele>1208.409</ele>
        <time>2021-11-13T10:01:05Z</time>
      </trkpt>
      <trkpt lat="44.86952" lon="5.89296">
        <ele>1208.586</ele>
        <time>2021-11-13T10:01:06Z</time>
      </trkpt>
      <trkpt lat="44.86951" lon="5.89295">
        <ele>1209.957</ele>
        <time>2021-11-13T10:01:09Z</time>
      </trkpt>
      <trkpt lat="44.86951" lon="5.89295">
        <ele>1209.957</ele>
        <time>2021-11-13T10:01:09Z</time>
      </trkpt>
      <trkpt lat="44.8695" lon="5.89294">
        <ele>1210.277</ele>
        <time>2021-11-13T10:01:10Z</time>
      </trkpt>
      <trkpt lat="44.86949" lon="5.89293">
        <ele>1209.898</ele>
        <time>2021-11-13T10:01:12Z</time>
      </trkpt>
      <trkpt lat="44.86949" lon="5.89292">
        <ele>1210.096</ele>
        <time>2021-11-13T10:01:13Z</time>
      </trkpt>
      <trkpt lat="44.86948" lon="5.89289">
        <ele>1210.583</ele>
        <time>2021-11-13T10:01:16Z</time>
      </trkpt>
      <trkpt lat="44.86947" lon="5.89288">
        <ele>1210.571</ele>
        <time>2021-11-13T10:01:17Z</time>
      </trkpt>
      <trkpt lat="44.86946" lon="5.89287">
        <ele>1210.777</ele>
        <time>2021-11-13T10:01:18Z</time>
      </trkpt>
      <trkpt lat="44.86945" lon="5.89284">
        <ele>1210.534</ele>
        <time>2021-11-13T10:01:21Z</time>
      </trkpt>
      <trkpt lat="44.86945" lon="5.89284">
        <ele>1210.375</ele>
        <time>2021-11-13T10:01:23Z</time>
      </trkpt>
      <trkpt lat="44.86945" lon="5.89284">
        <ele>1210.296</ele>
        <time>2021-11-13T10:01:24Z</time>
      </trkpt>
      <trkpt lat="44.86945" lon="5.89284">
        <ele>1210.561</ele>
        <time>2021-11-13T10:01:29Z</time>
      </trkpt>
      <trkpt lat="44.86945" lon="5.89285">
        <ele>1210.228</ele>
        <time>2021-11-13T10:01:30Z</time>
      </trkpt>
      <trkpt lat="44.86945" lon="5.89285">
        <ele>1210.205</ele>
        <time>2021-11-13T10:01:31Z</time>
      </trkpt>
      <trkpt lat="44.86945" lon="5.89285">
        <ele>1210.202</ele>
        <time>2021-11-13T10:01:33Z</time>
      </trkpt>
      <trkpt lat="44.86945" lon="5.89287">
        <ele>1210.274</ele>
        <time>2021-11-13T10:01:34Z</time>
      </trkpt>
      <trkpt lat="44.86944" lon="5.89287">
        <ele>1209.969</ele>
        <time>2021-11-13T10:01:37Z</time>
      </trkpt>
      <trkpt lat="44.86944" lon="5.89287">
        <ele>1209.022</ele>
        <time>2021-11-13T10:01:53Z</time>
      </trkpt>
      <trkpt lat="44.86944" lon="5.89288">
        <ele>1208.044</ele>
        <time>2021-11-13T10:01:54Z</time>
      </trkpt>
      <trkpt lat="44.86945" lon="5.89288">
        <ele>1207.837</ele>
        <time>2021-11-13T10:01:57Z</time>
      </trkpt>
      <trkpt lat="44.86945" lon="5.89288">
        <ele>1207.837</ele>
        <time>2021-11-13T10:01:57Z</time>
      </trkpt>
      <trkpt lat="44.86945" lon="5.89287">
        <ele>1207.512</ele>
        <time>2021-11-13T10:01:58Z</time>
      </trkpt>
      <trkpt lat="44.86944" lon="5.89287">
        <ele>1208.183</ele>
        <time>2021-11-13T10:02:00Z</time>
      </trkpt>
      <trkpt lat="44.86944" lon="5.89287">
        <ele>1208.183</ele>
        <time>2021-11-13T10:02:00Z</time>
      </trkpt>
      <trkpt lat="44.86944" lon="5.89286">
        <ele>1207.748</ele>
        <time>2021-11-13T10:02:01Z</time>
      </trkpt>
      <trkpt lat="44.86944" lon="5.89285">
        <ele>1208.046</ele>
        <time>2021-11-13T10:02:03Z</time>
      </trkpt>
      <trkpt lat="44.86944" lon="5.89285">
        <ele>1208.046</ele>
        <time>2021-11-13T10:02:03Z</time>
      </trkpt>
      <trkpt lat="44.86943" lon="5.89284">
        <ele>1207.953</ele>
        <time>2021-11-13T10:02:04Z</time>
      </trkpt>
      <trkpt lat="44.86943" lon="5.89284">
        <ele>1207.953</ele>
        <time>2021-11-13T10:02:04Z</time>
      </trkpt>
      <trkpt lat="44.86943" lon="5.89284">
        <ele>1207.95</ele>
        <time>2021-11-13T10:02:05Z</time>
      </trkpt>
      <trkpt lat="44.86943" lon="5.89284">
        <ele>1207.998</ele>
        <time>2021-11-13T10:02:15Z</time>
      </trkpt>
      <trkpt lat="44.86942" lon="5.89283">
        <ele>1208.089</ele>
        <time>2021-11-13T10:02:16Z</time>
      </trkpt>
      <trkpt lat="44.86942" lon="5.89283">
        <ele>1208.089</ele>
        <time>2021-11-13T10:02:16Z</time>
      </trkpt>
      <trkpt lat="44.86942" lon="5.89283">
        <ele>1208.078</ele>
        <time>2021-11-13T10:02:17Z</time>
      </trkpt>
      <trkpt lat="44.86942" lon="5.89283">
        <ele>1208.082</ele>
        <time>2021-11-13T10:02:18Z</time>
      </trkpt>
      <trkpt lat="44.86941" lon="5.89282">
        <ele>1208.489</ele>
        <time>2021-11-13T10:02:19Z</time>
      </trkpt>
      <trkpt lat="44.8694" lon="5.89282">
        <ele>1209.121</ele>
        <time>2021-11-13T10:02:20Z</time>
      </trkpt>
      <trkpt lat="44.8694" lon="5.89282">
        <ele>1209.772</ele>
        <time>2021-11-13T10:02:21Z</time>
      </trkpt>
      <trkpt lat="44.8694" lon="5.89283">
        <ele>1209.871</ele>
        <time>2021-11-13T10:02:23Z</time>
      </trkpt>
      <trkpt lat="44.8694" lon="5.89283">
        <ele>1209.871</ele>
        <time>2021-11-13T10:02:23Z</time>
      </trkpt>
      <trkpt lat="44.8694" lon="5.89284">
        <ele>1209.705</ele>
        <time>2021-11-13T10:02:24Z</time>
      </trkpt>
      <trkpt lat="44.8694" lon="5.89284">
        <ele>1209.694</ele>
        <time>2021-11-13T10:02:25Z</time>
      </trkpt>
      <trkpt lat="44.8694" lon="5.89284">
        <ele>1210.148</ele>
        <time>2021-11-13T10:03:20Z</time>
      </trkpt>
      <trkpt lat="44.8694" lon="5.89284">
        <ele>1210.461</ele>
        <time>2021-11-13T10:03:21Z</time>
      </trkpt>
      <trkpt lat="44.86941" lon="5.89283">
        <ele>1209.488</ele>
        <time>2021-11-13T10:03:24Z</time>
      </trkpt>
      <trkpt lat="44.86941" lon="5.89283">
        <ele>1209.418</ele>
        <time>2021-11-13T10:03:25Z</time>
      </trkpt>
      <trkpt lat="44.86941" lon="5.89283">
        <ele>1208.982</ele>
        <time>2021-11-13T10:03:26Z</time>
      </trkpt>
      <trkpt lat="44.8694" lon="5.89282">
        <ele>1208.957</ele>
        <time>2021-11-13T10:03:27Z</time>
      </trkpt>
      <trkpt lat="44.86939" lon="5.89281">
        <ele>1211.947</ele>
        <time>2021-11-13T10:03:31Z</time>
      </trkpt>
      <trkpt lat="44.86939" lon="5.8928">
        <ele>1212.509</ele>
        <time>2021-11-13T10:03:32Z</time>
      </trkpt>
      <trkpt lat="44.86937" lon="5.89277">
        <ele>1211.616</ele>
        <time>2021-11-13T10:03:36Z</time>
      </trkpt>
      <trkpt lat="44.86935" lon="5.89274">
        <ele>1210.889</ele>
        <time>2021-11-13T10:03:40Z</time>
      </trkpt>
      <trkpt lat="44.86935" lon="5.89273">
        <ele>1211.756</ele>
        <time>2021-11-13T10:03:41Z</time>
      </trkpt>
      <trkpt lat="44.86933" lon="5.89269">
        <ele>1212.031</ele>
        <time>2021-11-13T10:03:46Z</time>
      </trkpt>
      <trkpt lat="44.86933" lon="5.89269">
        <ele>1211.978</ele>
        <time>2021-11-13T10:03:47Z</time>
      </trkpt>
      <trkpt lat="44.86931" lon="5.89266">
        <ele>1214.215</ele>
        <time>2021-11-13T10:03:52Z</time>
      </trkpt>
      <trkpt lat="44.8693" lon="5.89264">
        <ele>1214.542</ele>
        <time>2021-11-13T10:03:55Z</time>
      </trkpt>
      <trkpt lat="44.8693" lon="5.89264">
        <ele>1214.542</ele>
        <time>2021-11-13T10:03:55Z</time>
      </trkpt>
      <trkpt lat="44.86929" lon="5.89264">
        <ele>1214.683</ele>
        <time>2021-11-13T10:03:56Z</time>
      </trkpt>
      <trkpt lat="44.86928" lon="5.89262">
        <ele>1216.329</ele>
        <time>2021-11-13T10:04:00Z</time>
      </trkpt>
      <trkpt lat="44.86928" lon="5.89262">
        <ele>1216.206</ele>
        <time>2021-11-13T10:04:01Z</time>
      </trkpt>
      <trkpt lat="44.86927" lon="5.8926">
        <ele>1215.89</ele>
        <time>2021-11-13T10:04:02Z</time>
      </trkpt>
      <trkpt lat="44.86925" lon="5.89259">
        <ele>1216.625</ele>
        <time>2021-11-13T10:04:06Z</time>
      </trkpt>
      <trkpt lat="44.86925" lon="5.89259">
        <ele>1216.625</ele>
        <time>2021-11-13T10:04:06Z</time>
      </trkpt>
      <trkpt lat="44.86924" lon="5.89258">
        <ele>1216.849</ele>
        <time>2021-11-13T10:04:07Z</time>
      </trkpt>
      <trkpt lat="44.86924" lon="5.89258">
        <ele>1216.934</ele>
        <time>2021-11-13T10:04:08Z</time>
      </trkpt>
      <trkpt lat="44.86924" lon="5.89258">
        <ele>1216.934</ele>
        <time>2021-11-13T10:04:08Z</time>
      </trkpt>
      <trkpt lat="44.86924" lon="5.89257">
        <ele>1217.477</ele>
        <time>2021-11-13T10:04:09Z</time>
      </trkpt>
      <trkpt lat="44.86923" lon="5.89256">
        <ele>1217.701</ele>
        <time>2021-11-13T10:04:10Z</time>
      </trkpt>
      <trkpt lat="44.86922" lon="5.89254">
        <ele>1218.511</ele>
        <time>2021-11-13T10:04:12Z</time>
      </trkpt>
      <trkpt lat="44.8692" lon="5.89252">
        <ele>1218.792</ele>
        <time>2021-11-13T10:04:15Z</time>
      </trkpt>
      <trkpt lat="44.8692" lon="5.89252">
        <ele>1218.277</ele>
        <time>2021-11-13T10:04:17Z</time>
      </trkpt>
      <trkpt lat="44.8692" lon="5.89252">
        <ele>1217.734</ele>
        <time>2021-11-13T10:04:18Z</time>
      </trkpt>
      <trkpt lat="44.8692" lon="5.89252">
        <ele>1217.751</ele>
        <time>2021-11-13T10:04:19Z</time>
      </trkpt>
      <trkpt lat="44.8692" lon="5.89252">
        <ele>1217.757</ele>
        <time>2021-11-13T10:04:26Z</time>
      </trkpt>
      <trkpt lat="44.86919" lon="5.89251">
        <ele>1218.122</ele>
        <time>2021-11-13T10:04:28Z</time>
      </trkpt>
      <trkpt lat="44.86918" lon="5.8925">
        <ele>1218.443</ele>
        <time>2021-11-13T10:04:30Z</time>
      </trkpt>
      <trkpt lat="44.86918" lon="5.89249">
        <ele>1218.296</ele>
        <time>2021-11-13T10:04:31Z</time>
      </trkpt>
      <trkpt lat="44.86917" lon="5.89248">
        <ele>1217.548</ele>
        <time>2021-11-13T10:04:32Z</time>
      </trkpt>
      <trkpt lat="44.86917" lon="5.89248">
        <ele>1217.174</ele>
        <time>2021-11-13T10:04:33Z</time>
      </trkpt>
      <trkpt lat="44.86916" lon="5.89247">
        <ele>1217.189</ele>
        <time>2021-11-13T10:04:34Z</time>
      </trkpt>
      <trkpt lat="44.86915" lon="5.89243">
        <ele>1218.196</ele>
        <time>2021-11-13T10:04:40Z</time>
      </trkpt>
      <trkpt lat="44.86914" lon="5.89241">
        <ele>1218.543</ele>
        <time>2021-11-13T10:04:42Z</time>
      </trkpt>
      <trkpt lat="44.86913" lon="5.89239">
        <ele>1219.087</ele>
        <time>2021-11-13T10:04:45Z</time>
      </trkpt>
      <trkpt lat="44.86913" lon="5.89237">
        <ele>1219.955</ele>
        <time>2021-11-13T10:04:47Z</time>
      </trkpt>
      <trkpt lat="44.86913" lon="5.89237">
        <ele>1220.115</ele>
        <time>2021-11-13T10:04:48Z</time>
      </trkpt>
      <trkpt lat="44.86913" lon="5.89237">
        <ele>1220.115</ele>
        <time>2021-11-13T10:04:48Z</time>
      </trkpt>
      <trkpt lat="44.86912" lon="5.89236">
        <ele>1220.148</ele>
        <time>2021-11-13T10:04:49Z</time>
      </trkpt>
      <trkpt lat="44.86912" lon="5.89235">
        <ele>1220.149</ele>
        <time>2021-11-13T10:04:50Z</time>
      </trkpt>
      <trkpt lat="44.8691" lon="5.89232">
        <ele>1221.544</ele>
        <time>2021-11-13T10:04:53Z</time>
      </trkpt>
      <trkpt lat="44.8691" lon="5.89231">
        <ele>1220.894</ele>
        <time>2021-11-13T10:04:55Z</time>
      </trkpt>
      <trkpt lat="44.86909" lon="5.89227">
        <ele>1220.838</ele>
        <time>2021-11-13T10:05:00Z</time>
      </trkpt>
      <trkpt lat="44.86907" lon="5.89223">
        <ele>1221.99</ele>
        <time>2021-11-13T10:05:05Z</time>
      </trkpt>
      <trkpt lat="44.86906" lon="5.89221">
        <ele>1222.188</ele>
        <time>2021-11-13T10:05:08Z</time>
      </trkpt>
      <trkpt lat="44.86905" lon="5.8922">
        <ele>1222.161</ele>
        <time>2021-11-13T10:05:10Z</time>
      </trkpt>
      <trkpt lat="44.86905" lon="5.89219">
        <ele>1222.475</ele>
        <time>2021-11-13T10:05:13Z</time>
      </trkpt>
      <trkpt lat="44.86905" lon="5.89219">
        <ele>1222.475</ele>
        <time>2021-11-13T10:05:13Z</time>
      </trkpt>
      <trkpt lat="44.86904" lon="5.89219">
        <ele>1222.183</ele>
        <time>2021-11-13T10:05:14Z</time>
      </trkpt>
      <trkpt lat="44.86903" lon="5.8922">
        <ele>1221.598</ele>
        <time>2021-11-13T10:05:19Z</time>
      </trkpt>
      <trkpt lat="44.86903" lon="5.89219">
        <ele>1221.798</ele>
        <time>2021-11-13T10:05:20Z</time>
      </trkpt>
      <trkpt lat="44.86901" lon="5.89216">
        <ele>1222.132</ele>
        <time>2021-11-13T10:05:23Z</time>
      </trkpt>
      <trkpt lat="44.86901" lon="5.89216">
        <ele>1222.491</ele>
        <time>2021-11-13T10:05:24Z</time>
      </trkpt>
      <trkpt lat="44.86901" lon="5.89215">
        <ele>1222.668</ele>
        <time>2021-11-13T10:05:25Z</time>
      </trkpt>
      <trkpt lat="44.869" lon="5.89213">
        <ele>1222.721</ele>
        <time>2021-11-13T10:05:27Z</time>
      </trkpt>
      <trkpt lat="44.869" lon="5.89212">
        <ele>1222.887</ele>
        <time>2021-11-13T10:05:29Z</time>
      </trkpt>
      <trkpt lat="44.869" lon="5.89212">
        <ele>1222.887</ele>
        <time>2021-11-13T10:05:29Z</time>
      </trkpt>
      <trkpt lat="44.86899" lon="5.89211">
        <ele>1222.874</ele>
        <time>2021-11-13T10:05:30Z</time>
      </trkpt>
      <trkpt lat="44.86899" lon="5.8921">
        <ele>1223.064</ele>
        <time>2021-11-13T10:05:31Z</time>
      </trkpt>
      <trkpt lat="44.86898" lon="5.89208">
        <ele>1223.467</ele>
        <time>2021-11-13T10:05:33Z</time>
      </trkpt>
      <trkpt lat="44.86898" lon="5.89207">
        <ele>1223.606</ele>
        <time>2021-11-13T10:05:35Z</time>
      </trkpt>
      <trkpt lat="44.86898" lon="5.89206">
        <ele>1223.746</ele>
        <time>2021-11-13T10:05:36Z</time>
      </trkpt>
      <trkpt lat="44.86898" lon="5.89205">
        <ele>1223.67</ele>
        <time>2021-11-13T10:05:37Z</time>
      </trkpt>
      <trkpt lat="44.86897" lon="5.89201">
        <ele>1224.276</ele>
        <time>2021-11-13T10:05:43Z</time>
      </trkpt>
      <trkpt lat="44.86896" lon="5.892">
        <ele>1224.06</ele>
        <time>2021-11-13T10:05:46Z</time>
      </trkpt>
      <trkpt lat="44.86896" lon="5.89201">
        <ele>1223.711</ele>
        <time>2021-11-13T10:05:48Z</time>
      </trkpt>
      <trkpt lat="44.86896" lon="5.89201">
        <ele>1223.711</ele>
        <time>2021-11-13T10:05:48Z</time>
      </trkpt>
      <trkpt lat="44.86895" lon="5.89201">
        <ele>1223.359</ele>
        <time>2021-11-13T10:05:49Z</time>
      </trkpt>
      <trkpt lat="44.86895" lon="5.89201">
        <ele>1223.251</ele>
        <time>2021-11-13T10:05:50Z</time>
      </trkpt>
      <trkpt lat="44.86894" lon="5.892">
        <ele>1223.702</ele>
        <time>2021-11-13T10:05:51Z</time>
      </trkpt>
      <trkpt lat="44.86893" lon="5.89197">
        <ele>1224.023</ele>
        <time>2021-11-13T10:05:54Z</time>
      </trkpt>
      <trkpt lat="44.86893" lon="5.89196">
        <ele>1224.05</ele>
        <time>2021-11-13T10:05:55Z</time>
      </trkpt>
      <trkpt lat="44.86891" lon="5.89192">
        <ele>1225.772</ele>
        <time>2021-11-13T10:05:59Z</time>
      </trkpt>
      <trkpt lat="44.86889" lon="5.89189">
        <ele>1226.496</ele>
        <time>2021-11-13T10:06:02Z</time>
      </trkpt>
      <trkpt lat="44.86888" lon="5.89187">
        <ele>1227.364</ele>
        <time>2021-11-13T10:06:06Z</time>
      </trkpt>
      <trkpt lat="44.86887" lon="5.89187">
        <ele>1228.597</ele>
        <time>2021-11-13T10:06:09Z</time>
      </trkpt>
      <trkpt lat="44.86887" lon="5.89186">
        <ele>1228.999</ele>
        <time>2021-11-13T10:06:10Z</time>
      </trkpt>
      <trkpt lat="44.86886" lon="5.89185">
        <ele>1229.387</ele>
        <time>2021-11-13T10:06:13Z</time>
      </trkpt>
      <trkpt lat="44.86885" lon="5.89184">
        <ele>1229.837</ele>
        <time>2021-11-13T10:06:14Z</time>
      </trkpt>
      <trkpt lat="44.86884" lon="5.89182">
        <ele>1231.118</ele>
        <time>2021-11-13T10:06:17Z</time>
      </trkpt>
      <trkpt lat="44.86884" lon="5.89182">
        <ele>1232.217</ele>
        <time>2021-11-13T10:06:18Z</time>
      </trkpt>
      <trkpt lat="44.86884" lon="5.89182">
        <ele>1232.217</ele>
        <time>2021-11-13T10:06:18Z</time>
      </trkpt>
      <trkpt lat="44.86884" lon="5.89181">
        <ele>1232.045</ele>
        <time>2021-11-13T10:06:19Z</time>
      </trkpt>
      <trkpt lat="44.86884" lon="5.8918">
        <ele>1233.055</ele>
        <time>2021-11-13T10:06:23Z</time>
      </trkpt>
      <trkpt lat="44.86883" lon="5.89179">
        <ele>1233.338</ele>
        <time>2021-11-13T10:06:24Z</time>
      </trkpt>
      <trkpt lat="44.86881" lon="5.89178">
        <ele>1234.605</ele>
        <time>2021-11-13T10:06:27Z</time>
      </trkpt>
      <trkpt lat="44.86881" lon="5.89178">
        <ele>1234.02</ele>
        <time>2021-11-13T10:06:28Z</time>
      </trkpt>
      <trkpt lat="44.86881" lon="5.89178">
        <ele>1234.053</ele>
        <time>2021-11-13T10:06:29Z</time>
      </trkpt>
      <trkpt lat="44.86879" lon="5.89176">
        <ele>1235.614</ele>
        <time>2021-11-13T10:06:32Z</time>
      </trkpt>
      <trkpt lat="44.86879" lon="5.89176">
        <ele>1236.381</ele>
        <time>2021-11-13T10:06:33Z</time>
      </trkpt>
      <trkpt lat="44.86876" lon="5.89172">
        <ele>1237.774</ele>
        <time>2021-11-13T10:06:38Z</time>
      </trkpt>
      <trkpt lat="44.86876" lon="5.8917">
        <ele>1238.158</ele>
        <time>2021-11-13T10:06:40Z</time>
      </trkpt>
      <trkpt lat="44.86874" lon="5.89165">
        <ele>1240.234</ele>
        <time>2021-11-13T10:06:48Z</time>
      </trkpt>
      <trkpt lat="44.86874" lon="5.89164">
        <ele>1240.555</ele>
        <time>2021-11-13T10:06:49Z</time>
      </trkpt>
      <trkpt lat="44.86874" lon="5.89164">
        <ele>1240.675</ele>
        <time>2021-11-13T10:06:50Z</time>
      </trkpt>
      <trkpt lat="44.86871" lon="5.89159">
        <ele>1241.656</ele>
        <time>2021-11-13T10:06:58Z</time>
      </trkpt>
      <trkpt lat="44.8687" lon="5.89158">
        <ele>1241.471</ele>
        <time>2021-11-13T10:07:00Z</time>
      </trkpt>
      <trkpt lat="44.86867" lon="5.89155">
        <ele>1242.065</ele>
        <time>2021-11-13T10:07:07Z</time>
      </trkpt>
      <trkpt lat="44.86867" lon="5.89152">
        <ele>1241.909</ele>
        <time>2021-11-13T10:07:12Z</time>
      </trkpt>
      <trkpt lat="44.86866" lon="5.89152">
        <ele>1242.535</ele>
        <time>2021-11-13T10:07:15Z</time>
      </trkpt>
      <trkpt lat="44.86866" lon="5.89152">
        <ele>1242.535</ele>
        <time>2021-11-13T10:07:15Z</time>
      </trkpt>
      <trkpt lat="44.86866" lon="5.89152">
        <ele>1242.728</ele>
        <time>2021-11-13T10:07:16Z</time>
      </trkpt>
      <trkpt lat="44.86866" lon="5.89152">
        <ele>1242.833</ele>
        <time>2021-11-13T10:07:17Z</time>
      </trkpt>
      <trkpt lat="44.86866" lon="5.89152">
        <ele>1243.128</ele>
        <time>2021-11-13T10:07:18Z</time>
      </trkpt>
      <trkpt lat="44.86865" lon="5.89148">
        <ele>1243.603</ele>
        <time>2021-11-13T10:07:23Z</time>
      </trkpt>
      <trkpt lat="44.86865" lon="5.89147">
        <ele>1243.551</ele>
        <time>2021-11-13T10:07:24Z</time>
      </trkpt>
      <trkpt lat="44.86864" lon="5.89142">
        <ele>1243.882</ele>
        <time>2021-11-13T10:07:31Z</time>
      </trkpt>
      <trkpt lat="44.86863" lon="5.89141">
        <ele>1244.076</ele>
        <time>2021-11-13T10:07:33Z</time>
      </trkpt>
      <trkpt lat="44.86862" lon="5.8914">
        <ele>1244.682</ele>
        <time>2021-11-13T10:07:37Z</time>
      </trkpt>
      <trkpt lat="44.86862" lon="5.8914">
        <ele>1244.849</ele>
        <time>2021-11-13T10:07:38Z</time>
      </trkpt>
      <trkpt lat="44.86862" lon="5.8914">
        <ele>1244.849</ele>
        <time>2021-11-13T10:07:38Z</time>
      </trkpt>
      <trkpt lat="44.86861" lon="5.89139">
        <ele>1244.97</ele>
        <time>2021-11-13T10:07:39Z</time>
      </trkpt>
      <trkpt lat="44.86861" lon="5.89139">
        <ele>1245.166</ele>
        <time>2021-11-13T10:07:40Z</time>
      </trkpt>
      <trkpt lat="44.86861" lon="5.89138">
        <ele>1244.938</ele>
        <time>2021-11-13T10:07:41Z</time>
      </trkpt>
      <trkpt lat="44.86861" lon="5.89137">
        <ele>1245.978</ele>
        <time>2021-11-13T10:07:43Z</time>
      </trkpt>
      <trkpt lat="44.86861" lon="5.89137">
        <ele>1246.515</ele>
        <time>2021-11-13T10:07:44Z</time>
      </trkpt>
      <trkpt lat="44.8686" lon="5.89136">
        <ele>1246.61</ele>
        <time>2021-11-13T10:07:45Z</time>
      </trkpt>
      <trkpt lat="44.8686" lon="5.89136">
        <ele>1246.832</ele>
        <time>2021-11-13T10:07:47Z</time>
      </trkpt>
      <trkpt lat="44.8686" lon="5.89136">
        <ele>1246.832</ele>
        <time>2021-11-13T10:07:47Z</time>
      </trkpt>
      <trkpt lat="44.8686" lon="5.89136">
        <ele>1247.028</ele>
        <time>2021-11-13T10:07:48Z</time>
      </trkpt>
      <trkpt lat="44.8686" lon="5.89136">
        <ele>1247.028</ele>
        <time>2021-11-13T10:07:48Z</time>
      </trkpt>
      <trkpt lat="44.8686" lon="5.89136">
        <ele>1246.991</ele>
        <time>2021-11-13T10:07:49Z</time>
      </trkpt>
      <trkpt lat="44.8686" lon="5.89136">
        <ele>1246.186</ele>
        <time>2021-11-13T10:07:55Z</time>
      </trkpt>
      <trkpt lat="44.86859" lon="5.89134">
        <ele>1245.937</ele>
        <time>2021-11-13T10:07:56Z</time>
      </trkpt>
      <trkpt lat="44.86858" lon="5.89134">
        <ele>1245.088</ele>
        <time>2021-11-13T10:07:58Z</time>
      </trkpt>
      <trkpt lat="44.86858" lon="5.89134">
        <ele>1244.581</ele>
        <time>2021-11-13T10:07:59Z</time>
      </trkpt>
      <trkpt lat="44.86858" lon="5.89134">
        <ele>1244.084</ele>
        <time>2021-11-13T10:08:01Z</time>
      </trkpt>
      <trkpt lat="44.86858" lon="5.89134">
        <ele>1244.084</ele>
        <time>2021-11-13T10:08:01Z</time>
      </trkpt>
      <trkpt lat="44.86858" lon="5.89133">
        <ele>1243.507</ele>
        <time>2021-11-13T10:08:02Z</time>
      </trkpt>
      <trkpt lat="44.86858" lon="5.89133">
        <ele>1243.101</ele>
        <time>2021-11-13T10:08:03Z</time>
      </trkpt>
      <trkpt lat="44.86858" lon="5.89132">
        <ele>1242.103</ele>
        <time>2021-11-13T10:08:05Z</time>
      </trkpt>
      <trkpt lat="44.86856" lon="5.89132">
        <ele>1240.167</ele>
        <time>2021-11-13T10:08:13Z</time>
      </trkpt>
      <trkpt lat="44.86855" lon="5.89131">
        <ele>1239.663</ele>
        <time>2021-11-13T10:08:17Z</time>
      </trkpt>
      <trkpt lat="44.86855" lon="5.89131">
        <ele>1239.555</ele>
        <time>2021-11-13T10:08:19Z</time>
      </trkpt>
      <trkpt lat="44.86855" lon="5.89131">
        <ele>1239.231</ele>
        <time>2021-11-13T10:08:22Z</time>
      </trkpt>
      <trkpt lat="44.86854" lon="5.89131">
        <ele>1239.408</ele>
        <time>2021-11-13T10:08:23Z</time>
      </trkpt>
      <trkpt lat="44.86854" lon="5.89131">
        <ele>1238.042</ele>
        <time>2021-11-13T10:08:25Z</time>
      </trkpt>
      <trkpt lat="44.86854" lon="5.89131">
        <ele>1238.042</ele>
        <time>2021-11-13T10:08:25Z</time>
      </trkpt>
      <trkpt lat="44.86854" lon="5.89131">
        <ele>1237.136</ele>
        <time>2021-11-13T10:08:26Z</time>
      </trkpt>
      <trkpt lat="44.86854" lon="5.8913">
        <ele>1235.51</ele>
        <time>2021-11-13T10:08:28Z</time>
      </trkpt>
      <trkpt lat="44.86854" lon="5.8913">
        <ele>1235.571</ele>
        <time>2021-11-13T10:08:42Z</time>
      </trkpt>
      <trkpt lat="44.86853" lon="5.89129">
        <ele>1235.404</ele>
        <time>2021-11-13T10:08:43Z</time>
      </trkpt>
      <trkpt lat="44.86852" lon="5.89128">
        <ele>1234.728</ele>
        <time>2021-11-13T10:08:44Z</time>
      </trkpt>
      <trkpt lat="44.8685" lon="5.89125">
        <ele>1235.411</ele>
        <time>2021-11-13T10:08:48Z</time>
      </trkpt>
      <trkpt lat="44.8685" lon="5.89123">
        <ele>1235.209</ele>
        <time>2021-11-13T10:08:53Z</time>
      </trkpt>
      <trkpt lat="44.8685" lon="5.89123">
        <ele>1235.997</ele>
        <time>2021-11-13T10:08:57Z</time>
      </trkpt>
      <trkpt lat="44.8685" lon="5.89122">
        <ele>1236.539</ele>
        <time>2021-11-13T10:08:58Z</time>
      </trkpt>
      <trkpt lat="44.86849" lon="5.89122">
        <ele>1238.018</ele>
        <time>2021-11-13T10:08:59Z</time>
      </trkpt>
      <trkpt lat="44.86848" lon="5.89121">
        <ele>1235.658</ele>
        <time>2021-11-13T10:09:02Z</time>
      </trkpt>
      <trkpt lat="44.86848" lon="5.89121">
        <ele>1235.658</ele>
        <time>2021-11-13T10:09:02Z</time>
      </trkpt>
      <trkpt lat="44.86848" lon="5.8912">
        <ele>1235.448</ele>
        <time>2021-11-13T10:09:03Z</time>
      </trkpt>
      <trkpt lat="44.86848" lon="5.8912">
        <ele>1235.514</ele>
        <time>2021-11-13T10:09:04Z</time>
      </trkpt>
      <trkpt lat="44.86848" lon="5.8912">
        <ele>1235.521</ele>
        <time>2021-11-13T10:09:08Z</time>
      </trkpt>
      <trkpt lat="44.86846" lon="5.89119">
        <ele>1235.542</ele>
        <time>2021-11-13T10:09:09Z</time>
      </trkpt>
      <trkpt lat="44.86845" lon="5.89116">
        <ele>1236.194</ele>
        <time>2021-11-13T10:09:11Z</time>
      </trkpt>
      <trkpt lat="44.86845" lon="5.89115">
        <ele>1236.612</ele>
        <time>2021-11-13T10:09:13Z</time>
      </trkpt>
      <trkpt lat="44.86845" lon="5.89115">
        <ele>1237.142</ele>
        <time>2021-11-13T10:09:20Z</time>
      </trkpt>
      <trkpt lat="44.86844" lon="5.89113">
        <ele>1237.424</ele>
        <time>2021-11-13T10:09:21Z</time>
      </trkpt>
      <trkpt lat="44.86843" lon="5.89113">
        <ele>1236.83</ele>
        <time>2021-11-13T10:09:23Z</time>
      </trkpt>
      <trkpt lat="44.86842" lon="5.89112">
        <ele>1235.515</ele>
        <time>2021-11-13T10:09:25Z</time>
      </trkpt>
      <trkpt lat="44.86842" lon="5.8911">
        <ele>1235.731</ele>
        <time>2021-11-13T10:09:27Z</time>
      </trkpt>
      <trkpt lat="44.86841" lon="5.89108">
        <ele>1236.503</ele>
        <time>2021-11-13T10:09:30Z</time>
      </trkpt>
      <trkpt lat="44.8684" lon="5.89106">
        <ele>1237.382</ele>
        <time>2021-11-13T10:09:33Z</time>
      </trkpt>
      <trkpt lat="44.86839" lon="5.89105">
        <ele>1237.769</ele>
        <time>2021-11-13T10:09:34Z</time>
      </trkpt>
      <trkpt lat="44.86838" lon="5.89101">
        <ele>1237.448</ele>
        <time>2021-11-13T10:09:37Z</time>
      </trkpt>
      <trkpt lat="44.86837" lon="5.89099">
        <ele>1237.737</ele>
        <time>2021-11-13T10:09:40Z</time>
      </trkpt>
      <trkpt lat="44.86836" lon="5.89097">
        <ele>1237.235</ele>
        <time>2021-11-13T10:09:42Z</time>
      </trkpt>
      <trkpt lat="44.86836" lon="5.89097">
        <ele>1237.121</ele>
        <time>2021-11-13T10:09:43Z</time>
      </trkpt>
      <trkpt lat="44.86836" lon="5.89097">
        <ele>1237.329</ele>
        <time>2021-11-13T10:09:44Z</time>
      </trkpt>
      <trkpt lat="44.86836" lon="5.89097">
        <ele>1237.629</ele>
        <time>2021-11-13T10:09:46Z</time>
      </trkpt>
      <trkpt lat="44.86837" lon="5.89098">
        <ele>1236.759</ele>
        <time>2021-11-13T10:09:47Z</time>
      </trkpt>
      <trkpt lat="44.86837" lon="5.89098">
        <ele>1236.759</ele>
        <time>2021-11-13T10:09:47Z</time>
      </trkpt>
      <trkpt lat="44.86837" lon="5.89098">
        <ele>1236.732</ele>
        <time>2021-11-13T10:09:48Z</time>
      </trkpt>
      <trkpt lat="44.86837" lon="5.89098">
        <ele>1236.732</ele>
        <time>2021-11-13T10:09:48Z</time>
      </trkpt>
      <trkpt lat="44.86837" lon="5.89098">
        <ele>1237.469</ele>
        <time>2021-11-13T10:09:49Z</time>
      </trkpt>
      <trkpt lat="44.86837" lon="5.89098">
        <ele>1237.479</ele>
        <time>2021-11-13T10:09:50Z</time>
      </trkpt>
      <trkpt lat="44.86837" lon="5.89098">
        <ele>1237.245</ele>
        <time>2021-11-13T10:09:56Z</time>
      </trkpt>
      <trkpt lat="44.86837" lon="5.89098">
        <ele>1236.313</ele>
        <time>2021-11-13T10:09:57Z</time>
      </trkpt>
      <trkpt lat="44.86837" lon="5.89097">
        <ele>1237.99</ele>
        <time>2021-11-13T10:10:01Z</time>
      </trkpt>
      <trkpt lat="44.86837" lon="5.89097">
        <ele>1237.99</ele>
        <time>2021-11-13T10:10:01Z</time>
      </trkpt>
      <trkpt lat="44.86837" lon="5.89097">
        <ele>1237.981</ele>
        <time>2021-11-13T10:10:02Z</time>
      </trkpt>
      <trkpt lat="44.86837" lon="5.89097">
        <ele>1237.685</ele>
        <time>2021-11-13T10:10:07Z</time>
      </trkpt>
      <trkpt lat="44.86837" lon="5.89096">
        <ele>1238.264</ele>
        <time>2021-11-13T10:10:08Z</time>
      </trkpt>
      <trkpt lat="44.86837" lon="5.89095">
        <ele>1238.616</ele>
        <time>2021-11-13T10:10:09Z</time>
      </trkpt>
      <trkpt lat="44.86837" lon="5.89095">
        <ele>1238.616</ele>
        <time>2021-11-13T10:10:10Z</time>
      </trkpt>
      <trkpt lat="44.86837" lon="5.89095">
        <ele>1238.635</ele>
        <time>2021-11-13T10:10:18Z</time>
      </trkpt>
      <trkpt lat="44.86837" lon="5.89095">
        <ele>1238.405</ele>
        <time>2021-11-13T10:10:19Z</time>
      </trkpt>
      <trkpt lat="44.86836" lon="5.89092">
        <ele>1239.489</ele>
        <time>2021-11-13T10:10:22Z</time>
      </trkpt>
      <trkpt lat="44.86835" lon="5.89091">
        <ele>1240.252</ele>
        <time>2021-11-13T10:10:23Z</time>
      </trkpt>
      <trkpt lat="44.86835" lon="5.89089">
        <ele>1241.801</ele>
        <time>2021-11-13T10:10:27Z</time>
      </trkpt>
      <trkpt lat="44.86836" lon="5.89084">
        <ele>1239.859</ele>
        <time>2021-11-13T10:10:31Z</time>
      </trkpt>
      <trkpt lat="44.86836" lon="5.89082">
        <ele>1240.383</ele>
        <time>2021-11-13T10:10:33Z</time>
      </trkpt>
      <trkpt lat="44.86835" lon="5.89082">
        <ele>1239.506</ele>
        <time>2021-11-13T10:10:34Z</time>
      </trkpt>
      <trkpt lat="44.86835" lon="5.89082">
        <ele>1239.506</ele>
        <time>2021-11-13T10:10:34Z</time>
      </trkpt>
      <trkpt lat="44.86835" lon="5.89082">
        <ele>1239.48</ele>
        <time>2021-11-13T10:10:35Z</time>
      </trkpt>
      <trkpt lat="44.86835" lon="5.89082">
        <ele>1239.422</ele>
        <time>2021-11-13T10:10:40Z</time>
      </trkpt>
      <trkpt lat="44.86835" lon="5.8908">
        <ele>1239.738</ele>
        <time>2021-11-13T10:10:41Z</time>
      </trkpt>
      <trkpt lat="44.86835" lon="5.8908">
        <ele>1239.767</ele>
        <time>2021-11-13T10:10:43Z</time>
      </trkpt>
      <trkpt lat="44.86835" lon="5.8908">
        <ele>1239.531</ele>
        <time>2021-11-13T10:10:57Z</time>
      </trkpt>
      <trkpt lat="44.86836" lon="5.8908">
        <ele>1239.602</ele>
        <time>2021-11-13T10:10:58Z</time>
      </trkpt>
      <trkpt lat="44.86835" lon="5.8908">
        <ele>1239.486</ele>
        <time>2021-11-13T10:10:59Z</time>
      </trkpt>
      <trkpt lat="44.86833" lon="5.89078">
        <ele>1239.163</ele>
        <time>2021-11-13T10:11:02Z</time>
      </trkpt>
      <trkpt lat="44.8683" lon="5.89075">
        <ele>1238.638</ele>
        <time>2021-11-13T10:11:06Z</time>
      </trkpt>
      <trkpt lat="44.86829" lon="5.89073">
        <ele>1238.198</ele>
        <time>2021-11-13T10:11:08Z</time>
      </trkpt>
      <trkpt lat="44.86829" lon="5.89073">
        <ele>1238.646</ele>
        <time>2021-11-13T10:11:09Z</time>
      </trkpt>
      <trkpt lat="44.86829" lon="5.89073">
        <ele>1238.646</ele>
        <time>2021-11-13T10:11:09Z</time>
      </trkpt>
      <trkpt lat="44.86829" lon="5.89073">
        <ele>1238.986</ele>
        <time>2021-11-13T10:11:10Z</time>
      </trkpt>
      <trkpt lat="44.86829" lon="5.89073">
        <ele>1240.751</ele>
        <time>2021-11-13T10:11:15Z</time>
      </trkpt>
      <trkpt lat="44.86828" lon="5.89069">
        <ele>1240.978</ele>
        <time>2021-11-13T10:11:16Z</time>
      </trkpt>
      <trkpt lat="44.86828" lon="5.89068">
        <ele>1240.969</ele>
        <time>2021-11-13T10:11:17Z</time>
      </trkpt>
      <trkpt lat="44.86827" lon="5.89067">
        <ele>1240.675</ele>
        <time>2021-11-13T10:11:18Z</time>
      </trkpt>
      <trkpt lat="44.86824" lon="5.89062">
        <ele>1240.019</ele>
        <time>2021-11-13T10:11:23Z</time>
      </trkpt>
      <trkpt lat="44.86823" lon="5.89057">
        <ele>1240.606</ele>
        <time>2021-11-13T10:11:27Z</time>
      </trkpt>
      <trkpt lat="44.86823" lon="5.89057">
        <ele>1240.606</ele>
        <time>2021-11-13T10:11:27Z</time>
      </trkpt>
      <trkpt lat="44.86823" lon="5.89057">
        <ele>1240.845</ele>
        <time>2021-11-13T10:11:28Z</time>
      </trkpt>
      <trkpt lat="44.86823" lon="5.89057">
        <ele>1241.77</ele>
        <time>2021-11-13T10:11:33Z</time>
      </trkpt>
      <trkpt lat="44.86823" lon="5.89056">
        <ele>1241.922</ele>
        <time>2021-11-13T10:11:34Z</time>
      </trkpt>
      <trkpt lat="44.86824" lon="5.89053">
        <ele>1242.439</ele>
        <time>2021-11-13T10:11:37Z</time>
      </trkpt>
      <trkpt lat="44.86824" lon="5.89048">
        <ele>1240.851</ele>
        <time>2021-11-13T10:11:43Z</time>
      </trkpt>
      <trkpt lat="44.86824" lon="5.89048">
        <ele>1240.849</ele>
        <time>2021-11-13T10:11:45Z</time>
      </trkpt>
      <trkpt lat="44.86824" lon="5.89048">
        <ele>1240.849</ele>
        <time>2021-11-13T10:11:45Z</time>
      </trkpt>
      <trkpt lat="44.86825" lon="5.89048">
        <ele>1241.044</ele>
        <time>2021-11-13T10:11:46Z</time>
      </trkpt>
      <trkpt lat="44.86826" lon="5.89047">
        <ele>1240.467</ele>
        <time>2021-11-13T10:11:49Z</time>
      </trkpt>
      <trkpt lat="44.86827" lon="5.89047">
        <ele>1239.347</ele>
        <time>2021-11-13T10:11:51Z</time>
      </trkpt>
      <trkpt lat="44.86828" lon="5.89046">
        <ele>1239.084</ele>
        <time>2021-11-13T10:11:53Z</time>
      </trkpt>
      <trkpt lat="44.86828" lon="5.89046">
        <ele>1238.592</ele>
        <time>2021-11-13T10:11:54Z</time>
      </trkpt>
      <trkpt lat="44.86828" lon="5.89042">
        <ele>1238.863</ele>
        <time>2021-11-13T10:11:58Z</time>
      </trkpt>
      <trkpt lat="44.86827" lon="5.89029">
        <ele>1238.854</ele>
        <time>2021-11-13T10:12:12Z</time>
      </trkpt>
      <trkpt lat="44.86827" lon="5.89027">
        <ele>1238.702</ele>
        <time>2021-11-13T10:12:16Z</time>
      </trkpt>
      <trkpt lat="44.86827" lon="5.89027">
        <ele>1238.702</ele>
        <time>2021-11-13T10:12:16Z</time>
      </trkpt>
      <trkpt lat="44.86828" lon="5.89026">
        <ele>1238.661</ele>
        <time>2021-11-13T10:12:17Z</time>
      </trkpt>
      <trkpt lat="44.86828" lon="5.89026">
        <ele>1238.952</ele>
        <time>2021-11-13T10:12:18Z</time>
      </trkpt>
      <trkpt lat="44.86829" lon="5.89026">
        <ele>1238.744</ele>
        <time>2021-11-13T10:12:19Z</time>
      </trkpt>
      <trkpt lat="44.86829" lon="5.89026">
        <ele>1238.368</ele>
        <time>2021-11-13T10:12:21Z</time>
      </trkpt>
      <trkpt lat="44.86829" lon="5.89026">
        <ele>1238.074</ele>
        <time>2021-11-13T10:12:24Z</time>
      </trkpt>
      <trkpt lat="44.86829" lon="5.89026">
        <ele>1238.293</ele>
        <time>2021-11-13T10:12:25Z</time>
      </trkpt>
      <trkpt lat="44.86829" lon="5.89026">
        <ele>1238.468</ele>
        <time>2021-11-13T10:12:27Z</time>
      </trkpt>
      <trkpt lat="44.8683" lon="5.89025">
        <ele>1238.579</ele>
        <time>2021-11-13T10:12:28Z</time>
      </trkpt>
      <trkpt lat="44.8683" lon="5.89024">
        <ele>1238.556</ele>
        <time>2021-11-13T10:12:29Z</time>
      </trkpt>
      <trkpt lat="44.8683" lon="5.89019">
        <ele>1238.686</ele>
        <time>2021-11-13T10:12:33Z</time>
      </trkpt>
      <trkpt lat="44.8683" lon="5.89018">
        <ele>1238.601</ele>
        <time>2021-11-13T10:12:34Z</time>
      </trkpt>
      <trkpt lat="44.86832" lon="5.89015">
        <ele>1239.527</ele>
        <time>2021-11-13T10:12:40Z</time>
      </trkpt>
      <trkpt lat="44.86833" lon="5.89014">
        <ele>1239.647</ele>
        <time>2021-11-13T10:12:43Z</time>
      </trkpt>
      <trkpt lat="44.86833" lon="5.89013">
        <ele>1240.104</ele>
        <time>2021-11-13T10:12:44Z</time>
      </trkpt>
      <trkpt lat="44.86833" lon="5.89012">
        <ele>1240.48</ele>
        <time>2021-11-13T10:12:46Z</time>
      </trkpt>
      <trkpt lat="44.86835" lon="5.89012">
        <ele>1240.318</ele>
        <time>2021-11-13T10:12:49Z</time>
      </trkpt>
      <trkpt lat="44.86836" lon="5.89016">
        <ele>1240.887</ele>
        <time>2021-11-13T10:12:54Z</time>
      </trkpt>
      <trkpt lat="44.86837" lon="5.89018">
        <ele>1240.76</ele>
        <time>2021-11-13T10:12:57Z</time>
      </trkpt>
      <trkpt lat="44.86839" lon="5.89019">
        <ele>1240.342</ele>
        <time>2021-11-13T10:12:59Z</time>
      </trkpt>
      <trkpt lat="44.86839" lon="5.89019">
        <ele>1240.293</ele>
        <time>2021-11-13T10:13:00Z</time>
      </trkpt>
      <trkpt lat="44.86839" lon="5.89019">
        <ele>1240.293</ele>
        <time>2021-11-13T10:13:00Z</time>
      </trkpt>
      <trkpt lat="44.86839" lon="5.89019">
        <ele>1240.702</ele>
        <time>2021-11-13T10:13:01Z</time>
      </trkpt>
      <trkpt lat="44.86839" lon="5.89019">
        <ele>1240.694</ele>
        <time>2021-11-13T10:13:04Z</time>
      </trkpt>
      <trkpt lat="44.86839" lon="5.89018">
        <ele>1240.723</ele>
        <time>2021-11-13T10:13:05Z</time>
      </trkpt>
      <trkpt lat="44.8684" lon="5.89019">
        <ele>1240.996</ele>
        <time>2021-11-13T10:13:07Z</time>
      </trkpt>
      <trkpt lat="44.86841" lon="5.89021">
        <ele>1241.206</ele>
        <time>2021-11-13T10:13:09Z</time>
      </trkpt>
      <trkpt lat="44.86846" lon="5.89021">
        <ele>1242.281</ele>
        <time>2021-11-13T10:13:16Z</time>
      </trkpt>
      <trkpt lat="44.86849" lon="5.89017">
        <ele>1242.906</ele>
        <time>2021-11-13T10:13:23Z</time>
      </trkpt>
      <trkpt lat="44.86852" lon="5.89015">
        <ele>1243.896</ele>
        <time>2021-11-13T10:13:29Z</time>
      </trkpt>
      <trkpt lat="44.86853" lon="5.89011">
        <ele>1244.442</ele>
        <time>2021-11-13T10:13:33Z</time>
      </trkpt>
      <trkpt lat="44.86853" lon="5.89008">
        <ele>1245.289</ele>
        <time>2021-11-13T10:13:36Z</time>
      </trkpt>
      <trkpt lat="44.86853" lon="5.89006">
        <ele>1246.108</ele>
        <time>2021-11-13T10:13:39Z</time>
      </trkpt>
      <trkpt lat="44.86852" lon="5.88998">
        <ele>1247.645</ele>
        <time>2021-11-13T10:13:46Z</time>
      </trkpt>
      <trkpt lat="44.86853" lon="5.88996">
        <ele>1247.392</ele>
        <time>2021-11-13T10:13:48Z</time>
      </trkpt>
      <trkpt lat="44.86853" lon="5.88995">
        <ele>1247.008</ele>
        <time>2021-11-13T10:13:51Z</time>
      </trkpt>
      <trkpt lat="44.86853" lon="5.88995">
        <ele>1248.169</ele>
        <time>2021-11-13T10:13:56Z</time>
      </trkpt>
      <trkpt lat="44.86852" lon="5.88998">
        <ele>1248.221</ele>
        <time>2021-11-13T10:13:57Z</time>
      </trkpt>
      <trkpt lat="44.86852" lon="5.88998">
        <ele>1248.221</ele>
        <time>2021-11-13T10:13:57Z</time>
      </trkpt>
      <trkpt lat="44.86852" lon="5.88998">
        <ele>1248.22</ele>
        <time>2021-11-13T10:13:58Z</time>
      </trkpt>
      <trkpt lat="44.86852" lon="5.88998">
        <ele>1248.22</ele>
        <time>2021-11-13T10:13:58Z</time>
      </trkpt>
      <trkpt lat="44.86852" lon="5.88997">
        <ele>1248.213</ele>
        <time>2021-11-13T10:13:59Z</time>
      </trkpt>
      <trkpt lat="44.86851" lon="5.8899">
        <ele>1248.742</ele>
        <time>2021-11-13T10:14:04Z</time>
      </trkpt>
      <trkpt lat="44.86851" lon="5.88983">
        <ele>1249.68</ele>
        <time>2021-11-13T10:14:10Z</time>
      </trkpt>
      <trkpt lat="44.86852" lon="5.88982">
        <ele>1249.48</ele>
        <time>2021-11-13T10:14:12Z</time>
      </trkpt>
      <trkpt lat="44.86852" lon="5.88982">
        <ele>1249.48</ele>
        <time>2021-11-13T10:14:12Z</time>
      </trkpt>
      <trkpt lat="44.86852" lon="5.88982">
        <ele>1250.024</ele>
        <time>2021-11-13T10:14:13Z</time>
      </trkpt>
      <trkpt lat="44.86852" lon="5.88982">
        <ele>1250.334</ele>
        <time>2021-11-13T10:14:17Z</time>
      </trkpt>
      <trkpt lat="44.86853" lon="5.88979">
        <ele>1250.388</ele>
        <time>2021-11-13T10:14:18Z</time>
      </trkpt>
      <trkpt lat="44.86853" lon="5.88978">
        <ele>1250.408</ele>
        <time>2021-11-13T10:14:19Z</time>
      </trkpt>
      <trkpt lat="44.86852" lon="5.8897">
        <ele>1250.538</ele>
        <time>2021-11-13T10:14:27Z</time>
      </trkpt>
      <trkpt lat="44.86852" lon="5.8897">
        <ele>1249.98</ele>
        <time>2021-11-13T10:14:28Z</time>
      </trkpt>
      <trkpt lat="44.86852" lon="5.8897">
        <ele>1249.98</ele>
        <time>2021-11-13T10:14:28Z</time>
      </trkpt>
      <trkpt lat="44.86851" lon="5.8897">
        <ele>1250.203</ele>
        <time>2021-11-13T10:14:29Z</time>
      </trkpt>
      <trkpt lat="44.86851" lon="5.88969">
        <ele>1249.773</ele>
        <time>2021-11-13T10:14:30Z</time>
      </trkpt>
      <trkpt lat="44.86851" lon="5.88969">
        <ele>1249.773</ele>
        <time>2021-11-13T10:14:30Z</time>
      </trkpt>
      <trkpt lat="44.86851" lon="5.88969">
        <ele>1249.795</ele>
        <time>2021-11-13T10:14:31Z</time>
      </trkpt>
      <trkpt lat="44.86851" lon="5.88969">
        <ele>1250.237</ele>
        <time>2021-11-13T10:14:42Z</time>
      </trkpt>
      <trkpt lat="44.86852" lon="5.8897">
        <ele>1250.238</ele>
        <time>2021-11-13T10:14:43Z</time>
      </trkpt>
      <trkpt lat="44.86852" lon="5.8897">
        <ele>1250.529</ele>
        <time>2021-11-13T10:14:44Z</time>
      </trkpt>
      <trkpt lat="44.86855" lon="5.88972">
        <ele>1249.633</ele>
        <time>2021-11-13T10:14:47Z</time>
      </trkpt>
      <trkpt lat="44.86857" lon="5.88973">
        <ele>1249.839</ele>
        <time>2021-11-13T10:14:50Z</time>
      </trkpt>
      <trkpt lat="44.86857" lon="5.88973">
        <ele>1249.839</ele>
        <time>2021-11-13T10:14:50Z</time>
      </trkpt>
      <trkpt lat="44.86858" lon="5.88973">
        <ele>1248.485</ele>
        <time>2021-11-13T10:14:51Z</time>
      </trkpt>
      <trkpt lat="44.86858" lon="5.88973">
        <ele>1248.648</ele>
        <time>2021-11-13T10:14:52Z</time>
      </trkpt>
      <trkpt lat="44.86859" lon="5.88973">
        <ele>1249.279</ele>
        <time>2021-11-13T10:14:53Z</time>
      </trkpt>
      <trkpt lat="44.86859" lon="5.88974">
        <ele>1248.335</ele>
        <time>2021-11-13T10:14:54Z</time>
      </trkpt>
      <trkpt lat="44.86859" lon="5.88974">
        <ele>1248.335</ele>
        <time>2021-11-13T10:14:54Z</time>
      </trkpt>
      <trkpt lat="44.8686" lon="5.88974">
        <ele>1248.041</ele>
        <time>2021-11-13T10:14:55Z</time>
      </trkpt>
      <trkpt lat="44.86861" lon="5.88975">
        <ele>1247.157</ele>
        <time>2021-11-13T10:14:56Z</time>
      </trkpt>
      <trkpt lat="44.86861" lon="5.88976">
        <ele>1245.846</ele>
        <time>2021-11-13T10:14:58Z</time>
      </trkpt>
      <trkpt lat="44.86861" lon="5.88976">
        <ele>1245.846</ele>
        <time>2021-11-13T10:14:58Z</time>
      </trkpt>
      <trkpt lat="44.86862" lon="5.88977">
        <ele>1244.87</ele>
        <time>2021-11-13T10:14:59Z</time>
      </trkpt>
      <trkpt lat="44.86863" lon="5.88976">
        <ele>1244.255</ele>
        <time>2021-11-13T10:15:01Z</time>
      </trkpt>
      <trkpt lat="44.86863" lon="5.88976">
        <ele>1242.79</ele>
        <time>2021-11-13T10:15:02Z</time>
      </trkpt>
      <trkpt lat="44.86863" lon="5.88974">
        <ele>1244.626</ele>
        <time>2021-11-13T10:15:06Z</time>
      </trkpt>
      <trkpt lat="44.86863" lon="5.88974">
        <ele>1245.078</ele>
        <time>2021-11-13T10:15:07Z</time>
      </trkpt>
      <trkpt lat="44.86863" lon="5.88974">
        <ele>1243.468</ele>
        <time>2021-11-13T10:15:08Z</time>
      </trkpt>
      <trkpt lat="44.86863" lon="5.88974">
        <ele>1243.468</ele>
        <time>2021-11-13T10:15:08Z</time>
      </trkpt>
      <trkpt lat="44.86862" lon="5.88975">
        <ele>1243.58</ele>
        <time>2021-11-13T10:15:09Z</time>
      </trkpt>
      <trkpt lat="44.86862" lon="5.88975">
        <ele>1243.264</ele>
        <time>2021-11-13T10:15:11Z</time>
      </trkpt>
      <trkpt lat="44.86862" lon="5.88975">
        <ele>1243.264</ele>
        <time>2021-11-13T10:15:11Z</time>
      </trkpt>
      <trkpt lat="44.86863" lon="5.88975">
        <ele>1243.788</ele>
        <time>2021-11-13T10:15:12Z</time>
      </trkpt>
      <trkpt lat="44.86863" lon="5.88974">
        <ele>1244.055</ele>
        <time>2021-11-13T10:15:13Z</time>
      </trkpt>
      <trkpt lat="44.86864" lon="5.88973">
        <ele>1244.981</ele>
        <time>2021-11-13T10:15:16Z</time>
      </trkpt>
      <trkpt lat="44.86864" lon="5.88973">
        <ele>1245.712</ele>
        <time>2021-11-13T10:15:17Z</time>
      </trkpt>
      <trkpt lat="44.86864" lon="5.88973">
        <ele>1246.318</ele>
        <time>2021-11-13T10:15:18Z</time>
      </trkpt>
      <trkpt lat="44.86864" lon="5.88973">
        <ele>1247.456</ele>
        <time>2021-11-13T10:15:23Z</time>
      </trkpt>
      <trkpt lat="44.86864" lon="5.8897">
        <ele>1247.135</ele>
        <time>2021-11-13T10:15:24Z</time>
      </trkpt>
      <trkpt lat="44.86863" lon="5.8897">
        <ele>1247.175</ele>
        <time>2021-11-13T10:15:25Z</time>
      </trkpt>
      <trkpt lat="44.86863" lon="5.8897">
        <ele>1247.678</ele>
        <time>2021-11-13T10:15:26Z</time>
      </trkpt>
      <trkpt lat="44.86863" lon="5.8897">
        <ele>1248.565</ele>
        <time>2021-11-13T10:15:27Z</time>
      </trkpt>
      <trkpt lat="44.86863" lon="5.8897">
        <ele>1252.184</ele>
        <time>2021-11-13T10:15:28Z</time>
      </trkpt>
      <trkpt lat="44.86864" lon="5.8897">
        <ele>1251.951</ele>
        <time>2021-11-13T10:15:30Z</time>
      </trkpt>
      <trkpt lat="44.86864" lon="5.8897">
        <ele>1251.995</ele>
        <time>2021-11-13T10:15:31Z</time>
      </trkpt>
      <trkpt lat="44.86864" lon="5.8897">
        <ele>1250.513</ele>
        <time>2021-11-13T10:15:37Z</time>
      </trkpt>
      <trkpt lat="44.86867" lon="5.8897">
        <ele>1252.921</ele>
        <time>2021-11-13T10:15:38Z</time>
      </trkpt>
      <trkpt lat="44.86867" lon="5.8897">
        <ele>1254.191</ele>
        <time>2021-11-13T10:15:39Z</time>
      </trkpt>
      <trkpt lat="44.86867" lon="5.8897">
        <ele>1253.444</ele>
        <time>2021-11-13T10:15:41Z</time>
      </trkpt>
      <trkpt lat="44.86867" lon="5.88969">
        <ele>1251.721</ele>
        <time>2021-11-13T10:15:42Z</time>
      </trkpt>
      <trkpt lat="44.86867" lon="5.88969">
        <ele>1251.721</ele>
        <time>2021-11-13T10:15:42Z</time>
      </trkpt>
      <trkpt lat="44.86867" lon="5.88969">
        <ele>1251.787</ele>
        <time>2021-11-13T10:15:43Z</time>
      </trkpt>
      <trkpt lat="44.86867" lon="5.88969">
        <ele>1252.889</ele>
        <time>2021-11-13T10:15:51Z</time>
      </trkpt>
      <trkpt lat="44.86868" lon="5.88969">
        <ele>1253.908</ele>
        <time>2021-11-13T10:15:52Z</time>
      </trkpt>
      <trkpt lat="44.86869" lon="5.88968">
        <ele>1252.502</ele>
        <time>2021-11-13T10:15:53Z</time>
      </trkpt>
      <trkpt lat="44.8687" lon="5.88963">
        <ele>1253.359</ele>
        <time>2021-11-13T10:15:56Z</time>
      </trkpt>
      <trkpt lat="44.86871" lon="5.88958">
        <ele>1251.696</ele>
        <time>2021-11-13T10:16:00Z</time>
      </trkpt>
      <trkpt lat="44.86873" lon="5.88954">
        <ele>1254.071</ele>
        <time>2021-11-13T10:16:04Z</time>
      </trkpt>
      <trkpt lat="44.86874" lon="5.88953">
        <ele>1254.621</ele>
        <time>2021-11-13T10:16:06Z</time>
      </trkpt>
      <trkpt lat="44.86874" lon="5.88953">
        <ele>1254.221</ele>
        <time>2021-11-13T10:16:07Z</time>
      </trkpt>
      <trkpt lat="44.86875" lon="5.88954">
        <ele>1254.15</ele>
        <time>2021-11-13T10:16:12Z</time>
      </trkpt>
      <trkpt lat="44.86875" lon="5.88954">
        <ele>1254.093</ele>
        <time>2021-11-13T10:16:13Z</time>
      </trkpt>
      <trkpt lat="44.86874" lon="5.88954">
        <ele>1254.5</ele>
        <time>2021-11-13T10:16:14Z</time>
      </trkpt>
      <trkpt lat="44.86874" lon="5.88953">
        <ele>1255.065</ele>
        <time>2021-11-13T10:16:15Z</time>
      </trkpt>
      <trkpt lat="44.86874" lon="5.88953">
        <ele>1255.212</ele>
        <time>2021-11-13T10:16:16Z</time>
      </trkpt>
      <trkpt lat="44.86874" lon="5.88953">
        <ele>1255.237</ele>
        <time>2021-11-13T10:16:22Z</time>
      </trkpt>
      <trkpt lat="44.86873" lon="5.88953">
        <ele>1255.44</ele>
        <time>2021-11-13T10:16:23Z</time>
      </trkpt>
      <trkpt lat="44.86873" lon="5.88953">
        <ele>1255.44</ele>
        <time>2021-11-13T10:16:23Z</time>
      </trkpt>
      <trkpt lat="44.86873" lon="5.88953">
        <ele>1255.445</ele>
        <time>2021-11-13T10:16:24Z</time>
      </trkpt>
      <trkpt lat="44.86873" lon="5.88953">
        <ele>1255.445</ele>
        <time>2021-11-13T10:16:24Z</time>
      </trkpt>
      <trkpt lat="44.86874" lon="5.88953">
        <ele>1255.18</ele>
        <time>2021-11-13T10:16:25Z</time>
      </trkpt>
      <trkpt lat="44.86874" lon="5.88953">
        <ele>1255.18</ele>
        <time>2021-11-13T10:16:25Z</time>
      </trkpt>
      <trkpt lat="44.86875" lon="5.88953">
        <ele>1255.759</ele>
        <time>2021-11-13T10:16:26Z</time>
      </trkpt>
      <trkpt lat="44.86875" lon="5.88953">
        <ele>1256.03</ele>
        <time>2021-11-13T10:16:27Z</time>
      </trkpt>
      <trkpt lat="44.86876" lon="5.88952">
        <ele>1256.886</ele>
        <time>2021-11-13T10:16:28Z</time>
      </trkpt>
      <trkpt lat="44.86878" lon="5.8895">
        <ele>1256.535</ele>
        <time>2021-11-13T10:16:30Z</time>
      </trkpt>
      <trkpt lat="44.86882" lon="5.88942">
        <ele>1256.858</ele>
        <time>2021-11-13T10:16:37Z</time>
      </trkpt>
      <trkpt lat="44.86882" lon="5.88941">
        <ele>1257.437</ele>
        <time>2021-11-13T10:16:42Z</time>
      </trkpt>
      <trkpt lat="44.86882" lon="5.88941">
        <ele>1257.437</ele>
        <time>2021-11-13T10:16:42Z</time>
      </trkpt>
      <trkpt lat="44.86882" lon="5.88941">
        <ele>1257.428</ele>
        <time>2021-11-13T10:16:43Z</time>
      </trkpt>
      <trkpt lat="44.86882" lon="5.88941">
        <ele>1257.428</ele>
        <time>2021-11-13T10:16:43Z</time>
      </trkpt>
      <trkpt lat="44.86882" lon="5.88941">
        <ele>1257.526</ele>
        <time>2021-11-13T10:16:44Z</time>
      </trkpt>
      <trkpt lat="44.86883" lon="5.88939">
        <ele>1256.78</ele>
        <time>2021-11-13T10:16:46Z</time>
      </trkpt>
      <trkpt lat="44.86885" lon="5.88937">
        <ele>1256.957</ele>
        <time>2021-11-13T10:16:48Z</time>
      </trkpt>
      <trkpt lat="44.86886" lon="5.88935">
        <ele>1257.315</ele>
        <time>2021-11-13T10:16:51Z</time>
      </trkpt>
      <trkpt lat="44.86888" lon="5.88925">
        <ele>1258.668</ele>
        <time>2021-11-13T10:16:58Z</time>
      </trkpt>
      <trkpt lat="44.86894" lon="5.88895">
        <ele>1260.953</ele>
        <time>2021-11-13T10:17:19Z</time>
      </trkpt>
      <trkpt lat="44.86898" lon="5.88883">
        <ele>1259.768</ele>
        <time>2021-11-13T10:17:28Z</time>
      </trkpt>
      <trkpt lat="44.86903" lon="5.88871">
        <ele>1261.911</ele>
        <time>2021-11-13T10:17:37Z</time>
      </trkpt>
      <trkpt lat="44.86905" lon="5.88866">
        <ele>1262.802</ele>
        <time>2021-11-13T10:17:42Z</time>
      </trkpt>
      <trkpt lat="44.86905" lon="5.88865">
        <ele>1263.106</ele>
        <time>2021-11-13T10:17:43Z</time>
      </trkpt>
      <trkpt lat="44.86906" lon="5.88864">
        <ele>1263.08</ele>
        <time>2021-11-13T10:17:44Z</time>
      </trkpt>
      <trkpt lat="44.86906" lon="5.88864">
        <ele>1262.118</ele>
        <time>2021-11-13T10:17:45Z</time>
      </trkpt>
      <trkpt lat="44.86907" lon="5.88863">
        <ele>1261.963</ele>
        <time>2021-11-13T10:17:46Z</time>
      </trkpt>
      <trkpt lat="44.86911" lon="5.88856">
        <ele>1263.985</ele>
        <time>2021-11-13T10:17:53Z</time>
      </trkpt>
      <trkpt lat="44.86917" lon="5.88845">
        <ele>1266.133</ele>
        <time>2021-11-13T10:18:02Z</time>
      </trkpt>
      <trkpt lat="44.86922" lon="5.88831">
        <ele>1267.876</ele>
        <time>2021-11-13T10:18:12Z</time>
      </trkpt>
      <trkpt lat="44.86928" lon="5.88819">
        <ele>1269.584</ele>
        <time>2021-11-13T10:18:23Z</time>
      </trkpt>
      <trkpt lat="44.86928" lon="5.88819">
        <ele>1269.19</ele>
        <time>2021-11-13T10:18:24Z</time>
      </trkpt>
      <trkpt lat="44.86929" lon="5.88818">
        <ele>1269.137</ele>
        <time>2021-11-13T10:18:25Z</time>
      </trkpt>
      <trkpt lat="44.86929" lon="5.88818">
        <ele>1269.175</ele>
        <time>2021-11-13T10:18:26Z</time>
      </trkpt>
      <trkpt lat="44.86929" lon="5.88818">
        <ele>1269.235</ele>
        <time>2021-11-13T10:18:32Z</time>
      </trkpt>
      <trkpt lat="44.86929" lon="5.88818">
        <ele>1269.375</ele>
        <time>2021-11-13T10:18:33Z</time>
      </trkpt>
      <trkpt lat="44.86934" lon="5.88805">
        <ele>1271.503</ele>
        <time>2021-11-13T10:18:45Z</time>
      </trkpt>
      <trkpt lat="44.86935" lon="5.88802">
        <ele>1272.193</ele>
        <time>2021-11-13T10:18:48Z</time>
      </trkpt>
      <trkpt lat="44.86936" lon="5.88799">
        <ele>1272.28</ele>
        <time>2021-11-13T10:18:52Z</time>
      </trkpt>
      <trkpt lat="44.8694" lon="5.88787">
        <ele>1274.568</ele>
        <time>2021-11-13T10:19:02Z</time>
      </trkpt>
      <trkpt lat="44.86945" lon="5.88779">
        <ele>1275.071</ele>
        <time>2021-11-13T10:19:10Z</time>
      </trkpt>
      <trkpt lat="44.86952" lon="5.8876">
        <ele>1277.363</ele>
        <time>2021-11-13T10:19:28Z</time>
      </trkpt>
      <trkpt lat="44.86958" lon="5.88745">
        <ele>1276.884</ele>
        <time>2021-11-13T10:19:43Z</time>
      </trkpt>
      <trkpt lat="44.86958" lon="5.88745">
        <ele>1276.455</ele>
        <time>2021-11-13T10:19:44Z</time>
      </trkpt>
      <trkpt lat="44.86959" lon="5.88744">
        <ele>1276.665</ele>
        <time>2021-11-13T10:19:45Z</time>
      </trkpt>
      <trkpt lat="44.86959" lon="5.88744">
        <ele>1276.666</ele>
        <time>2021-11-13T10:19:46Z</time>
      </trkpt>
      <trkpt lat="44.86959" lon="5.88744">
        <ele>1276.615</ele>
        <time>2021-11-13T10:19:47Z</time>
      </trkpt>
      <trkpt lat="44.86959" lon="5.88744">
        <ele>1276.615</ele>
        <time>2021-11-13T10:19:47Z</time>
      </trkpt>
      <trkpt lat="44.86959" lon="5.88744">
        <ele>1276.869</ele>
        <time>2021-11-13T10:19:48Z</time>
      </trkpt>
      <trkpt lat="44.8696" lon="5.88743">
        <ele>1277.337</ele>
        <time>2021-11-13T10:19:49Z</time>
      </trkpt>
      <trkpt lat="44.86969" lon="5.88722">
        <ele>1279.389</ele>
        <time>2021-11-13T10:20:07Z</time>
      </trkpt>
      <trkpt lat="44.86974" lon="5.8871">
        <ele>1281.484</ele>
        <time>2021-11-13T10:20:18Z</time>
      </trkpt>
      <trkpt lat="44.86975" lon="5.88706">
        <ele>1281.415</ele>
        <time>2021-11-13T10:20:22Z</time>
      </trkpt>
      <trkpt lat="44.86989" lon="5.8868">
        <ele>1283.896</ele>
        <time>2021-11-13T10:20:47Z</time>
      </trkpt>
      <trkpt lat="44.86995" lon="5.88666">
        <ele>1286.16</ele>
        <time>2021-11-13T10:21:02Z</time>
      </trkpt>
      <trkpt lat="44.86995" lon="5.88666">
        <ele>1286.146</ele>
        <time>2021-11-13T10:21:03Z</time>
      </trkpt>
      <trkpt lat="44.86995" lon="5.88666">
        <ele>1287.618</ele>
        <time>2021-11-13T10:21:23Z</time>
      </trkpt>
      <trkpt lat="44.86994" lon="5.88667">
        <ele>1287.27</ele>
        <time>2021-11-13T10:21:24Z</time>
      </trkpt>
      <trkpt lat="44.86994" lon="5.88667">
        <ele>1285.848</ele>
        <time>2021-11-13T10:21:25Z</time>
      </trkpt>
      <trkpt lat="44.86994" lon="5.88667">
        <ele>1285.85</ele>
        <time>2021-11-13T10:21:26Z</time>
      </trkpt>
      <trkpt lat="44.86994" lon="5.88667">
        <ele>1285.003</ele>
        <time>2021-11-13T10:23:08Z</time>
      </trkpt>
      <trkpt lat="44.86994" lon="5.88669">
        <ele>1285.115</ele>
        <time>2021-11-13T10:23:09Z</time>
      </trkpt>
      <trkpt lat="44.86994" lon="5.88669">
        <ele>1285.115</ele>
        <time>2021-11-13T10:23:09Z</time>
      </trkpt>
      <trkpt lat="44.86994" lon="5.88669">
        <ele>1285.147</ele>
        <time>2021-11-13T10:23:10Z</time>
      </trkpt>
      <trkpt lat="44.86994" lon="5.88669">
        <ele>1283.829</ele>
        <time>2021-11-13T10:23:17Z</time>
      </trkpt>
      <trkpt lat="44.86993" lon="5.88671">
        <ele>1283.785</ele>
        <time>2021-11-13T10:23:18Z</time>
      </trkpt>
      <trkpt lat="44.86993" lon="5.88672">
        <ele>1283.728</ele>
        <time>2021-11-13T10:23:20Z</time>
      </trkpt>
      <trkpt lat="44.86993" lon="5.88672">
        <ele>1283.742</ele>
        <time>2021-11-13T10:23:47Z</time>
      </trkpt>
      <trkpt lat="44.86994" lon="5.88671">
        <ele>1283.26</ele>
        <time>2021-11-13T10:23:48Z</time>
      </trkpt>
      <trkpt lat="44.86994" lon="5.88671">
        <ele>1282.898</ele>
        <time>2021-11-13T10:23:50Z</time>
      </trkpt>
      <trkpt lat="44.86994" lon="5.88671">
        <ele>1282.874</ele>
        <time>2021-11-13T10:24:04Z</time>
      </trkpt>
      <trkpt lat="44.86994" lon="5.88669">
        <ele>1282.346</ele>
        <time>2021-11-13T10:24:05Z</time>
      </trkpt>
      <trkpt lat="44.86994" lon="5.88669">
        <ele>1282.872</ele>
        <time>2021-11-13T10:24:07Z</time>
      </trkpt>
      <trkpt lat="44.86994" lon="5.88669">
        <ele>1282.994</ele>
        <time>2021-11-13T10:24:27Z</time>
      </trkpt>
      <trkpt lat="44.86994" lon="5.88669">
        <ele>1283.403</ele>
        <time>2021-11-13T10:24:28Z</time>
      </trkpt>
      <trkpt lat="44.86994" lon="5.88669">
        <ele>1283.307</ele>
        <time>2021-11-13T10:24:29Z</time>
      </trkpt>
      <trkpt lat="44.86994" lon="5.88669">
        <ele>1283.208</ele>
        <time>2021-11-13T10:24:46Z</time>
      </trkpt>
      <trkpt lat="44.86994" lon="5.8867">
        <ele>1284.174</ele>
        <time>2021-11-13T10:24:47Z</time>
      </trkpt>
      <trkpt lat="44.86994" lon="5.8867">
        <ele>1284.174</ele>
        <time>2021-11-13T10:24:47Z</time>
      </trkpt>
      <trkpt lat="44.86994" lon="5.8867">
        <ele>1283.239</ele>
        <time>2021-11-13T10:24:48Z</time>
      </trkpt>
      <trkpt lat="44.86994" lon="5.8867">
        <ele>1284.169</ele>
        <time>2021-11-13T10:25:02Z</time>
      </trkpt>
      <trkpt lat="44.86996" lon="5.88674">
        <ele>1284.261</ele>
        <time>2021-11-13T10:25:03Z</time>
      </trkpt>
      <trkpt lat="44.86996" lon="5.88674">
        <ele>1284.523</ele>
        <time>2021-11-13T10:25:04Z</time>
      </trkpt>
      <trkpt lat="44.86996" lon="5.88674">
        <ele>1283.896</ele>
        <time>2021-11-13T10:26:56Z</time>
      </trkpt>
      <trkpt lat="44.86997" lon="5.88672">
        <ele>1283.64</ele>
        <time>2021-11-13T10:26:57Z</time>
      </trkpt>
      <trkpt lat="44.86997" lon="5.88672">
        <ele>1284.259</ele>
        <time>2021-11-13T10:26:58Z</time>
      </trkpt>
      <trkpt lat="44.86997" lon="5.88672">
        <ele>1284.259</ele>
        <time>2021-11-13T10:26:58Z</time>
      </trkpt>
      <trkpt lat="44.86997" lon="5.88672">
        <ele>1284.577</ele>
        <time>2021-11-13T10:26:59Z</time>
      </trkpt>
      <trkpt lat="44.86997" lon="5.88672">
        <ele>1284.55</ele>
        <time>2021-11-13T10:27:00Z</time>
      </trkpt>
      <trkpt lat="44.86997" lon="5.88672">
        <ele>1284.462</ele>
        <time>2021-11-13T10:27:03Z</time>
      </trkpt>
      <trkpt lat="44.86996" lon="5.88669">
        <ele>1284.568</ele>
        <time>2021-11-13T10:27:04Z</time>
      </trkpt>
      <trkpt lat="44.86997" lon="5.88669">
        <ele>1283.695</ele>
        <time>2021-11-13T10:27:05Z</time>
      </trkpt>
      <trkpt lat="44.86997" lon="5.88667">
        <ele>1284.352</ele>
        <time>2021-11-13T10:27:07Z</time>
      </trkpt>
      <trkpt lat="44.87" lon="5.88658">
        <ele>1284.69</ele>
        <time>2021-11-13T10:27:15Z</time>
      </trkpt>
      <trkpt lat="44.87002" lon="5.88654">
        <ele>1284.14</ele>
        <time>2021-11-13T10:27:19Z</time>
      </trkpt>
      <trkpt lat="44.87008" lon="5.88637">
        <ele>1286.621</ele>
        <time>2021-11-13T10:27:34Z</time>
      </trkpt>
      <trkpt lat="44.87014" lon="5.88625">
        <ele>1289.459</ele>
        <time>2021-11-13T10:27:43Z</time>
      </trkpt>
      <trkpt lat="44.87016" lon="5.88622">
        <ele>1290.733</ele>
        <time>2021-11-13T10:27:47Z</time>
      </trkpt>
      <trkpt lat="44.87019" lon="5.88617">
        <ele>1290.575</ele>
        <time>2021-11-13T10:27:52Z</time>
      </trkpt>
      <trkpt lat="44.8702" lon="5.88616">
        <ele>1290.996</ele>
        <time>2021-11-13T10:27:53Z</time>
      </trkpt>
      <trkpt lat="44.87025" lon="5.88605">
        <ele>1290.846</ele>
        <time>2021-11-13T10:28:03Z</time>
      </trkpt>
      <trkpt lat="44.87026" lon="5.88601">
        <ele>1290.706</ele>
        <time>2021-11-13T10:28:07Z</time>
      </trkpt>
      <trkpt lat="44.87037" lon="5.88584">
        <ele>1290.623</ele>
        <time>2021-11-13T10:28:24Z</time>
      </trkpt>
      <trkpt lat="44.87037" lon="5.88581">
        <ele>1289.807</ele>
        <time>2021-11-13T10:28:27Z</time>
      </trkpt>
      <trkpt lat="44.87037" lon="5.88576">
        <ele>1290.065</ele>
        <time>2021-11-13T10:28:32Z</time>
      </trkpt>
      <trkpt lat="44.87042" lon="5.88567">
        <ele>1289.884</ele>
        <time>2021-11-13T10:28:43Z</time>
      </trkpt>
      <trkpt lat="44.87047" lon="5.88559">
        <ele>1290.611</ele>
        <time>2021-11-13T10:28:52Z</time>
      </trkpt>
      <trkpt lat="44.87047" lon="5.88558">
        <ele>1290.434</ele>
        <time>2021-11-13T10:28:53Z</time>
      </trkpt>
      <trkpt lat="44.87048" lon="5.88556">
        <ele>1290.475</ele>
        <time>2021-11-13T10:28:56Z</time>
      </trkpt>
      <trkpt lat="44.87048" lon="5.88555">
        <ele>1290.522</ele>
        <time>2021-11-13T10:28:57Z</time>
      </trkpt>
      <trkpt lat="44.87055" lon="5.88547">
        <ele>1290.312</ele>
        <time>2021-11-13T10:29:06Z</time>
      </trkpt>
      <trkpt lat="44.87056" lon="5.88546">
        <ele>1291.29</ele>
        <time>2021-11-13T10:29:07Z</time>
      </trkpt>
      <trkpt lat="44.87059" lon="5.88543">
        <ele>1292.204</ele>
        <time>2021-11-13T10:29:11Z</time>
      </trkpt>
      <trkpt lat="44.8706" lon="5.88542">
        <ele>1292.371</ele>
        <time>2021-11-13T10:29:12Z</time>
      </trkpt>
      <trkpt lat="44.87068" lon="5.88531">
        <ele>1293.789</ele>
        <time>2021-11-13T10:29:23Z</time>
      </trkpt>
      <trkpt lat="44.87069" lon="5.88528">
        <ele>1293.544</ele>
        <time>2021-11-13T10:29:26Z</time>
      </trkpt>
      <trkpt lat="44.8707" lon="5.88526">
        <ele>1294.18</ele>
        <time>2021-11-13T10:29:29Z</time>
      </trkpt>
      <trkpt lat="44.87089" lon="5.88484">
        <ele>1296.636</ele>
        <time>2021-11-13T10:30:10Z</time>
      </trkpt>
      <trkpt lat="44.87089" lon="5.88483">
        <ele>1296.778</ele>
        <time>2021-11-13T10:30:11Z</time>
      </trkpt>
      <trkpt lat="44.87089" lon="5.88482">
        <ele>1296.875</ele>
        <time>2021-11-13T10:30:12Z</time>
      </trkpt>
      <trkpt lat="44.8709" lon="5.88479">
        <ele>1297.075</ele>
        <time>2021-11-13T10:30:15Z</time>
      </trkpt>
      <trkpt lat="44.8709" lon="5.88478">
        <ele>1296.385</ele>
        <time>2021-11-13T10:30:16Z</time>
      </trkpt>
      <trkpt lat="44.87089" lon="5.88474">
        <ele>1296.44</ele>
        <time>2021-11-13T10:30:21Z</time>
      </trkpt>
      <trkpt lat="44.87088" lon="5.88473">
        <ele>1296.271</ele>
        <time>2021-11-13T10:30:22Z</time>
      </trkpt>
      <trkpt lat="44.87087" lon="5.88469">
        <ele>1295.608</ele>
        <time>2021-11-13T10:30:26Z</time>
      </trkpt>
      <trkpt lat="44.8708" lon="5.88459">
        <ele>1294.548</ele>
        <time>2021-11-13T10:30:41Z</time>
      </trkpt>
      <trkpt lat="44.8708" lon="5.88458">
        <ele>1294.96</ele>
        <time>2021-11-13T10:30:42Z</time>
      </trkpt>
      <trkpt lat="44.87069" lon="5.88435">
        <ele>1294.888</ele>
        <time>2021-11-13T10:31:06Z</time>
      </trkpt>
      <trkpt lat="44.87069" lon="5.88435">
        <ele>1294.621</ele>
        <time>2021-11-13T10:31:07Z</time>
      </trkpt>
      <trkpt lat="44.87069" lon="5.88435">
        <ele>1294.621</ele>
        <time>2021-11-13T10:31:07Z</time>
      </trkpt>
      <trkpt lat="44.87069" lon="5.88435">
        <ele>1294.37</ele>
        <time>2021-11-13T10:31:08Z</time>
      </trkpt>
      <trkpt lat="44.87069" lon="5.88435">
        <ele>1294.37</ele>
        <time>2021-11-13T10:31:08Z</time>
      </trkpt>
      <trkpt lat="44.87069" lon="5.88435">
        <ele>1294.043</ele>
        <time>2021-11-13T10:31:09Z</time>
      </trkpt>
      <trkpt lat="44.87069" lon="5.88435">
        <ele>1294.141</ele>
        <time>2021-11-13T10:31:11Z</time>
      </trkpt>
      <trkpt lat="44.87069" lon="5.88435">
        <ele>1294.548</ele>
        <time>2021-11-13T10:31:45Z</time>
      </trkpt>
      <trkpt lat="44.87069" lon="5.88436">
        <ele>1294.631</ele>
        <time>2021-11-13T10:31:46Z</time>
      </trkpt>
      <trkpt lat="44.87069" lon="5.88436">
        <ele>1294.757</ele>
        <time>2021-11-13T10:31:47Z</time>
      </trkpt>
      <trkpt lat="44.87069" lon="5.88436">
        <ele>1294.958</ele>
        <time>2021-11-13T10:32:09Z</time>
      </trkpt>
      <trkpt lat="44.87069" lon="5.88435">
        <ele>1292.985</ele>
        <time>2021-11-13T10:32:10Z</time>
      </trkpt>
      <trkpt lat="44.87069" lon="5.88434">
        <ele>1291.033</ele>
        <time>2021-11-13T10:32:11Z</time>
      </trkpt>
      <trkpt lat="44.87069" lon="5.88433">
        <ele>1290.804</ele>
        <time>2021-11-13T10:32:13Z</time>
      </trkpt>
      <trkpt lat="44.87069" lon="5.88432">
        <ele>1290.978</ele>
        <time>2021-11-13T10:32:14Z</time>
      </trkpt>
      <trkpt lat="44.87069" lon="5.88432">
        <ele>1291.008</ele>
        <time>2021-11-13T10:32:15Z</time>
      </trkpt>
      <trkpt lat="44.87069" lon="5.88432">
        <ele>1290.991</ele>
        <time>2021-11-13T10:32:50Z</time>
      </trkpt>
      <trkpt lat="44.87067" lon="5.88432">
        <ele>1291.692</ele>
        <time>2021-11-13T10:32:51Z</time>
      </trkpt>
      <trkpt lat="44.87067" lon="5.88432">
        <ele>1292.136</ele>
        <time>2021-11-13T10:32:53Z</time>
      </trkpt>
      <trkpt lat="44.87067" lon="5.88432">
        <ele>1292.136</ele>
        <time>2021-11-13T10:32:53Z</time>
      </trkpt>
      <trkpt lat="44.87066" lon="5.88432">
        <ele>1292.79</ele>
        <time>2021-11-13T10:32:54Z</time>
      </trkpt>
      <trkpt lat="44.87066" lon="5.88432">
        <ele>1292.84</ele>
        <time>2021-11-13T10:32:55Z</time>
      </trkpt>
      <trkpt lat="44.87066" lon="5.88432">
        <ele>1292.924</ele>
        <time>2021-11-13T10:33:55Z</time>
      </trkpt>
      <trkpt lat="44.87067" lon="5.88433">
        <ele>1292.945</ele>
        <time>2021-11-13T10:33:56Z</time>
      </trkpt>
      <trkpt lat="44.87068" lon="5.88432">
        <ele>1291.797</ele>
        <time>2021-11-13T10:33:57Z</time>
      </trkpt>
      <trkpt lat="44.87068" lon="5.88432">
        <ele>1291.797</ele>
        <time>2021-11-13T10:33:57Z</time>
      </trkpt>
      <trkpt lat="44.87068" lon="5.88432">
        <ele>1291.771</ele>
        <time>2021-11-13T10:33:58Z</time>
      </trkpt>
      <trkpt lat="44.87068" lon="5.88432">
        <ele>1291.84</ele>
        <time>2021-11-13T10:34:05Z</time>
      </trkpt>
      <trkpt lat="44.87067" lon="5.88431">
        <ele>1292.682</ele>
        <time>2021-11-13T10:34:06Z</time>
      </trkpt>
      <trkpt lat="44.87067" lon="5.8843">
        <ele>1291.899</ele>
        <time>2021-11-13T10:34:09Z</time>
      </trkpt>
      <trkpt lat="44.87067" lon="5.8843">
        <ele>1291.842</ele>
        <time>2021-11-13T10:34:44Z</time>
      </trkpt>
      <trkpt lat="44.87067" lon="5.8843">
        <ele>1291.796</ele>
        <time>2021-11-13T10:34:45Z</time>
      </trkpt>
      <trkpt lat="44.87067" lon="5.8843">
        <ele>1291.796</ele>
        <time>2021-11-13T10:34:45Z</time>
      </trkpt>
      <trkpt lat="44.87067" lon="5.8843">
        <ele>1291.8</ele>
        <time>2021-11-13T10:34:46Z</time>
      </trkpt>
      <trkpt lat="44.87067" lon="5.8843">
        <ele>1291.8</ele>
        <time>2021-11-13T10:34:46Z</time>
      </trkpt>
      <trkpt lat="44.87067" lon="5.8843">
        <ele>1292.154</ele>
        <time>2021-11-13T10:34:47Z</time>
      </trkpt>
      <trkpt lat="44.87067" lon="5.8843">
        <ele>1292.14</ele>
        <time>2021-11-13T10:34:48Z</time>
      </trkpt>
      <trkpt lat="44.87067" lon="5.8843">
        <ele>1292.139</ele>
        <time>2021-11-13T10:34:49Z</time>
      </trkpt>
      <trkpt lat="44.87066" lon="5.8843">
        <ele>1291.687</ele>
        <time>2021-11-13T10:34:50Z</time>
      </trkpt>
      <trkpt lat="44.87065" lon="5.8843">
        <ele>1290.719</ele>
        <time>2021-11-13T10:34:53Z</time>
      </trkpt>
      <trkpt lat="44.87064" lon="5.88428">
        <ele>1290.352</ele>
        <time>2021-11-13T10:34:55Z</time>
      </trkpt>
      <trkpt lat="44.87062" lon="5.88427">
        <ele>1291.363</ele>
        <time>2021-11-13T10:35:00Z</time>
      </trkpt>
      <trkpt lat="44.87062" lon="5.88427">
        <ele>1291.363</ele>
        <time>2021-11-13T10:35:00Z</time>
      </trkpt>
      <trkpt lat="44.87062" lon="5.88428">
        <ele>1291.296</ele>
        <time>2021-11-13T10:35:01Z</time>
      </trkpt>
      <trkpt lat="44.87061" lon="5.88419">
        <ele>1293.241</ele>
        <time>2021-11-13T10:35:10Z</time>
      </trkpt>
      <trkpt lat="44.87061" lon="5.88419">
        <ele>1292.155</ele>
        <time>2021-11-13T10:35:12Z</time>
      </trkpt>
      <trkpt lat="44.87061" lon="5.88417">
        <ele>1292.568</ele>
        <time>2021-11-13T10:35:13Z</time>
      </trkpt>
      <trkpt lat="44.8706" lon="5.88415">
        <ele>1292.985</ele>
        <time>2021-11-13T10:35:15Z</time>
      </trkpt>
      <trkpt lat="44.87056" lon="5.88403">
        <ele>1295.071</ele>
        <time>2021-11-13T10:35:25Z</time>
      </trkpt>
      <trkpt lat="44.87055" lon="5.88399">
        <ele>1297.148</ele>
        <time>2021-11-13T10:35:29Z</time>
      </trkpt>
      <trkpt lat="44.87055" lon="5.88398">
        <ele>1297.31</ele>
        <time>2021-11-13T10:35:30Z</time>
      </trkpt>
      <trkpt lat="44.87054" lon="5.88383">
        <ele>1298.406</ele>
        <time>2021-11-13T10:35:44Z</time>
      </trkpt>
      <trkpt lat="44.87054" lon="5.88381">
        <ele>1298.054</ele>
        <time>2021-11-13T10:35:46Z</time>
      </trkpt>
      <trkpt lat="44.87055" lon="5.8838">
        <ele>1297.817</ele>
        <time>2021-11-13T10:35:47Z</time>
      </trkpt>
      <trkpt lat="44.87055" lon="5.8838">
        <ele>1297.815</ele>
        <time>2021-11-13T10:35:48Z</time>
      </trkpt>
      <trkpt lat="44.87054" lon="5.88374">
        <ele>1298.898</ele>
        <time>2021-11-13T10:35:53Z</time>
      </trkpt>
      <trkpt lat="44.87054" lon="5.88372">
        <ele>1298.459</ele>
        <time>2021-11-13T10:35:55Z</time>
      </trkpt>
      <trkpt lat="44.87054" lon="5.88371">
        <ele>1298.157</ele>
        <time>2021-11-13T10:35:56Z</time>
      </trkpt>
      <trkpt lat="44.87053" lon="5.88364">
        <ele>1298.444</ele>
        <time>2021-11-13T10:36:02Z</time>
      </trkpt>
      <trkpt lat="44.87053" lon="5.8836">
        <ele>1299.516</ele>
        <time>2021-11-13T10:36:05Z</time>
      </trkpt>
      <trkpt lat="44.87053" lon="5.88352">
        <ele>1298.084</ele>
        <time>2021-11-13T10:36:13Z</time>
      </trkpt>
      <trkpt lat="44.87054" lon="5.88349">
        <ele>1298.207</ele>
        <time>2021-11-13T10:36:15Z</time>
      </trkpt>
      <trkpt lat="44.87054" lon="5.88341">
        <ele>1298.06</ele>
        <time>2021-11-13T10:36:22Z</time>
      </trkpt>
      <trkpt lat="44.87054" lon="5.8834">
        <ele>1297.449</ele>
        <time>2021-11-13T10:36:23Z</time>
      </trkpt>
      <trkpt lat="44.87054" lon="5.88339">
        <ele>1297.88</ele>
        <time>2021-11-13T10:36:24Z</time>
      </trkpt>
      <trkpt lat="44.87053" lon="5.88335">
        <ele>1298.107</ele>
        <time>2021-11-13T10:36:27Z</time>
      </trkpt>
      <trkpt lat="44.87054" lon="5.88331">
        <ele>1298.482</ele>
        <time>2021-11-13T10:36:32Z</time>
      </trkpt>
      <trkpt lat="44.87055" lon="5.88329">
        <ele>1298.813</ele>
        <time>2021-11-13T10:36:34Z</time>
      </trkpt>
      <trkpt lat="44.87055" lon="5.88328">
        <ele>1298.919</ele>
        <time>2021-11-13T10:36:35Z</time>
      </trkpt>
      <trkpt lat="44.87055" lon="5.88327">
        <ele>1298.777</ele>
        <time>2021-11-13T10:36:36Z</time>
      </trkpt>
      <trkpt lat="44.87054" lon="5.88322">
        <ele>1298.99</ele>
        <time>2021-11-13T10:36:39Z</time>
      </trkpt>
      <trkpt lat="44.87054" lon="5.88321">
        <ele>1298.907</ele>
        <time>2021-11-13T10:36:40Z</time>
      </trkpt>
      <trkpt lat="44.87054" lon="5.88316">
        <ele>1299.697</ele>
        <time>2021-11-13T10:36:44Z</time>
      </trkpt>
      <trkpt lat="44.87054" lon="5.88314">
        <ele>1299.605</ele>
        <time>2021-11-13T10:36:45Z</time>
      </trkpt>
      <trkpt lat="44.87055" lon="5.88312">
        <ele>1299.646</ele>
        <time>2021-11-13T10:36:46Z</time>
      </trkpt>
      <trkpt lat="44.87054" lon="5.88304">
        <ele>1299.824</ele>
        <time>2021-11-13T10:36:50Z</time>
      </trkpt>
      <trkpt lat="44.87053" lon="5.88299">
        <ele>1299.562</ele>
        <time>2021-11-13T10:36:54Z</time>
      </trkpt>
      <trkpt lat="44.87058" lon="5.88285">
        <ele>1298.537</ele>
        <time>2021-11-13T10:37:10Z</time>
      </trkpt>
      <trkpt lat="44.87058" lon="5.88284">
        <ele>1298.644</ele>
        <time>2021-11-13T10:37:11Z</time>
      </trkpt>
      <trkpt lat="44.87059" lon="5.88281">
        <ele>1298.81</ele>
        <time>2021-11-13T10:37:14Z</time>
      </trkpt>
      <trkpt lat="44.8706" lon="5.88259">
        <ele>1298.427</ele>
        <time>2021-11-13T10:37:31Z</time>
      </trkpt>
      <trkpt lat="44.87062" lon="5.88248">
        <ele>1295.962</ele>
        <time>2021-11-13T10:37:44Z</time>
      </trkpt>
      <trkpt lat="44.87062" lon="5.88247">
        <ele>1295.67</ele>
        <time>2021-11-13T10:37:45Z</time>
      </trkpt>
      <trkpt lat="44.87062" lon="5.88243">
        <ele>1295.56</ele>
        <time>2021-11-13T10:37:49Z</time>
      </trkpt>
      <trkpt lat="44.87061" lon="5.88239">
        <ele>1295.585</ele>
        <time>2021-11-13T10:37:52Z</time>
      </trkpt>
      <trkpt lat="44.87062" lon="5.88236">
        <ele>1295.603</ele>
        <time>2021-11-13T10:37:54Z</time>
      </trkpt>
      <trkpt lat="44.87062" lon="5.88227">
        <ele>1294.955</ele>
        <time>2021-11-13T10:38:01Z</time>
      </trkpt>
      <trkpt lat="44.87062" lon="5.88224">
        <ele>1294.989</ele>
        <time>2021-11-13T10:38:04Z</time>
      </trkpt>
      <trkpt lat="44.87063" lon="5.88212">
        <ele>1293.728</ele>
        <time>2021-11-13T10:38:16Z</time>
      </trkpt>
      <trkpt lat="44.87063" lon="5.88209">
        <ele>1293.22</ele>
        <time>2021-11-13T10:38:19Z</time>
      </trkpt>
      <trkpt lat="44.87063" lon="5.88203">
        <ele>1293.04</ele>
        <time>2021-11-13T10:38:23Z</time>
      </trkpt>
      <trkpt lat="44.87063" lon="5.88202">
        <ele>1293.401</ele>
        <time>2021-11-13T10:38:24Z</time>
      </trkpt>
      <trkpt lat="44.87064" lon="5.88199">
        <ele>1292.909</ele>
        <time>2021-11-13T10:38:27Z</time>
      </trkpt>
      <trkpt lat="44.87068" lon="5.88187">
        <ele>1292.732</ele>
        <time>2021-11-13T10:38:39Z</time>
      </trkpt>
      <trkpt lat="44.87068" lon="5.88186">
        <ele>1292.413</ele>
        <time>2021-11-13T10:38:40Z</time>
      </trkpt>
      <trkpt lat="44.8707" lon="5.88175">
        <ele>1290.342</ele>
        <time>2021-11-13T10:38:48Z</time>
      </trkpt>
      <trkpt lat="44.87072" lon="5.88166">
        <ele>1290.853</ele>
        <time>2021-11-13T10:38:54Z</time>
      </trkpt>
      <trkpt lat="44.8708" lon="5.88151">
        <ele>1288.933</ele>
        <time>2021-11-13T10:39:09Z</time>
      </trkpt>
      <trkpt lat="44.87082" lon="5.88146">
        <ele>1287.88</ele>
        <time>2021-11-13T10:39:13Z</time>
      </trkpt>
      <trkpt lat="44.87082" lon="5.88142">
        <ele>1287.523</ele>
        <time>2021-11-13T10:39:16Z</time>
      </trkpt>
      <trkpt lat="44.87084" lon="5.88137">
        <ele>1286.936</ele>
        <time>2021-11-13T10:39:21Z</time>
      </trkpt>
      <trkpt lat="44.87085" lon="5.88135">
        <ele>1286.109</ele>
        <time>2021-11-13T10:39:24Z</time>
      </trkpt>
      <trkpt lat="44.87085" lon="5.88134">
        <ele>1285.966</ele>
        <time>2021-11-13T10:39:25Z</time>
      </trkpt>
      <trkpt lat="44.87085" lon="5.88133">
        <ele>1285.969</ele>
        <time>2021-11-13T10:39:26Z</time>
      </trkpt>
      <trkpt lat="44.87086" lon="5.88133">
        <ele>1286.079</ele>
        <time>2021-11-13T10:39:27Z</time>
      </trkpt>
      <trkpt lat="44.87092" lon="5.88118">
        <ele>1286.066</ele>
        <time>2021-11-13T10:39:41Z</time>
      </trkpt>
      <trkpt lat="44.87094" lon="5.88114">
        <ele>1286.367</ele>
        <time>2021-11-13T10:39:45Z</time>
      </trkpt>
      <trkpt lat="44.87096" lon="5.88098">
        <ele>1284.283</ele>
        <time>2021-11-13T10:39:59Z</time>
      </trkpt>
      <trkpt lat="44.87096" lon="5.88097">
        <ele>1284.411</ele>
        <time>2021-11-13T10:40:01Z</time>
      </trkpt>
      <trkpt lat="44.87096" lon="5.88097">
        <ele>1284.319</ele>
        <time>2021-11-13T10:40:02Z</time>
      </trkpt>
      <trkpt lat="44.87096" lon="5.88097">
        <ele>1284.551</ele>
        <time>2021-11-13T10:40:08Z</time>
      </trkpt>
      <trkpt lat="44.87096" lon="5.88094">
        <ele>1284.405</ele>
        <time>2021-11-13T10:40:09Z</time>
      </trkpt>
      <trkpt lat="44.87096" lon="5.88093">
        <ele>1283.967</ele>
        <time>2021-11-13T10:40:10Z</time>
      </trkpt>
      <trkpt lat="44.87097" lon="5.88089">
        <ele>1285.315</ele>
        <time>2021-11-13T10:40:14Z</time>
      </trkpt>
      <trkpt lat="44.87098" lon="5.88085">
        <ele>1284.971</ele>
        <time>2021-11-13T10:40:18Z</time>
      </trkpt>
      <trkpt lat="44.87098" lon="5.88084">
        <ele>1285.045</ele>
        <time>2021-11-13T10:40:19Z</time>
      </trkpt>
      <trkpt lat="44.871" lon="5.88076">
        <ele>1282.431</ele>
        <time>2021-11-13T10:40:26Z</time>
      </trkpt>
      <trkpt lat="44.87102" lon="5.88069">
        <ele>1279.102</ele>
        <time>2021-11-13T10:40:31Z</time>
      </trkpt>
      <trkpt lat="44.87111" lon="5.88041">
        <ele>1276.352</ele>
        <time>2021-11-13T10:40:56Z</time>
      </trkpt>
      <trkpt lat="44.87111" lon="5.8804">
        <ele>1276.423</ele>
        <time>2021-11-13T10:40:57Z</time>
      </trkpt>
      <trkpt lat="44.87111" lon="5.88039">
        <ele>1276.385</ele>
        <time>2021-11-13T10:40:59Z</time>
      </trkpt>
      <trkpt lat="44.87111" lon="5.88039">
        <ele>1276.385</ele>
        <time>2021-11-13T10:40:59Z</time>
      </trkpt>
      <trkpt lat="44.87111" lon="5.88039">
        <ele>1276.384</ele>
        <time>2021-11-13T10:41:00Z</time>
      </trkpt>
      <trkpt lat="44.87111" lon="5.88039">
        <ele>1276.384</ele>
        <time>2021-11-13T10:41:00Z</time>
      </trkpt>
      <trkpt lat="44.87111" lon="5.88038">
        <ele>1276.696</ele>
        <time>2021-11-13T10:41:01Z</time>
      </trkpt>
      <trkpt lat="44.87111" lon="5.88038">
        <ele>1276.696</ele>
        <time>2021-11-13T10:41:01Z</time>
      </trkpt>
      <trkpt lat="44.8711" lon="5.88037">
        <ele>1276.628</ele>
        <time>2021-11-13T10:41:02Z</time>
      </trkpt>
      <trkpt lat="44.87109" lon="5.88037">
        <ele>1276.375</ele>
        <time>2021-11-13T10:41:04Z</time>
      </trkpt>
      <trkpt lat="44.87107" lon="5.88031">
        <ele>1275.424</ele>
        <time>2021-11-13T10:41:11Z</time>
      </trkpt>
      <trkpt lat="44.87108" lon="5.88029">
        <ele>1275.411</ele>
        <time>2021-11-13T10:41:13Z</time>
      </trkpt>
      <trkpt lat="44.87107" lon="5.88021">
        <ele>1274.675</ele>
        <time>2021-11-13T10:41:21Z</time>
      </trkpt>
      <trkpt lat="44.87107" lon="5.88021">
        <ele>1274.675</ele>
        <time>2021-11-13T10:41:21Z</time>
      </trkpt>
      <trkpt lat="44.87108" lon="5.88021">
        <ele>1274.584</ele>
        <time>2021-11-13T10:41:22Z</time>
      </trkpt>
      <trkpt lat="44.87107" lon="5.88021">
        <ele>1274.597</ele>
        <time>2021-11-13T10:41:24Z</time>
      </trkpt>
      <trkpt lat="44.87106" lon="5.8802">
        <ele>1274.432</ele>
        <time>2021-11-13T10:41:27Z</time>
      </trkpt>
      <trkpt lat="44.87105" lon="5.8802">
        <ele>1273.693</ele>
        <time>2021-11-13T10:41:31Z</time>
      </trkpt>
      <trkpt lat="44.87105" lon="5.8802">
        <ele>1273.693</ele>
        <time>2021-11-13T10:41:31Z</time>
      </trkpt>
      <trkpt lat="44.87105" lon="5.8802">
        <ele>1273.385</ele>
        <time>2021-11-13T10:41:32Z</time>
      </trkpt>
      <trkpt lat="44.87104" lon="5.88019">
        <ele>1273.226</ele>
        <time>2021-11-13T10:41:33Z</time>
      </trkpt>
      <trkpt lat="44.87104" lon="5.88018">
        <ele>1273.098</ele>
        <time>2021-11-13T10:41:34Z</time>
      </trkpt>
      <trkpt lat="44.87103" lon="5.88013">
        <ele>1272.354</ele>
        <time>2021-11-13T10:41:39Z</time>
      </trkpt>
      <trkpt lat="44.87103" lon="5.88013">
        <ele>1272.06</ele>
        <time>2021-11-13T10:41:41Z</time>
      </trkpt>
      <trkpt lat="44.87103" lon="5.88013">
        <ele>1272.026</ele>
        <time>2021-11-13T10:41:42Z</time>
      </trkpt>
      <trkpt lat="44.87102" lon="5.88013">
        <ele>1271.195</ele>
        <time>2021-11-13T10:41:47Z</time>
      </trkpt>
      <trkpt lat="44.87102" lon="5.88013">
        <ele>1271.916</ele>
        <time>2021-11-13T10:41:48Z</time>
      </trkpt>
      <trkpt lat="44.87102" lon="5.88014">
        <ele>1271.428</ele>
        <time>2021-11-13T10:42:09Z</time>
      </trkpt>
      <trkpt lat="44.87102" lon="5.88014">
        <ele>1271.626</ele>
        <time>2021-11-13T10:42:10Z</time>
      </trkpt>
      <trkpt lat="44.87102" lon="5.88014">
        <ele>1271.899</ele>
        <time>2021-11-13T10:42:12Z</time>
      </trkpt>
      <trkpt lat="44.87102" lon="5.88014">
        <ele>1271.903</ele>
        <time>2021-11-13T10:43:09Z</time>
      </trkpt>
      <trkpt lat="44.87102" lon="5.88014">
        <ele>1271.833</ele>
        <time>2021-11-13T10:43:10Z</time>
      </trkpt>
      <trkpt lat="44.87102" lon="5.88014">
        <ele>1271.833</ele>
        <time>2021-11-13T10:43:10Z</time>
      </trkpt>
      <trkpt lat="44.87102" lon="5.88014">
        <ele>1271.781</ele>
        <time>2021-11-13T10:43:11Z</time>
      </trkpt>
      <trkpt lat="44.87102" lon="5.88014">
        <ele>1271.781</ele>
        <time>2021-11-13T10:43:11Z</time>
      </trkpt>
      <trkpt lat="44.87102" lon="5.88014">
        <ele>1271.828</ele>
        <time>2021-11-13T10:43:12Z</time>
      </trkpt>
      <trkpt lat="44.87102" lon="5.88014">
        <ele>1271.781</ele>
        <time>2021-11-13T10:43:15Z</time>
      </trkpt>
      <trkpt lat="44.87105" lon="5.88026">
        <ele>1271.802</ele>
        <time>2021-11-13T10:43:22Z</time>
      </trkpt>
      <trkpt lat="44.87106" lon="5.88027">
        <ele>1271.042</ele>
        <time>2021-11-13T10:43:24Z</time>
      </trkpt>
      <trkpt lat="44.87105" lon="5.88028">
        <ele>1271.068</ele>
        <time>2021-11-13T10:43:25Z</time>
      </trkpt>
      <trkpt lat="44.87104" lon="5.88033">
        <ele>1271.34</ele>
        <time>2021-11-13T10:43:27Z</time>
      </trkpt>
      <trkpt lat="44.87103" lon="5.88039">
        <ele>1271.21</ele>
        <time>2021-11-13T10:43:29Z</time>
      </trkpt>
      <trkpt lat="44.87101" lon="5.88043">
        <ele>1271.02</ele>
        <time>2021-11-13T10:43:32Z</time>
      </trkpt>
      <trkpt lat="44.87101" lon="5.88043">
        <ele>1271.02</ele>
        <time>2021-11-13T10:43:32Z</time>
      </trkpt>
      <trkpt lat="44.87101" lon="5.88041">
        <ele>1270.107</ele>
        <time>2021-11-13T10:43:33Z</time>
      </trkpt>
      <trkpt lat="44.87087" lon="5.88014">
        <ele>1272.093</ele>
        <time>2021-11-13T10:43:36Z</time>
      </trkpt>
      <trkpt lat="44.87086" lon="5.88015">
        <ele>1271.546</ele>
        <time>2021-11-13T10:43:39Z</time>
      </trkpt>
      <trkpt lat="44.87083" lon="5.8802">
        <ele>1272.99</ele>
        <time>2021-11-13T10:43:42Z</time>
      </trkpt>
      <trkpt lat="44.87079" lon="5.88027">
        <ele>1277.734</ele>
        <time>2021-11-13T10:43:44Z</time>
      </trkpt>
      <trkpt lat="44.87079" lon="5.88026">
        <ele>1277.58</ele>
        <time>2021-11-13T10:43:45Z</time>
      </trkpt>
      <trkpt lat="44.8708" lon="5.88026">
        <ele>1273.49</ele>
        <time>2021-11-13T10:43:46Z</time>
      </trkpt>
      <trkpt lat="44.8708" lon="5.88021">
        <ele>1270.08</ele>
        <time>2021-11-13T10:43:48Z</time>
      </trkpt>
      <trkpt lat="44.87079" lon="5.88019">
        <ele>1270.222</ele>
        <time>2021-11-13T10:43:49Z</time>
      </trkpt>
      <trkpt lat="44.87078" lon="5.88017">
        <ele>1269.746</ele>
        <time>2021-11-13T10:43:50Z</time>
      </trkpt>
      <trkpt lat="44.87081" lon="5.88013">
        <ele>1270.411</ele>
        <time>2021-11-13T10:43:52Z</time>
      </trkpt>
      <trkpt lat="44.87086" lon="5.8801">
        <ele>1269.918</ele>
        <time>2021-11-13T10:43:54Z</time>
      </trkpt>
      <trkpt lat="44.87086" lon="5.8801">
        <ele>1269.918</ele>
        <time>2021-11-13T10:43:54Z</time>
      </trkpt>
      <trkpt lat="44.87086" lon="5.8801">
        <ele>1270.607</ele>
        <time>2021-11-13T10:43:55Z</time>
      </trkpt>
      <trkpt lat="44.87086" lon="5.8801">
        <ele>1270.607</ele>
        <time>2021-11-13T10:43:55Z</time>
      </trkpt>
      <trkpt lat="44.8709" lon="5.8801">
        <ele>1270.432</ele>
        <time>2021-11-13T10:43:56Z</time>
      </trkpt>
      <trkpt lat="44.8709" lon="5.8801">
        <ele>1270.432</ele>
        <time>2021-11-13T10:43:56Z</time>
      </trkpt>
      <trkpt lat="44.87092" lon="5.88008">
        <ele>1266.682</ele>
        <time>2021-11-13T10:43:57Z</time>
      </trkpt>
      <trkpt lat="44.87093" lon="5.88006">
        <ele>1265.739</ele>
        <time>2021-11-13T10:43:58Z</time>
      </trkpt>
      <trkpt lat="44.87094" lon="5.88005">
        <ele>1265.551</ele>
        <time>2021-11-13T10:43:59Z</time>
      </trkpt>
      <trkpt lat="44.87095" lon="5.88005">
        <ele>1265.175</ele>
        <time>2021-11-13T10:43:59Z</time>
      </trkpt>
      <trkpt lat="44.87096" lon="5.88">
        <ele>1270.169</ele>
        <time>2021-11-13T10:44:03Z</time>
      </trkpt>
      <trkpt lat="44.87095" lon="5.87998">
        <ele>1269.93</ele>
        <time>2021-11-13T10:44:07Z</time>
      </trkpt>
      <trkpt lat="44.87097" lon="5.88002">
        <ele>1269.555</ele>
        <time>2021-11-13T10:44:13Z</time>
      </trkpt>
      <trkpt lat="44.87097" lon="5.88002">
        <ele>1270.229</ele>
        <time>2021-11-13T10:44:14Z</time>
      </trkpt>
      <trkpt lat="44.87097" lon="5.88002">
        <ele>1270.229</ele>
        <time>2021-11-13T10:44:14Z</time>
      </trkpt>
      <trkpt lat="44.87098" lon="5.88002">
        <ele>1270.637</ele>
        <time>2021-11-13T10:44:15Z</time>
      </trkpt>
      <trkpt lat="44.87098" lon="5.88002">
        <ele>1269.494</ele>
        <time>2021-11-13T10:44:16Z</time>
      </trkpt>
      <trkpt lat="44.87098" lon="5.88002">
        <ele>1269.494</ele>
        <time>2021-11-13T10:44:16Z</time>
      </trkpt>
      <trkpt lat="44.87098" lon="5.88002">
        <ele>1269.281</ele>
        <time>2021-11-13T10:44:17Z</time>
      </trkpt>
      <trkpt lat="44.87098" lon="5.88002">
        <ele>1267.96</ele>
        <time>2021-11-13T10:44:18Z</time>
      </trkpt>
      <trkpt lat="44.87098" lon="5.88002">
        <ele>1266.091</ele>
        <time>2021-11-13T10:44:19Z</time>
      </trkpt>
      <trkpt lat="44.87098" lon="5.88002">
        <ele>1266.162</ele>
        <time>2021-11-13T10:44:20Z</time>
      </trkpt>
      <trkpt lat="44.87099" lon="5.88001">
        <ele>1266.261</ele>
        <time>2021-11-13T10:44:21Z</time>
      </trkpt>
      <trkpt lat="44.871" lon="5.88001">
        <ele>1265.018</ele>
        <time>2021-11-13T10:44:22Z</time>
      </trkpt>
      <trkpt lat="44.87101" lon="5.88001">
        <ele>1265.157</ele>
        <time>2021-11-13T10:44:23Z</time>
      </trkpt>
      <trkpt lat="44.87099" lon="5.87998">
        <ele>1263.788</ele>
        <time>2021-11-13T10:44:28Z</time>
      </trkpt>
      <trkpt lat="44.87098" lon="5.87998">
        <ele>1264.254</ele>
        <time>2021-11-13T10:44:30Z</time>
      </trkpt>
      <trkpt lat="44.87098" lon="5.88">
        <ele>1264.22</ele>
        <time>2021-11-13T10:44:31Z</time>
      </trkpt>
      <trkpt lat="44.87099" lon="5.88002">
        <ele>1260.348</ele>
        <time>2021-11-13T10:44:33Z</time>
      </trkpt>
      <trkpt lat="44.87101" lon="5.88006">
        <ele>1263.244</ele>
        <time>2021-11-13T10:44:35Z</time>
      </trkpt>
      <trkpt lat="44.87103" lon="5.8801">
        <ele>1259.905</ele>
        <time>2021-11-13T10:44:37Z</time>
      </trkpt>
      <trkpt lat="44.87104" lon="5.88013">
        <ele>1257.913</ele>
        <time>2021-11-13T10:44:38Z</time>
      </trkpt>
      <trkpt lat="44.87104" lon="5.88016">
        <ele>1265.436</ele>
        <time>2021-11-13T10:44:40Z</time>
      </trkpt>
      <trkpt lat="44.87105" lon="5.88016">
        <ele>1267.253</ele>
        <time>2021-11-13T10:44:41Z</time>
      </trkpt>
      <trkpt lat="44.87104" lon="5.88015">
        <ele>1271.334</ele>
        <time>2021-11-13T10:44:44Z</time>
      </trkpt>
      <trkpt lat="44.87104" lon="5.88015">
        <ele>1271.334</ele>
        <time>2021-11-13T10:44:44Z</time>
      </trkpt>
      <trkpt lat="44.87104" lon="5.88016">
        <ele>1270.746</ele>
        <time>2021-11-13T10:44:45Z</time>
      </trkpt>
      <trkpt lat="44.87104" lon="5.88016">
        <ele>1270.782</ele>
        <time>2021-11-13T10:44:47Z</time>
      </trkpt>
      <trkpt lat="44.87104" lon="5.88016">
        <ele>1270.782</ele>
        <time>2021-11-13T10:44:47Z</time>
      </trkpt>
      <trkpt lat="44.87105" lon="5.88017">
        <ele>1270.524</ele>
        <time>2021-11-13T10:44:48Z</time>
      </trkpt>
      <trkpt lat="44.87105" lon="5.88017">
        <ele>1270.909</ele>
        <time>2021-11-13T10:44:49Z</time>
      </trkpt>
      <trkpt lat="44.87105" lon="5.88017">
        <ele>1271.859</ele>
        <time>2021-11-13T10:44:50Z</time>
      </trkpt>
      <trkpt lat="44.87105" lon="5.88017">
        <ele>1271.435</ele>
        <time>2021-11-13T10:44:52Z</time>
      </trkpt>
      <trkpt lat="44.87104" lon="5.88016">
        <ele>1271.476</ele>
        <time>2021-11-13T10:44:53Z</time>
      </trkpt>
      <trkpt lat="44.87104" lon="5.88016">
        <ele>1271.451</ele>
        <time>2021-11-13T10:44:54Z</time>
      </trkpt>
      <trkpt lat="44.87104" lon="5.88016">
        <ele>1271.451</ele>
        <time>2021-11-13T10:44:54Z</time>
      </trkpt>
      <trkpt lat="44.87103" lon="5.88016">
        <ele>1271.077</ele>
        <time>2021-11-13T10:44:55Z</time>
      </trkpt>
      <trkpt lat="44.87103" lon="5.88016">
        <ele>1271.809</ele>
        <time>2021-11-13T10:44:57Z</time>
      </trkpt>
      <trkpt lat="44.87103" lon="5.88016">
        <ele>1271.784</ele>
        <time>2021-11-13T10:45:08Z</time>
      </trkpt>
      <trkpt lat="44.87104" lon="5.88016">
        <ele>1271.659</ele>
        <time>2021-11-13T10:45:09Z</time>
      </trkpt>
      <trkpt lat="44.87104" lon="5.8802">
        <ele>1271.577</ele>
        <time>2021-11-13T10:45:11Z</time>
      </trkpt>
      <trkpt lat="44.87105" lon="5.88023">
        <ele>1270.182</ele>
        <time>2021-11-13T10:45:13Z</time>
      </trkpt>
      <trkpt lat="44.87106" lon="5.88027">
        <ele>1272.384</ele>
        <time>2021-11-13T10:45:16Z</time>
      </trkpt>
      <trkpt lat="44.87106" lon="5.88029">
        <ele>1273.467</ele>
        <time>2021-11-13T10:45:18Z</time>
      </trkpt>
      <trkpt lat="44.87105" lon="5.88028">
        <ele>1273.031</ele>
        <time>2021-11-13T10:45:21Z</time>
      </trkpt>
      <trkpt lat="44.87105" lon="5.88028">
        <ele>1274.126</ele>
        <time>2021-11-13T10:45:32Z</time>
      </trkpt>
      <trkpt lat="44.87107" lon="5.88026">
        <ele>1273.042</ele>
        <time>2021-11-13T10:45:33Z</time>
      </trkpt>
      <trkpt lat="44.87107" lon="5.88026">
        <ele>1273.042</ele>
        <time>2021-11-13T10:45:33Z</time>
      </trkpt>
      <trkpt lat="44.87107" lon="5.88026">
        <ele>1271.683</ele>
        <time>2021-11-13T10:45:34Z</time>
      </trkpt>
      <trkpt lat="44.87107" lon="5.88025">
        <ele>1271.998</ele>
        <time>2021-11-13T10:45:35Z</time>
      </trkpt>
      <trkpt lat="44.87107" lon="5.88025">
        <ele>1272.022</ele>
        <time>2021-11-13T10:45:36Z</time>
      </trkpt>
      <trkpt lat="44.87107" lon="5.88025">
        <ele>1272.025</ele>
        <time>2021-11-13T10:45:37Z</time>
      </trkpt>
      <trkpt lat="44.87105" lon="5.88026">
        <ele>1271.757</ele>
        <time>2021-11-13T10:45:38Z</time>
      </trkpt>
      <trkpt lat="44.87103" lon="5.88025">
        <ele>1273.744</ele>
        <time>2021-11-13T10:45:41Z</time>
      </trkpt>
      <trkpt lat="44.87102" lon="5.88024">
        <ele>1273.907</ele>
        <time>2021-11-13T10:45:43Z</time>
      </trkpt>
      <trkpt lat="44.871" lon="5.8802">
        <ele>1274.246</ele>
        <time>2021-11-13T10:45:46Z</time>
      </trkpt>
      <trkpt lat="44.87102" lon="5.88018">
        <ele>1274.967</ele>
        <time>2021-11-13T10:45:48Z</time>
      </trkpt>
      <trkpt lat="44.87107" lon="5.88017">
        <ele>1275.613</ele>
        <time>2021-11-13T10:45:51Z</time>
      </trkpt>
      <trkpt lat="44.8711" lon="5.88017">
        <ele>1275.33</ele>
        <time>2021-11-13T10:45:53Z</time>
      </trkpt>
      <trkpt lat="44.8711" lon="5.88019">
        <ele>1275.2</ele>
        <time>2021-11-13T10:45:56Z</time>
      </trkpt>
      <trkpt lat="44.87109" lon="5.8802">
        <ele>1275.131</ele>
        <time>2021-11-13T10:45:58Z</time>
      </trkpt>
      <trkpt lat="44.87109" lon="5.8802">
        <ele>1275.217</ele>
        <time>2021-11-13T10:45:59Z</time>
      </trkpt>
      <trkpt lat="44.87109" lon="5.8802">
        <ele>1275.217</ele>
        <time>2021-11-13T10:45:59Z</time>
      </trkpt>
      <trkpt lat="44.87108" lon="5.88019">
        <ele>1275.224</ele>
        <time>2021-11-13T10:46:00Z</time>
      </trkpt>
      <trkpt lat="44.87107" lon="5.88017">
        <ele>1275.22</ele>
        <time>2021-11-13T10:46:01Z</time>
      </trkpt>
      <trkpt lat="44.87105" lon="5.88012">
        <ele>1275.225</ele>
        <time>2021-11-13T10:46:03Z</time>
      </trkpt>
      <trkpt lat="44.87103" lon="5.88009">
        <ele>1275.208</ele>
        <time>2021-11-13T10:46:04Z</time>
      </trkpt>
      <trkpt lat="44.87098" lon="5.87994">
        <ele>1275.454</ele>
        <time>2021-11-13T10:46:08Z</time>
      </trkpt>
      <trkpt lat="44.87098" lon="5.87999">
        <ele>1273.438</ele>
        <time>2021-11-13T10:46:10Z</time>
      </trkpt>
      <trkpt lat="44.87098" lon="5.88004">
        <ele>1272.072</ele>
        <time>2021-11-13T10:46:12Z</time>
      </trkpt>
      <trkpt lat="44.87099" lon="5.88006">
        <ele>1272.353</ele>
        <time>2021-11-13T10:46:13Z</time>
      </trkpt>
      <trkpt lat="44.87099" lon="5.88006">
        <ele>1272.343</ele>
        <time>2021-11-13T10:46:14Z</time>
      </trkpt>
      <trkpt lat="44.87101" lon="5.88012">
        <ele>1273.948</ele>
        <time>2021-11-13T10:46:20Z</time>
      </trkpt>
      <trkpt lat="44.87102" lon="5.88012">
        <ele>1273.846</ele>
        <time>2021-11-13T10:46:21Z</time>
      </trkpt>
      <trkpt lat="44.87103" lon="5.88012">
        <ele>1274.975</ele>
        <time>2021-11-13T10:46:23Z</time>
      </trkpt>
      <trkpt lat="44.87104" lon="5.88012">
        <ele>1274.239</ele>
        <time>2021-11-13T10:46:25Z</time>
      </trkpt>
      <trkpt lat="44.87107" lon="5.8801">
        <ele>1274.877</ele>
        <time>2021-11-13T10:46:28Z</time>
      </trkpt>
      <trkpt lat="44.87107" lon="5.8801">
        <ele>1274.867</ele>
        <time>2021-11-13T10:46:30Z</time>
      </trkpt>
      <trkpt lat="44.87108" lon="5.88011">
        <ele>1275.148</ele>
        <time>2021-11-13T10:46:31Z</time>
      </trkpt>
      <trkpt lat="44.87108" lon="5.88011">
        <ele>1274.943</ele>
        <time>2021-11-13T10:46:32Z</time>
      </trkpt>
      <trkpt lat="44.87107" lon="5.88012">
        <ele>1274.878</ele>
        <time>2021-11-13T10:47:31Z</time>
      </trkpt>
      <trkpt lat="44.87107" lon="5.88012">
        <ele>1274.286</ele>
        <time>2021-11-13T10:47:32Z</time>
      </trkpt>
      <trkpt lat="44.87107" lon="5.88013">
        <ele>1275.149</ele>
        <time>2021-11-13T10:47:33Z</time>
      </trkpt>
      <trkpt lat="44.87107" lon="5.88013">
        <ele>1275.066</ele>
        <time>2021-11-13T10:47:34Z</time>
      </trkpt>
      <trkpt lat="44.87107" lon="5.88013">
        <ele>1275.066</ele>
        <time>2021-11-13T10:47:34Z</time>
      </trkpt>
      <trkpt lat="44.87107" lon="5.88013">
        <ele>1274.538</ele>
        <time>2021-11-13T10:47:35Z</time>
      </trkpt>
      <trkpt lat="44.87107" lon="5.88013">
        <ele>1274.9</ele>
        <time>2021-11-13T10:47:38Z</time>
      </trkpt>
      <trkpt lat="44.87107" lon="5.88013">
        <ele>1274.336</ele>
        <time>2021-11-13T10:48:19Z</time>
      </trkpt>
      <trkpt lat="44.87106" lon="5.88013">
        <ele>1273.911</ele>
        <time>2021-11-13T10:48:20Z</time>
      </trkpt>
      <trkpt lat="44.87105" lon="5.88014">
        <ele>1273.954</ele>
        <time>2021-11-13T10:48:22Z</time>
      </trkpt>
      <trkpt lat="44.87105" lon="5.88014">
        <ele>1273.981</ele>
        <time>2021-11-13T10:48:23Z</time>
      </trkpt>
      <trkpt lat="44.87105" lon="5.88014">
        <ele>1274.222</ele>
        <time>2021-11-13T10:48:24Z</time>
      </trkpt>
      <trkpt lat="44.87105" lon="5.88014">
        <ele>1274.278</ele>
        <time>2021-11-13T10:48:39Z</time>
      </trkpt>
      <trkpt lat="44.87104" lon="5.88015">
        <ele>1273.762</ele>
        <time>2021-11-13T10:48:40Z</time>
      </trkpt>
      <trkpt lat="44.87104" lon="5.88015">
        <ele>1273.391</ele>
        <time>2021-11-13T10:48:42Z</time>
      </trkpt>
      <trkpt lat="44.87104" lon="5.88015">
        <ele>1273.686</ele>
        <time>2021-11-13T10:49:24Z</time>
      </trkpt>
      <trkpt lat="44.87104" lon="5.88016">
        <ele>1273.64</ele>
        <time>2021-11-13T10:49:25Z</time>
      </trkpt>
      <trkpt lat="44.87104" lon="5.88016">
        <ele>1273.585</ele>
        <time>2021-11-13T10:49:26Z</time>
      </trkpt>
      <trkpt lat="44.87104" lon="5.88016">
        <ele>1273.348</ele>
        <time>2021-11-13T10:53:14Z</time>
      </trkpt>
      <trkpt lat="44.87103" lon="5.88013">
        <ele>1273.04</ele>
        <time>2021-11-13T10:53:15Z</time>
      </trkpt>
      <trkpt lat="44.87103" lon="5.88013">
        <ele>1273.04</ele>
        <time>2021-11-13T10:53:15Z</time>
      </trkpt>
      <trkpt lat="44.87103" lon="5.88013">
        <ele>1273.063</ele>
        <time>2021-11-13T10:53:16Z</time>
      </trkpt>
      <trkpt lat="44.87103" lon="5.88013">
        <ele>1273.056</ele>
        <time>2021-11-13T10:53:53Z</time>
      </trkpt>
      <trkpt lat="44.87103" lon="5.88013">
        <ele>1273.567</ele>
        <time>2021-11-13T10:53:54Z</time>
      </trkpt>
      <trkpt lat="44.87102" lon="5.88013">
        <ele>1271.937</ele>
        <time>2021-11-13T10:53:56Z</time>
      </trkpt>
      <trkpt lat="44.87102" lon="5.88013">
        <ele>1271.708</ele>
        <time>2021-11-13T10:53:57Z</time>
      </trkpt>
      <trkpt lat="44.87102" lon="5.88013">
        <ele>1271.926</ele>
        <time>2021-11-13T10:54:23Z</time>
      </trkpt>
      <trkpt lat="44.87103" lon="5.88012">
        <ele>1271.073</ele>
        <time>2021-11-13T10:54:24Z</time>
      </trkpt>
      <trkpt lat="44.87103" lon="5.88012">
        <ele>1271.082</ele>
        <time>2021-11-13T10:54:25Z</time>
      </trkpt>
      <trkpt lat="44.87103" lon="5.88012">
        <ele>1271.3</ele>
        <time>2021-11-13T10:54:48Z</time>
      </trkpt>
      <trkpt lat="44.87102" lon="5.88014">
        <ele>1272.13</ele>
        <time>2021-11-13T10:54:49Z</time>
      </trkpt>
      <trkpt lat="44.87102" lon="5.88015">
        <ele>1271.881</ele>
        <time>2021-11-13T10:54:50Z</time>
      </trkpt>
      <trkpt lat="44.87103" lon="5.88018">
        <ele>1272.866</ele>
        <time>2021-11-13T10:54:55Z</time>
      </trkpt>
      <trkpt lat="44.87104" lon="5.88018">
        <ele>1273.364</ele>
        <time>2021-11-13T10:54:56Z</time>
      </trkpt>
      <trkpt lat="44.87105" lon="5.88019">
        <ele>1274.595</ele>
        <time>2021-11-13T10:54:58Z</time>
      </trkpt>
      <trkpt lat="44.87106" lon="5.8802">
        <ele>1274.756</ele>
        <time>2021-11-13T10:55:00Z</time>
      </trkpt>
      <trkpt lat="44.87106" lon="5.88021">
        <ele>1274.976</ele>
        <time>2021-11-13T10:55:01Z</time>
      </trkpt>
      <trkpt lat="44.87107" lon="5.88028">
        <ele>1277.157</ele>
        <time>2021-11-13T10:55:08Z</time>
      </trkpt>
      <trkpt lat="44.87108" lon="5.88031">
        <ele>1276.783</ele>
        <time>2021-11-13T10:55:13Z</time>
      </trkpt>
      <trkpt lat="44.87109" lon="5.88034">
        <ele>1276.803</ele>
        <time>2021-11-13T10:55:17Z</time>
      </trkpt>
      <trkpt lat="44.8711" lon="5.88033">
        <ele>1277.57</ele>
        <time>2021-11-13T10:55:21Z</time>
      </trkpt>
      <trkpt lat="44.87111" lon="5.88034">
        <ele>1278.468</ele>
        <time>2021-11-13T10:55:24Z</time>
      </trkpt>
      <trkpt lat="44.87111" lon="5.88034">
        <ele>1278.989</ele>
        <time>2021-11-13T10:55:25Z</time>
      </trkpt>
      <trkpt lat="44.87111" lon="5.88034">
        <ele>1279.248</ele>
        <time>2021-11-13T10:55:26Z</time>
      </trkpt>
      <trkpt lat="44.87113" lon="5.8804">
        <ele>1278.406</ele>
        <time>2021-11-13T10:55:32Z</time>
      </trkpt>
      <trkpt lat="44.87113" lon="5.8804">
        <ele>1278.442</ele>
        <time>2021-11-13T10:55:55Z</time>
      </trkpt>
      <trkpt lat="44.87112" lon="5.8804">
        <ele>1278.154</ele>
        <time>2021-11-13T10:55:56Z</time>
      </trkpt>
      <trkpt lat="44.87112" lon="5.8804">
        <ele>1278.949</ele>
        <time>2021-11-13T10:55:59Z</time>
      </trkpt>
      <trkpt lat="44.87112" lon="5.8804">
        <ele>1279.084</ele>
        <time>2021-11-13T10:56:32Z</time>
      </trkpt>
      <trkpt lat="44.87111" lon="5.88034">
        <ele>1277.94</ele>
        <time>2021-11-13T10:56:33Z</time>
      </trkpt>
      <trkpt lat="44.87111" lon="5.88034">
        <ele>1277.891</ele>
        <time>2021-11-13T10:56:34Z</time>
      </trkpt>
      <trkpt lat="44.87112" lon="5.8803">
        <ele>1275.735</ele>
        <time>2021-11-13T10:56:39Z</time>
      </trkpt>
      <trkpt lat="44.87113" lon="5.88025">
        <ele>1276.858</ele>
        <time>2021-11-13T10:56:42Z</time>
      </trkpt>
      <trkpt lat="44.87114" lon="5.88021">
        <ele>1278.03</ele>
        <time>2021-11-13T10:56:45Z</time>
      </trkpt>
      <trkpt lat="44.87114" lon="5.88019">
        <ele>1278.104</ele>
        <time>2021-11-13T10:56:48Z</time>
      </trkpt>
      <trkpt lat="44.87114" lon="5.88019">
        <ele>1278.221</ele>
        <time>2021-11-13T10:56:49Z</time>
      </trkpt>
      <trkpt lat="44.87114" lon="5.88018">
        <ele>1277.804</ele>
        <time>2021-11-13T10:56:50Z</time>
      </trkpt>
      <trkpt lat="44.87115" lon="5.88013">
        <ele>1278.231</ele>
        <time>2021-11-13T10:56:53Z</time>
      </trkpt>
      <trkpt lat="44.87114" lon="5.88011">
        <ele>1278.27</ele>
        <time>2021-11-13T10:56:55Z</time>
      </trkpt>
      <trkpt lat="44.87114" lon="5.88011">
        <ele>1278.737</ele>
        <time>2021-11-13T10:56:59Z</time>
      </trkpt>
      <trkpt lat="44.87114" lon="5.88011">
        <ele>1278.75</ele>
        <time>2021-11-13T10:57:09Z</time>
      </trkpt>
      <trkpt lat="44.87113" lon="5.88013">
        <ele>1278.595</ele>
        <time>2021-11-13T10:57:10Z</time>
      </trkpt>
      <trkpt lat="44.87113" lon="5.88013">
        <ele>1278.593</ele>
        <time>2021-11-13T10:57:11Z</time>
      </trkpt>
      <trkpt lat="44.87113" lon="5.88013">
        <ele>1278.601</ele>
        <time>2021-11-13T10:57:13Z</time>
      </trkpt>
      <trkpt lat="44.87114" lon="5.88013">
        <ele>1278.616</ele>
        <time>2021-11-13T10:57:14Z</time>
      </trkpt>
      <trkpt lat="44.87114" lon="5.88013">
        <ele>1278.618</ele>
        <time>2021-11-13T10:57:15Z</time>
      </trkpt>
      <trkpt lat="44.87114" lon="5.88013">
        <ele>1278.635</ele>
        <time>2021-11-13T10:57:54Z</time>
      </trkpt>
      <trkpt lat="44.87113" lon="5.88013">
        <ele>1278.871</ele>
        <time>2021-11-13T10:57:55Z</time>
      </trkpt>
      <trkpt lat="44.87112" lon="5.88007">
        <ele>1277.863</ele>
        <time>2021-11-13T10:57:58Z</time>
      </trkpt>
      <trkpt lat="44.87112" lon="5.87996">
        <ele>1276.217</ele>
        <time>2021-11-13T10:58:05Z</time>
      </trkpt>
      <trkpt lat="44.87111" lon="5.8798">
        <ele>1279.098</ele>
        <time>2021-11-13T10:58:15Z</time>
      </trkpt>
      <trkpt lat="44.87113" lon="5.87964">
        <ele>1277.089</ele>
        <time>2021-11-13T10:58:26Z</time>
      </trkpt>
      <trkpt lat="44.87113" lon="5.8795">
        <ele>1274.864</ele>
        <time>2021-11-13T10:58:34Z</time>
      </trkpt>
      <trkpt lat="44.87113" lon="5.8795">
        <ele>1274.927</ele>
        <time>2021-11-13T10:58:35Z</time>
      </trkpt>
      <trkpt lat="44.87113" lon="5.8795">
        <ele>1275.21</ele>
        <time>2021-11-13T10:58:39Z</time>
      </trkpt>
      <trkpt lat="44.87113" lon="5.8795">
        <ele>1275.079</ele>
        <time>2021-11-13T10:58:40Z</time>
      </trkpt>
      <trkpt lat="44.87113" lon="5.8794">
        <ele>1274.549</ele>
        <time>2021-11-13T10:58:45Z</time>
      </trkpt>
      <trkpt lat="44.87116" lon="5.87912">
        <ele>1273.279</ele>
        <time>2021-11-13T10:58:58Z</time>
      </trkpt>
      <trkpt lat="44.87119" lon="5.87911">
        <ele>1273.348</ele>
        <time>2021-11-13T10:59:01Z</time>
      </trkpt>
      <trkpt lat="44.87123" lon="5.87904">
        <ele>1273.996</ele>
        <time>2021-11-13T10:59:08Z</time>
      </trkpt>
      <trkpt lat="44.87128" lon="5.87879">
        <ele>1275.349</ele>
        <time>2021-11-13T10:59:22Z</time>
      </trkpt>
      <trkpt lat="44.87137" lon="5.87859">
        <ele>1276.167</ele>
        <time>2021-11-13T10:59:37Z</time>
      </trkpt>
      <trkpt lat="44.87138" lon="5.87853">
        <ele>1275.726</ele>
        <time>2021-11-13T10:59:40Z</time>
      </trkpt>
      <trkpt lat="44.8714" lon="5.87848">
        <ele>1275.43</ele>
        <time>2021-11-13T10:59:43Z</time>
      </trkpt>
      <trkpt lat="44.8714" lon="5.87845">
        <ele>1276.029</ele>
        <time>2021-11-13T10:59:45Z</time>
      </trkpt>
      <trkpt lat="44.8714" lon="5.87843">
        <ele>1275.987</ele>
        <time>2021-11-13T10:59:47Z</time>
      </trkpt>
      <trkpt lat="44.8714" lon="5.87843">
        <ele>1276.649</ele>
        <time>2021-11-13T10:59:49Z</time>
      </trkpt>
      <trkpt lat="44.8714" lon="5.87843">
        <ele>1276.649</ele>
        <time>2021-11-13T10:59:49Z</time>
      </trkpt>
      <trkpt lat="44.8714" lon="5.87841">
        <ele>1277.714</ele>
        <time>2021-11-13T10:59:50Z</time>
      </trkpt>
      <trkpt lat="44.8714" lon="5.87841">
        <ele>1278.075</ele>
        <time>2021-11-13T10:59:51Z</time>
      </trkpt>
      <trkpt lat="44.8714" lon="5.87841">
        <ele>1278.075</ele>
        <time>2021-11-13T10:59:51Z</time>
      </trkpt>
      <trkpt lat="44.8714" lon="5.87841">
        <ele>1278.295</ele>
        <time>2021-11-13T10:59:52Z</time>
      </trkpt>
      <trkpt lat="44.8714" lon="5.87841">
        <ele>1278.272</ele>
        <time>2021-11-13T10:59:54Z</time>
      </trkpt>
      <trkpt lat="44.8714" lon="5.87841">
        <ele>1280.423</ele>
        <time>2021-11-13T11:00:45Z</time>
      </trkpt>
      <trkpt lat="44.87141" lon="5.87844">
        <ele>1280.316</ele>
        <time>2021-11-13T11:00:46Z</time>
      </trkpt>
      <trkpt lat="44.87141" lon="5.87841">
        <ele>1279.061</ele>
        <time>2021-11-13T11:00:49Z</time>
      </trkpt>
      <trkpt lat="44.87142" lon="5.87839">
        <ele>1278.557</ele>
        <time>2021-11-13T11:00:50Z</time>
      </trkpt>
      <trkpt lat="44.87144" lon="5.87837">
        <ele>1277.35</ele>
        <time>2021-11-13T11:00:53Z</time>
      </trkpt>
      <trkpt lat="44.87144" lon="5.87837">
        <ele>1275.485</ele>
        <time>2021-11-13T11:00:55Z</time>
      </trkpt>
      <trkpt lat="44.87146" lon="5.87836">
        <ele>1275.882</ele>
        <time>2021-11-13T11:00:56Z</time>
      </trkpt>
      <trkpt lat="44.87147" lon="5.87834">
        <ele>1276.705</ele>
        <time>2021-11-13T11:00:57Z</time>
      </trkpt>
      <trkpt lat="44.87157" lon="5.87824">
        <ele>1274.506</ele>
        <time>2021-11-13T11:01:08Z</time>
      </trkpt>
      <trkpt lat="44.8716" lon="5.8782">
        <ele>1272.29</ele>
        <time>2021-11-13T11:01:12Z</time>
      </trkpt>
      <trkpt lat="44.87162" lon="5.8782">
        <ele>1272.506</ele>
        <time>2021-11-13T11:01:15Z</time>
      </trkpt>
      <trkpt lat="44.87162" lon="5.8782">
        <ele>1272.506</ele>
        <time>2021-11-13T11:01:15Z</time>
      </trkpt>
      <trkpt lat="44.87162" lon="5.87819">
        <ele>1272.691</ele>
        <time>2021-11-13T11:01:16Z</time>
      </trkpt>
      <trkpt lat="44.87166" lon="5.87818">
        <ele>1271.895</ele>
        <time>2021-11-13T11:01:19Z</time>
      </trkpt>
      <trkpt lat="44.87169" lon="5.87816">
        <ele>1272.212</ele>
        <time>2021-11-13T11:01:22Z</time>
      </trkpt>
      <trkpt lat="44.8717" lon="5.87816">
        <ele>1272.147</ele>
        <time>2021-11-13T11:01:23Z</time>
      </trkpt>
      <trkpt lat="44.87171" lon="5.87816">
        <ele>1272.86</ele>
        <time>2021-11-13T11:01:25Z</time>
      </trkpt>
      <trkpt lat="44.87203" lon="5.87808">
        <ele>1274.883</ele>
        <time>2021-11-13T11:01:46Z</time>
      </trkpt>
      <trkpt lat="44.87218" lon="5.87802">
        <ele>1273.795</ele>
        <time>2021-11-13T11:01:57Z</time>
      </trkpt>
      <trkpt lat="44.8722" lon="5.87801">
        <ele>1273.478</ele>
        <time>2021-11-13T11:01:59Z</time>
      </trkpt>
      <trkpt lat="44.87223" lon="5.87796">
        <ele>1272.788</ele>
        <time>2021-11-13T11:02:04Z</time>
      </trkpt>
      <trkpt lat="44.87232" lon="5.87794">
        <ele>1272.841</ele>
        <time>2021-11-13T11:02:12Z</time>
      </trkpt>
      <trkpt lat="44.87232" lon="5.87794">
        <ele>1272.256</ele>
        <time>2021-11-13T11:02:13Z</time>
      </trkpt>
      <trkpt lat="44.87232" lon="5.87794">
        <ele>1272.416</ele>
        <time>2021-11-13T11:02:14Z</time>
      </trkpt>
      <trkpt lat="44.87233" lon="5.87793">
        <ele>1272.611</ele>
        <time>2021-11-13T11:02:15Z</time>
      </trkpt>
      <trkpt lat="44.87234" lon="5.87792">
        <ele>1272.161</ele>
        <time>2021-11-13T11:02:18Z</time>
      </trkpt>
      <trkpt lat="44.87234" lon="5.87791">
        <ele>1272.108</ele>
        <time>2021-11-13T11:02:20Z</time>
      </trkpt>
      <trkpt lat="44.87234" lon="5.87791">
        <ele>1272.389</ele>
        <time>2021-11-13T11:02:21Z</time>
      </trkpt>
      <trkpt lat="44.87235" lon="5.8779">
        <ele>1272.356</ele>
        <time>2021-11-13T11:02:22Z</time>
      </trkpt>
      <trkpt lat="44.87235" lon="5.8779">
        <ele>1272.431</ele>
        <time>2021-11-13T11:02:23Z</time>
      </trkpt>
      <trkpt lat="44.87235" lon="5.8779">
        <ele>1272.431</ele>
        <time>2021-11-13T11:02:23Z</time>
      </trkpt>
      <trkpt lat="44.87236" lon="5.87789">
        <ele>1272.469</ele>
        <time>2021-11-13T11:02:24Z</time>
      </trkpt>
      <trkpt lat="44.87236" lon="5.87789">
        <ele>1272.447</ele>
        <time>2021-11-13T11:02:25Z</time>
      </trkpt>
      <trkpt lat="44.87236" lon="5.87789">
        <ele>1272.174</ele>
        <time>2021-11-13T11:02:27Z</time>
      </trkpt>
      <trkpt lat="44.87237" lon="5.87788">
        <ele>1272.307</ele>
        <time>2021-11-13T11:02:28Z</time>
      </trkpt>
      <trkpt lat="44.87237" lon="5.87788">
        <ele>1271.486</ele>
        <time>2021-11-13T11:02:29Z</time>
      </trkpt>
      <trkpt lat="44.87238" lon="5.87787">
        <ele>1271.93</ele>
        <time>2021-11-13T11:02:30Z</time>
      </trkpt>
      <trkpt lat="44.87238" lon="5.87787">
        <ele>1272.072</ele>
        <time>2021-11-13T11:02:31Z</time>
      </trkpt>
      <trkpt lat="44.87238" lon="5.87786">
        <ele>1272.674</ele>
        <time>2021-11-13T11:02:32Z</time>
      </trkpt>
      <trkpt lat="44.8724" lon="5.87787">
        <ele>1272.914</ele>
        <time>2021-11-13T11:02:34Z</time>
      </trkpt>
      <trkpt lat="44.87243" lon="5.87786">
        <ele>1272.295</ele>
        <time>2021-11-13T11:02:38Z</time>
      </trkpt>
      <trkpt lat="44.87248" lon="5.87781">
        <ele>1274.365</ele>
        <time>2021-11-13T11:02:45Z</time>
      </trkpt>
      <trkpt lat="44.87249" lon="5.87779">
        <ele>1271.111</ele>
        <time>2021-11-13T11:02:47Z</time>
      </trkpt>
      <trkpt lat="44.87249" lon="5.87774">
        <ele>1270.57</ele>
        <time>2021-11-13T11:02:51Z</time>
      </trkpt>
      <trkpt lat="44.87249" lon="5.87773">
        <ele>1270.962</ele>
        <time>2021-11-13T11:02:52Z</time>
      </trkpt>
      <trkpt lat="44.87249" lon="5.8777">
        <ele>1268.902</ele>
        <time>2021-11-13T11:02:54Z</time>
      </trkpt>
      <trkpt lat="44.87248" lon="5.87762">
        <ele>1268.935</ele>
        <time>2021-11-13T11:02:59Z</time>
      </trkpt>
      <trkpt lat="44.87248" lon="5.87754">
        <ele>1269.594</ele>
        <time>2021-11-13T11:03:02Z</time>
      </trkpt>
      <trkpt lat="44.87248" lon="5.8775">
        <ele>1270.021</ele>
        <time>2021-11-13T11:03:05Z</time>
      </trkpt>
      <trkpt lat="44.87249" lon="5.87746">
        <ele>1271.16</ele>
        <time>2021-11-13T11:03:09Z</time>
      </trkpt>
      <trkpt lat="44.8725" lon="5.87742">
        <ele>1271.737</ele>
        <time>2021-11-13T11:03:12Z</time>
      </trkpt>
      <trkpt lat="44.87253" lon="5.87735">
        <ele>1272.737</ele>
        <time>2021-11-13T11:03:18Z</time>
      </trkpt>
      <trkpt lat="44.87256" lon="5.87731">
        <ele>1272.24</ele>
        <time>2021-11-13T11:03:23Z</time>
      </trkpt>
      <trkpt lat="44.8726" lon="5.87726">
        <ele>1271.739</ele>
        <time>2021-11-13T11:03:30Z</time>
      </trkpt>
      <trkpt lat="44.87261" lon="5.87724">
        <ele>1271.975</ele>
        <time>2021-11-13T11:03:31Z</time>
      </trkpt>
      <trkpt lat="44.87263" lon="5.87722">
        <ele>1270.688</ele>
        <time>2021-11-13T11:03:35Z</time>
      </trkpt>
      <trkpt lat="44.87267" lon="5.87711">
        <ele>1272.271</ele>
        <time>2021-11-13T11:03:44Z</time>
      </trkpt>
      <trkpt lat="44.87271" lon="5.877">
        <ele>1274.436</ele>
        <time>2021-11-13T11:03:53Z</time>
      </trkpt>
      <trkpt lat="44.87273" lon="5.87694">
        <ele>1274.959</ele>
        <time>2021-11-13T11:03:58Z</time>
      </trkpt>
      <trkpt lat="44.87278" lon="5.8768">
        <ele>1275.265</ele>
        <time>2021-11-13T11:04:09Z</time>
      </trkpt>
      <trkpt lat="44.87282" lon="5.87676">
        <ele>1275.334</ele>
        <time>2021-11-13T11:04:15Z</time>
      </trkpt>
      <trkpt lat="44.87284" lon="5.87673">
        <ele>1274.085</ele>
        <time>2021-11-13T11:04:19Z</time>
      </trkpt>
      <trkpt lat="44.87287" lon="5.8767">
        <ele>1275.066</ele>
        <time>2021-11-13T11:04:24Z</time>
      </trkpt>
      <trkpt lat="44.87302" lon="5.87654">
        <ele>1272.687</ele>
        <time>2021-11-13T11:04:43Z</time>
      </trkpt>
      <trkpt lat="44.87303" lon="5.87649">
        <ele>1272.566</ele>
        <time>2021-11-13T11:04:47Z</time>
      </trkpt>
      <trkpt lat="44.87305" lon="5.87646">
        <ele>1272.354</ele>
        <time>2021-11-13T11:04:51Z</time>
      </trkpt>
      <trkpt lat="44.87311" lon="5.8764">
        <ele>1272.087</ele>
        <time>2021-11-13T11:04:59Z</time>
      </trkpt>
      <trkpt lat="44.87311" lon="5.8764">
        <ele>1272.026</ele>
        <time>2021-11-13T11:05:00Z</time>
      </trkpt>
      <trkpt lat="44.87311" lon="5.8764">
        <ele>1273.172</ele>
        <time>2021-11-13T11:05:01Z</time>
      </trkpt>
      <trkpt lat="44.87312" lon="5.87639">
        <ele>1273.43</ele>
        <time>2021-11-13T11:05:02Z</time>
      </trkpt>
      <trkpt lat="44.87313" lon="5.87638">
        <ele>1272.999</ele>
        <time>2021-11-13T11:05:04Z</time>
      </trkpt>
      <trkpt lat="44.87319" lon="5.87628">
        <ele>1274.025</ele>
        <time>2021-11-13T11:05:16Z</time>
      </trkpt>
      <trkpt lat="44.8732" lon="5.87624">
        <ele>1274.089</ele>
        <time>2021-11-13T11:05:19Z</time>
      </trkpt>
      <trkpt lat="44.87323" lon="5.87623">
        <ele>1273.903</ele>
        <time>2021-11-13T11:05:24Z</time>
      </trkpt>
      <trkpt lat="44.87325" lon="5.8762">
        <ele>1273.793</ele>
        <time>2021-11-13T11:05:29Z</time>
      </trkpt>
      <trkpt lat="44.87327" lon="5.87617">
        <ele>1273.504</ele>
        <time>2021-11-13T11:05:33Z</time>
      </trkpt>
      <trkpt lat="44.8733" lon="5.87602">
        <ele>1272.928</ele>
        <time>2021-11-13T11:05:43Z</time>
      </trkpt>
      <trkpt lat="44.87334" lon="5.87599">
        <ele>1272.447</ele>
        <time>2021-11-13T11:05:50Z</time>
      </trkpt>
      <trkpt lat="44.87335" lon="5.87595">
        <ele>1272.857</ele>
        <time>2021-11-13T11:05:54Z</time>
      </trkpt>
      <trkpt lat="44.87336" lon="5.87587">
        <ele>1272.394</ele>
        <time>2021-11-13T11:05:59Z</time>
      </trkpt>
      <trkpt lat="44.87336" lon="5.87586">
        <ele>1272.196</ele>
        <time>2021-11-13T11:06:00Z</time>
      </trkpt>
      <trkpt lat="44.87338" lon="5.87579">
        <ele>1271.064</ele>
        <time>2021-11-13T11:06:07Z</time>
      </trkpt>
      <trkpt lat="44.8734" lon="5.8758">
        <ele>1270.891</ele>
        <time>2021-11-13T11:06:09Z</time>
      </trkpt>
      <trkpt lat="44.87341" lon="5.87577">
        <ele>1270.668</ele>
        <time>2021-11-13T11:06:13Z</time>
      </trkpt>
      <trkpt lat="44.87344" lon="5.8756">
        <ele>1271.651</ele>
        <time>2021-11-13T11:06:23Z</time>
      </trkpt>
      <trkpt lat="44.87347" lon="5.8756">
        <ele>1271.993</ele>
        <time>2021-11-13T11:06:27Z</time>
      </trkpt>
      <trkpt lat="44.87348" lon="5.8756">
        <ele>1272.022</ele>
        <time>2021-11-13T11:06:29Z</time>
      </trkpt>
      <trkpt lat="44.87349" lon="5.8756">
        <ele>1270.897</ele>
        <time>2021-11-13T11:06:30Z</time>
      </trkpt>
      <trkpt lat="44.87352" lon="5.87558">
        <ele>1271.002</ele>
        <time>2021-11-13T11:06:34Z</time>
      </trkpt>
      <trkpt lat="44.87355" lon="5.87556">
        <ele>1269.155</ele>
        <time>2021-11-13T11:06:39Z</time>
      </trkpt>
      <trkpt lat="44.87356" lon="5.87556">
        <ele>1268.106</ele>
        <time>2021-11-13T11:06:40Z</time>
      </trkpt>
      <trkpt lat="44.87359" lon="5.87555">
        <ele>1268.247</ele>
        <time>2021-11-13T11:06:44Z</time>
      </trkpt>
      <trkpt lat="44.87362" lon="5.87557">
        <ele>1264.95</ele>
        <time>2021-11-13T11:06:48Z</time>
      </trkpt>
      <trkpt lat="44.87365" lon="5.87556">
        <ele>1264.762</ele>
        <time>2021-11-13T11:06:52Z</time>
      </trkpt>
      <trkpt lat="44.87366" lon="5.87556">
        <ele>1263.642</ele>
        <time>2021-11-13T11:06:54Z</time>
      </trkpt>
      <trkpt lat="44.87366" lon="5.87555">
        <ele>1263.882</ele>
        <time>2021-11-13T11:06:55Z</time>
      </trkpt>
      <trkpt lat="44.87367" lon="5.87554">
        <ele>1263.091</ele>
        <time>2021-11-13T11:06:56Z</time>
      </trkpt>
      <trkpt lat="44.87367" lon="5.87554">
        <ele>1263.091</ele>
        <time>2021-11-13T11:06:56Z</time>
      </trkpt>
      <trkpt lat="44.87367" lon="5.87553">
        <ele>1261.788</ele>
        <time>2021-11-13T11:06:57Z</time>
      </trkpt>
      <trkpt lat="44.87367" lon="5.87551">
        <ele>1261.128</ele>
        <time>2021-11-13T11:07:00Z</time>
      </trkpt>
      <trkpt lat="44.87368" lon="5.87551">
        <ele>1260.107</ele>
        <time>2021-11-13T11:07:01Z</time>
      </trkpt>
      <trkpt lat="44.87371" lon="5.87549">
        <ele>1257.639</ele>
        <time>2021-11-13T11:07:07Z</time>
      </trkpt>
      <trkpt lat="44.87373" lon="5.87547">
        <ele>1256.126</ele>
        <time>2021-11-13T11:07:11Z</time>
      </trkpt>
      <trkpt lat="44.87373" lon="5.87547">
        <ele>1256.126</ele>
        <time>2021-11-13T11:07:11Z</time>
      </trkpt>
      <trkpt lat="44.87374" lon="5.87546">
        <ele>1255.872</ele>
        <time>2021-11-13T11:07:12Z</time>
      </trkpt>
      <trkpt lat="44.87376" lon="5.87545">
        <ele>1255.023</ele>
        <time>2021-11-13T11:07:16Z</time>
      </trkpt>
      <trkpt lat="44.87381" lon="5.87545">
        <ele>1253.334</ele>
        <time>2021-11-13T11:07:22Z</time>
      </trkpt>
      <trkpt lat="44.87384" lon="5.87545">
        <ele>1253.401</ele>
        <time>2021-11-13T11:07:27Z</time>
      </trkpt>
      <trkpt lat="44.87384" lon="5.87545">
        <ele>1253.73</ele>
        <time>2021-11-13T11:07:28Z</time>
      </trkpt>
      <trkpt lat="44.87386" lon="5.87544">
        <ele>1252.717</ele>
        <time>2021-11-13T11:07:31Z</time>
      </trkpt>
      <trkpt lat="44.87387" lon="5.87543">
        <ele>1252.154</ele>
        <time>2021-11-13T11:07:34Z</time>
      </trkpt>
      <trkpt lat="44.87388" lon="5.87541">
        <ele>1251.903</ele>
        <time>2021-11-13T11:07:36Z</time>
      </trkpt>
      <trkpt lat="44.87389" lon="5.8754">
        <ele>1251.294</ele>
        <time>2021-11-13T11:07:38Z</time>
      </trkpt>
      <trkpt lat="44.87392" lon="5.87539">
        <ele>1251.744</ele>
        <time>2021-11-13T11:07:43Z</time>
      </trkpt>
      <trkpt lat="44.87393" lon="5.87539">
        <ele>1251.655</ele>
        <time>2021-11-13T11:07:45Z</time>
      </trkpt>
      <trkpt lat="44.87394" lon="5.87539">
        <ele>1251.471</ele>
        <time>2021-11-13T11:07:46Z</time>
      </trkpt>
      <trkpt lat="44.87396" lon="5.87538">
        <ele>1251.765</ele>
        <time>2021-11-13T11:07:49Z</time>
      </trkpt>
      <trkpt lat="44.87397" lon="5.87538">
        <ele>1251.627</ele>
        <time>2021-11-13T11:07:53Z</time>
      </trkpt>
      <trkpt lat="44.87397" lon="5.87538">
        <ele>1251.627</ele>
        <time>2021-11-13T11:07:53Z</time>
      </trkpt>
      <trkpt lat="44.87397" lon="5.87538">
        <ele>1251.748</ele>
        <time>2021-11-13T11:07:54Z</time>
      </trkpt>
      <trkpt lat="44.87397" lon="5.87538">
        <ele>1251.748</ele>
        <time>2021-11-13T11:07:54Z</time>
      </trkpt>
      <trkpt lat="44.87397" lon="5.87538">
        <ele>1251.2</ele>
        <time>2021-11-13T11:07:55Z</time>
      </trkpt>
      <trkpt lat="44.87398" lon="5.87539">
        <ele>1251.078</ele>
        <time>2021-11-13T11:07:56Z</time>
      </trkpt>
      <trkpt lat="44.87399" lon="5.8754">
        <ele>1248.817</ele>
        <time>2021-11-13T11:08:01Z</time>
      </trkpt>
      <trkpt lat="44.87399" lon="5.8754">
        <ele>1248.495</ele>
        <time>2021-11-13T11:08:02Z</time>
      </trkpt>
      <trkpt lat="44.87399" lon="5.8754">
        <ele>1248.495</ele>
        <time>2021-11-13T11:08:02Z</time>
      </trkpt>
      <trkpt lat="44.87399" lon="5.87539">
        <ele>1248.621</ele>
        <time>2021-11-13T11:08:03Z</time>
      </trkpt>
      <trkpt lat="44.87399" lon="5.87539">
        <ele>1247.688</ele>
        <time>2021-11-13T11:08:04Z</time>
      </trkpt>
      <trkpt lat="44.874" lon="5.87539">
        <ele>1246.753</ele>
        <time>2021-11-13T11:08:05Z</time>
      </trkpt>
      <trkpt lat="44.87403" lon="5.87537">
        <ele>1245.513</ele>
        <time>2021-11-13T11:08:08Z</time>
      </trkpt>
      <trkpt lat="44.87406" lon="5.87535">
        <ele>1242.859</ele>
        <time>2021-11-13T11:08:12Z</time>
      </trkpt>
      <trkpt lat="44.87408" lon="5.87533">
        <ele>1243.093</ele>
        <time>2021-11-13T11:08:15Z</time>
      </trkpt>
      <trkpt lat="44.87409" lon="5.87532">
        <ele>1241.486</ele>
        <time>2021-11-13T11:08:19Z</time>
      </trkpt>
      <trkpt lat="44.87409" lon="5.87532">
        <ele>1241.486</ele>
        <time>2021-11-13T11:08:19Z</time>
      </trkpt>
      <trkpt lat="44.87409" lon="5.8753">
        <ele>1241.813</ele>
        <time>2021-11-13T11:08:20Z</time>
      </trkpt>
      <trkpt lat="44.8741" lon="5.8753">
        <ele>1242.59</ele>
        <time>2021-11-13T11:08:21Z</time>
      </trkpt>
      <trkpt lat="44.8741" lon="5.87529">
        <ele>1243.011</ele>
        <time>2021-11-13T11:08:22Z</time>
      </trkpt>
      <trkpt lat="44.8741" lon="5.87528">
        <ele>1242.929</ele>
        <time>2021-11-13T11:08:23Z</time>
      </trkpt>
      <trkpt lat="44.8741" lon="5.87528">
        <ele>1242.472</ele>
        <time>2021-11-13T11:08:24Z</time>
      </trkpt>
      <trkpt lat="44.8741" lon="5.87528">
        <ele>1242.472</ele>
        <time>2021-11-13T11:08:24Z</time>
      </trkpt>
      <trkpt lat="44.87411" lon="5.87528">
        <ele>1242.358</ele>
        <time>2021-11-13T11:08:25Z</time>
      </trkpt>
      <trkpt lat="44.87412" lon="5.87526">
        <ele>1243.073</ele>
        <time>2021-11-13T11:08:27Z</time>
      </trkpt>
      <trkpt lat="44.87412" lon="5.87526">
        <ele>1243.163</ele>
        <time>2021-11-13T11:08:27Z</time>
      </trkpt>
      <trkpt lat="44.87414" lon="5.87525">
        <ele>1242.508</ele>
        <time>2021-11-13T11:08:29Z</time>
      </trkpt>
      <trkpt lat="44.87417" lon="5.87524">
        <ele>1242.085</ele>
        <time>2021-11-13T11:08:32Z</time>
      </trkpt>
      <trkpt lat="44.87418" lon="5.87524">
        <ele>1241.91</ele>
        <time>2021-11-13T11:08:33Z</time>
      </trkpt>
      <trkpt lat="44.87418" lon="5.87524">
        <ele>1241.622</ele>
        <time>2021-11-13T11:08:34Z</time>
      </trkpt>
      <trkpt lat="44.8742" lon="5.87524">
        <ele>1240.753</ele>
        <time>2021-11-13T11:08:36Z</time>
      </trkpt>
      <trkpt lat="44.87421" lon="5.87523">
        <ele>1240.371</ele>
        <time>2021-11-13T11:08:37Z</time>
      </trkpt>
      <trkpt lat="44.87423" lon="5.87523">
        <ele>1241.339</ele>
        <time>2021-11-13T11:08:39Z</time>
      </trkpt>
      <trkpt lat="44.87428" lon="5.87519">
        <ele>1242.088</ele>
        <time>2021-11-13T11:08:43Z</time>
      </trkpt>
      <trkpt lat="44.87429" lon="5.87518">
        <ele>1242.369</ele>
        <time>2021-11-13T11:08:45Z</time>
      </trkpt>
      <trkpt lat="44.87429" lon="5.87518">
        <ele>1242.055</ele>
        <time>2021-11-13T11:08:47Z</time>
      </trkpt>
      <trkpt lat="44.8743" lon="5.87514">
        <ele>1241.79</ele>
        <time>2021-11-13T11:08:48Z</time>
      </trkpt>
      <trkpt lat="44.87432" lon="5.87512">
        <ele>1241.601</ele>
        <time>2021-11-13T11:08:52Z</time>
      </trkpt>
      <trkpt lat="44.87432" lon="5.87512">
        <ele>1241.601</ele>
        <time>2021-11-13T11:08:52Z</time>
      </trkpt>
      <trkpt lat="44.87433" lon="5.8751">
        <ele>1242.13</ele>
        <time>2021-11-13T11:08:53Z</time>
      </trkpt>
      <trkpt lat="44.87433" lon="5.8751">
        <ele>1240.898</ele>
        <time>2021-11-13T11:08:54Z</time>
      </trkpt>
      <trkpt lat="44.87433" lon="5.8751">
        <ele>1240.898</ele>
        <time>2021-11-13T11:08:54Z</time>
      </trkpt>
      <trkpt lat="44.87433" lon="5.8751">
        <ele>1240.744</ele>
        <time>2021-11-13T11:08:55Z</time>
      </trkpt>
      <trkpt lat="44.87435" lon="5.87509">
        <ele>1241.037</ele>
        <time>2021-11-13T11:08:59Z</time>
      </trkpt>
      <trkpt lat="44.87435" lon="5.87509">
        <ele>1241.037</ele>
        <time>2021-11-13T11:08:59Z</time>
      </trkpt>
      <trkpt lat="44.87435" lon="5.87509">
        <ele>1241.106</ele>
        <time>2021-11-13T11:09:00Z</time>
      </trkpt>
      <trkpt lat="44.87435" lon="5.87509">
        <ele>1241.106</ele>
        <time>2021-11-13T11:09:00Z</time>
      </trkpt>
      <trkpt lat="44.87435" lon="5.87509">
        <ele>1241.087</ele>
        <time>2021-11-13T11:09:01Z</time>
      </trkpt>
      <trkpt lat="44.87435" lon="5.87509">
        <ele>1241.142</ele>
        <time>2021-11-13T11:09:03Z</time>
      </trkpt>
      <trkpt lat="44.87436" lon="5.8751">
        <ele>1241.043</ele>
        <time>2021-11-13T11:09:04Z</time>
      </trkpt>
      <trkpt lat="44.87436" lon="5.8751">
        <ele>1239.716</ele>
        <time>2021-11-13T11:09:07Z</time>
      </trkpt>
      <trkpt lat="44.87436" lon="5.8751">
        <ele>1239.22</ele>
        <time>2021-11-13T11:09:11Z</time>
      </trkpt>
      <trkpt lat="44.87437" lon="5.8751">
        <ele>1239.848</ele>
        <time>2021-11-13T11:09:12Z</time>
      </trkpt>
      <trkpt lat="44.87438" lon="5.8751">
        <ele>1240.58</ele>
        <time>2021-11-13T11:09:14Z</time>
      </trkpt>
      <trkpt lat="44.87442" lon="5.87512">
        <ele>1240.365</ele>
        <time>2021-11-13T11:09:17Z</time>
      </trkpt>
      <trkpt lat="44.87442" lon="5.87513">
        <ele>1240.896</ele>
        <time>2021-11-13T11:09:18Z</time>
      </trkpt>
      <trkpt lat="44.87442" lon="5.87513">
        <ele>1240.99</ele>
        <time>2021-11-13T11:09:19Z</time>
      </trkpt>
      <trkpt lat="44.87441" lon="5.87514">
        <ele>1241.405</ele>
        <time>2021-11-13T11:09:20Z</time>
      </trkpt>
      <trkpt lat="44.87441" lon="5.87515">
        <ele>1241.409</ele>
        <time>2021-11-13T11:09:21Z</time>
      </trkpt>
      <trkpt lat="44.87438" lon="5.87516">
        <ele>1244.964</ele>
        <time>2021-11-13T11:09:28Z</time>
      </trkpt>
      <trkpt lat="44.87439" lon="5.87517">
        <ele>1243.815</ele>
        <time>2021-11-13T11:09:29Z</time>
      </trkpt>
      <trkpt lat="44.8744" lon="5.87516">
        <ele>1244.399</ele>
        <time>2021-11-13T11:09:30Z</time>
      </trkpt>
      <trkpt lat="44.87442" lon="5.87516">
        <ele>1242.844</ele>
        <time>2021-11-13T11:09:32Z</time>
      </trkpt>
      <trkpt lat="44.87447" lon="5.87514">
        <ele>1244.066</ele>
        <time>2021-11-13T11:09:37Z</time>
      </trkpt>
      <trkpt lat="44.87442" lon="5.87515">
        <ele>1240.097</ele>
        <time>2021-11-13T11:09:43Z</time>
      </trkpt>
      <trkpt lat="44.87442" lon="5.87515">
        <ele>1237.67</ele>
        <time>2021-11-13T11:09:47Z</time>
      </trkpt>
      <trkpt lat="44.87442" lon="5.87514">
        <ele>1237.674</ele>
        <time>2021-11-13T11:09:48Z</time>
      </trkpt>
      <trkpt lat="44.87442" lon="5.87514">
        <ele>1237.673</ele>
        <time>2021-11-13T11:09:49Z</time>
      </trkpt>
      <trkpt lat="44.87442" lon="5.87514">
        <ele>1237.98</ele>
        <time>2021-11-13T11:10:18Z</time>
      </trkpt>
      <trkpt lat="44.87443" lon="5.87514">
        <ele>1237.821</ele>
        <time>2021-11-13T11:10:19Z</time>
      </trkpt>
      <trkpt lat="44.87443" lon="5.87514">
        <ele>1237.821</ele>
        <time>2021-11-13T11:10:19Z</time>
      </trkpt>
      <trkpt lat="44.87443" lon="5.87514">
        <ele>1237.808</ele>
        <time>2021-11-13T11:10:20Z</time>
      </trkpt>
      <trkpt lat="44.87443" lon="5.87514">
        <ele>1238.122</ele>
        <time>2021-11-13T11:10:23Z</time>
      </trkpt>
      <trkpt lat="44.87444" lon="5.87512">
        <ele>1237.466</ele>
        <time>2021-11-13T11:10:24Z</time>
      </trkpt>
      <trkpt lat="44.87449" lon="5.87511">
        <ele>1235.069</ele>
        <time>2021-11-13T11:10:30Z</time>
      </trkpt>
      <trkpt lat="44.87449" lon="5.8751">
        <ele>1234.938</ele>
        <time>2021-11-13T11:10:31Z</time>
      </trkpt>
      <trkpt lat="44.8745" lon="5.87509">
        <ele>1233.755</ele>
        <time>2021-11-13T11:10:34Z</time>
      </trkpt>
      <trkpt lat="44.8745" lon="5.87509">
        <ele>1233.686</ele>
        <time>2021-11-13T11:10:35Z</time>
      </trkpt>
      <trkpt lat="44.87451" lon="5.87508">
        <ele>1232.223</ele>
        <time>2021-11-13T11:10:38Z</time>
      </trkpt>
      <trkpt lat="44.87452" lon="5.87506">
        <ele>1232.999</ele>
        <time>2021-11-13T11:10:43Z</time>
      </trkpt>
      <trkpt lat="44.87453" lon="5.87506">
        <ele>1232.623</ele>
        <time>2021-11-13T11:10:44Z</time>
      </trkpt>
      <trkpt lat="44.87456" lon="5.87505">
        <ele>1232.37</ele>
        <time>2021-11-13T11:10:47Z</time>
      </trkpt>
      <trkpt lat="44.87456" lon="5.87505">
        <ele>1231.88</ele>
        <time>2021-11-13T11:10:48Z</time>
      </trkpt>
      <trkpt lat="44.87457" lon="5.87504">
        <ele>1231.77</ele>
        <time>2021-11-13T11:10:50Z</time>
      </trkpt>
      <trkpt lat="44.87459" lon="5.87504">
        <ele>1231.693</ele>
        <time>2021-11-13T11:10:53Z</time>
      </trkpt>
      <trkpt lat="44.87459" lon="5.87504">
        <ele>1231.693</ele>
        <time>2021-11-13T11:10:53Z</time>
      </trkpt>
      <trkpt lat="44.8746" lon="5.87505">
        <ele>1231.719</ele>
        <time>2021-11-13T11:10:54Z</time>
      </trkpt>
      <trkpt lat="44.87461" lon="5.87506">
        <ele>1231.846</ele>
        <time>2021-11-13T11:10:55Z</time>
      </trkpt>
      <trkpt lat="44.87461" lon="5.87506">
        <ele>1231.587</ele>
        <time>2021-11-13T11:10:56Z</time>
      </trkpt>
      <trkpt lat="44.87464" lon="5.87506">
        <ele>1231.759</ele>
        <time>2021-11-13T11:10:59Z</time>
      </trkpt>
      <trkpt lat="44.87465" lon="5.87505">
        <ele>1230.788</ele>
        <time>2021-11-13T11:11:01Z</time>
      </trkpt>
      <trkpt lat="44.87466" lon="5.87505">
        <ele>1230.791</ele>
        <time>2021-11-13T11:11:03Z</time>
      </trkpt>
      <trkpt lat="44.87468" lon="5.87503">
        <ele>1229.972</ele>
        <time>2021-11-13T11:11:09Z</time>
      </trkpt>
      <trkpt lat="44.87468" lon="5.87503">
        <ele>1230.024</ele>
        <time>2021-11-13T11:11:11Z</time>
      </trkpt>
      <trkpt lat="44.87469" lon="5.87504">
        <ele>1230.387</ele>
        <time>2021-11-13T11:11:12Z</time>
      </trkpt>
      <trkpt lat="44.87469" lon="5.87504">
        <ele>1230.656</ele>
        <time>2021-11-13T11:11:14Z</time>
      </trkpt>
      <trkpt lat="44.87469" lon="5.87504">
        <ele>1230.631</ele>
        <time>2021-11-13T11:11:15Z</time>
      </trkpt>
      <trkpt lat="44.87469" lon="5.87504">
        <ele>1230.631</ele>
        <time>2021-11-13T11:11:15Z</time>
      </trkpt>
      <trkpt lat="44.87469" lon="5.87504">
        <ele>1230.77</ele>
        <time>2021-11-13T11:11:16Z</time>
      </trkpt>
      <trkpt lat="44.87469" lon="5.87504">
        <ele>1230.77</ele>
        <time>2021-11-13T11:11:16Z</time>
      </trkpt>
      <trkpt lat="44.87469" lon="5.87504">
        <ele>1230.516</ele>
        <time>2021-11-13T11:11:17Z</time>
      </trkpt>
      <trkpt lat="44.87469" lon="5.87504">
        <ele>1230.516</ele>
        <time>2021-11-13T11:11:17Z</time>
      </trkpt>
      <trkpt lat="44.8747" lon="5.87504">
        <ele>1230.207</ele>
        <time>2021-11-13T11:11:18Z</time>
      </trkpt>
      <trkpt lat="44.8747" lon="5.87504">
        <ele>1230.385</ele>
        <time>2021-11-13T11:11:19Z</time>
      </trkpt>
      <trkpt lat="44.8747" lon="5.87504">
        <ele>1230.222</ele>
        <time>2021-11-13T11:11:20Z</time>
      </trkpt>
      <trkpt lat="44.87472" lon="5.87504">
        <ele>1230.072</ele>
        <time>2021-11-13T11:11:21Z</time>
      </trkpt>
      <trkpt lat="44.87474" lon="5.87503">
        <ele>1229.861</ele>
        <time>2021-11-13T11:11:23Z</time>
      </trkpt>
      <trkpt lat="44.87474" lon="5.87503">
        <ele>1229.84</ele>
        <time>2021-11-13T11:11:24Z</time>
      </trkpt>
      <trkpt lat="44.87474" lon="5.87503">
        <ele>1229.759</ele>
        <time>2021-11-13T11:11:26Z</time>
      </trkpt>
      <trkpt lat="44.87476" lon="5.87503">
        <ele>1230.08</ele>
        <time>2021-11-13T11:11:27Z</time>
      </trkpt>
      <trkpt lat="44.87476" lon="5.87503">
        <ele>1230.08</ele>
        <time>2021-11-13T11:11:27Z</time>
      </trkpt>
      <trkpt lat="44.87476" lon="5.87504">
        <ele>1230.037</ele>
        <time>2021-11-13T11:11:28Z</time>
      </trkpt>
      <trkpt lat="44.87476" lon="5.87504">
        <ele>1230.032</ele>
        <time>2021-11-13T11:11:29Z</time>
      </trkpt>
      <trkpt lat="44.87476" lon="5.87504">
        <ele>1230.029</ele>
        <time>2021-11-13T11:11:31Z</time>
      </trkpt>
      <trkpt lat="44.87477" lon="5.87504">
        <ele>1230.127</ele>
        <time>2021-11-13T11:11:32Z</time>
      </trkpt>
      <trkpt lat="44.87477" lon="5.87505">
        <ele>1229.976</ele>
        <time>2021-11-13T11:11:34Z</time>
      </trkpt>
      <trkpt lat="44.87478" lon="5.87505">
        <ele>1229.845</ele>
        <time>2021-11-13T11:11:35Z</time>
      </trkpt>
      <trkpt lat="44.87478" lon="5.87506">
        <ele>1229.765</ele>
        <time>2021-11-13T11:11:36Z</time>
      </trkpt>
      <trkpt lat="44.87478" lon="5.87506">
        <ele>1229.132</ele>
        <time>2021-11-13T11:11:37Z</time>
      </trkpt>
      <trkpt lat="44.87478" lon="5.87506">
        <ele>1229.632</ele>
        <time>2021-11-13T11:11:38Z</time>
      </trkpt>
      <trkpt lat="44.87478" lon="5.87507">
        <ele>1229.741</ele>
        <time>2021-11-13T11:11:39Z</time>
      </trkpt>
      <trkpt lat="44.87481" lon="5.87508">
        <ele>1229.734</ele>
        <time>2021-11-13T11:11:43Z</time>
      </trkpt>
      <trkpt lat="44.87488" lon="5.87509">
        <ele>1229.305</ele>
        <time>2021-11-13T11:11:50Z</time>
      </trkpt>
      <trkpt lat="44.87489" lon="5.87509">
        <ele>1229.334</ele>
        <time>2021-11-13T11:11:52Z</time>
      </trkpt>
      <trkpt lat="44.87489" lon="5.87509">
        <ele>1229.72</ele>
        <time>2021-11-13T11:11:56Z</time>
      </trkpt>
      <trkpt lat="44.87492" lon="5.8751">
        <ele>1230.444</ele>
        <time>2021-11-13T11:11:57Z</time>
      </trkpt>
      <trkpt lat="44.87492" lon="5.8751">
        <ele>1230.834</ele>
        <time>2021-11-13T11:11:58Z</time>
      </trkpt>
      <trkpt lat="44.87492" lon="5.8751">
        <ele>1230.479</ele>
        <time>2021-11-13T11:12:00Z</time>
      </trkpt>
      <trkpt lat="44.87493" lon="5.87511">
        <ele>1230.478</ele>
        <time>2021-11-13T11:12:01Z</time>
      </trkpt>
      <trkpt lat="44.87493" lon="5.87511">
        <ele>1229.574</ele>
        <time>2021-11-13T11:12:03Z</time>
      </trkpt>
      <trkpt lat="44.87493" lon="5.87511">
        <ele>1229.574</ele>
        <time>2021-11-13T11:12:03Z</time>
      </trkpt>
      <trkpt lat="44.87493" lon="5.87511">
        <ele>1229.336</ele>
        <time>2021-11-13T11:12:04Z</time>
      </trkpt>
      <trkpt lat="44.87493" lon="5.87511">
        <ele>1228.345</ele>
        <time>2021-11-13T11:12:06Z</time>
      </trkpt>
      <trkpt lat="44.87495" lon="5.87511">
        <ele>1227.618</ele>
        <time>2021-11-13T11:12:07Z</time>
      </trkpt>
      <trkpt lat="44.87496" lon="5.87511">
        <ele>1228.052</ele>
        <time>2021-11-13T11:12:08Z</time>
      </trkpt>
      <trkpt lat="44.87497" lon="5.87511">
        <ele>1228.592</ele>
        <time>2021-11-13T11:12:10Z</time>
      </trkpt>
      <trkpt lat="44.87499" lon="5.87511">
        <ele>1228.649</ele>
        <time>2021-11-13T11:12:17Z</time>
      </trkpt>
      <trkpt lat="44.875" lon="5.87511">
        <ele>1228.727</ele>
        <time>2021-11-13T11:12:18Z</time>
      </trkpt>
      <trkpt lat="44.87502" lon="5.8751">
        <ele>1229.325</ele>
        <time>2021-11-13T11:12:21Z</time>
      </trkpt>
      <trkpt lat="44.87501" lon="5.87509">
        <ele>1229.051</ele>
        <time>2021-11-13T11:12:23Z</time>
      </trkpt>
      <trkpt lat="44.87501" lon="5.87509">
        <ele>1229.051</ele>
        <time>2021-11-13T11:12:23Z</time>
      </trkpt>
      <trkpt lat="44.87501" lon="5.87509">
        <ele>1229.28</ele>
        <time>2021-11-13T11:12:24Z</time>
      </trkpt>
      <trkpt lat="44.87501" lon="5.87509">
        <ele>1229.28</ele>
        <time>2021-11-13T11:12:24Z</time>
      </trkpt>
      <trkpt lat="44.87501" lon="5.87509">
        <ele>1229.36</ele>
        <time>2021-11-13T11:12:25Z</time>
      </trkpt>
      <trkpt lat="44.87502" lon="5.87508">
        <ele>1229.368</ele>
        <time>2021-11-13T11:12:27Z</time>
      </trkpt>
      <trkpt lat="44.87503" lon="5.87504">
        <ele>1229.17</ele>
        <time>2021-11-13T11:12:32Z</time>
      </trkpt>
      <trkpt lat="44.87503" lon="5.87499">
        <ele>1228.603</ele>
        <time>2021-11-13T11:12:36Z</time>
      </trkpt>
      <trkpt lat="44.87504" lon="5.87494">
        <ele>1228.277</ele>
        <time>2021-11-13T11:12:40Z</time>
      </trkpt>
      <trkpt lat="44.87508" lon="5.87468">
        <ele>1227.126</ele>
        <time>2021-11-13T11:13:00Z</time>
      </trkpt>
      <trkpt lat="44.87509" lon="5.87466">
        <ele>1227.843</ele>
        <time>2021-11-13T11:13:03Z</time>
      </trkpt>
      <trkpt lat="44.87509" lon="5.87466">
        <ele>1228.141</ele>
        <time>2021-11-13T11:13:04Z</time>
      </trkpt>
      <trkpt lat="44.87509" lon="5.87466">
        <ele>1230.383</ele>
        <time>2021-11-13T11:14:37Z</time>
      </trkpt>
      <trkpt lat="44.8751" lon="5.87466">
        <ele>1230.104</ele>
        <time>2021-11-13T11:14:38Z</time>
      </trkpt>
      <trkpt lat="44.8751" lon="5.87465">
        <ele>1229.889</ele>
        <time>2021-11-13T11:14:39Z</time>
      </trkpt>
      <trkpt lat="44.8751" lon="5.87461">
        <ele>1229.844</ele>
        <time>2021-11-13T11:14:43Z</time>
      </trkpt>
      <trkpt lat="44.87509" lon="5.87453">
        <ele>1231.525</ele>
        <time>2021-11-13T11:14:49Z</time>
      </trkpt>
      <trkpt lat="44.87507" lon="5.87448">
        <ele>1231.604</ele>
        <time>2021-11-13T11:14:53Z</time>
      </trkpt>
      <trkpt lat="44.87505" lon="5.87441">
        <ele>1233.677</ele>
        <time>2021-11-13T11:14:58Z</time>
      </trkpt>
      <trkpt lat="44.87501" lon="5.87431">
        <ele>1233.976</ele>
        <time>2021-11-13T11:15:05Z</time>
      </trkpt>
      <trkpt lat="44.87495" lon="5.87419">
        <ele>1232.196</ele>
        <time>2021-11-13T11:15:12Z</time>
      </trkpt>
      <trkpt lat="44.87492" lon="5.87403">
        <ele>1231.868</ele>
        <time>2021-11-13T11:15:23Z</time>
      </trkpt>
      <trkpt lat="44.87491" lon="5.87402">
        <ele>1231.935</ele>
        <time>2021-11-13T11:15:24Z</time>
      </trkpt>
      <trkpt lat="44.8749" lon="5.87397">
        <ele>1232.404</ele>
        <time>2021-11-13T11:15:29Z</time>
      </trkpt>
      <trkpt lat="44.87489" lon="5.87395">
        <ele>1232.341</ele>
        <time>2021-11-13T11:15:31Z</time>
      </trkpt>
      <trkpt lat="44.87488" lon="5.87392">
        <ele>1232.195</ele>
        <time>2021-11-13T11:15:33Z</time>
      </trkpt>
      <trkpt lat="44.87484" lon="5.87386">
        <ele>1231.962</ele>
        <time>2021-11-13T11:15:38Z</time>
      </trkpt>
      <trkpt lat="44.87484" lon="5.87385">
        <ele>1231.697</ele>
        <time>2021-11-13T11:15:39Z</time>
      </trkpt>
      <trkpt lat="44.87473" lon="5.87365">
        <ele>1231.872</ele>
        <time>2021-11-13T11:15:58Z</time>
      </trkpt>
      <trkpt lat="44.87473" lon="5.87365">
        <ele>1232.191</ele>
        <time>2021-11-13T11:15:59Z</time>
      </trkpt>
      <trkpt lat="44.87472" lon="5.87365">
        <ele>1231.742</ele>
        <time>2021-11-13T11:16:00Z</time>
      </trkpt>
      <trkpt lat="44.87472" lon="5.87363">
        <ele>1231.58</ele>
        <time>2021-11-13T11:16:03Z</time>
      </trkpt>
      <trkpt lat="44.87475" lon="5.87354">
        <ele>1230.735</ele>
        <time>2021-11-13T11:16:12Z</time>
      </trkpt>
      <trkpt lat="44.87485" lon="5.87336">
        <ele>1228.567</ele>
        <time>2021-11-13T11:16:33Z</time>
      </trkpt>
      <trkpt lat="44.87497" lon="5.8732">
        <ele>1229.844</ele>
        <time>2021-11-13T11:16:53Z</time>
      </trkpt>
      <trkpt lat="44.875" lon="5.87317">
        <ele>1229.933</ele>
        <time>2021-11-13T11:16:56Z</time>
      </trkpt>
      <trkpt lat="44.87502" lon="5.87314">
        <ele>1230.861</ele>
        <time>2021-11-13T11:17:00Z</time>
      </trkpt>
      <trkpt lat="44.87508" lon="5.87308">
        <ele>1230.117</ele>
        <time>2021-11-13T11:17:08Z</time>
      </trkpt>
      <trkpt lat="44.8752" lon="5.87299">
        <ele>1232.249</ele>
        <time>2021-11-13T11:17:20Z</time>
      </trkpt>
      <trkpt lat="44.87527" lon="5.87296">
        <ele>1234.597</ele>
        <time>2021-11-13T11:17:27Z</time>
      </trkpt>
      <trkpt lat="44.87537" lon="5.87291">
        <ele>1234.459</ele>
        <time>2021-11-13T11:17:41Z</time>
      </trkpt>
      <trkpt lat="44.87538" lon="5.87291">
        <ele>1234.952</ele>
        <time>2021-11-13T11:17:42Z</time>
      </trkpt>
      <trkpt lat="44.87548" lon="5.87288">
        <ele>1236.331</ele>
        <time>2021-11-13T11:17:54Z</time>
      </trkpt>
      <trkpt lat="44.87575" lon="5.87275">
        <ele>1238.344</ele>
        <time>2021-11-13T11:18:27Z</time>
      </trkpt>
      <trkpt lat="44.87581" lon="5.87274">
        <ele>1239.063</ele>
        <time>2021-11-13T11:18:33Z</time>
      </trkpt>
      <trkpt lat="44.87597" lon="5.87266">
        <ele>1240.638</ele>
        <time>2021-11-13T11:18:53Z</time>
      </trkpt>
      <trkpt lat="44.87623" lon="5.87256">
        <ele>1242.375</ele>
        <time>2021-11-13T11:19:22Z</time>
      </trkpt>
      <trkpt lat="44.87626" lon="5.87255">
        <ele>1242.188</ele>
        <time>2021-11-13T11:19:26Z</time>
      </trkpt>
      <trkpt lat="44.87626" lon="5.87255">
        <ele>1242.556</ele>
        <time>2021-11-13T11:19:27Z</time>
      </trkpt>
      <trkpt lat="44.87626" lon="5.87255">
        <ele>1242.556</ele>
        <time>2021-11-13T11:19:27Z</time>
      </trkpt>
      <trkpt lat="44.87627" lon="5.87254">
        <ele>1242.861</ele>
        <time>2021-11-13T11:19:28Z</time>
      </trkpt>
      <trkpt lat="44.87628" lon="5.87254">
        <ele>1242.912</ele>
        <time>2021-11-13T11:19:30Z</time>
      </trkpt>
      <trkpt lat="44.87629" lon="5.87254">
        <ele>1242.878</ele>
        <time>2021-11-13T11:19:31Z</time>
      </trkpt>
      <trkpt lat="44.87638" lon="5.87249">
        <ele>1244.101</ele>
        <time>2021-11-13T11:19:43Z</time>
      </trkpt>
      <trkpt lat="44.87638" lon="5.87249">
        <ele>1244.271</ele>
        <time>2021-11-13T11:19:44Z</time>
      </trkpt>
      <trkpt lat="44.87638" lon="5.87249">
        <ele>1244.286</ele>
        <time>2021-11-13T11:19:53Z</time>
      </trkpt>
      <trkpt lat="44.8764" lon="5.87249">
        <ele>1243.783</ele>
        <time>2021-11-13T11:19:54Z</time>
      </trkpt>
      <trkpt lat="44.8764" lon="5.87249">
        <ele>1243.864</ele>
        <time>2021-11-13T11:19:56Z</time>
      </trkpt>
      <trkpt lat="44.8764" lon="5.87249">
        <ele>1243.837</ele>
        <time>2021-11-13T11:20:30Z</time>
      </trkpt>
      <trkpt lat="44.87639" lon="5.87248">
        <ele>1243.469</ele>
        <time>2021-11-13T11:20:31Z</time>
      </trkpt>
      <trkpt lat="44.8764" lon="5.87248">
        <ele>1243.193</ele>
        <time>2021-11-13T11:20:32Z</time>
      </trkpt>
      <trkpt lat="44.87641" lon="5.87247">
        <ele>1243.134</ele>
        <time>2021-11-13T11:20:34Z</time>
      </trkpt>
      <trkpt lat="44.87646" lon="5.87246">
        <ele>1245.425</ele>
        <time>2021-11-13T11:20:39Z</time>
      </trkpt>
      <trkpt lat="44.8765" lon="5.87244">
        <ele>1247.479</ele>
        <time>2021-11-13T11:20:43Z</time>
      </trkpt>
      <trkpt lat="44.87651" lon="5.87244">
        <ele>1247.727</ele>
        <time>2021-11-13T11:20:44Z</time>
      </trkpt>
      <trkpt lat="44.87653" lon="5.87244">
        <ele>1248.313</ele>
        <time>2021-11-13T11:20:46Z</time>
      </trkpt>
      <trkpt lat="44.87654" lon="5.87243">
        <ele>1248.167</ele>
        <time>2021-11-13T11:20:48Z</time>
      </trkpt>
      <trkpt lat="44.87657" lon="5.87243">
        <ele>1248.238</ele>
        <time>2021-11-13T11:20:52Z</time>
      </trkpt>
      <trkpt lat="44.87657" lon="5.87243">
        <ele>1247.649</ele>
        <time>2021-11-13T11:20:54Z</time>
      </trkpt>
      <trkpt lat="44.87659" lon="5.87242">
        <ele>1247.806</ele>
        <time>2021-11-13T11:20:55Z</time>
      </trkpt>
      <trkpt lat="44.87659" lon="5.87242">
        <ele>1247.733</ele>
        <time>2021-11-13T11:20:56Z</time>
      </trkpt>
      <trkpt lat="44.8766" lon="5.87242">
        <ele>1247.455</ele>
        <time>2021-11-13T11:20:57Z</time>
      </trkpt>
      <trkpt lat="44.87675" lon="5.87242">
        <ele>1248.425</ele>
        <time>2021-11-13T11:21:16Z</time>
      </trkpt>
      <trkpt lat="44.87676" lon="5.87243">
        <ele>1248.724</ele>
        <time>2021-11-13T11:21:17Z</time>
      </trkpt>
      <trkpt lat="44.87705" lon="5.87243">
        <ele>1248.347</ele>
        <time>2021-11-13T11:21:43Z</time>
      </trkpt>
      <trkpt lat="44.87708" lon="5.8724">
        <ele>1248.126</ele>
        <time>2021-11-13T11:21:47Z</time>
      </trkpt>
      <trkpt lat="44.87718" lon="5.8723">
        <ele>1248.189</ele>
        <time>2021-11-13T11:22:01Z</time>
      </trkpt>
      <trkpt lat="44.8772" lon="5.87227">
        <ele>1248.506</ele>
        <time>2021-11-13T11:22:07Z</time>
      </trkpt>
      <trkpt lat="44.87732" lon="5.87218">
        <ele>1248.872</ele>
        <time>2021-11-13T11:22:23Z</time>
      </trkpt>
      <trkpt lat="44.87739" lon="5.87216">
        <ele>1248.892</ele>
        <time>2021-11-13T11:22:30Z</time>
      </trkpt>
      <trkpt lat="44.87745" lon="5.8721">
        <ele>1248.435</ele>
        <time>2021-11-13T11:22:40Z</time>
      </trkpt>
      <trkpt lat="44.87745" lon="5.8721">
        <ele>1248.445</ele>
        <time>2021-11-13T11:22:41Z</time>
      </trkpt>
      <trkpt lat="44.87745" lon="5.8721">
        <ele>1248.573</ele>
        <time>2021-11-13T11:22:42Z</time>
      </trkpt>
      <trkpt lat="44.8776" lon="5.87199">
        <ele>1250.142</ele>
        <time>2021-11-13T11:22:59Z</time>
      </trkpt>
      <trkpt lat="44.87767" lon="5.87193">
        <ele>1250.559</ele>
        <time>2021-11-13T11:23:09Z</time>
      </trkpt>
      <trkpt lat="44.8779" lon="5.87167">
        <ele>1252.594</ele>
        <time>2021-11-13T11:23:44Z</time>
      </trkpt>
      <trkpt lat="44.87797" lon="5.87155">
        <ele>1254.163</ele>
        <time>2021-11-13T11:23:57Z</time>
      </trkpt>
      <trkpt lat="44.878" lon="5.8715">
        <ele>1253.744</ele>
        <time>2021-11-13T11:24:02Z</time>
      </trkpt>
      <trkpt lat="44.87811" lon="5.87138">
        <ele>1255.821</ele>
        <time>2021-11-13T11:24:20Z</time>
      </trkpt>
      <trkpt lat="44.87821" lon="5.8713">
        <ele>1255.037</ele>
        <time>2021-11-13T11:24:37Z</time>
      </trkpt>
      <trkpt lat="44.87821" lon="5.8713">
        <ele>1255.043</ele>
        <time>2021-11-13T11:24:40Z</time>
      </trkpt>
      <trkpt lat="44.87822" lon="5.87131">
        <ele>1255.063</ele>
        <time>2021-11-13T11:24:41Z</time>
      </trkpt>
      <trkpt lat="44.87822" lon="5.8713">
        <ele>1254.912</ele>
        <time>2021-11-13T11:24:44Z</time>
      </trkpt>
      <trkpt lat="44.87822" lon="5.8713">
        <ele>1256.115</ele>
        <time>2021-11-13T11:24:47Z</time>
      </trkpt>
      <trkpt lat="44.87823" lon="5.8713">
        <ele>1256.166</ele>
        <time>2021-11-13T11:24:48Z</time>
      </trkpt>
      <trkpt lat="44.87823" lon="5.8713">
        <ele>1256.166</ele>
        <time>2021-11-13T11:24:48Z</time>
      </trkpt>
      <trkpt lat="44.87823" lon="5.8713">
        <ele>1256.32</ele>
        <time>2021-11-13T11:24:49Z</time>
      </trkpt>
      <trkpt lat="44.87823" lon="5.8713">
        <ele>1256.32</ele>
        <time>2021-11-13T11:24:49Z</time>
      </trkpt>
      <trkpt lat="44.87824" lon="5.87129">
        <ele>1256.372</ele>
        <time>2021-11-13T11:24:50Z</time>
      </trkpt>
      <trkpt lat="44.87825" lon="5.87129">
        <ele>1256.438</ele>
        <time>2021-11-13T11:24:51Z</time>
      </trkpt>
      <trkpt lat="44.87825" lon="5.87129">
        <ele>1256.827</ele>
        <time>2021-11-13T11:24:52Z</time>
      </trkpt>
      <trkpt lat="44.87825" lon="5.87129">
        <ele>1256.839</ele>
        <time>2021-11-13T11:25:00Z</time>
      </trkpt>
      <trkpt lat="44.87826" lon="5.87128">
        <ele>1256.873</ele>
        <time>2021-11-13T11:25:01Z</time>
      </trkpt>
      <trkpt lat="44.87827" lon="5.87127">
        <ele>1257.578</ele>
        <time>2021-11-13T11:25:03Z</time>
      </trkpt>
      <trkpt lat="44.8783" lon="5.87125">
        <ele>1257.545</ele>
        <time>2021-11-13T11:25:07Z</time>
      </trkpt>
      <trkpt lat="44.87843" lon="5.87118">
        <ele>1258.091</ele>
        <time>2021-11-13T11:25:24Z</time>
      </trkpt>
      <trkpt lat="44.87841" lon="5.87119">
        <ele>1258.75</ele>
        <time>2021-11-13T11:25:28Z</time>
      </trkpt>
      <trkpt lat="44.87841" lon="5.87119">
        <ele>1258.791</ele>
        <time>2021-11-13T11:25:34Z</time>
      </trkpt>
      <trkpt lat="44.87843" lon="5.87119">
        <ele>1259.354</ele>
        <time>2021-11-13T11:25:35Z</time>
      </trkpt>
      <trkpt lat="44.87843" lon="5.87118">
        <ele>1259.206</ele>
        <time>2021-11-13T11:25:36Z</time>
      </trkpt>
      <trkpt lat="44.87844" lon="5.87116">
        <ele>1259.664</ele>
        <time>2021-11-13T11:25:38Z</time>
      </trkpt>
      <trkpt lat="44.87847" lon="5.87113">
        <ele>1259.523</ele>
        <time>2021-11-13T11:25:41Z</time>
      </trkpt>
      <trkpt lat="44.87851" lon="5.87113">
        <ele>1257.356</ele>
        <time>2021-11-13T11:25:44Z</time>
      </trkpt>
      <trkpt lat="44.87855" lon="5.87109">
        <ele>1256.503</ele>
        <time>2021-11-13T11:25:53Z</time>
      </trkpt>
      <trkpt lat="44.87855" lon="5.87109">
        <ele>1256.899</ele>
        <time>2021-11-13T11:25:57Z</time>
      </trkpt>
      <trkpt lat="44.87856" lon="5.87109">
        <ele>1256.868</ele>
        <time>2021-11-13T11:25:58Z</time>
      </trkpt>
      <trkpt lat="44.87857" lon="5.87109">
        <ele>1256.406</ele>
        <time>2021-11-13T11:26:00Z</time>
      </trkpt>
      <trkpt lat="44.87857" lon="5.87109">
        <ele>1256.26</ele>
        <time>2021-11-13T11:26:01Z</time>
      </trkpt>
      <trkpt lat="44.87857" lon="5.87109">
        <ele>1256.279</ele>
        <time>2021-11-13T11:26:15Z</time>
      </trkpt>
      <trkpt lat="44.87857" lon="5.87108">
        <ele>1256.136</ele>
        <time>2021-11-13T11:26:16Z</time>
      </trkpt>
      <trkpt lat="44.87858" lon="5.87107">
        <ele>1256.188</ele>
        <time>2021-11-13T11:26:19Z</time>
      </trkpt>
      <trkpt lat="44.87859" lon="5.87107">
        <ele>1256.746</ele>
        <time>2021-11-13T11:26:20Z</time>
      </trkpt>
      <trkpt lat="44.87866" lon="5.87103">
        <ele>1258.051</ele>
        <time>2021-11-13T11:26:29Z</time>
      </trkpt>
      <trkpt lat="44.87868" lon="5.871">
        <ele>1257.115</ele>
        <time>2021-11-13T11:26:33Z</time>
      </trkpt>
      <trkpt lat="44.87878" lon="5.87094">
        <ele>1259.248</ele>
        <time>2021-11-13T11:26:45Z</time>
      </trkpt>
      <trkpt lat="44.8789" lon="5.87094">
        <ele>1258.008</ele>
        <time>2021-11-13T11:26:56Z</time>
      </trkpt>
      <trkpt lat="44.87911" lon="5.871">
        <ele>1258.485</ele>
        <time>2021-11-13T11:27:17Z</time>
      </trkpt>
      <trkpt lat="44.87914" lon="5.87098">
        <ele>1258.442</ele>
        <time>2021-11-13T11:27:20Z</time>
      </trkpt>
      <trkpt lat="44.87916" lon="5.87092">
        <ele>1258.512</ele>
        <time>2021-11-13T11:27:24Z</time>
      </trkpt>
      <trkpt lat="44.8792" lon="5.87084">
        <ele>1258.063</ele>
        <time>2021-11-13T11:27:30Z</time>
      </trkpt>
      <trkpt lat="44.87931" lon="5.87073">
        <ele>1258.895</ele>
        <time>2021-11-13T11:27:50Z</time>
      </trkpt>
      <trkpt lat="44.87932" lon="5.87072">
        <ele>1258.885</ele>
        <time>2021-11-13T11:27:52Z</time>
      </trkpt>
      <trkpt lat="44.87932" lon="5.87072">
        <ele>1258.885</ele>
        <time>2021-11-13T11:27:52Z</time>
      </trkpt>
      <trkpt lat="44.87931" lon="5.87071">
        <ele>1258.913</ele>
        <time>2021-11-13T11:27:53Z</time>
      </trkpt>
      <trkpt lat="44.87932" lon="5.87071">
        <ele>1258.929</ele>
        <time>2021-11-13T11:27:54Z</time>
      </trkpt>
      <trkpt lat="44.87933" lon="5.8707">
        <ele>1259.018</ele>
        <time>2021-11-13T11:27:55Z</time>
      </trkpt>
      <trkpt lat="44.87935" lon="5.87066">
        <ele>1259.527</ele>
        <time>2021-11-13T11:27:59Z</time>
      </trkpt>
      <trkpt lat="44.87935" lon="5.87066">
        <ele>1259.527</ele>
        <time>2021-11-13T11:27:59Z</time>
      </trkpt>
      <trkpt lat="44.87935" lon="5.87066">
        <ele>1259.152</ele>
        <time>2021-11-13T11:28:00Z</time>
      </trkpt>
      <trkpt lat="44.87935" lon="5.87066">
        <ele>1259.152</ele>
        <time>2021-11-13T11:28:00Z</time>
      </trkpt>
      <trkpt lat="44.87935" lon="5.87066">
        <ele>1259.133</ele>
        <time>2021-11-13T11:28:01Z</time>
      </trkpt>
      <trkpt lat="44.87935" lon="5.87065">
        <ele>1259.24</ele>
        <time>2021-11-13T11:28:02Z</time>
      </trkpt>
      <trkpt lat="44.87935" lon="5.87065">
        <ele>1259.37</ele>
        <time>2021-11-13T11:28:03Z</time>
      </trkpt>
      <trkpt lat="44.87935" lon="5.87065">
        <ele>1258.943</ele>
        <time>2021-11-13T11:28:06Z</time>
      </trkpt>
      <trkpt lat="44.87937" lon="5.87064">
        <ele>1258.474</ele>
        <time>2021-11-13T11:28:07Z</time>
      </trkpt>
      <trkpt lat="44.87938" lon="5.87064">
        <ele>1258.923</ele>
        <time>2021-11-13T11:28:08Z</time>
      </trkpt>
      <trkpt lat="44.87942" lon="5.87059">
        <ele>1261.156</ele>
        <time>2021-11-13T11:28:13Z</time>
      </trkpt>
      <trkpt lat="44.87952" lon="5.8705">
        <ele>1262.612</ele>
        <time>2021-11-13T11:28:26Z</time>
      </trkpt>
      <trkpt lat="44.87952" lon="5.8705">
        <ele>1262.612</ele>
        <time>2021-11-13T11:28:26Z</time>
      </trkpt>
      <trkpt lat="44.87952" lon="5.8705">
        <ele>1262.508</ele>
        <time>2021-11-13T11:28:27Z</time>
      </trkpt>
      <trkpt lat="44.87953" lon="5.8705">
        <ele>1263.927</ele>
        <time>2021-11-13T11:28:28Z</time>
      </trkpt>
      <trkpt lat="44.87953" lon="5.8705">
        <ele>1264.411</ele>
        <time>2021-11-13T11:28:29Z</time>
      </trkpt>
      <trkpt lat="44.87953" lon="5.8705">
        <ele>1263.893</ele>
        <time>2021-11-13T11:28:31Z</time>
      </trkpt>
      <trkpt lat="44.87954" lon="5.87048">
        <ele>1263.521</ele>
        <time>2021-11-13T11:28:32Z</time>
      </trkpt>
      <trkpt lat="44.87954" lon="5.87047">
        <ele>1263.404</ele>
        <time>2021-11-13T11:28:33Z</time>
      </trkpt>
      <trkpt lat="44.87957" lon="5.87044">
        <ele>1263.477</ele>
        <time>2021-11-13T11:28:36Z</time>
      </trkpt>
      <trkpt lat="44.87987" lon="5.87001">
        <ele>1263.41</ele>
        <time>2021-11-13T11:29:20Z</time>
      </trkpt>
      <trkpt lat="44.8799" lon="5.86988">
        <ele>1264.14</ele>
        <time>2021-11-13T11:29:27Z</time>
      </trkpt>
      <trkpt lat="44.87996" lon="5.86981">
        <ele>1264.511</ele>
        <time>2021-11-13T11:29:36Z</time>
      </trkpt>
      <trkpt lat="44.87998" lon="5.86978">
        <ele>1264.385</ele>
        <time>2021-11-13T11:29:40Z</time>
      </trkpt>
      <trkpt lat="44.88002" lon="5.86975">
        <ele>1264.473</ele>
        <time>2021-11-13T11:29:46Z</time>
      </trkpt>
      <trkpt lat="44.88004" lon="5.86972">
        <ele>1264.62</ele>
        <time>2021-11-13T11:29:49Z</time>
      </trkpt>
      <trkpt lat="44.88023" lon="5.86958">
        <ele>1264.317</ele>
        <time>2021-11-13T11:30:14Z</time>
      </trkpt>
      <trkpt lat="44.88029" lon="5.86956">
        <ele>1264.096</ele>
        <time>2021-11-13T11:30:22Z</time>
      </trkpt>
      <trkpt lat="44.88044" lon="5.86933">
        <ele>1262.988</ele>
        <time>2021-11-13T11:30:42Z</time>
      </trkpt>
      <trkpt lat="44.88047" lon="5.86932">
        <ele>1262.814</ele>
        <time>2021-11-13T11:30:45Z</time>
      </trkpt>
      <trkpt lat="44.8805" lon="5.8693">
        <ele>1262.987</ele>
        <time>2021-11-13T11:30:48Z</time>
      </trkpt>
      <trkpt lat="44.88053" lon="5.86926">
        <ele>1263.261</ele>
        <time>2021-11-13T11:30:51Z</time>
      </trkpt>
      <trkpt lat="44.88056" lon="5.86919">
        <ele>1262.944</ele>
        <time>2021-11-13T11:30:56Z</time>
      </trkpt>
      <trkpt lat="44.8806" lon="5.86917">
        <ele>1262.996</ele>
        <time>2021-11-13T11:31:02Z</time>
      </trkpt>
      <trkpt lat="44.88092" lon="5.86869">
        <ele>1263.389</ele>
        <time>2021-11-13T11:31:55Z</time>
      </trkpt>
      <trkpt lat="44.88097" lon="5.86865">
        <ele>1263.344</ele>
        <time>2021-11-13T11:32:05Z</time>
      </trkpt>
      <trkpt lat="44.88097" lon="5.86865">
        <ele>1263.561</ele>
        <time>2021-11-13T11:32:35Z</time>
      </trkpt>
      <trkpt lat="44.88099" lon="5.86865">
        <ele>1263.408</ele>
        <time>2021-11-13T11:32:36Z</time>
      </trkpt>
      <trkpt lat="44.8811" lon="5.8686">
        <ele>1264.021</ele>
        <time>2021-11-13T11:32:52Z</time>
      </trkpt>
      <trkpt lat="44.88112" lon="5.86858">
        <ele>1265.715</ele>
        <time>2021-11-13T11:32:55Z</time>
      </trkpt>
      <trkpt lat="44.88112" lon="5.86858">
        <ele>1265.715</ele>
        <time>2021-11-13T11:32:55Z</time>
      </trkpt>
      <trkpt lat="44.88112" lon="5.86855">
        <ele>1264.706</ele>
        <time>2021-11-13T11:32:56Z</time>
      </trkpt>
      <trkpt lat="44.88112" lon="5.86855">
        <ele>1264.886</ele>
        <time>2021-11-13T11:32:57Z</time>
      </trkpt>
      <trkpt lat="44.88112" lon="5.86855">
        <ele>1264.886</ele>
        <time>2021-11-13T11:32:57Z</time>
      </trkpt>
      <trkpt lat="44.88112" lon="5.86855">
        <ele>1263.924</ele>
        <time>2021-11-13T11:32:58Z</time>
      </trkpt>
      <trkpt lat="44.88112" lon="5.86855">
        <ele>1263.923</ele>
        <time>2021-11-13T11:32:59Z</time>
      </trkpt>
      <trkpt lat="44.88112" lon="5.86855">
        <ele>1263.923</ele>
        <time>2021-11-13T11:32:59Z</time>
      </trkpt>
      <trkpt lat="44.88112" lon="5.86855">
        <ele>1263.855</ele>
        <time>2021-11-13T11:33:00Z</time>
      </trkpt>
      <trkpt lat="44.88112" lon="5.86855">
        <ele>1263.544</ele>
        <time>2021-11-13T11:33:03Z</time>
      </trkpt>
      <trkpt lat="44.88114" lon="5.86856">
        <ele>1263.482</ele>
        <time>2021-11-13T11:33:08Z</time>
      </trkpt>
      <trkpt lat="44.88114" lon="5.86857">
        <ele>1263.901</ele>
        <time>2021-11-13T11:33:09Z</time>
      </trkpt>
      <trkpt lat="44.88114" lon="5.86857">
        <ele>1264.206</ele>
        <time>2021-11-13T11:33:10Z</time>
      </trkpt>
      <trkpt lat="44.88114" lon="5.86857">
        <ele>1264.045</ele>
        <time>2021-11-13T11:33:11Z</time>
      </trkpt>
      <trkpt lat="44.88114" lon="5.86857">
        <ele>1263.682</ele>
        <time>2021-11-13T11:33:12Z</time>
      </trkpt>
      <trkpt lat="44.88112" lon="5.86856">
        <ele>1263.888</ele>
        <time>2021-11-13T11:33:14Z</time>
      </trkpt>
      <trkpt lat="44.88111" lon="5.86856">
        <ele>1263.693</ele>
        <time>2021-11-13T11:33:15Z</time>
      </trkpt>
      <trkpt lat="44.8811" lon="5.86856">
        <ele>1262.838</ele>
        <time>2021-11-13T11:33:18Z</time>
      </trkpt>
      <trkpt lat="44.8811" lon="5.86856">
        <ele>1263.112</ele>
        <time>2021-11-13T11:33:20Z</time>
      </trkpt>
      <trkpt lat="44.8811" lon="5.86856">
        <ele>1262.825</ele>
        <time>2021-11-13T11:33:21Z</time>
      </trkpt>
      <trkpt lat="44.8811" lon="5.86856">
        <ele>1263.209</ele>
        <time>2021-11-13T11:33:22Z</time>
      </trkpt>
      <trkpt lat="44.8811" lon="5.86856">
        <ele>1263.209</ele>
        <time>2021-11-13T11:33:22Z</time>
      </trkpt>
      <trkpt lat="44.8811" lon="5.86856">
        <ele>1263.397</ele>
        <time>2021-11-13T11:33:23Z</time>
      </trkpt>
      <trkpt lat="44.88112" lon="5.86854">
        <ele>1265.804</ele>
        <time>2021-11-13T11:33:29Z</time>
      </trkpt>
      <trkpt lat="44.88112" lon="5.86854">
        <ele>1264.708</ele>
        <time>2021-11-13T11:33:30Z</time>
      </trkpt>
      <trkpt lat="44.88112" lon="5.86854">
        <ele>1264.708</ele>
        <time>2021-11-13T11:33:30Z</time>
      </trkpt>
      <trkpt lat="44.88113" lon="5.86854">
        <ele>1265.143</ele>
        <time>2021-11-13T11:33:31Z</time>
      </trkpt>
      <trkpt lat="44.88115" lon="5.86853">
        <ele>1264.661</ele>
        <time>2021-11-13T11:33:33Z</time>
      </trkpt>
      <trkpt lat="44.88118" lon="5.86851">
        <ele>1263.607</ele>
        <time>2021-11-13T11:33:35Z</time>
      </trkpt>
      <trkpt lat="44.88118" lon="5.86851">
        <ele>1265.167</ele>
        <time>2021-11-13T11:33:37Z</time>
      </trkpt>
      <trkpt lat="44.88118" lon="5.86851">
        <ele>1265.167</ele>
        <time>2021-11-13T11:33:37Z</time>
      </trkpt>
      <trkpt lat="44.88119" lon="5.86851">
        <ele>1265.33</ele>
        <time>2021-11-13T11:33:38Z</time>
      </trkpt>
      <trkpt lat="44.88119" lon="5.86851">
        <ele>1265.33</ele>
        <time>2021-11-13T11:33:38Z</time>
      </trkpt>
      <trkpt lat="44.88119" lon="5.86852">
        <ele>1265.222</ele>
        <time>2021-11-13T11:33:39Z</time>
      </trkpt>
      <trkpt lat="44.88118" lon="5.86853">
        <ele>1265.01</ele>
        <time>2021-11-13T11:33:42Z</time>
      </trkpt>
      <trkpt lat="44.88118" lon="5.86853">
        <ele>1264.219</ele>
        <time>2021-11-13T11:33:58Z</time>
      </trkpt>
      <trkpt lat="44.88117" lon="5.86856">
        <ele>1263.88</ele>
        <time>2021-11-13T11:33:59Z</time>
      </trkpt>
      <trkpt lat="44.88117" lon="5.86856">
        <ele>1263.317</ele>
        <time>2021-11-13T11:34:00Z</time>
      </trkpt>
      <trkpt lat="44.88117" lon="5.86856">
        <ele>1264.423</ele>
        <time>2021-11-13T11:34:01Z</time>
      </trkpt>
      <trkpt lat="44.88117" lon="5.86856">
        <ele>1264.304</ele>
        <time>2021-11-13T11:34:02Z</time>
      </trkpt>
      <trkpt lat="44.88116" lon="5.86857">
        <ele>1264.479</ele>
        <time>2021-11-13T11:34:06Z</time>
      </trkpt>
      <trkpt lat="44.88117" lon="5.86858">
        <ele>1263.987</ele>
        <time>2021-11-13T11:34:09Z</time>
      </trkpt>
      <trkpt lat="44.88117" lon="5.86859">
        <ele>1263.157</ele>
        <time>2021-11-13T11:34:11Z</time>
      </trkpt>
      <trkpt lat="44.88117" lon="5.86859">
        <ele>1263.157</ele>
        <time>2021-11-13T11:34:11Z</time>
      </trkpt>
      <trkpt lat="44.88117" lon="5.8686">
        <ele>1264.407</ele>
        <time>2021-11-13T11:34:12Z</time>
      </trkpt>
      <trkpt lat="44.88117" lon="5.8686">
        <ele>1263.16</ele>
        <time>2021-11-13T11:34:13Z</time>
      </trkpt>
      <trkpt lat="44.88117" lon="5.86859">
        <ele>1259.982</ele>
        <time>2021-11-13T11:34:15Z</time>
      </trkpt>
      <trkpt lat="44.88117" lon="5.86859">
        <ele>1259.982</ele>
        <time>2021-11-13T11:34:15Z</time>
      </trkpt>
      <trkpt lat="44.88117" lon="5.86857">
        <ele>1259.381</ele>
        <time>2021-11-13T11:34:16Z</time>
      </trkpt>
      <trkpt lat="44.88117" lon="5.86857">
        <ele>1258.411</ele>
        <time>2021-11-13T11:34:17Z</time>
      </trkpt>
      <trkpt lat="44.88117" lon="5.86857">
        <ele>1260.498</ele>
        <time>2021-11-13T11:34:32Z</time>
      </trkpt>
      <trkpt lat="44.88118" lon="5.86853">
        <ele>1260.436</ele>
        <time>2021-11-13T11:34:33Z</time>
      </trkpt>
      <trkpt lat="44.88118" lon="5.86853">
        <ele>1259.738</ele>
        <time>2021-11-13T11:34:34Z</time>
      </trkpt>
      <trkpt lat="44.88118" lon="5.86853">
        <ele>1259.734</ele>
        <time>2021-11-13T11:34:36Z</time>
      </trkpt>
      <trkpt lat="44.88118" lon="5.8685">
        <ele>1260.596</ele>
        <time>2021-11-13T11:34:37Z</time>
      </trkpt>
      <trkpt lat="44.88117" lon="5.8685">
        <ele>1260.771</ele>
        <time>2021-11-13T11:34:38Z</time>
      </trkpt>
      <trkpt lat="44.88117" lon="5.8685">
        <ele>1261.771</ele>
        <time>2021-11-13T11:34:39Z</time>
      </trkpt>
      <trkpt lat="44.88116" lon="5.86851">
        <ele>1260.226</ele>
        <time>2021-11-13T11:34:40Z</time>
      </trkpt>
      <trkpt lat="44.88115" lon="5.86854">
        <ele>1262.955</ele>
        <time>2021-11-13T11:34:44Z</time>
      </trkpt>
      <trkpt lat="44.88114" lon="5.86858">
        <ele>1260.23</ele>
        <time>2021-11-13T11:34:48Z</time>
      </trkpt>
      <trkpt lat="44.88114" lon="5.86858">
        <ele>1259.021</ele>
        <time>2021-11-13T11:34:49Z</time>
      </trkpt>
      <trkpt lat="44.88114" lon="5.86858">
        <ele>1259.021</ele>
        <time>2021-11-13T11:34:49Z</time>
      </trkpt>
      <trkpt lat="44.88114" lon="5.86858">
        <ele>1258.515</ele>
        <time>2021-11-13T11:34:50Z</time>
      </trkpt>
      <trkpt lat="44.88115" lon="5.86864">
        <ele>1260.558</ele>
        <time>2021-11-13T11:34:53Z</time>
      </trkpt>
      <trkpt lat="44.88115" lon="5.86867">
        <ele>1259.871</ele>
        <time>2021-11-13T11:34:55Z</time>
      </trkpt>
      <trkpt lat="44.88116" lon="5.86864">
        <ele>1260.252</ele>
        <time>2021-11-13T11:34:57Z</time>
      </trkpt>
      <trkpt lat="44.88116" lon="5.86864">
        <ele>1260.493</ele>
        <time>2021-11-13T11:34:58Z</time>
      </trkpt>
      <trkpt lat="44.88116" lon="5.86864">
        <ele>1260.609</ele>
        <time>2021-11-13T11:35:23Z</time>
      </trkpt>
      <trkpt lat="44.88117" lon="5.86858">
        <ele>1260.359</ele>
        <time>2021-11-13T11:35:24Z</time>
      </trkpt>
      <trkpt lat="44.88117" lon="5.86858">
        <ele>1260.359</ele>
        <time>2021-11-13T11:35:24Z</time>
      </trkpt>
      <trkpt lat="44.88117" lon="5.86858">
        <ele>1260.898</ele>
        <time>2021-11-13T11:35:25Z</time>
      </trkpt>
      <trkpt lat="44.88117" lon="5.86858">
        <ele>1260.966</ele>
        <time>2021-11-13T11:37:58Z</time>
      </trkpt>
      <trkpt lat="44.88115" lon="5.86858">
        <ele>1261.352</ele>
        <time>2021-11-13T11:37:59Z</time>
      </trkpt>
      <trkpt lat="44.88117" lon="5.86858">
        <ele>1261.588</ele>
        <time>2021-11-13T11:38:01Z</time>
      </trkpt>
      <trkpt lat="44.88118" lon="5.86857">
        <ele>1259.885</ele>
        <time>2021-11-13T11:38:03Z</time>
      </trkpt>
      <trkpt lat="44.88122" lon="5.86855">
        <ele>1260.769</ele>
        <time>2021-11-13T11:38:06Z</time>
      </trkpt>
      <trkpt lat="44.88129" lon="5.86853">
        <ele>1261.745</ele>
        <time>2021-11-13T11:38:19Z</time>
      </trkpt>
      <trkpt lat="44.8813" lon="5.86853">
        <ele>1261.05</ele>
        <time>2021-11-13T11:38:21Z</time>
      </trkpt>
      <trkpt lat="44.88133" lon="5.86853">
        <ele>1260.985</ele>
        <time>2021-11-13T11:38:25Z</time>
      </trkpt>
      <trkpt lat="44.88135" lon="5.86853">
        <ele>1260.321</ele>
        <time>2021-11-13T11:38:29Z</time>
      </trkpt>
      <trkpt lat="44.88135" lon="5.86853">
        <ele>1260.321</ele>
        <time>2021-11-13T11:38:29Z</time>
      </trkpt>
      <trkpt lat="44.88135" lon="5.86853">
        <ele>1259.863</ele>
        <time>2021-11-13T11:38:30Z</time>
      </trkpt>
      <trkpt lat="44.88136" lon="5.86853">
        <ele>1260.209</ele>
        <time>2021-11-13T11:38:32Z</time>
      </trkpt>
      <trkpt lat="44.88139" lon="5.86851">
        <ele>1260.927</ele>
        <time>2021-11-13T11:38:36Z</time>
      </trkpt>
      <trkpt lat="44.88142" lon="5.86849">
        <ele>1259.639</ele>
        <time>2021-11-13T11:38:41Z</time>
      </trkpt>
      <trkpt lat="44.88146" lon="5.86849">
        <ele>1260.602</ele>
        <time>2021-11-13T11:38:45Z</time>
      </trkpt>
      <trkpt lat="44.88155" lon="5.86851">
        <ele>1261.909</ele>
        <time>2021-11-13T11:38:54Z</time>
      </trkpt>
      <trkpt lat="44.88158" lon="5.86851">
        <ele>1261.285</ele>
        <time>2021-11-13T11:38:57Z</time>
      </trkpt>
      <trkpt lat="44.88159" lon="5.86851">
        <ele>1260.633</ele>
        <time>2021-11-13T11:38:58Z</time>
      </trkpt>
      <trkpt lat="44.88162" lon="5.86852">
        <ele>1262.738</ele>
        <time>2021-11-13T11:39:02Z</time>
      </trkpt>
      <trkpt lat="44.88165" lon="5.86853">
        <ele>1263.454</ele>
        <time>2021-11-13T11:39:06Z</time>
      </trkpt>
      <trkpt lat="44.88166" lon="5.86853">
        <ele>1263.637</ele>
        <time>2021-11-13T11:39:07Z</time>
      </trkpt>
      <trkpt lat="44.88166" lon="5.86854">
        <ele>1264.079</ele>
        <time>2021-11-13T11:39:09Z</time>
      </trkpt>
      <trkpt lat="44.88166" lon="5.86854">
        <ele>1264.33</ele>
        <time>2021-11-13T11:39:10Z</time>
      </trkpt>
      <trkpt lat="44.88166" lon="5.86854">
        <ele>1264.33</ele>
        <time>2021-11-13T11:39:10Z</time>
      </trkpt>
      <trkpt lat="44.88166" lon="5.86853">
        <ele>1264.358</ele>
        <time>2021-11-13T11:39:11Z</time>
      </trkpt>
      <trkpt lat="44.88166" lon="5.86853">
        <ele>1264.358</ele>
        <time>2021-11-13T11:39:11Z</time>
      </trkpt>
      <trkpt lat="44.88166" lon="5.86854">
        <ele>1264.172</ele>
        <time>2021-11-13T11:39:12Z</time>
      </trkpt>
      <trkpt lat="44.88167" lon="5.86854">
        <ele>1264.647</ele>
        <time>2021-11-13T11:39:13Z</time>
      </trkpt>
      <trkpt lat="44.88172" lon="5.86861">
        <ele>1262.518</ele>
        <time>2021-11-13T11:39:21Z</time>
      </trkpt>
      <trkpt lat="44.88181" lon="5.86866">
        <ele>1262.906</ele>
        <time>2021-11-13T11:39:27Z</time>
      </trkpt>
      <trkpt lat="44.88184" lon="5.86866">
        <ele>1263.441</ele>
        <time>2021-11-13T11:39:30Z</time>
      </trkpt>
      <trkpt lat="44.88188" lon="5.86866">
        <ele>1263.392</ele>
        <time>2021-11-13T11:39:34Z</time>
      </trkpt>
      <trkpt lat="44.88189" lon="5.86865">
        <ele>1262.343</ele>
        <time>2021-11-13T11:39:36Z</time>
      </trkpt>
      <trkpt lat="44.88191" lon="5.86866">
        <ele>1263.011</ele>
        <time>2021-11-13T11:39:38Z</time>
      </trkpt>
      <trkpt lat="44.88192" lon="5.86867">
        <ele>1262.886</ele>
        <time>2021-11-13T11:39:39Z</time>
      </trkpt>
      <trkpt lat="44.88193" lon="5.86868">
        <ele>1262.651</ele>
        <time>2021-11-13T11:39:40Z</time>
      </trkpt>
      <trkpt lat="44.88196" lon="5.86874">
        <ele>1263.412</ele>
        <time>2021-11-13T11:39:47Z</time>
      </trkpt>
      <trkpt lat="44.88197" lon="5.86874">
        <ele>1263.793</ele>
        <time>2021-11-13T11:39:48Z</time>
      </trkpt>
      <trkpt lat="44.88198" lon="5.86877">
        <ele>1263.335</ele>
        <time>2021-11-13T11:39:56Z</time>
      </trkpt>
      <trkpt lat="44.882" lon="5.8688">
        <ele>1264.102</ele>
        <time>2021-11-13T11:39:59Z</time>
      </trkpt>
      <trkpt lat="44.88201" lon="5.86881">
        <ele>1265.331</ele>
        <time>2021-11-13T11:40:01Z</time>
      </trkpt>
      <trkpt lat="44.88205" lon="5.86885">
        <ele>1265.77</ele>
        <time>2021-11-13T11:40:07Z</time>
      </trkpt>
      <trkpt lat="44.88208" lon="5.86887">
        <ele>1267.233</ele>
        <time>2021-11-13T11:40:11Z</time>
      </trkpt>
      <trkpt lat="44.88209" lon="5.86888">
        <ele>1266.695</ele>
        <time>2021-11-13T11:40:12Z</time>
      </trkpt>
      <trkpt lat="44.88213" lon="5.8689">
        <ele>1267.226</ele>
        <time>2021-11-13T11:40:15Z</time>
      </trkpt>
      <trkpt lat="44.88217" lon="5.86893">
        <ele>1267.955</ele>
        <time>2021-11-13T11:40:19Z</time>
      </trkpt>
      <trkpt lat="44.8822" lon="5.86898">
        <ele>1268.447</ele>
        <time>2021-11-13T11:40:22Z</time>
      </trkpt>
      <trkpt lat="44.88223" lon="5.869">
        <ele>1269.662</ele>
        <time>2021-11-13T11:40:25Z</time>
      </trkpt>
      <trkpt lat="44.88224" lon="5.86906">
        <ele>1270.279</ele>
        <time>2021-11-13T11:40:27Z</time>
      </trkpt>
      <trkpt lat="44.88224" lon="5.8691">
        <ele>1270.709</ele>
        <time>2021-11-13T11:40:28Z</time>
      </trkpt>
      <trkpt lat="44.88222" lon="5.86918">
        <ele>1272.724</ele>
        <time>2021-11-13T11:40:32Z</time>
      </trkpt>
      <trkpt lat="44.88222" lon="5.86917">
        <ele>1273.028</ele>
        <time>2021-11-13T11:40:33Z</time>
      </trkpt>
      <trkpt lat="44.88221" lon="5.86917">
        <ele>1273.493</ele>
        <time>2021-11-13T11:40:34Z</time>
      </trkpt>
      <trkpt lat="44.8822" lon="5.86916">
        <ele>1272.85</ele>
        <time>2021-11-13T11:40:36Z</time>
      </trkpt>
      <trkpt lat="44.8822" lon="5.86916">
        <ele>1272.85</ele>
        <time>2021-11-13T11:40:36Z</time>
      </trkpt>
      <trkpt lat="44.88222" lon="5.86915">
        <ele>1272.853</ele>
        <time>2021-11-13T11:40:37Z</time>
      </trkpt>
      <trkpt lat="44.88227" lon="5.8692">
        <ele>1274.047</ele>
        <time>2021-11-13T11:40:39Z</time>
      </trkpt>
      <trkpt lat="44.88229" lon="5.86926">
        <ele>1274.487</ele>
        <time>2021-11-13T11:40:41Z</time>
      </trkpt>
      <trkpt lat="44.88231" lon="5.86936">
        <ele>1275.169</ele>
        <time>2021-11-13T11:40:44Z</time>
      </trkpt>
      <trkpt lat="44.88231" lon="5.8694">
        <ele>1275.448</ele>
        <time>2021-11-13T11:40:46Z</time>
      </trkpt>
      <trkpt lat="44.88235" lon="5.86941">
        <ele>1275.498</ele>
        <time>2021-11-13T11:40:48Z</time>
      </trkpt>
      <trkpt lat="44.88247" lon="5.86938">
        <ele>1277.549</ele>
        <time>2021-11-13T11:40:52Z</time>
      </trkpt>
      <trkpt lat="44.8825" lon="5.86937">
        <ele>1277.959</ele>
        <time>2021-11-13T11:40:53Z</time>
      </trkpt>
      <trkpt lat="44.88254" lon="5.86936">
        <ele>1277.809</ele>
        <time>2021-11-13T11:40:56Z</time>
      </trkpt>
      <trkpt lat="44.88257" lon="5.86939">
        <ele>1279.012</ele>
        <time>2021-11-13T11:41:00Z</time>
      </trkpt>
      <trkpt lat="44.8826" lon="5.86939">
        <ele>1279.144</ele>
        <time>2021-11-13T11:41:03Z</time>
      </trkpt>
      <trkpt lat="44.88263" lon="5.8694">
        <ele>1281.242</ele>
        <time>2021-11-13T11:41:07Z</time>
      </trkpt>
      <trkpt lat="44.88267" lon="5.86942">
        <ele>1281.204</ele>
        <time>2021-11-13T11:41:12Z</time>
      </trkpt>
      <trkpt lat="44.88269" lon="5.86946">
        <ele>1281.172</ele>
        <time>2021-11-13T11:41:16Z</time>
      </trkpt>
      <trkpt lat="44.8827" lon="5.86949">
        <ele>1281.719</ele>
        <time>2021-11-13T11:41:19Z</time>
      </trkpt>
      <trkpt lat="44.88272" lon="5.86951">
        <ele>1282.133</ele>
        <time>2021-11-13T11:41:21Z</time>
      </trkpt>
      <trkpt lat="44.88275" lon="5.86952">
        <ele>1281.8</ele>
        <time>2021-11-13T11:41:26Z</time>
      </trkpt>
      <trkpt lat="44.88276" lon="5.86958">
        <ele>1281.82</ele>
        <time>2021-11-13T11:41:29Z</time>
      </trkpt>
      <trkpt lat="44.88277" lon="5.86961">
        <ele>1281.916</ele>
        <time>2021-11-13T11:41:31Z</time>
      </trkpt>
      <trkpt lat="44.88278" lon="5.86962">
        <ele>1282.317</ele>
        <time>2021-11-13T11:41:32Z</time>
      </trkpt>
      <trkpt lat="44.88291" lon="5.86977">
        <ele>1282.187</ele>
        <time>2021-11-13T11:41:47Z</time>
      </trkpt>
      <trkpt lat="44.88299" lon="5.86986">
        <ele>1281.442</ele>
        <time>2021-11-13T11:41:59Z</time>
      </trkpt>
      <trkpt lat="44.88301" lon="5.86988">
        <ele>1282.254</ele>
        <time>2021-11-13T11:42:01Z</time>
      </trkpt>
      <trkpt lat="44.88304" lon="5.86992">
        <ele>1283.351</ele>
        <time>2021-11-13T11:42:04Z</time>
      </trkpt>
      <trkpt lat="44.88305" lon="5.86993">
        <ele>1282.994</ele>
        <time>2021-11-13T11:42:06Z</time>
      </trkpt>
      <trkpt lat="44.88307" lon="5.86997">
        <ele>1282.819</ele>
        <time>2021-11-13T11:42:10Z</time>
      </trkpt>
      <trkpt lat="44.88312" lon="5.87013">
        <ele>1282.46</ele>
        <time>2021-11-13T11:42:22Z</time>
      </trkpt>
      <trkpt lat="44.88311" lon="5.87015">
        <ele>1283.111</ele>
        <time>2021-11-13T11:42:24Z</time>
      </trkpt>
      <trkpt lat="44.88311" lon="5.87015">
        <ele>1283.111</ele>
        <time>2021-11-13T11:42:24Z</time>
      </trkpt>
      <trkpt lat="44.8831" lon="5.87016">
        <ele>1283.094</ele>
        <time>2021-11-13T11:42:25Z</time>
      </trkpt>
      <trkpt lat="44.8831" lon="5.87017">
        <ele>1283.399</ele>
        <time>2021-11-13T11:42:26Z</time>
      </trkpt>
      <trkpt lat="44.88308" lon="5.87021">
        <ele>1283.275</ele>
        <time>2021-11-13T11:42:29Z</time>
      </trkpt>
      <trkpt lat="44.88304" lon="5.87025">
        <ele>1283.492</ele>
        <time>2021-11-13T11:42:34Z</time>
      </trkpt>
      <trkpt lat="44.88302" lon="5.87026">
        <ele>1282.886</ele>
        <time>2021-11-13T11:42:36Z</time>
      </trkpt>
      <trkpt lat="44.88302" lon="5.87026">
        <ele>1283.08</ele>
        <time>2021-11-13T11:42:38Z</time>
      </trkpt>
      <trkpt lat="44.88302" lon="5.87026">
        <ele>1283.08</ele>
        <time>2021-11-13T11:42:38Z</time>
      </trkpt>
      <trkpt lat="44.88301" lon="5.87025">
        <ele>1282.26</ele>
        <time>2021-11-13T11:42:39Z</time>
      </trkpt>
      <trkpt lat="44.883" lon="5.87025">
        <ele>1282.557</ele>
        <time>2021-11-13T11:42:41Z</time>
      </trkpt>
      <trkpt lat="44.88299" lon="5.87025">
        <ele>1282.743</ele>
        <time>2021-11-13T11:42:43Z</time>
      </trkpt>
      <trkpt lat="44.88298" lon="5.87025">
        <ele>1283.372</ele>
        <time>2021-11-13T11:42:45Z</time>
      </trkpt>
      <trkpt lat="44.88298" lon="5.87025">
        <ele>1283.062</ele>
        <time>2021-11-13T11:42:46Z</time>
      </trkpt>
      <trkpt lat="44.88298" lon="5.87025">
        <ele>1282.924</ele>
        <time>2021-11-13T11:42:47Z</time>
      </trkpt>
      <trkpt lat="44.88298" lon="5.87025">
        <ele>1282.647</ele>
        <time>2021-11-13T11:42:49Z</time>
      </trkpt>
      <trkpt lat="44.88298" lon="5.87026">
        <ele>1282.964</ele>
        <time>2021-11-13T11:42:50Z</time>
      </trkpt>
      <trkpt lat="44.88298" lon="5.87026">
        <ele>1282.651</ele>
        <time>2021-11-13T11:42:52Z</time>
      </trkpt>
      <trkpt lat="44.88298" lon="5.87027">
        <ele>1284.104</ele>
        <time>2021-11-13T11:42:54Z</time>
      </trkpt>
      <trkpt lat="44.88298" lon="5.87027">
        <ele>1284.104</ele>
        <time>2021-11-13T11:42:54Z</time>
      </trkpt>
      <trkpt lat="44.88298" lon="5.87027">
        <ele>1284.3</ele>
        <time>2021-11-13T11:42:55Z</time>
      </trkpt>
      <trkpt lat="44.88299" lon="5.87028">
        <ele>1284.65</ele>
        <time>2021-11-13T11:42:57Z</time>
      </trkpt>
      <trkpt lat="44.88299" lon="5.87028">
        <ele>1284.338</ele>
        <time>2021-11-13T11:42:59Z</time>
      </trkpt>
      <trkpt lat="44.88299" lon="5.87028">
        <ele>1284.338</ele>
        <time>2021-11-13T11:42:59Z</time>
      </trkpt>
      <trkpt lat="44.88299" lon="5.87028">
        <ele>1284.467</ele>
        <time>2021-11-13T11:43:00Z</time>
      </trkpt>
      <trkpt lat="44.88299" lon="5.87028">
        <ele>1284.616</ele>
        <time>2021-11-13T11:43:01Z</time>
      </trkpt>
      <trkpt lat="44.88299" lon="5.87028">
        <ele>1284.309</ele>
        <time>2021-11-13T11:43:02Z</time>
      </trkpt>
      <trkpt lat="44.88299" lon="5.87028">
        <ele>1284.309</ele>
        <time>2021-11-13T11:43:02Z</time>
      </trkpt>
      <trkpt lat="44.88299" lon="5.87027">
        <ele>1284.536</ele>
        <time>2021-11-13T11:43:03Z</time>
      </trkpt>
      <trkpt lat="44.88299" lon="5.87026">
        <ele>1284.424</ele>
        <time>2021-11-13T11:43:05Z</time>
      </trkpt>
      <trkpt lat="44.883" lon="5.87026">
        <ele>1284.91</ele>
        <time>2021-11-13T11:43:06Z</time>
      </trkpt>
      <trkpt lat="44.883" lon="5.87025">
        <ele>1286.521</ele>
        <time>2021-11-13T11:43:09Z</time>
      </trkpt>
      <trkpt lat="44.88301" lon="5.87024">
        <ele>1286.324</ele>
        <time>2021-11-13T11:43:13Z</time>
      </trkpt>
      <trkpt lat="44.88301" lon="5.87024">
        <ele>1286.324</ele>
        <time>2021-11-13T11:43:13Z</time>
      </trkpt>
      <trkpt lat="44.88301" lon="5.87025">
        <ele>1286.698</ele>
        <time>2021-11-13T11:43:14Z</time>
      </trkpt>
      <trkpt lat="44.88298" lon="5.87029">
        <ele>1286.498</ele>
        <time>2021-11-13T11:43:16Z</time>
      </trkpt>
      <trkpt lat="44.88298" lon="5.87029">
        <ele>1286.986</ele>
        <time>2021-11-13T11:43:17Z</time>
      </trkpt>
      <trkpt lat="44.88298" lon="5.87029">
        <ele>1287.345</ele>
        <time>2021-11-13T11:43:19Z</time>
      </trkpt>
      <trkpt lat="44.88295" lon="5.87029">
        <ele>1287.778</ele>
        <time>2021-11-13T11:43:20Z</time>
      </trkpt>
      <trkpt lat="44.88295" lon="5.8703">
        <ele>1287.895</ele>
        <time>2021-11-13T11:43:21Z</time>
      </trkpt>
      <trkpt lat="44.88293" lon="5.8703">
        <ele>1288.226</ele>
        <time>2021-11-13T11:43:24Z</time>
      </trkpt>
      <trkpt lat="44.88293" lon="5.8703">
        <ele>1288.226</ele>
        <time>2021-11-13T11:43:24Z</time>
      </trkpt>
      <trkpt lat="44.88293" lon="5.87031">
        <ele>1288.13</ele>
        <time>2021-11-13T11:43:25Z</time>
      </trkpt>
      <trkpt lat="44.88294" lon="5.87031">
        <ele>1286.665</ele>
        <time>2021-11-13T11:43:26Z</time>
      </trkpt>
      <trkpt lat="44.88296" lon="5.87029">
        <ele>1287.087</ele>
        <time>2021-11-13T11:43:31Z</time>
      </trkpt>
      <trkpt lat="44.88293" lon="5.87025">
        <ele>1285.144</ele>
        <time>2021-11-13T11:43:36Z</time>
      </trkpt>
      <trkpt lat="44.88289" lon="5.87021">
        <ele>1283.347</ele>
        <time>2021-11-13T11:43:41Z</time>
      </trkpt>
      <trkpt lat="44.88287" lon="5.87019">
        <ele>1282.923</ele>
        <time>2021-11-13T11:43:44Z</time>
      </trkpt>
      <trkpt lat="44.88285" lon="5.87019">
        <ele>1282.797</ele>
        <time>2021-11-13T11:43:46Z</time>
      </trkpt>
      <trkpt lat="44.88284" lon="5.87018">
        <ele>1282.518</ele>
        <time>2021-11-13T11:43:47Z</time>
      </trkpt>
      <trkpt lat="44.88284" lon="5.87018">
        <ele>1283.51</ele>
        <time>2021-11-13T11:43:48Z</time>
      </trkpt>
      <trkpt lat="44.88283" lon="5.87018">
        <ele>1283.863</ele>
        <time>2021-11-13T11:43:49Z</time>
      </trkpt>
      <trkpt lat="44.88277" lon="5.87012">
        <ele>1286.058</ele>
        <time>2021-11-13T11:43:56Z</time>
      </trkpt>
      <trkpt lat="44.88274" lon="5.87009">
        <ele>1286.296</ele>
        <time>2021-11-13T11:44:00Z</time>
      </trkpt>
      <trkpt lat="44.88265" lon="5.87006">
        <ele>1287.433</ele>
        <time>2021-11-13T11:44:10Z</time>
      </trkpt>
      <trkpt lat="44.88261" lon="5.87003">
        <ele>1286.529</ele>
        <time>2021-11-13T11:44:16Z</time>
      </trkpt>
      <trkpt lat="44.88255" lon="5.86999">
        <ele>1285.393</ele>
        <time>2021-11-13T11:44:23Z</time>
      </trkpt>
      <trkpt lat="44.88253" lon="5.86997">
        <ele>1286.027</ele>
        <time>2021-11-13T11:44:26Z</time>
      </trkpt>
      <trkpt lat="44.88251" lon="5.86994">
        <ele>1284.642</ele>
        <time>2021-11-13T11:44:30Z</time>
      </trkpt>
      <trkpt lat="44.88251" lon="5.86993">
        <ele>1284.544</ele>
        <time>2021-11-13T11:44:31Z</time>
      </trkpt>
      <trkpt lat="44.88251" lon="5.86992">
        <ele>1285.34</ele>
        <time>2021-11-13T11:44:33Z</time>
      </trkpt>
      <trkpt lat="44.88248" lon="5.86991">
        <ele>1286.976</ele>
        <time>2021-11-13T11:44:42Z</time>
      </trkpt>
      <trkpt lat="44.88247" lon="5.86991">
        <ele>1286.469</ele>
        <time>2021-11-13T11:44:44Z</time>
      </trkpt>
      <trkpt lat="44.88244" lon="5.86991">
        <ele>1287.155</ele>
        <time>2021-11-13T11:44:50Z</time>
      </trkpt>
      <trkpt lat="44.88241" lon="5.86991">
        <ele>1287.871</ele>
        <time>2021-11-13T11:44:54Z</time>
      </trkpt>
      <trkpt lat="44.88239" lon="5.86991">
        <ele>1287.783</ele>
        <time>2021-11-13T11:44:56Z</time>
      </trkpt>
      <trkpt lat="44.88236" lon="5.86989">
        <ele>1288.411</ele>
        <time>2021-11-13T11:45:00Z</time>
      </trkpt>
      <trkpt lat="44.88235" lon="5.86985">
        <ele>1287.871</ele>
        <time>2021-11-13T11:45:03Z</time>
      </trkpt>
      <trkpt lat="44.88232" lon="5.86984">
        <ele>1288.262</ele>
        <time>2021-11-13T11:45:07Z</time>
      </trkpt>
      <trkpt lat="44.88228" lon="5.86984">
        <ele>1289.258</ele>
        <time>2021-11-13T11:45:11Z</time>
      </trkpt>
      <trkpt lat="44.88223" lon="5.86986">
        <ele>1289.315</ele>
        <time>2021-11-13T11:45:15Z</time>
      </trkpt>
      <trkpt lat="44.88222" lon="5.86987">
        <ele>1288.141</ele>
        <time>2021-11-13T11:45:17Z</time>
      </trkpt>
      <trkpt lat="44.88221" lon="5.86988">
        <ele>1287.447</ele>
        <time>2021-11-13T11:45:18Z</time>
      </trkpt>
      <trkpt lat="44.8822" lon="5.86988">
        <ele>1287.613</ele>
        <time>2021-11-13T11:45:19Z</time>
      </trkpt>
      <trkpt lat="44.88218" lon="5.86988">
        <ele>1287.668</ele>
        <time>2021-11-13T11:45:21Z</time>
      </trkpt>
      <trkpt lat="44.88216" lon="5.86989">
        <ele>1288.579</ele>
        <time>2021-11-13T11:45:24Z</time>
      </trkpt>
      <trkpt lat="44.88214" lon="5.86991">
        <ele>1288.601</ele>
        <time>2021-11-13T11:45:27Z</time>
      </trkpt>
      <trkpt lat="44.88214" lon="5.86991">
        <ele>1288.439</ele>
        <time>2021-11-13T11:45:28Z</time>
      </trkpt>
      <trkpt lat="44.88214" lon="5.86991">
        <ele>1288.439</ele>
        <time>2021-11-13T11:45:28Z</time>
      </trkpt>
      <trkpt lat="44.88214" lon="5.86992">
        <ele>1288.798</ele>
        <time>2021-11-13T11:45:29Z</time>
      </trkpt>
      <trkpt lat="44.88214" lon="5.86992">
        <ele>1288.225</ele>
        <time>2021-11-13T11:45:30Z</time>
      </trkpt>
      <trkpt lat="44.88214" lon="5.86992">
        <ele>1288.225</ele>
        <time>2021-11-13T11:45:30Z</time>
      </trkpt>
      <trkpt lat="44.88214" lon="5.86992">
        <ele>1288.666</ele>
        <time>2021-11-13T11:45:31Z</time>
      </trkpt>
      <trkpt lat="44.88213" lon="5.86993">
        <ele>1288.546</ele>
        <time>2021-11-13T11:45:34Z</time>
      </trkpt>
      <trkpt lat="44.88213" lon="5.86993">
        <ele>1288.882</ele>
        <time>2021-11-13T11:45:35Z</time>
      </trkpt>
      <trkpt lat="44.88212" lon="5.86993">
        <ele>1289.244</ele>
        <time>2021-11-13T11:45:36Z</time>
      </trkpt>
      <trkpt lat="44.88211" lon="5.86993">
        <ele>1289.846</ele>
        <time>2021-11-13T11:45:38Z</time>
      </trkpt>
      <trkpt lat="44.8821" lon="5.86995">
        <ele>1288.759</ele>
        <time>2021-11-13T11:45:40Z</time>
      </trkpt>
      <trkpt lat="44.88208" lon="5.86998">
        <ele>1289.822</ele>
        <time>2021-11-13T11:45:44Z</time>
      </trkpt>
      <trkpt lat="44.88203" lon="5.87003">
        <ele>1292.118</ele>
        <time>2021-11-13T11:45:49Z</time>
      </trkpt>
      <trkpt lat="44.88203" lon="5.87003">
        <ele>1292.724</ele>
        <time>2021-11-13T11:45:50Z</time>
      </trkpt>
      <trkpt lat="44.88202" lon="5.87004">
        <ele>1293.13</ele>
        <time>2021-11-13T11:45:51Z</time>
      </trkpt>
      <trkpt lat="44.88201" lon="5.87004">
        <ele>1292.514</ele>
        <time>2021-11-13T11:45:52Z</time>
      </trkpt>
      <trkpt lat="44.88198" lon="5.87005">
        <ele>1293.604</ele>
        <time>2021-11-13T11:45:55Z</time>
      </trkpt>
      <trkpt lat="44.88197" lon="5.87006">
        <ele>1293.801</ele>
        <time>2021-11-13T11:45:58Z</time>
      </trkpt>
      <trkpt lat="44.88197" lon="5.87007">
        <ele>1293.796</ele>
        <time>2021-11-13T11:46:00Z</time>
      </trkpt>
      <trkpt lat="44.88196" lon="5.87008">
        <ele>1292.984</ele>
        <time>2021-11-13T11:46:02Z</time>
      </trkpt>
      <trkpt lat="44.88194" lon="5.87007">
        <ele>1292.968</ele>
        <time>2021-11-13T11:46:05Z</time>
      </trkpt>
      <trkpt lat="44.88191" lon="5.87008">
        <ele>1294.047</ele>
        <time>2021-11-13T11:46:11Z</time>
      </trkpt>
      <trkpt lat="44.88188" lon="5.87008">
        <ele>1295.422</ele>
        <time>2021-11-13T11:46:14Z</time>
      </trkpt>
      <trkpt lat="44.88183" lon="5.87011">
        <ele>1294.2</ele>
        <time>2021-11-13T11:46:19Z</time>
      </trkpt>
      <trkpt lat="44.88182" lon="5.87012">
        <ele>1294.26</ele>
        <time>2021-11-13T11:46:21Z</time>
      </trkpt>
      <trkpt lat="44.8818" lon="5.87014">
        <ele>1295.957</ele>
        <time>2021-11-13T11:46:24Z</time>
      </trkpt>
      <trkpt lat="44.8818" lon="5.87015">
        <ele>1296.756</ele>
        <time>2021-11-13T11:46:25Z</time>
      </trkpt>
      <trkpt lat="44.88179" lon="5.87015">
        <ele>1297.714</ele>
        <time>2021-11-13T11:46:26Z</time>
      </trkpt>
      <trkpt lat="44.88177" lon="5.87018">
        <ele>1298.8</ele>
        <time>2021-11-13T11:46:30Z</time>
      </trkpt>
      <trkpt lat="44.88177" lon="5.87019">
        <ele>1298.122</ele>
        <time>2021-11-13T11:46:31Z</time>
      </trkpt>
      <trkpt lat="44.88174" lon="5.87022">
        <ele>1300.607</ele>
        <time>2021-11-13T11:46:36Z</time>
      </trkpt>
      <trkpt lat="44.88172" lon="5.87026">
        <ele>1301.187</ele>
        <time>2021-11-13T11:46:41Z</time>
      </trkpt>
      <trkpt lat="44.88169" lon="5.87031">
        <ele>1301.913</ele>
        <time>2021-11-13T11:46:45Z</time>
      </trkpt>
      <trkpt lat="44.88168" lon="5.87031">
        <ele>1301.842</ele>
        <time>2021-11-13T11:46:46Z</time>
      </trkpt>
      <trkpt lat="44.88162" lon="5.8704">
        <ele>1304.228</ele>
        <time>2021-11-13T11:46:55Z</time>
      </trkpt>
      <trkpt lat="44.88162" lon="5.87044">
        <ele>1305.538</ele>
        <time>2021-11-13T11:46:59Z</time>
      </trkpt>
      <trkpt lat="44.88162" lon="5.87044">
        <ele>1305.538</ele>
        <time>2021-11-13T11:46:59Z</time>
      </trkpt>
      <trkpt lat="44.88162" lon="5.87045">
        <ele>1305.446</ele>
        <time>2021-11-13T11:47:00Z</time>
      </trkpt>
      <trkpt lat="44.88163" lon="5.87046">
        <ele>1305.565</ele>
        <time>2021-11-13T11:47:01Z</time>
      </trkpt>
      <trkpt lat="44.88163" lon="5.87048">
        <ele>1306.851</ele>
        <time>2021-11-13T11:47:04Z</time>
      </trkpt>
      <trkpt lat="44.88163" lon="5.87048">
        <ele>1306.983</ele>
        <time>2021-11-13T11:47:05Z</time>
      </trkpt>
      <trkpt lat="44.88163" lon="5.87048">
        <ele>1306.983</ele>
        <time>2021-11-13T11:47:05Z</time>
      </trkpt>
      <trkpt lat="44.88164" lon="5.87049">
        <ele>1307.681</ele>
        <time>2021-11-13T11:47:06Z</time>
      </trkpt>
      <trkpt lat="44.88164" lon="5.8705">
        <ele>1308.679</ele>
        <time>2021-11-13T11:47:09Z</time>
      </trkpt>
      <trkpt lat="44.88164" lon="5.8705">
        <ele>1308.679</ele>
        <time>2021-11-13T11:47:09Z</time>
      </trkpt>
      <trkpt lat="44.88165" lon="5.8705">
        <ele>1309.272</ele>
        <time>2021-11-13T11:47:10Z</time>
      </trkpt>
      <trkpt lat="44.88165" lon="5.8705">
        <ele>1309.092</ele>
        <time>2021-11-13T11:47:11Z</time>
      </trkpt>
      <trkpt lat="44.88166" lon="5.8705">
        <ele>1308.845</ele>
        <time>2021-11-13T11:47:12Z</time>
      </trkpt>
      <trkpt lat="44.88166" lon="5.87051">
        <ele>1309.19</ele>
        <time>2021-11-13T11:47:13Z</time>
      </trkpt>
      <trkpt lat="44.88167" lon="5.87051">
        <ele>1309.298</ele>
        <time>2021-11-13T11:47:14Z</time>
      </trkpt>
      <trkpt lat="44.8817" lon="5.87052">
        <ele>1308.362</ele>
        <time>2021-11-13T11:47:20Z</time>
      </trkpt>
      <trkpt lat="44.88173" lon="5.87053">
        <ele>1310.186</ele>
        <time>2021-11-13T11:47:25Z</time>
      </trkpt>
      <trkpt lat="44.88175" lon="5.87054">
        <ele>1310.655</ele>
        <time>2021-11-13T11:47:28Z</time>
      </trkpt>
      <trkpt lat="44.88179" lon="5.87055">
        <ele>1311.063</ele>
        <time>2021-11-13T11:47:32Z</time>
      </trkpt>
      <trkpt lat="44.88179" lon="5.87055">
        <ele>1311.063</ele>
        <time>2021-11-13T11:47:32Z</time>
      </trkpt>
      <trkpt lat="44.8818" lon="5.87055">
        <ele>1311.289</ele>
        <time>2021-11-13T11:47:33Z</time>
      </trkpt>
      <trkpt lat="44.88181" lon="5.87055">
        <ele>1311.093</ele>
        <time>2021-11-13T11:47:34Z</time>
      </trkpt>
      <trkpt lat="44.88182" lon="5.87056">
        <ele>1311.214</ele>
        <time>2021-11-13T11:47:35Z</time>
      </trkpt>
      <trkpt lat="44.88186" lon="5.87058">
        <ele>1311.722</ele>
        <time>2021-11-13T11:47:39Z</time>
      </trkpt>
      <trkpt lat="44.88189" lon="5.8706">
        <ele>1310.881</ele>
        <time>2021-11-13T11:47:43Z</time>
      </trkpt>
      <trkpt lat="44.8819" lon="5.87061">
        <ele>1310.978</ele>
        <time>2021-11-13T11:47:45Z</time>
      </trkpt>
      <trkpt lat="44.88193" lon="5.87062">
        <ele>1311.107</ele>
        <time>2021-11-13T11:47:50Z</time>
      </trkpt>
      <trkpt lat="44.88193" lon="5.87063">
        <ele>1311.251</ele>
        <time>2021-11-13T11:47:51Z</time>
      </trkpt>
      <trkpt lat="44.88197" lon="5.87064">
        <ele>1311.539</ele>
        <time>2021-11-13T11:47:55Z</time>
      </trkpt>
      <trkpt lat="44.88197" lon="5.87064">
        <ele>1311.458</ele>
        <time>2021-11-13T11:47:56Z</time>
      </trkpt>
      <trkpt lat="44.88198" lon="5.87064">
        <ele>1311.571</ele>
        <time>2021-11-13T11:47:57Z</time>
      </trkpt>
      <trkpt lat="44.88198" lon="5.87064">
        <ele>1311.458</ele>
        <time>2021-11-13T11:47:58Z</time>
      </trkpt>
      <trkpt lat="44.88198" lon="5.87064">
        <ele>1311.458</ele>
        <time>2021-11-13T11:47:58Z</time>
      </trkpt>
      <trkpt lat="44.88199" lon="5.87065">
        <ele>1311.046</ele>
        <time>2021-11-13T11:47:59Z</time>
      </trkpt>
      <trkpt lat="44.88203" lon="5.87067">
        <ele>1311.563</ele>
        <time>2021-11-13T11:48:03Z</time>
      </trkpt>
      <trkpt lat="44.88204" lon="5.8707">
        <ele>1311.944</ele>
        <time>2021-11-13T11:48:07Z</time>
      </trkpt>
      <trkpt lat="44.88204" lon="5.87071">
        <ele>1312.172</ele>
        <time>2021-11-13T11:48:09Z</time>
      </trkpt>
      <trkpt lat="44.88205" lon="5.87073">
        <ele>1313.248</ele>
        <time>2021-11-13T11:48:12Z</time>
      </trkpt>
      <trkpt lat="44.88206" lon="5.87073">
        <ele>1314.493</ele>
        <time>2021-11-13T11:48:14Z</time>
      </trkpt>
      <trkpt lat="44.88206" lon="5.87073">
        <ele>1314.493</ele>
        <time>2021-11-13T11:48:14Z</time>
      </trkpt>
      <trkpt lat="44.88207" lon="5.87073">
        <ele>1314.596</ele>
        <time>2021-11-13T11:48:15Z</time>
      </trkpt>
      <trkpt lat="44.88208" lon="5.87075">
        <ele>1314.825</ele>
        <time>2021-11-13T11:48:18Z</time>
      </trkpt>
      <trkpt lat="44.88208" lon="5.87075">
        <ele>1314.825</ele>
        <time>2021-11-13T11:48:18Z</time>
      </trkpt>
      <trkpt lat="44.88208" lon="5.87075">
        <ele>1315.141</ele>
        <time>2021-11-13T11:48:19Z</time>
      </trkpt>
      <trkpt lat="44.88209" lon="5.87076">
        <ele>1315.005</ele>
        <time>2021-11-13T11:48:20Z</time>
      </trkpt>
      <trkpt lat="44.88211" lon="5.87079">
        <ele>1315.668</ele>
        <time>2021-11-13T11:48:24Z</time>
      </trkpt>
      <trkpt lat="44.88211" lon="5.8708">
        <ele>1315.927</ele>
        <time>2021-11-13T11:48:25Z</time>
      </trkpt>
      <trkpt lat="44.88213" lon="5.87083">
        <ele>1316.769</ele>
        <time>2021-11-13T11:48:29Z</time>
      </trkpt>
      <trkpt lat="44.88214" lon="5.87084">
        <ele>1317.134</ele>
        <time>2021-11-13T11:48:30Z</time>
      </trkpt>
      <trkpt lat="44.88216" lon="5.87086">
        <ele>1317.636</ele>
        <time>2021-11-13T11:48:33Z</time>
      </trkpt>
      <trkpt lat="44.88219" lon="5.87088">
        <ele>1318.75</ele>
        <time>2021-11-13T11:48:37Z</time>
      </trkpt>
      <trkpt lat="44.88222" lon="5.87092">
        <ele>1320.541</ele>
        <time>2021-11-13T11:48:42Z</time>
      </trkpt>
      <trkpt lat="44.88222" lon="5.87094">
        <ele>1321.515</ele>
        <time>2021-11-13T11:48:44Z</time>
      </trkpt>
      <trkpt lat="44.88222" lon="5.87097">
        <ele>1321.658</ele>
        <time>2021-11-13T11:48:47Z</time>
      </trkpt>
      <trkpt lat="44.88221" lon="5.87099">
        <ele>1321.577</ele>
        <time>2021-11-13T11:48:49Z</time>
      </trkpt>
      <trkpt lat="44.88219" lon="5.87103">
        <ele>1322.452</ele>
        <time>2021-11-13T11:48:53Z</time>
      </trkpt>
      <trkpt lat="44.88217" lon="5.87107">
        <ele>1322.615</ele>
        <time>2021-11-13T11:48:56Z</time>
      </trkpt>
      <trkpt lat="44.88215" lon="5.87109">
        <ele>1322.367</ele>
        <time>2021-11-13T11:48:59Z</time>
      </trkpt>
      <trkpt lat="44.88215" lon="5.8711">
        <ele>1322.102</ele>
        <time>2021-11-13T11:49:00Z</time>
      </trkpt>
      <trkpt lat="44.88215" lon="5.87114">
        <ele>1323.09</ele>
        <time>2021-11-13T11:49:03Z</time>
      </trkpt>
      <trkpt lat="44.88213" lon="5.87117">
        <ele>1322.975</ele>
        <time>2021-11-13T11:49:07Z</time>
      </trkpt>
      <trkpt lat="44.88212" lon="5.87119">
        <ele>1323.844</ele>
        <time>2021-11-13T11:49:09Z</time>
      </trkpt>
      <trkpt lat="44.88212" lon="5.8712">
        <ele>1323.804</ele>
        <time>2021-11-13T11:49:10Z</time>
      </trkpt>
      <trkpt lat="44.8821" lon="5.87123">
        <ele>1324.515</ele>
        <time>2021-11-13T11:49:14Z</time>
      </trkpt>
      <trkpt lat="44.88208" lon="5.87126">
        <ele>1324.567</ele>
        <time>2021-11-13T11:49:18Z</time>
      </trkpt>
      <trkpt lat="44.88206" lon="5.87127">
        <ele>1324.602</ele>
        <time>2021-11-13T11:49:19Z</time>
      </trkpt>
      <trkpt lat="44.88204" lon="5.87129">
        <ele>1326.25</ele>
        <time>2021-11-13T11:49:23Z</time>
      </trkpt>
      <trkpt lat="44.88202" lon="5.87133">
        <ele>1326.832</ele>
        <time>2021-11-13T11:49:27Z</time>
      </trkpt>
      <trkpt lat="44.88202" lon="5.87134">
        <ele>1327.035</ele>
        <time>2021-11-13T11:49:28Z</time>
      </trkpt>
      <trkpt lat="44.88202" lon="5.87135">
        <ele>1327.009</ele>
        <time>2021-11-13T11:49:29Z</time>
      </trkpt>
      <trkpt lat="44.88202" lon="5.87135">
        <ele>1328.043</ele>
        <time>2021-11-13T11:49:30Z</time>
      </trkpt>
      <trkpt lat="44.882" lon="5.8714">
        <ele>1328.246</ele>
        <time>2021-11-13T11:49:34Z</time>
      </trkpt>
      <trkpt lat="44.88199" lon="5.87143">
        <ele>1329.086</ele>
        <time>2021-11-13T11:49:38Z</time>
      </trkpt>
      <trkpt lat="44.88199" lon="5.87145">
        <ele>1328.749</ele>
        <time>2021-11-13T11:49:39Z</time>
      </trkpt>
      <trkpt lat="44.88197" lon="5.87149">
        <ele>1328.649</ele>
        <time>2021-11-13T11:49:45Z</time>
      </trkpt>
      <trkpt lat="44.88196" lon="5.8715">
        <ele>1329.026</ele>
        <time>2021-11-13T11:49:47Z</time>
      </trkpt>
      <trkpt lat="44.88195" lon="5.87154">
        <ele>1329.974</ele>
        <time>2021-11-13T11:49:50Z</time>
      </trkpt>
      <trkpt lat="44.88192" lon="5.87158">
        <ele>1330.836</ele>
        <time>2021-11-13T11:49:54Z</time>
      </trkpt>
      <trkpt lat="44.8819" lon="5.87161">
        <ele>1329.795</ele>
        <time>2021-11-13T11:49:57Z</time>
      </trkpt>
      <trkpt lat="44.88189" lon="5.87163">
        <ele>1330.81</ele>
        <time>2021-11-13T11:49:59Z</time>
      </trkpt>
      <trkpt lat="44.88189" lon="5.87164">
        <ele>1331.515</ele>
        <time>2021-11-13T11:50:00Z</time>
      </trkpt>
      <trkpt lat="44.88187" lon="5.87168">
        <ele>1331.518</ele>
        <time>2021-11-13T11:50:04Z</time>
      </trkpt>
      <trkpt lat="44.88185" lon="5.87171">
        <ele>1331.922</ele>
        <time>2021-11-13T11:50:07Z</time>
      </trkpt>
      <trkpt lat="44.88184" lon="5.87174">
        <ele>1331.847</ele>
        <time>2021-11-13T11:50:09Z</time>
      </trkpt>
      <trkpt lat="44.8818" lon="5.87181">
        <ele>1333.6</ele>
        <time>2021-11-13T11:50:14Z</time>
      </trkpt>
      <trkpt lat="44.8818" lon="5.87182">
        <ele>1334.167</ele>
        <time>2021-11-13T11:50:15Z</time>
      </trkpt>
      <trkpt lat="44.88175" lon="5.87187">
        <ele>1334.813</ele>
        <time>2021-11-13T11:50:19Z</time>
      </trkpt>
      <trkpt lat="44.88175" lon="5.87188">
        <ele>1335.113</ele>
        <time>2021-11-13T11:50:20Z</time>
      </trkpt>
      <trkpt lat="44.88176" lon="5.87192">
        <ele>1335.53</ele>
        <time>2021-11-13T11:50:23Z</time>
      </trkpt>
      <trkpt lat="44.88175" lon="5.87198">
        <ele>1335.219</ele>
        <time>2021-11-13T11:50:27Z</time>
      </trkpt>
      <trkpt lat="44.88173" lon="5.87203">
        <ele>1335.405</ele>
        <time>2021-11-13T11:50:31Z</time>
      </trkpt>
      <trkpt lat="44.88172" lon="5.87204">
        <ele>1335.354</ele>
        <time>2021-11-13T11:50:33Z</time>
      </trkpt>
      <trkpt lat="44.88173" lon="5.87208">
        <ele>1334.499</ele>
        <time>2021-11-13T11:50:37Z</time>
      </trkpt>
      <trkpt lat="44.88175" lon="5.87215">
        <ele>1335.481</ele>
        <time>2021-11-13T11:50:42Z</time>
      </trkpt>
      <trkpt lat="44.88173" lon="5.87219">
        <ele>1335.949</ele>
        <time>2021-11-13T11:50:45Z</time>
      </trkpt>
      <trkpt lat="44.88171" lon="5.87222">
        <ele>1335.535</ele>
        <time>2021-11-13T11:50:49Z</time>
      </trkpt>
      <trkpt lat="44.88171" lon="5.87223">
        <ele>1335.197</ele>
        <time>2021-11-13T11:50:50Z</time>
      </trkpt>
      <trkpt lat="44.88168" lon="5.87233">
        <ele>1335.46</ele>
        <time>2021-11-13T11:50:59Z</time>
      </trkpt>
      <trkpt lat="44.88167" lon="5.87236">
        <ele>1335.342</ele>
        <time>2021-11-13T11:51:01Z</time>
      </trkpt>
      <trkpt lat="44.88165" lon="5.87241">
        <ele>1337.46</ele>
        <time>2021-11-13T11:51:09Z</time>
      </trkpt>
      <trkpt lat="44.88164" lon="5.87241">
        <ele>1337.548</ele>
        <time>2021-11-13T11:51:10Z</time>
      </trkpt>
      <trkpt lat="44.88164" lon="5.87244">
        <ele>1338.612</ele>
        <time>2021-11-13T11:51:14Z</time>
      </trkpt>
      <trkpt lat="44.88164" lon="5.87245">
        <ele>1338.797</ele>
        <time>2021-11-13T11:51:15Z</time>
      </trkpt>
      <trkpt lat="44.88164" lon="5.87246">
        <ele>1339.046</ele>
        <time>2021-11-13T11:51:16Z</time>
      </trkpt>
      <trkpt lat="44.88164" lon="5.8725">
        <ele>1339.67</ele>
        <time>2021-11-13T11:51:19Z</time>
      </trkpt>
      <trkpt lat="44.88163" lon="5.87256">
        <ele>1340.895</ele>
        <time>2021-11-13T11:51:24Z</time>
      </trkpt>
      <trkpt lat="44.88161" lon="5.87259">
        <ele>1339.955</ele>
        <time>2021-11-13T11:51:29Z</time>
      </trkpt>
      <trkpt lat="44.88161" lon="5.8726">
        <ele>1339.868</ele>
        <time>2021-11-13T11:51:31Z</time>
      </trkpt>
      <trkpt lat="44.88162" lon="5.87263">
        <ele>1339.16</ele>
        <time>2021-11-13T11:51:33Z</time>
      </trkpt>
      <trkpt lat="44.88162" lon="5.87264">
        <ele>1339.4</ele>
        <time>2021-11-13T11:51:34Z</time>
      </trkpt>
      <trkpt lat="44.8816" lon="5.8727">
        <ele>1339.784</ele>
        <time>2021-11-13T11:51:39Z</time>
      </trkpt>
      <trkpt lat="44.88157" lon="5.87274">
        <ele>1341.697</ele>
        <time>2021-11-13T11:51:43Z</time>
      </trkpt>
      <trkpt lat="44.88156" lon="5.87277">
        <ele>1342.788</ele>
        <time>2021-11-13T11:51:46Z</time>
      </trkpt>
      <trkpt lat="44.88157" lon="5.87278">
        <ele>1343.616</ele>
        <time>2021-11-13T11:51:48Z</time>
      </trkpt>
      <trkpt lat="44.88156" lon="5.8728">
        <ele>1344.309</ele>
        <time>2021-11-13T11:51:50Z</time>
      </trkpt>
      <trkpt lat="44.88155" lon="5.87284">
        <ele>1346.494</ele>
        <time>2021-11-13T11:51:53Z</time>
      </trkpt>
      <trkpt lat="44.88156" lon="5.87288">
        <ele>1348.338</ele>
        <time>2021-11-13T11:51:57Z</time>
      </trkpt>
      <trkpt lat="44.88156" lon="5.87293">
        <ele>1349.234</ele>
        <time>2021-11-13T11:52:01Z</time>
      </trkpt>
      <trkpt lat="44.88156" lon="5.87297">
        <ele>1349.661</ele>
        <time>2021-11-13T11:52:05Z</time>
      </trkpt>
      <trkpt lat="44.88154" lon="5.873">
        <ele>1350.1</ele>
        <time>2021-11-13T11:52:08Z</time>
      </trkpt>
      <trkpt lat="44.88152" lon="5.87304">
        <ele>1350.013</ele>
        <time>2021-11-13T11:52:12Z</time>
      </trkpt>
      <trkpt lat="44.8815" lon="5.87309">
        <ele>1351.372</ele>
        <time>2021-11-13T11:52:15Z</time>
      </trkpt>
      <trkpt lat="44.8815" lon="5.87313">
        <ele>1352.339</ele>
        <time>2021-11-13T11:52:18Z</time>
      </trkpt>
      <trkpt lat="44.88151" lon="5.87317">
        <ele>1353.375</ele>
        <time>2021-11-13T11:52:22Z</time>
      </trkpt>
      <trkpt lat="44.88151" lon="5.87322">
        <ele>1354.933</ele>
        <time>2021-11-13T11:52:26Z</time>
      </trkpt>
      <trkpt lat="44.88148" lon="5.87326">
        <ele>1355.39</ele>
        <time>2021-11-13T11:52:30Z</time>
      </trkpt>
      <trkpt lat="44.88148" lon="5.87327">
        <ele>1355.272</ele>
        <time>2021-11-13T11:52:31Z</time>
      </trkpt>
      <trkpt lat="44.88147" lon="5.87327">
        <ele>1355.961</ele>
        <time>2021-11-13T11:52:32Z</time>
      </trkpt>
      <trkpt lat="44.88146" lon="5.87328">
        <ele>1356.843</ele>
        <time>2021-11-13T11:52:33Z</time>
      </trkpt>
      <trkpt lat="44.88145" lon="5.87332">
        <ele>1355.938</ele>
        <time>2021-11-13T11:52:38Z</time>
      </trkpt>
      <trkpt lat="44.88145" lon="5.87333">
        <ele>1355.967</ele>
        <time>2021-11-13T11:52:39Z</time>
      </trkpt>
      <trkpt lat="44.88146" lon="5.87337">
        <ele>1357.231</ele>
        <time>2021-11-13T11:52:42Z</time>
      </trkpt>
      <trkpt lat="44.88149" lon="5.87342">
        <ele>1358.271</ele>
        <time>2021-11-13T11:52:46Z</time>
      </trkpt>
      <trkpt lat="44.88149" lon="5.87344">
        <ele>1359.294</ele>
        <time>2021-11-13T11:52:49Z</time>
      </trkpt>
      <trkpt lat="44.88149" lon="5.87344">
        <ele>1359.294</ele>
        <time>2021-11-13T11:52:49Z</time>
      </trkpt>
      <trkpt lat="44.88149" lon="5.87347">
        <ele>1359.282</ele>
        <time>2021-11-13T11:52:50Z</time>
      </trkpt>
      <trkpt lat="44.88148" lon="5.87351">
        <ele>1358.38</ele>
        <time>2021-11-13T11:52:53Z</time>
      </trkpt>
      <trkpt lat="44.88149" lon="5.87354">
        <ele>1357.891</ele>
        <time>2021-11-13T11:52:56Z</time>
      </trkpt>
      <trkpt lat="44.88149" lon="5.87356">
        <ele>1358.735</ele>
        <time>2021-11-13T11:52:58Z</time>
      </trkpt>
      <trkpt lat="44.88148" lon="5.87363">
        <ele>1359.123</ele>
        <time>2021-11-13T11:53:04Z</time>
      </trkpt>
      <trkpt lat="44.88147" lon="5.87365">
        <ele>1359.912</ele>
        <time>2021-11-13T11:53:06Z</time>
      </trkpt>
      <trkpt lat="44.88147" lon="5.87365">
        <ele>1360.39</ele>
        <time>2021-11-13T11:53:07Z</time>
      </trkpt>
      <trkpt lat="44.88147" lon="5.87365">
        <ele>1360.39</ele>
        <time>2021-11-13T11:53:07Z</time>
      </trkpt>
      <trkpt lat="44.88147" lon="5.87365">
        <ele>1360.773</ele>
        <time>2021-11-13T11:53:08Z</time>
      </trkpt>
      <trkpt lat="44.88147" lon="5.87365">
        <ele>1360.39</ele>
        <time>2021-11-13T11:53:09Z</time>
      </trkpt>
      <trkpt lat="44.88147" lon="5.87365">
        <ele>1360.39</ele>
        <time>2021-11-13T11:53:09Z</time>
      </trkpt>
      <trkpt lat="44.88147" lon="5.87365">
        <ele>1360.73</ele>
        <time>2021-11-13T11:53:10Z</time>
      </trkpt>
      <trkpt lat="44.88147" lon="5.87366">
        <ele>1360.66</ele>
        <time>2021-11-13T11:53:11Z</time>
      </trkpt>
      <trkpt lat="44.88146" lon="5.87366">
        <ele>1361.236</ele>
        <time>2021-11-13T11:53:12Z</time>
      </trkpt>
      <trkpt lat="44.88146" lon="5.87367">
        <ele>1361.305</ele>
        <time>2021-11-13T11:53:13Z</time>
      </trkpt>
      <trkpt lat="44.88145" lon="5.87369">
        <ele>1361.422</ele>
        <time>2021-11-13T11:53:16Z</time>
      </trkpt>
      <trkpt lat="44.88144" lon="5.87373">
        <ele>1363.29</ele>
        <time>2021-11-13T11:53:21Z</time>
      </trkpt>
      <trkpt lat="44.88144" lon="5.87376">
        <ele>1362.444</ele>
        <time>2021-11-13T11:53:23Z</time>
      </trkpt>
      <trkpt lat="44.88142" lon="5.8738">
        <ele>1363.635</ele>
        <time>2021-11-13T11:53:26Z</time>
      </trkpt>
      <trkpt lat="44.88141" lon="5.87384">
        <ele>1363.854</ele>
        <time>2021-11-13T11:53:30Z</time>
      </trkpt>
      <trkpt lat="44.88143" lon="5.87388">
        <ele>1364.611</ele>
        <time>2021-11-13T11:53:33Z</time>
      </trkpt>
      <trkpt lat="44.88144" lon="5.87392">
        <ele>1364.931</ele>
        <time>2021-11-13T11:53:36Z</time>
      </trkpt>
      <trkpt lat="44.88145" lon="5.87393">
        <ele>1366.405</ele>
        <time>2021-11-13T11:53:38Z</time>
      </trkpt>
      <trkpt lat="44.88146" lon="5.87398">
        <ele>1367.177</ele>
        <time>2021-11-13T11:53:41Z</time>
      </trkpt>
      <trkpt lat="44.88145" lon="5.87408">
        <ele>1368.684</ele>
        <time>2021-11-13T11:53:47Z</time>
      </trkpt>
      <trkpt lat="44.88145" lon="5.87413">
        <ele>1368.659</ele>
        <time>2021-11-13T11:53:50Z</time>
      </trkpt>
      <trkpt lat="44.88145" lon="5.8742">
        <ele>1370.154</ele>
        <time>2021-11-13T11:53:56Z</time>
      </trkpt>
      <trkpt lat="44.88144" lon="5.87423">
        <ele>1370.477</ele>
        <time>2021-11-13T11:53:58Z</time>
      </trkpt>
      <trkpt lat="44.88143" lon="5.87425">
        <ele>1371.09</ele>
        <time>2021-11-13T11:54:00Z</time>
      </trkpt>
      <trkpt lat="44.88143" lon="5.87429">
        <ele>1372.079</ele>
        <time>2021-11-13T11:54:03Z</time>
      </trkpt>
      <trkpt lat="44.88142" lon="5.87433">
        <ele>1372.23</ele>
        <time>2021-11-13T11:54:05Z</time>
      </trkpt>
      <trkpt lat="44.88141" lon="5.87438">
        <ele>1373.009</ele>
        <time>2021-11-13T11:54:08Z</time>
      </trkpt>
      <trkpt lat="44.88142" lon="5.87442">
        <ele>1373.133</ele>
        <time>2021-11-13T11:54:11Z</time>
      </trkpt>
      <trkpt lat="44.88142" lon="5.87443">
        <ele>1374.014</ele>
        <time>2021-11-13T11:54:12Z</time>
      </trkpt>
      <trkpt lat="44.88142" lon="5.87447">
        <ele>1375.894</ele>
        <time>2021-11-13T11:54:16Z</time>
      </trkpt>
      <trkpt lat="44.88142" lon="5.87449">
        <ele>1376.079</ele>
        <time>2021-11-13T11:54:17Z</time>
      </trkpt>
      <trkpt lat="44.88141" lon="5.87452">
        <ele>1375.499</ele>
        <time>2021-11-13T11:54:20Z</time>
      </trkpt>
      <trkpt lat="44.8814" lon="5.87454">
        <ele>1375.969</ele>
        <time>2021-11-13T11:54:22Z</time>
      </trkpt>
      <trkpt lat="44.88139" lon="5.87455">
        <ele>1375.788</ele>
        <time>2021-11-13T11:54:23Z</time>
      </trkpt>
      <trkpt lat="44.88138" lon="5.87458">
        <ele>1375.654</ele>
        <time>2021-11-13T11:54:25Z</time>
      </trkpt>
      <trkpt lat="44.88135" lon="5.87463">
        <ele>1375.815</ele>
        <time>2021-11-13T11:54:27Z</time>
      </trkpt>
      <trkpt lat="44.88131" lon="5.87471">
        <ele>1375.683</ele>
        <time>2021-11-13T11:54:31Z</time>
      </trkpt>
      <trkpt lat="44.88131" lon="5.87472">
        <ele>1375.949</ele>
        <time>2021-11-13T11:54:32Z</time>
      </trkpt>
      <trkpt lat="44.88131" lon="5.87473">
        <ele>1375.999</ele>
        <time>2021-11-13T11:54:33Z</time>
      </trkpt>
      <trkpt lat="44.88131" lon="5.87477">
        <ele>1377.398</ele>
        <time>2021-11-13T11:54:36Z</time>
      </trkpt>
      <trkpt lat="44.88129" lon="5.87481">
        <ele>1377.194</ele>
        <time>2021-11-13T11:54:39Z</time>
      </trkpt>
      <trkpt lat="44.88126" lon="5.87485">
        <ele>1377.104</ele>
        <time>2021-11-13T11:54:42Z</time>
      </trkpt>
      <trkpt lat="44.88126" lon="5.8749">
        <ele>1378.009</ele>
        <time>2021-11-13T11:54:45Z</time>
      </trkpt>
      <trkpt lat="44.88127" lon="5.87497">
        <ele>1378.737</ele>
        <time>2021-11-13T11:54:50Z</time>
      </trkpt>
      <trkpt lat="44.88125" lon="5.87502">
        <ele>1379.323</ele>
        <time>2021-11-13T11:54:53Z</time>
      </trkpt>
      <trkpt lat="44.88124" lon="5.87506">
        <ele>1379.956</ele>
        <time>2021-11-13T11:54:55Z</time>
      </trkpt>
      <trkpt lat="44.88121" lon="5.87518">
        <ele>1380.249</ele>
        <time>2021-11-13T11:55:02Z</time>
      </trkpt>
      <trkpt lat="44.88119" lon="5.87522">
        <ele>1380.325</ele>
        <time>2021-11-13T11:55:06Z</time>
      </trkpt>
      <trkpt lat="44.88119" lon="5.87524">
        <ele>1381.161</ele>
        <time>2021-11-13T11:55:07Z</time>
      </trkpt>
      <trkpt lat="44.88119" lon="5.87526">
        <ele>1382.069</ele>
        <time>2021-11-13T11:55:09Z</time>
      </trkpt>
      <trkpt lat="44.88119" lon="5.87529">
        <ele>1382.106</ele>
        <time>2021-11-13T11:55:12Z</time>
      </trkpt>
      <trkpt lat="44.88118" lon="5.87531">
        <ele>1381.713</ele>
        <time>2021-11-13T11:55:15Z</time>
      </trkpt>
      <trkpt lat="44.88117" lon="5.87533">
        <ele>1381.488</ele>
        <time>2021-11-13T11:55:17Z</time>
      </trkpt>
      <trkpt lat="44.88116" lon="5.87537">
        <ele>1380.574</ele>
        <time>2021-11-13T11:55:21Z</time>
      </trkpt>
      <trkpt lat="44.88116" lon="5.87541">
        <ele>1380.66</ele>
        <time>2021-11-13T11:55:24Z</time>
      </trkpt>
      <trkpt lat="44.88116" lon="5.87543">
        <ele>1381.555</ele>
        <time>2021-11-13T11:55:25Z</time>
      </trkpt>
      <trkpt lat="44.88116" lon="5.87546">
        <ele>1381.387</ele>
        <time>2021-11-13T11:55:27Z</time>
      </trkpt>
      <trkpt lat="44.88116" lon="5.87549">
        <ele>1381.809</ele>
        <time>2021-11-13T11:55:29Z</time>
      </trkpt>
      <trkpt lat="44.88116" lon="5.8756">
        <ele>1383.699</ele>
        <time>2021-11-13T11:55:34Z</time>
      </trkpt>
      <trkpt lat="44.88116" lon="5.87567">
        <ele>1383.746</ele>
        <time>2021-11-13T11:55:37Z</time>
      </trkpt>
      <trkpt lat="44.88115" lon="5.87571">
        <ele>1382.934</ele>
        <time>2021-11-13T11:55:40Z</time>
      </trkpt>
      <trkpt lat="44.88115" lon="5.87572">
        <ele>1383.258</ele>
        <time>2021-11-13T11:55:42Z</time>
      </trkpt>
      <trkpt lat="44.88115" lon="5.87572">
        <ele>1383.258</ele>
        <time>2021-11-13T11:55:42Z</time>
      </trkpt>
      <trkpt lat="44.88115" lon="5.87574">
        <ele>1382.944</ele>
        <time>2021-11-13T11:55:43Z</time>
      </trkpt>
      <trkpt lat="44.88117" lon="5.87577">
        <ele>1383.397</ele>
        <time>2021-11-13T11:55:45Z</time>
      </trkpt>
      <trkpt lat="44.88121" lon="5.87586">
        <ele>1384.293</ele>
        <time>2021-11-13T11:55:49Z</time>
      </trkpt>
      <trkpt lat="44.88125" lon="5.87592">
        <ele>1384.986</ele>
        <time>2021-11-13T11:55:52Z</time>
      </trkpt>
      <trkpt lat="44.88127" lon="5.87594">
        <ele>1385.814</ele>
        <time>2021-11-13T11:55:54Z</time>
      </trkpt>
      <trkpt lat="44.88127" lon="5.876">
        <ele>1385.991</ele>
        <time>2021-11-13T11:55:57Z</time>
      </trkpt>
      <trkpt lat="44.88125" lon="5.87605">
        <ele>1385.77</ele>
        <time>2021-11-13T11:55:59Z</time>
      </trkpt>
      <trkpt lat="44.88122" lon="5.87609">
        <ele>1385.415</ele>
        <time>2021-11-13T11:56:01Z</time>
      </trkpt>
      <trkpt lat="44.8812" lon="5.8761">
        <ele>1385.282</ele>
        <time>2021-11-13T11:56:02Z</time>
      </trkpt>
      <trkpt lat="44.88114" lon="5.87612">
        <ele>1385.078</ele>
        <time>2021-11-13T11:56:08Z</time>
      </trkpt>
      <trkpt lat="44.88112" lon="5.87611">
        <ele>1385.536</ele>
        <time>2021-11-13T11:56:11Z</time>
      </trkpt>
      <trkpt lat="44.88109" lon="5.87612">
        <ele>1384.564</ele>
        <time>2021-11-13T11:56:14Z</time>
      </trkpt>
      <trkpt lat="44.88107" lon="5.87612">
        <ele>1384.844</ele>
        <time>2021-11-13T11:56:16Z</time>
      </trkpt>
      <trkpt lat="44.88106" lon="5.87612">
        <ele>1385.08</ele>
        <time>2021-11-13T11:56:17Z</time>
      </trkpt>
      <trkpt lat="44.88104" lon="5.87615">
        <ele>1385.393</ele>
        <time>2021-11-13T11:56:19Z</time>
      </trkpt>
      <trkpt lat="44.881" lon="5.87621">
        <ele>1384.99</ele>
        <time>2021-11-13T11:56:23Z</time>
      </trkpt>
      <trkpt lat="44.88098" lon="5.87621">
        <ele>1384.831</ele>
        <time>2021-11-13T11:56:24Z</time>
      </trkpt>
      <trkpt lat="44.88095" lon="5.8762">
        <ele>1384.351</ele>
        <time>2021-11-13T11:56:27Z</time>
      </trkpt>
      <trkpt lat="44.88095" lon="5.87619">
        <ele>1384.26</ele>
        <time>2021-11-13T11:56:28Z</time>
      </trkpt>
      <trkpt lat="44.88095" lon="5.87619">
        <ele>1384.26</ele>
        <time>2021-11-13T11:56:28Z</time>
      </trkpt>
      <trkpt lat="44.88095" lon="5.87618">
        <ele>1384.339</ele>
        <time>2021-11-13T11:56:29Z</time>
      </trkpt>
      <trkpt lat="44.88096" lon="5.87612">
        <ele>1384.63</ele>
        <time>2021-11-13T11:56:32Z</time>
      </trkpt>
      <trkpt lat="44.88094" lon="5.87611">
        <ele>1385.49</ele>
        <time>2021-11-13T11:56:34Z</time>
      </trkpt>
      <trkpt lat="44.88092" lon="5.87612">
        <ele>1385.687</ele>
        <time>2021-11-13T11:56:36Z</time>
      </trkpt>
      <trkpt lat="44.88089" lon="5.87615">
        <ele>1385.182</ele>
        <time>2021-11-13T11:56:39Z</time>
      </trkpt>
      <trkpt lat="44.88089" lon="5.87615">
        <ele>1385.117</ele>
        <time>2021-11-13T11:56:40Z</time>
      </trkpt>
      <trkpt lat="44.88087" lon="5.87615">
        <ele>1385.281</ele>
        <time>2021-11-13T11:56:42Z</time>
      </trkpt>
      <trkpt lat="44.88084" lon="5.87611">
        <ele>1384.551</ele>
        <time>2021-11-13T11:56:45Z</time>
      </trkpt>
      <trkpt lat="44.8808" lon="5.87607">
        <ele>1384.809</ele>
        <time>2021-11-13T11:56:49Z</time>
      </trkpt>
      <trkpt lat="44.88076" lon="5.87607">
        <ele>1385.845</ele>
        <time>2021-11-13T11:56:51Z</time>
      </trkpt>
      <trkpt lat="44.88072" lon="5.87609">
        <ele>1384.731</ele>
        <time>2021-11-13T11:56:54Z</time>
      </trkpt>
      <trkpt lat="44.88068" lon="5.8761">
        <ele>1384.293</ele>
        <time>2021-11-13T11:56:57Z</time>
      </trkpt>
      <trkpt lat="44.88064" lon="5.87611">
        <ele>1384.617</ele>
        <time>2021-11-13T11:57:01Z</time>
      </trkpt>
      <trkpt lat="44.88062" lon="5.87612">
        <ele>1383.531</ele>
        <time>2021-11-13T11:57:06Z</time>
      </trkpt>
      <trkpt lat="44.8806" lon="5.87613">
        <ele>1383.662</ele>
        <time>2021-11-13T11:57:12Z</time>
      </trkpt>
      <trkpt lat="44.88056" lon="5.87614">
        <ele>1383.501</ele>
        <time>2021-11-13T11:57:17Z</time>
      </trkpt>
      <trkpt lat="44.88054" lon="5.87614">
        <ele>1383.953</ele>
        <time>2021-11-13T11:57:20Z</time>
      </trkpt>
      <trkpt lat="44.88046" lon="5.8762">
        <ele>1385.968</ele>
        <time>2021-11-13T11:57:28Z</time>
      </trkpt>
      <trkpt lat="44.88043" lon="5.87622">
        <ele>1386.911</ele>
        <time>2021-11-13T11:57:31Z</time>
      </trkpt>
      <trkpt lat="44.8804" lon="5.87627">
        <ele>1389.145</ele>
        <time>2021-11-13T11:57:37Z</time>
      </trkpt>
      <trkpt lat="44.88038" lon="5.8763">
        <ele>1389.961</ele>
        <time>2021-11-13T11:57:42Z</time>
      </trkpt>
      <trkpt lat="44.88038" lon="5.87631">
        <ele>1390.355</ele>
        <time>2021-11-13T11:57:43Z</time>
      </trkpt>
      <trkpt lat="44.88036" lon="5.8764">
        <ele>1391.205</ele>
        <time>2021-11-13T11:57:52Z</time>
      </trkpt>
      <trkpt lat="44.88035" lon="5.87644">
        <ele>1390.695</ele>
        <time>2021-11-13T11:57:56Z</time>
      </trkpt>
      <trkpt lat="44.88035" lon="5.87647">
        <ele>1392</ele>
        <time>2021-11-13T11:58:00Z</time>
      </trkpt>
      <trkpt lat="44.88035" lon="5.87647">
        <ele>1392</ele>
        <time>2021-11-13T11:58:00Z</time>
      </trkpt>
      <trkpt lat="44.88035" lon="5.87648">
        <ele>1391.381</ele>
        <time>2021-11-13T11:58:01Z</time>
      </trkpt>
      <trkpt lat="44.88034" lon="5.87655">
        <ele>1392.071</ele>
        <time>2021-11-13T11:58:08Z</time>
      </trkpt>
      <trkpt lat="44.88035" lon="5.87659">
        <ele>1392.469</ele>
        <time>2021-11-13T11:58:12Z</time>
      </trkpt>
      <trkpt lat="44.88034" lon="5.87663">
        <ele>1392.981</ele>
        <time>2021-11-13T11:58:15Z</time>
      </trkpt>
      <trkpt lat="44.88035" lon="5.8767">
        <ele>1393.188</ele>
        <time>2021-11-13T11:58:20Z</time>
      </trkpt>
      <trkpt lat="44.88035" lon="5.87671">
        <ele>1393.492</ele>
        <time>2021-11-13T11:58:21Z</time>
      </trkpt>
      <trkpt lat="44.88034" lon="5.87675">
        <ele>1394.725</ele>
        <time>2021-11-13T11:58:24Z</time>
      </trkpt>
      <trkpt lat="44.88034" lon="5.87676">
        <ele>1394.555</ele>
        <time>2021-11-13T11:58:25Z</time>
      </trkpt>
      <trkpt lat="44.88032" lon="5.87679">
        <ele>1395.389</ele>
        <time>2021-11-13T11:58:28Z</time>
      </trkpt>
      <trkpt lat="44.8803" lon="5.87682">
        <ele>1396.682</ele>
        <time>2021-11-13T11:58:32Z</time>
      </trkpt>
      <trkpt lat="44.8803" lon="5.87683">
        <ele>1397.024</ele>
        <time>2021-11-13T11:58:33Z</time>
      </trkpt>
      <trkpt lat="44.8803" lon="5.87684">
        <ele>1398.268</ele>
        <time>2021-11-13T11:58:35Z</time>
      </trkpt>
      <trkpt lat="44.8803" lon="5.87684">
        <ele>1398.268</ele>
        <time>2021-11-13T11:58:35Z</time>
      </trkpt>
      <trkpt lat="44.88031" lon="5.87684">
        <ele>1398.927</ele>
        <time>2021-11-13T11:58:36Z</time>
      </trkpt>
      <trkpt lat="44.88031" lon="5.87684">
        <ele>1399.238</ele>
        <time>2021-11-13T11:58:37Z</time>
      </trkpt>
      <trkpt lat="44.88031" lon="5.87684">
        <ele>1399.21</ele>
        <time>2021-11-13T11:58:38Z</time>
      </trkpt>
      <trkpt lat="44.88032" lon="5.87684">
        <ele>1399.696</ele>
        <time>2021-11-13T11:58:39Z</time>
      </trkpt>
      <trkpt lat="44.88032" lon="5.87684">
        <ele>1400.19</ele>
        <time>2021-11-13T11:58:40Z</time>
      </trkpt>
      <trkpt lat="44.88032" lon="5.87684">
        <ele>1400.19</ele>
        <time>2021-11-13T11:58:40Z</time>
      </trkpt>
      <trkpt lat="44.88032" lon="5.87685">
        <ele>1400.523</ele>
        <time>2021-11-13T11:58:41Z</time>
      </trkpt>
      <trkpt lat="44.88032" lon="5.87686">
        <ele>1401.014</ele>
        <time>2021-11-13T11:58:42Z</time>
      </trkpt>
      <trkpt lat="44.88032" lon="5.87688">
        <ele>1401.082</ele>
        <time>2021-11-13T11:58:44Z</time>
      </trkpt>
      <trkpt lat="44.88032" lon="5.87689">
        <ele>1400.76</ele>
        <time>2021-11-13T11:58:45Z</time>
      </trkpt>
      <trkpt lat="44.88032" lon="5.87689">
        <ele>1400.931</ele>
        <time>2021-11-13T11:58:46Z</time>
      </trkpt>
      <trkpt lat="44.88032" lon="5.87689">
        <ele>1400.931</ele>
        <time>2021-11-13T11:58:46Z</time>
      </trkpt>
      <trkpt lat="44.88032" lon="5.8769">
        <ele>1400.627</ele>
        <time>2021-11-13T11:58:47Z</time>
      </trkpt>
      <trkpt lat="44.88032" lon="5.87691">
        <ele>1400.695</ele>
        <time>2021-11-13T11:58:49Z</time>
      </trkpt>
      <trkpt lat="44.88032" lon="5.87695">
        <ele>1400.402</ele>
        <time>2021-11-13T11:58:52Z</time>
      </trkpt>
      <trkpt lat="44.88033" lon="5.87699">
        <ele>1401.802</ele>
        <time>2021-11-13T11:58:58Z</time>
      </trkpt>
      <trkpt lat="44.88033" lon="5.877">
        <ele>1402.472</ele>
        <time>2021-11-13T11:58:59Z</time>
      </trkpt>
      <trkpt lat="44.88033" lon="5.87701">
        <ele>1402.107</ele>
        <time>2021-11-13T11:59:00Z</time>
      </trkpt>
      <trkpt lat="44.88033" lon="5.87704">
        <ele>1402.429</ele>
        <time>2021-11-13T11:59:03Z</time>
      </trkpt>
      <trkpt lat="44.8803" lon="5.87709">
        <ele>1401.335</ele>
        <time>2021-11-13T11:59:08Z</time>
      </trkpt>
      <trkpt lat="44.8803" lon="5.87709">
        <ele>1401.417</ele>
        <time>2021-11-13T11:59:09Z</time>
      </trkpt>
      <trkpt lat="44.8803" lon="5.87709">
        <ele>1401.727</ele>
        <time>2021-11-13T11:59:37Z</time>
      </trkpt>
      <trkpt lat="44.88028" lon="5.8771">
        <ele>1402.487</ele>
        <time>2021-11-13T11:59:38Z</time>
      </trkpt>
      <trkpt lat="44.88026" lon="5.87711">
        <ele>1402.287</ele>
        <time>2021-11-13T11:59:42Z</time>
      </trkpt>
      <trkpt lat="44.88023" lon="5.87715">
        <ele>1404.428</ele>
        <time>2021-11-13T11:59:46Z</time>
      </trkpt>
      <trkpt lat="44.8802" lon="5.87722">
        <ele>1407.07</ele>
        <time>2021-11-13T11:59:53Z</time>
      </trkpt>
      <trkpt lat="44.88019" lon="5.87723">
        <ele>1407.24</ele>
        <time>2021-11-13T11:59:55Z</time>
      </trkpt>
      <trkpt lat="44.88019" lon="5.87724">
        <ele>1407.04</ele>
        <time>2021-11-13T11:59:56Z</time>
      </trkpt>
      <trkpt lat="44.88019" lon="5.87724">
        <ele>1407.04</ele>
        <time>2021-11-13T11:59:56Z</time>
      </trkpt>
      <trkpt lat="44.88019" lon="5.87724">
        <ele>1406.558</ele>
        <time>2021-11-13T11:59:57Z</time>
      </trkpt>
      <trkpt lat="44.88019" lon="5.87724">
        <ele>1407.253</ele>
        <time>2021-11-13T11:59:59Z</time>
      </trkpt>
      <trkpt lat="44.88019" lon="5.87725">
        <ele>1408.12</ele>
        <time>2021-11-13T12:00:00Z</time>
      </trkpt>
      <trkpt lat="44.88019" lon="5.87725">
        <ele>1408.12</ele>
        <time>2021-11-13T12:00:00Z</time>
      </trkpt>
      <trkpt lat="44.88019" lon="5.87725">
        <ele>1406.801</ele>
        <time>2021-11-13T12:00:01Z</time>
      </trkpt>
      <trkpt lat="44.88019" lon="5.87725">
        <ele>1406.278</ele>
        <time>2021-11-13T12:00:03Z</time>
      </trkpt>
      <trkpt lat="44.88018" lon="5.87724">
        <ele>1405.581</ele>
        <time>2021-11-13T12:00:04Z</time>
      </trkpt>
      <trkpt lat="44.88018" lon="5.87723">
        <ele>1406.09</ele>
        <time>2021-11-13T12:00:07Z</time>
      </trkpt>
      <trkpt lat="44.88018" lon="5.87723">
        <ele>1406.278</ele>
        <time>2021-11-13T12:00:08Z</time>
      </trkpt>
      <trkpt lat="44.88018" lon="5.87723">
        <ele>1406.278</ele>
        <time>2021-11-13T12:00:08Z</time>
      </trkpt>
      <trkpt lat="44.88019" lon="5.87723">
        <ele>1405.989</ele>
        <time>2021-11-13T12:00:09Z</time>
      </trkpt>
      <trkpt lat="44.88017" lon="5.87723">
        <ele>1408.367</ele>
        <time>2021-11-13T12:00:12Z</time>
      </trkpt>
      <trkpt lat="44.88017" lon="5.87723">
        <ele>1408.263</ele>
        <time>2021-11-13T12:00:13Z</time>
      </trkpt>
      <trkpt lat="44.88017" lon="5.87723">
        <ele>1408.259</ele>
        <time>2021-11-13T12:00:26Z</time>
      </trkpt>
      <trkpt lat="44.88017" lon="5.87724">
        <ele>1408.033</ele>
        <time>2021-11-13T12:00:27Z</time>
      </trkpt>
      <trkpt lat="44.88016" lon="5.87728">
        <ele>1407.646</ele>
        <time>2021-11-13T12:00:31Z</time>
      </trkpt>
      <trkpt lat="44.88016" lon="5.87736">
        <ele>1405.633</ele>
        <time>2021-11-13T12:00:36Z</time>
      </trkpt>
      <trkpt lat="44.8801" lon="5.87751">
        <ele>1407.505</ele>
        <time>2021-11-13T12:00:49Z</time>
      </trkpt>
      <trkpt lat="44.8801" lon="5.87753">
        <ele>1406.198</ele>
        <time>2021-11-13T12:00:53Z</time>
      </trkpt>
      <trkpt lat="44.88009" lon="5.87759">
        <ele>1406.371</ele>
        <time>2021-11-13T12:00:59Z</time>
      </trkpt>
      <trkpt lat="44.88009" lon="5.87759">
        <ele>1406.372</ele>
        <time>2021-11-13T12:01:00Z</time>
      </trkpt>
      <trkpt lat="44.88009" lon="5.87759">
        <ele>1406.372</ele>
        <time>2021-11-13T12:01:00Z</time>
      </trkpt>
      <trkpt lat="44.8801" lon="5.87758">
        <ele>1406.253</ele>
        <time>2021-11-13T12:01:01Z</time>
      </trkpt>
      <trkpt lat="44.88011" lon="5.87758">
        <ele>1406.78</ele>
        <time>2021-11-13T12:01:02Z</time>
      </trkpt>
      <trkpt lat="44.88013" lon="5.87758">
        <ele>1406.655</ele>
        <time>2021-11-13T12:01:03Z</time>
      </trkpt>
      <trkpt lat="44.88013" lon="5.87762">
        <ele>1407.108</ele>
        <time>2021-11-13T12:01:06Z</time>
      </trkpt>
      <trkpt lat="44.8801" lon="5.8777">
        <ele>1408.155</ele>
        <time>2021-11-13T12:01:11Z</time>
      </trkpt>
      <trkpt lat="44.8801" lon="5.87771">
        <ele>1408.342</ele>
        <time>2021-11-13T12:01:12Z</time>
      </trkpt>
      <trkpt lat="44.88007" lon="5.87783">
        <ele>1409.608</ele>
        <time>2021-11-13T12:01:20Z</time>
      </trkpt>
      <trkpt lat="44.88005" lon="5.8779">
        <ele>1411.613</ele>
        <time>2021-11-13T12:01:25Z</time>
      </trkpt>
      <trkpt lat="44.88003" lon="5.87793">
        <ele>1411.498</ele>
        <time>2021-11-13T12:01:28Z</time>
      </trkpt>
      <trkpt lat="44.88003" lon="5.87796">
        <ele>1412.378</ele>
        <time>2021-11-13T12:01:31Z</time>
      </trkpt>
      <trkpt lat="44.88001" lon="5.878">
        <ele>1410.918</ele>
        <time>2021-11-13T12:01:35Z</time>
      </trkpt>
      <trkpt lat="44.87996" lon="5.87807">
        <ele>1411.319</ele>
        <time>2021-11-13T12:01:42Z</time>
      </trkpt>
      <trkpt lat="44.87989" lon="5.87815">
        <ele>1413.342</ele>
        <time>2021-11-13T12:01:52Z</time>
      </trkpt>
      <trkpt lat="44.87983" lon="5.87824">
        <ele>1415.506</ele>
        <time>2021-11-13T12:02:03Z</time>
      </trkpt>
      <trkpt lat="44.87982" lon="5.87824">
        <ele>1415.437</ele>
        <time>2021-11-13T12:02:04Z</time>
      </trkpt>
      <trkpt lat="44.87981" lon="5.87826">
        <ele>1414.986</ele>
        <time>2021-11-13T12:02:06Z</time>
      </trkpt>
      <trkpt lat="44.87975" lon="5.87837">
        <ele>1416.213</ele>
        <time>2021-11-13T12:02:16Z</time>
      </trkpt>
      <trkpt lat="44.87974" lon="5.87838">
        <ele>1416.444</ele>
        <time>2021-11-13T12:02:17Z</time>
      </trkpt>
      <trkpt lat="44.87972" lon="5.8784">
        <ele>1417.783</ele>
        <time>2021-11-13T12:02:21Z</time>
      </trkpt>
      <trkpt lat="44.8797" lon="5.87844">
        <ele>1417.607</ele>
        <time>2021-11-13T12:02:25Z</time>
      </trkpt>
      <trkpt lat="44.87967" lon="5.87853">
        <ele>1418.481</ele>
        <time>2021-11-13T12:02:31Z</time>
      </trkpt>
      <trkpt lat="44.87965" lon="5.87857">
        <ele>1418.569</ele>
        <time>2021-11-13T12:02:33Z</time>
      </trkpt>
      <trkpt lat="44.87963" lon="5.8786">
        <ele>1418.087</ele>
        <time>2021-11-13T12:02:36Z</time>
      </trkpt>
      <trkpt lat="44.87963" lon="5.8786">
        <ele>1418.087</ele>
        <time>2021-11-13T12:02:36Z</time>
      </trkpt>
      <trkpt lat="44.87964" lon="5.87859">
        <ele>1417.356</ele>
        <time>2021-11-13T12:02:37Z</time>
      </trkpt>
      <trkpt lat="44.87965" lon="5.87858">
        <ele>1416.803</ele>
        <time>2021-11-13T12:02:40Z</time>
      </trkpt>
      <trkpt lat="44.87965" lon="5.87858">
        <ele>1415.82</ele>
        <time>2021-11-13T12:02:54Z</time>
      </trkpt>
      <trkpt lat="44.87968" lon="5.87854">
        <ele>1416.083</ele>
        <time>2021-11-13T12:02:55Z</time>
      </trkpt>
      <trkpt lat="44.87969" lon="5.87853">
        <ele>1416.617</ele>
        <time>2021-11-13T12:02:56Z</time>
      </trkpt>
      <trkpt lat="44.87974" lon="5.87851">
        <ele>1418.056</ele>
        <time>2021-11-13T12:03:03Z</time>
      </trkpt>
      <trkpt lat="44.87978" lon="5.87847">
        <ele>1416.322</ele>
        <time>2021-11-13T12:03:08Z</time>
      </trkpt>
      <trkpt lat="44.87978" lon="5.87847">
        <ele>1415.105</ele>
        <time>2021-11-13T12:03:10Z</time>
      </trkpt>
      <trkpt lat="44.87978" lon="5.87847">
        <ele>1415.136</ele>
        <time>2021-11-13T12:03:11Z</time>
      </trkpt>
      <trkpt lat="44.87978" lon="5.87846">
        <ele>1415.27</ele>
        <time>2021-11-13T12:03:12Z</time>
      </trkpt>
      <trkpt lat="44.87977" lon="5.87845">
        <ele>1415.126</ele>
        <time>2021-11-13T12:03:14Z</time>
      </trkpt>
      <trkpt lat="44.87977" lon="5.87845">
        <ele>1415.065</ele>
        <time>2021-11-13T12:03:15Z</time>
      </trkpt>
      <trkpt lat="44.87977" lon="5.87845">
        <ele>1415.023</ele>
        <time>2021-11-13T12:03:31Z</time>
      </trkpt>
      <trkpt lat="44.87976" lon="5.87848">
        <ele>1414.039</ele>
        <time>2021-11-13T12:03:32Z</time>
      </trkpt>
      <trkpt lat="44.87978" lon="5.87849">
        <ele>1412.017</ele>
        <time>2021-11-13T12:03:35Z</time>
      </trkpt>
      <trkpt lat="44.87989" lon="5.87844">
        <ele>1412.715</ele>
        <time>2021-11-13T12:03:47Z</time>
      </trkpt>
      <trkpt lat="44.87991" lon="5.87841">
        <ele>1414.836</ele>
        <time>2021-11-13T12:03:50Z</time>
      </trkpt>
      <trkpt lat="44.87992" lon="5.8784">
        <ele>1414.914</ele>
        <time>2021-11-13T12:03:51Z</time>
      </trkpt>
      <trkpt lat="44.87995" lon="5.87838">
        <ele>1415.491</ele>
        <time>2021-11-13T12:03:54Z</time>
      </trkpt>
      <trkpt lat="44.87996" lon="5.87837">
        <ele>1415.61</ele>
        <time>2021-11-13T12:03:55Z</time>
      </trkpt>
      <trkpt lat="44.87996" lon="5.87837">
        <ele>1415.51</ele>
        <time>2021-11-13T12:03:56Z</time>
      </trkpt>
      <trkpt lat="44.87997" lon="5.87836">
        <ele>1415.728</ele>
        <time>2021-11-13T12:03:59Z</time>
      </trkpt>
      <trkpt lat="44.87997" lon="5.87836">
        <ele>1415.223</ele>
        <time>2021-11-13T12:04:00Z</time>
      </trkpt>
      <trkpt lat="44.87998" lon="5.87835">
        <ele>1415.68</ele>
        <time>2021-11-13T12:04:01Z</time>
      </trkpt>
      <trkpt lat="44.87998" lon="5.87835">
        <ele>1415.68</ele>
        <time>2021-11-13T12:04:01Z</time>
      </trkpt>
      <trkpt lat="44.87998" lon="5.87835">
        <ele>1415.564</ele>
        <time>2021-11-13T12:04:02Z</time>
      </trkpt>
      <trkpt lat="44.87998" lon="5.87835">
        <ele>1418.707</ele>
        <time>2021-11-13T12:04:40Z</time>
      </trkpt>
      <trkpt lat="44.87998" lon="5.87835">
        <ele>1419.17</ele>
        <time>2021-11-13T12:04:41Z</time>
      </trkpt>
      <trkpt lat="44.87998" lon="5.87835">
        <ele>1418.924</ele>
        <time>2021-11-13T12:04:42Z</time>
      </trkpt>
      <trkpt lat="44.87998" lon="5.87835">
        <ele>1417.922</ele>
        <time>2021-11-13T12:05:58Z</time>
      </trkpt>
      <trkpt lat="44.87997" lon="5.87835">
        <ele>1418.138</ele>
        <time>2021-11-13T12:05:59Z</time>
      </trkpt>
      <trkpt lat="44.87997" lon="5.87835">
        <ele>1418.443</ele>
        <time>2021-11-13T12:06:00Z</time>
      </trkpt>
      <trkpt lat="44.87997" lon="5.87835">
        <ele>1418.427</ele>
        <time>2021-11-13T12:06:01Z</time>
      </trkpt>
      <trkpt lat="44.87997" lon="5.87836">
        <ele>1418.159</ele>
        <time>2021-11-13T12:06:02Z</time>
      </trkpt>
      <trkpt lat="44.87997" lon="5.87837">
        <ele>1417.827</ele>
        <time>2021-11-13T12:06:04Z</time>
      </trkpt>
      <trkpt lat="44.87997" lon="5.87837">
        <ele>1417.83</ele>
        <time>2021-11-13T12:06:07Z</time>
      </trkpt>
      <trkpt lat="44.87995" lon="5.87838">
        <ele>1417.952</ele>
        <time>2021-11-13T12:06:08Z</time>
      </trkpt>
      <trkpt lat="44.87995" lon="5.87838">
        <ele>1417.952</ele>
        <time>2021-11-13T12:06:08Z</time>
      </trkpt>
      <trkpt lat="44.87995" lon="5.87838">
        <ele>1417.64</ele>
        <time>2021-11-13T12:06:09Z</time>
      </trkpt>
      <trkpt lat="44.87995" lon="5.87838">
        <ele>1417.254</ele>
        <time>2021-11-13T12:08:06Z</time>
      </trkpt>
      <trkpt lat="44.87995" lon="5.87836">
        <ele>1416.493</ele>
        <time>2021-11-13T12:08:07Z</time>
      </trkpt>
      <trkpt lat="44.8799" lon="5.87838">
        <ele>1417.106</ele>
        <time>2021-11-13T12:08:13Z</time>
      </trkpt>
      <trkpt lat="44.87976" lon="5.87841">
        <ele>1416.315</ele>
        <time>2021-11-13T12:08:27Z</time>
      </trkpt>
      <trkpt lat="44.87974" lon="5.87844">
        <ele>1417.639</ele>
        <time>2021-11-13T12:08:31Z</time>
      </trkpt>
      <trkpt lat="44.87972" lon="5.87848">
        <ele>1417.061</ele>
        <time>2021-11-13T12:08:36Z</time>
      </trkpt>
      <trkpt lat="44.87965" lon="5.87859">
        <ele>1417.073</ele>
        <time>2021-11-13T12:08:47Z</time>
      </trkpt>
      <trkpt lat="44.87959" lon="5.87865">
        <ele>1417.847</ele>
        <time>2021-11-13T12:08:56Z</time>
      </trkpt>
      <trkpt lat="44.87959" lon="5.87866">
        <ele>1418.17</ele>
        <time>2021-11-13T12:08:58Z</time>
      </trkpt>
      <trkpt lat="44.87958" lon="5.8787">
        <ele>1417.969</ele>
        <time>2021-11-13T12:09:01Z</time>
      </trkpt>
      <trkpt lat="44.87958" lon="5.87874">
        <ele>1418.257</ele>
        <time>2021-11-13T12:09:04Z</time>
      </trkpt>
      <trkpt lat="44.87959" lon="5.8788">
        <ele>1417.317</ele>
        <time>2021-11-13T12:09:11Z</time>
      </trkpt>
      <trkpt lat="44.87959" lon="5.87881">
        <ele>1417.444</ele>
        <time>2021-11-13T12:09:13Z</time>
      </trkpt>
      <trkpt lat="44.87958" lon="5.87882">
        <ele>1416.793</ele>
        <time>2021-11-13T12:09:14Z</time>
      </trkpt>
      <trkpt lat="44.87958" lon="5.87883">
        <ele>1417.032</ele>
        <time>2021-11-13T12:09:15Z</time>
      </trkpt>
      <trkpt lat="44.87958" lon="5.87883">
        <ele>1417.032</ele>
        <time>2021-11-13T12:09:15Z</time>
      </trkpt>
      <trkpt lat="44.87958" lon="5.87884">
        <ele>1416.935</ele>
        <time>2021-11-13T12:09:16Z</time>
      </trkpt>
      <trkpt lat="44.87958" lon="5.87886">
        <ele>1416.38</ele>
        <time>2021-11-13T12:09:18Z</time>
      </trkpt>
      <trkpt lat="44.87958" lon="5.87887">
        <ele>1416.507</ele>
        <time>2021-11-13T12:09:19Z</time>
      </trkpt>
      <trkpt lat="44.87958" lon="5.87891">
        <ele>1415.694</ele>
        <time>2021-11-13T12:09:22Z</time>
      </trkpt>
      <trkpt lat="44.87958" lon="5.87893">
        <ele>1415.782</ele>
        <time>2021-11-13T12:09:24Z</time>
      </trkpt>
      <trkpt lat="44.87958" lon="5.87895">
        <ele>1416.712</ele>
        <time>2021-11-13T12:09:27Z</time>
      </trkpt>
      <trkpt lat="44.87956" lon="5.879">
        <ele>1418.435</ele>
        <time>2021-11-13T12:09:32Z</time>
      </trkpt>
      <trkpt lat="44.87956" lon="5.87901">
        <ele>1418.176</ele>
        <time>2021-11-13T12:09:33Z</time>
      </trkpt>
      <trkpt lat="44.87955" lon="5.87902">
        <ele>1418.826</ele>
        <time>2021-11-13T12:09:34Z</time>
      </trkpt>
      <trkpt lat="44.87953" lon="5.87914">
        <ele>1420.135</ele>
        <time>2021-11-13T12:09:43Z</time>
      </trkpt>
      <trkpt lat="44.87953" lon="5.87916">
        <ele>1420.457</ele>
        <time>2021-11-13T12:09:44Z</time>
      </trkpt>
      <trkpt lat="44.87955" lon="5.87918">
        <ele>1420.969</ele>
        <time>2021-11-13T12:09:48Z</time>
      </trkpt>
      <trkpt lat="44.87958" lon="5.87926">
        <ele>1423.388</ele>
        <time>2021-11-13T12:09:55Z</time>
      </trkpt>
      <trkpt lat="44.87958" lon="5.87926">
        <ele>1422.219</ele>
        <time>2021-11-13T12:09:56Z</time>
      </trkpt>
      <trkpt lat="44.87958" lon="5.87926">
        <ele>1422.219</ele>
        <time>2021-11-13T12:09:56Z</time>
      </trkpt>
      <trkpt lat="44.87959" lon="5.87927">
        <ele>1422.914</ele>
        <time>2021-11-13T12:09:57Z</time>
      </trkpt>
      <trkpt lat="44.87958" lon="5.87928">
        <ele>1423.644</ele>
        <time>2021-11-13T12:09:59Z</time>
      </trkpt>
      <trkpt lat="44.87959" lon="5.87928">
        <ele>1423.56</ele>
        <time>2021-11-13T12:10:00Z</time>
      </trkpt>
      <trkpt lat="44.87959" lon="5.87939">
        <ele>1426.197</ele>
        <time>2021-11-13T12:10:09Z</time>
      </trkpt>
      <trkpt lat="44.87959" lon="5.87942">
        <ele>1427.174</ele>
        <time>2021-11-13T12:10:12Z</time>
      </trkpt>
      <trkpt lat="44.87957" lon="5.87944">
        <ele>1426.802</ele>
        <time>2021-11-13T12:10:15Z</time>
      </trkpt>
      <trkpt lat="44.87955" lon="5.87949">
        <ele>1427.572</ele>
        <time>2021-11-13T12:10:18Z</time>
      </trkpt>
      <trkpt lat="44.87947" lon="5.87962">
        <ele>1427.772</ele>
        <time>2021-11-13T12:10:31Z</time>
      </trkpt>
      <trkpt lat="44.87943" lon="5.87968">
        <ele>1428.414</ele>
        <time>2021-11-13T12:10:37Z</time>
      </trkpt>
      <trkpt lat="44.87943" lon="5.87968">
        <ele>1428.327</ele>
        <time>2021-11-13T12:10:38Z</time>
      </trkpt>
      <trkpt lat="44.87942" lon="5.87969">
        <ele>1428.918</ele>
        <time>2021-11-13T12:10:41Z</time>
      </trkpt>
      <trkpt lat="44.87935" lon="5.87979">
        <ele>1430.033</ele>
        <time>2021-11-13T12:10:56Z</time>
      </trkpt>
      <trkpt lat="44.87933" lon="5.87984">
        <ele>1430.878</ele>
        <time>2021-11-13T12:11:01Z</time>
      </trkpt>
      <trkpt lat="44.87933" lon="5.87985">
        <ele>1431.221</ele>
        <time>2021-11-13T12:11:03Z</time>
      </trkpt>
      <trkpt lat="44.87933" lon="5.87986">
        <ele>1431.029</ele>
        <time>2021-11-13T12:11:04Z</time>
      </trkpt>
      <trkpt lat="44.87933" lon="5.87987">
        <ele>1430.989</ele>
        <time>2021-11-13T12:11:05Z</time>
      </trkpt>
      <trkpt lat="44.87932" lon="5.87989">
        <ele>1430.436</ele>
        <time>2021-11-13T12:11:07Z</time>
      </trkpt>
      <trkpt lat="44.87931" lon="5.87992">
        <ele>1431.077</ele>
        <time>2021-11-13T12:11:11Z</time>
      </trkpt>
      <trkpt lat="44.8793" lon="5.87993">
        <ele>1430.771</ele>
        <time>2021-11-13T12:11:12Z</time>
      </trkpt>
      <trkpt lat="44.87929" lon="5.87996">
        <ele>1430.349</ele>
        <time>2021-11-13T12:11:15Z</time>
      </trkpt>
      <trkpt lat="44.87926" lon="5.88">
        <ele>1430.886</ele>
        <time>2021-11-13T12:11:20Z</time>
      </trkpt>
      <trkpt lat="44.87926" lon="5.88002">
        <ele>1430.885</ele>
        <time>2021-11-13T12:11:21Z</time>
      </trkpt>
      <trkpt lat="44.87923" lon="5.88011">
        <ele>1431.649</ele>
        <time>2021-11-13T12:11:27Z</time>
      </trkpt>
      <trkpt lat="44.87922" lon="5.88015">
        <ele>1432.43</ele>
        <time>2021-11-13T12:11:30Z</time>
      </trkpt>
      <trkpt lat="44.87918" lon="5.88023">
        <ele>1434.042</ele>
        <time>2021-11-13T12:11:36Z</time>
      </trkpt>
      <trkpt lat="44.87917" lon="5.88032">
        <ele>1434.389</ele>
        <time>2021-11-13T12:11:47Z</time>
      </trkpt>
      <trkpt lat="44.87917" lon="5.88033">
        <ele>1434.217</ele>
        <time>2021-11-13T12:11:48Z</time>
      </trkpt>
      <trkpt lat="44.87916" lon="5.88037">
        <ele>1434.985</ele>
        <time>2021-11-13T12:11:51Z</time>
      </trkpt>
      <trkpt lat="44.87913" lon="5.8804">
        <ele>1436.348</ele>
        <time>2021-11-13T12:11:54Z</time>
      </trkpt>
      <trkpt lat="44.87912" lon="5.88043">
        <ele>1436.832</ele>
        <time>2021-11-13T12:11:58Z</time>
      </trkpt>
      <trkpt lat="44.87911" lon="5.88044">
        <ele>1437.05</ele>
        <time>2021-11-13T12:11:59Z</time>
      </trkpt>
      <trkpt lat="44.87911" lon="5.88046">
        <ele>1437.081</ele>
        <time>2021-11-13T12:12:00Z</time>
      </trkpt>
      <trkpt lat="44.87912" lon="5.88047">
        <ele>1437.546</ele>
        <time>2021-11-13T12:12:01Z</time>
      </trkpt>
      <trkpt lat="44.87913" lon="5.8805">
        <ele>1437.115</ele>
        <time>2021-11-13T12:12:04Z</time>
      </trkpt>
      <trkpt lat="44.87914" lon="5.88054">
        <ele>1437.883</ele>
        <time>2021-11-13T12:12:07Z</time>
      </trkpt>
      <trkpt lat="44.87916" lon="5.88057">
        <ele>1438.051</ele>
        <time>2021-11-13T12:12:10Z</time>
      </trkpt>
      <trkpt lat="44.8792" lon="5.88061">
        <ele>1438.055</ele>
        <time>2021-11-13T12:12:14Z</time>
      </trkpt>
      <trkpt lat="44.87923" lon="5.88066">
        <ele>1438.906</ele>
        <time>2021-11-13T12:12:21Z</time>
      </trkpt>
      <trkpt lat="44.87921" lon="5.88069">
        <ele>1440.391</ele>
        <time>2021-11-13T12:12:24Z</time>
      </trkpt>
      <trkpt lat="44.87921" lon="5.88074">
        <ele>1442.309</ele>
        <time>2021-11-13T12:12:28Z</time>
      </trkpt>
      <trkpt lat="44.87919" lon="5.88077">
        <ele>1442.057</ele>
        <time>2021-11-13T12:12:32Z</time>
      </trkpt>
      <trkpt lat="44.87919" lon="5.88078">
        <ele>1442.084</ele>
        <time>2021-11-13T12:12:33Z</time>
      </trkpt>
      <trkpt lat="44.87921" lon="5.88088">
        <ele>1442.241</ele>
        <time>2021-11-13T12:12:44Z</time>
      </trkpt>
      <trkpt lat="44.87923" lon="5.88092">
        <ele>1442.543</ele>
        <time>2021-11-13T12:12:48Z</time>
      </trkpt>
      <trkpt lat="44.87925" lon="5.88097">
        <ele>1443.035</ele>
        <time>2021-11-13T12:12:52Z</time>
      </trkpt>
      <trkpt lat="44.87925" lon="5.88098">
        <ele>1443.373</ele>
        <time>2021-11-13T12:12:53Z</time>
      </trkpt>
      <trkpt lat="44.87925" lon="5.88099">
        <ele>1443.297</ele>
        <time>2021-11-13T12:12:54Z</time>
      </trkpt>
      <trkpt lat="44.87925" lon="5.881">
        <ele>1443.747</ele>
        <time>2021-11-13T12:12:55Z</time>
      </trkpt>
      <trkpt lat="44.87925" lon="5.88112">
        <ele>1444.337</ele>
        <time>2021-11-13T12:13:06Z</time>
      </trkpt>
      <trkpt lat="44.8793" lon="5.88127">
        <ele>1446.412</ele>
        <time>2021-11-13T12:13:19Z</time>
      </trkpt>
      <trkpt lat="44.8793" lon="5.88127">
        <ele>1446.975</ele>
        <time>2021-11-13T12:13:20Z</time>
      </trkpt>
      <trkpt lat="44.8793" lon="5.8813">
        <ele>1447.607</ele>
        <time>2021-11-13T12:13:22Z</time>
      </trkpt>
      <trkpt lat="44.87932" lon="5.88146">
        <ele>1446.851</ele>
        <time>2021-11-13T12:13:37Z</time>
      </trkpt>
      <trkpt lat="44.87932" lon="5.88147">
        <ele>1446.167</ele>
        <time>2021-11-13T12:13:38Z</time>
      </trkpt>
      <trkpt lat="44.87931" lon="5.88152">
        <ele>1445.775</ele>
        <time>2021-11-13T12:13:42Z</time>
      </trkpt>
      <trkpt lat="44.87928" lon="5.88168">
        <ele>1446.335</ele>
        <time>2021-11-13T12:13:54Z</time>
      </trkpt>
      <trkpt lat="44.87927" lon="5.88172">
        <ele>1446.039</ele>
        <time>2021-11-13T12:13:57Z</time>
      </trkpt>
      <trkpt lat="44.87926" lon="5.88173">
        <ele>1446.303</ele>
        <time>2021-11-13T12:13:58Z</time>
      </trkpt>
      <trkpt lat="44.87926" lon="5.88178">
        <ele>1448.259</ele>
        <time>2021-11-13T12:14:02Z</time>
      </trkpt>
      <trkpt lat="44.87923" lon="5.88199">
        <ele>1451.352</ele>
        <time>2021-11-13T12:14:15Z</time>
      </trkpt>
      <trkpt lat="44.87924" lon="5.88223">
        <ele>1450.186</ele>
        <time>2021-11-13T12:14:33Z</time>
      </trkpt>
      <trkpt lat="44.87924" lon="5.88224">
        <ele>1450.222</ele>
        <time>2021-11-13T12:14:35Z</time>
      </trkpt>
      <trkpt lat="44.87924" lon="5.88225">
        <ele>1450.497</ele>
        <time>2021-11-13T12:14:36Z</time>
      </trkpt>
      <trkpt lat="44.87923" lon="5.8824">
        <ele>1451.468</ele>
        <time>2021-11-13T12:14:48Z</time>
      </trkpt>
      <trkpt lat="44.87922" lon="5.88245">
        <ele>1451.211</ele>
        <time>2021-11-13T12:14:51Z</time>
      </trkpt>
      <trkpt lat="44.8792" lon="5.88257">
        <ele>1453.17</ele>
        <time>2021-11-13T12:14:59Z</time>
      </trkpt>
      <trkpt lat="44.87919" lon="5.88259">
        <ele>1453.677</ele>
        <time>2021-11-13T12:15:00Z</time>
      </trkpt>
      <trkpt lat="44.87918" lon="5.88263">
        <ele>1453.264</ele>
        <time>2021-11-13T12:15:03Z</time>
      </trkpt>
      <trkpt lat="44.87916" lon="5.88272">
        <ele>1455.592</ele>
        <time>2021-11-13T12:15:09Z</time>
      </trkpt>
      <trkpt lat="44.8791" lon="5.88305">
        <ele>1457.77</ele>
        <time>2021-11-13T12:15:38Z</time>
      </trkpt>
      <trkpt lat="44.8791" lon="5.88309">
        <ele>1458.9</ele>
        <time>2021-11-13T12:15:41Z</time>
      </trkpt>
      <trkpt lat="44.87909" lon="5.88314">
        <ele>1459.003</ele>
        <time>2021-11-13T12:15:45Z</time>
      </trkpt>
      <trkpt lat="44.8791" lon="5.88316">
        <ele>1459.819</ele>
        <time>2021-11-13T12:15:47Z</time>
      </trkpt>
      <trkpt lat="44.8791" lon="5.8832">
        <ele>1460.03</ele>
        <time>2021-11-13T12:15:50Z</time>
      </trkpt>
      <trkpt lat="44.87909" lon="5.88321">
        <ele>1460.134</ele>
        <time>2021-11-13T12:15:51Z</time>
      </trkpt>
      <trkpt lat="44.87906" lon="5.88325">
        <ele>1460.139</ele>
        <time>2021-11-13T12:15:55Z</time>
      </trkpt>
      <trkpt lat="44.87906" lon="5.88326">
        <ele>1460.306</ele>
        <time>2021-11-13T12:15:56Z</time>
      </trkpt>
      <trkpt lat="44.87901" lon="5.88338">
        <ele>1462.637</ele>
        <time>2021-11-13T12:16:06Z</time>
      </trkpt>
      <trkpt lat="44.87897" lon="5.88346">
        <ele>1463.001</ele>
        <time>2021-11-13T12:16:12Z</time>
      </trkpt>
      <trkpt lat="44.87894" lon="5.88356">
        <ele>1465.07</ele>
        <time>2021-11-13T12:16:19Z</time>
      </trkpt>
      <trkpt lat="44.87891" lon="5.88363">
        <ele>1465.667</ele>
        <time>2021-11-13T12:16:25Z</time>
      </trkpt>
      <trkpt lat="44.87891" lon="5.88368">
        <ele>1467.577</ele>
        <time>2021-11-13T12:16:30Z</time>
      </trkpt>
      <trkpt lat="44.87888" lon="5.88374">
        <ele>1468.933</ele>
        <time>2021-11-13T12:16:35Z</time>
      </trkpt>
      <trkpt lat="44.87889" lon="5.88378">
        <ele>1468.968</ele>
        <time>2021-11-13T12:16:38Z</time>
      </trkpt>
      <trkpt lat="44.8789" lon="5.88387">
        <ele>1469.404</ele>
        <time>2021-11-13T12:16:44Z</time>
      </trkpt>
      <trkpt lat="44.87896" lon="5.88401">
        <ele>1469.141</ele>
        <time>2021-11-13T12:16:54Z</time>
      </trkpt>
      <trkpt lat="44.87896" lon="5.88405">
        <ele>1468.919</ele>
        <time>2021-11-13T12:16:57Z</time>
      </trkpt>
      <trkpt lat="44.87897" lon="5.8842">
        <ele>1466.706</ele>
        <time>2021-11-13T12:17:07Z</time>
      </trkpt>
      <trkpt lat="44.87898" lon="5.88429">
        <ele>1465.67</ele>
        <time>2021-11-13T12:17:16Z</time>
      </trkpt>
      <trkpt lat="44.87898" lon="5.88433">
        <ele>1467.843</ele>
        <time>2021-11-13T12:17:20Z</time>
      </trkpt>
      <trkpt lat="44.87895" lon="5.88455">
        <ele>1468.1</ele>
        <time>2021-11-13T12:17:39Z</time>
      </trkpt>
      <trkpt lat="44.87894" lon="5.88466">
        <ele>1470.141</ele>
        <time>2021-11-13T12:17:47Z</time>
      </trkpt>
      <trkpt lat="44.87894" lon="5.88471">
        <ele>1470.544</ele>
        <time>2021-11-13T12:17:50Z</time>
      </trkpt>
      <trkpt lat="44.87896" lon="5.88479">
        <ele>1473.317</ele>
        <time>2021-11-13T12:17:58Z</time>
      </trkpt>
      <trkpt lat="44.87897" lon="5.88496">
        <ele>1473.525</ele>
        <time>2021-11-13T12:18:12Z</time>
      </trkpt>
      <trkpt lat="44.87899" lon="5.88501">
        <ele>1473.573</ele>
        <time>2021-11-13T12:18:16Z</time>
      </trkpt>
      <trkpt lat="44.87898" lon="5.88508">
        <ele>1474.04</ele>
        <time>2021-11-13T12:18:20Z</time>
      </trkpt>
      <trkpt lat="44.87896" lon="5.88515">
        <ele>1475.374</ele>
        <time>2021-11-13T12:18:25Z</time>
      </trkpt>
      <trkpt lat="44.87897" lon="5.88517">
        <ele>1476.294</ele>
        <time>2021-11-13T12:18:26Z</time>
      </trkpt>
      <trkpt lat="44.87897" lon="5.88521">
        <ele>1477.06</ele>
        <time>2021-11-13T12:18:28Z</time>
      </trkpt>
      <trkpt lat="44.87894" lon="5.88532">
        <ele>1478.752</ele>
        <time>2021-11-13T12:18:36Z</time>
      </trkpt>
      <trkpt lat="44.87891" lon="5.88535">
        <ele>1479.266</ele>
        <time>2021-11-13T12:18:39Z</time>
      </trkpt>
      <trkpt lat="44.87891" lon="5.88539">
        <ele>1479.806</ele>
        <time>2021-11-13T12:18:43Z</time>
      </trkpt>
      <trkpt lat="44.87891" lon="5.88543">
        <ele>1479.724</ele>
        <time>2021-11-13T12:18:47Z</time>
      </trkpt>
      <trkpt lat="44.87891" lon="5.88553">
        <ele>1480.749</ele>
        <time>2021-11-13T12:18:53Z</time>
      </trkpt>
      <trkpt lat="44.8789" lon="5.88558">
        <ele>1481.269</ele>
        <time>2021-11-13T12:18:56Z</time>
      </trkpt>
      <trkpt lat="44.8789" lon="5.88562">
        <ele>1483.164</ele>
        <time>2021-11-13T12:18:59Z</time>
      </trkpt>
      <trkpt lat="44.8789" lon="5.8857">
        <ele>1484.957</ele>
        <time>2021-11-13T12:19:05Z</time>
      </trkpt>
      <trkpt lat="44.87893" lon="5.8857">
        <ele>1484.338</ele>
        <time>2021-11-13T12:19:08Z</time>
      </trkpt>
      <trkpt lat="44.87893" lon="5.8857">
        <ele>1483.011</ele>
        <time>2021-11-13T12:19:09Z</time>
      </trkpt>
      <trkpt lat="44.87891" lon="5.88572">
        <ele>1481.891</ele>
        <time>2021-11-13T12:19:13Z</time>
      </trkpt>
      <trkpt lat="44.87888" lon="5.88575">
        <ele>1482.125</ele>
        <time>2021-11-13T12:19:19Z</time>
      </trkpt>
      <trkpt lat="44.87888" lon="5.88576">
        <ele>1481.538</ele>
        <time>2021-11-13T12:19:20Z</time>
      </trkpt>
      <trkpt lat="44.87889" lon="5.8858">
        <ele>1482.083</ele>
        <time>2021-11-13T12:19:23Z</time>
      </trkpt>
      <trkpt lat="44.87889" lon="5.88581">
        <ele>1483.217</ele>
        <time>2021-11-13T12:19:25Z</time>
      </trkpt>
      <trkpt lat="44.87889" lon="5.88582">
        <ele>1483.133</ele>
        <time>2021-11-13T12:19:26Z</time>
      </trkpt>
      <trkpt lat="44.87893" lon="5.88587">
        <ele>1483.056</ele>
        <time>2021-11-13T12:19:31Z</time>
      </trkpt>
      <trkpt lat="44.87894" lon="5.88588">
        <ele>1482.971</ele>
        <time>2021-11-13T12:19:33Z</time>
      </trkpt>
      <trkpt lat="44.87899" lon="5.88594">
        <ele>1485.024</ele>
        <time>2021-11-13T12:19:40Z</time>
      </trkpt>
      <trkpt lat="44.87899" lon="5.88594">
        <ele>1485.005</ele>
        <time>2021-11-13T12:19:41Z</time>
      </trkpt>
      <trkpt lat="44.879" lon="5.88595">
        <ele>1483.953</ele>
        <time>2021-11-13T12:19:42Z</time>
      </trkpt>
      <trkpt lat="44.87901" lon="5.886">
        <ele>1485.621</ele>
        <time>2021-11-13T12:19:48Z</time>
      </trkpt>
      <trkpt lat="44.879" lon="5.88614">
        <ele>1487.296</ele>
        <time>2021-11-13T12:20:03Z</time>
      </trkpt>
      <trkpt lat="44.87901" lon="5.88615">
        <ele>1487.177</ele>
        <time>2021-11-13T12:20:06Z</time>
      </trkpt>
      <trkpt lat="44.87901" lon="5.88616">
        <ele>1487.412</ele>
        <time>2021-11-13T12:20:07Z</time>
      </trkpt>
      <trkpt lat="44.87902" lon="5.88616">
        <ele>1487.388</ele>
        <time>2021-11-13T12:20:08Z</time>
      </trkpt>
      <trkpt lat="44.87902" lon="5.88616">
        <ele>1488.246</ele>
        <time>2021-11-13T12:20:10Z</time>
      </trkpt>
      <trkpt lat="44.87902" lon="5.88616">
        <ele>1488.87</ele>
        <time>2021-11-13T12:20:12Z</time>
      </trkpt>
      <trkpt lat="44.87903" lon="5.88616">
        <ele>1488.763</ele>
        <time>2021-11-13T12:20:13Z</time>
      </trkpt>
      <trkpt lat="44.87903" lon="5.88616">
        <ele>1488.827</ele>
        <time>2021-11-13T12:20:14Z</time>
      </trkpt>
      <trkpt lat="44.87903" lon="5.88616">
        <ele>1488.723</ele>
        <time>2021-11-13T12:20:20Z</time>
      </trkpt>
      <trkpt lat="44.87905" lon="5.88617">
        <ele>1489.213</ele>
        <time>2021-11-13T12:20:21Z</time>
      </trkpt>
      <trkpt lat="44.8791" lon="5.88619">
        <ele>1489.3</ele>
        <time>2021-11-13T12:20:28Z</time>
      </trkpt>
      <trkpt lat="44.87914" lon="5.88619">
        <ele>1490.365</ele>
        <time>2021-11-13T12:20:32Z</time>
      </trkpt>
      <trkpt lat="44.87918" lon="5.88618">
        <ele>1491.056</ele>
        <time>2021-11-13T12:20:37Z</time>
      </trkpt>
      <trkpt lat="44.87921" lon="5.88617">
        <ele>1490.676</ele>
        <time>2021-11-13T12:20:41Z</time>
      </trkpt>
      <trkpt lat="44.87921" lon="5.8862">
        <ele>1489.814</ele>
        <time>2021-11-13T12:20:45Z</time>
      </trkpt>
      <trkpt lat="44.87921" lon="5.8862">
        <ele>1490.016</ele>
        <time>2021-11-13T12:20:47Z</time>
      </trkpt>
      <trkpt lat="44.87921" lon="5.8862">
        <ele>1490.291</ele>
        <time>2021-11-13T12:20:48Z</time>
      </trkpt>
      <trkpt lat="44.87921" lon="5.8862">
        <ele>1490.725</ele>
        <time>2021-11-13T12:20:58Z</time>
      </trkpt>
      <trkpt lat="44.87923" lon="5.88623">
        <ele>1490.722</ele>
        <time>2021-11-13T12:20:59Z</time>
      </trkpt>
      <trkpt lat="44.87923" lon="5.88622">
        <ele>1491.153</ele>
        <time>2021-11-13T12:21:01Z</time>
      </trkpt>
      <trkpt lat="44.87924" lon="5.88622">
        <ele>1491.551</ele>
        <time>2021-11-13T12:21:02Z</time>
      </trkpt>
      <trkpt lat="44.87924" lon="5.88622">
        <ele>1491.147</ele>
        <time>2021-11-13T12:21:03Z</time>
      </trkpt>
      <trkpt lat="44.8793" lon="5.8862">
        <ele>1492.75</ele>
        <time>2021-11-13T12:21:07Z</time>
      </trkpt>
      <trkpt lat="44.8793" lon="5.88618">
        <ele>1491.135</ele>
        <time>2021-11-13T12:21:09Z</time>
      </trkpt>
      <trkpt lat="44.8793" lon="5.88618">
        <ele>1492.242</ele>
        <time>2021-11-13T12:21:13Z</time>
      </trkpt>
      <trkpt lat="44.87931" lon="5.88619">
        <ele>1493.06</ele>
        <time>2021-11-13T12:21:14Z</time>
      </trkpt>
      <trkpt lat="44.87932" lon="5.88621">
        <ele>1494.699</ele>
        <time>2021-11-13T12:21:16Z</time>
      </trkpt>
      <trkpt lat="44.87935" lon="5.88624">
        <ele>1496.98</ele>
        <time>2021-11-13T12:21:20Z</time>
      </trkpt>
      <trkpt lat="44.87936" lon="5.88624">
        <ele>1497.295</ele>
        <time>2021-11-13T12:21:21Z</time>
      </trkpt>
      <trkpt lat="44.87936" lon="5.88624">
        <ele>1497.295</ele>
        <time>2021-11-13T12:21:21Z</time>
      </trkpt>
      <trkpt lat="44.87936" lon="5.88624">
        <ele>1497.256</ele>
        <time>2021-11-13T12:21:22Z</time>
      </trkpt>
      <trkpt lat="44.87936" lon="5.88624">
        <ele>1497.256</ele>
        <time>2021-11-13T12:21:22Z</time>
      </trkpt>
      <trkpt lat="44.87937" lon="5.88624">
        <ele>1497.439</ele>
        <time>2021-11-13T12:21:23Z</time>
      </trkpt>
      <trkpt lat="44.87937" lon="5.88624">
        <ele>1497.439</ele>
        <time>2021-11-13T12:21:23Z</time>
      </trkpt>
      <trkpt lat="44.87937" lon="5.88624">
        <ele>1498.139</ele>
        <time>2021-11-13T12:21:24Z</time>
      </trkpt>
      <trkpt lat="44.87937" lon="5.88624">
        <ele>1497.68</ele>
        <time>2021-11-13T12:21:26Z</time>
      </trkpt>
      <trkpt lat="44.87938" lon="5.88625">
        <ele>1498.136</ele>
        <time>2021-11-13T12:21:27Z</time>
      </trkpt>
      <trkpt lat="44.87938" lon="5.88625">
        <ele>1498.284</ele>
        <time>2021-11-13T12:21:28Z</time>
      </trkpt>
      <trkpt lat="44.87938" lon="5.88625">
        <ele>1498.616</ele>
        <time>2021-11-13T12:21:30Z</time>
      </trkpt>
      <trkpt lat="44.87938" lon="5.88625">
        <ele>1498.635</ele>
        <time>2021-11-13T12:21:31Z</time>
      </trkpt>
      <trkpt lat="44.87938" lon="5.88625">
        <ele>1498.687</ele>
        <time>2021-11-13T12:22:05Z</time>
      </trkpt>
      <trkpt lat="44.87938" lon="5.88625">
        <ele>1498.314</ele>
        <time>2021-11-13T12:22:06Z</time>
      </trkpt>
      <trkpt lat="44.87938" lon="5.88625">
        <ele>1498.417</ele>
        <time>2021-11-13T12:22:07Z</time>
      </trkpt>
      <trkpt lat="44.87938" lon="5.88625">
        <ele>1498.424</ele>
        <time>2021-11-13T12:22:08Z</time>
      </trkpt>
      <trkpt lat="44.87938" lon="5.88625">
        <ele>1498.065</ele>
        <time>2021-11-13T12:22:09Z</time>
      </trkpt>
      <trkpt lat="44.87939" lon="5.88625">
        <ele>1497.661</ele>
        <time>2021-11-13T12:22:11Z</time>
      </trkpt>
      <trkpt lat="44.87939" lon="5.88626">
        <ele>1498.134</ele>
        <time>2021-11-13T12:22:12Z</time>
      </trkpt>
      <trkpt lat="44.87939" lon="5.88627">
        <ele>1498.582</ele>
        <time>2021-11-13T12:22:15Z</time>
      </trkpt>
      <trkpt lat="44.87939" lon="5.88627">
        <ele>1498.242</ele>
        <time>2021-11-13T12:22:35Z</time>
      </trkpt>
      <trkpt lat="44.87939" lon="5.88627">
        <ele>1500.164</ele>
        <time>2021-11-13T12:22:36Z</time>
      </trkpt>
      <trkpt lat="44.87939" lon="5.88627">
        <ele>1500.049</ele>
        <time>2021-11-13T12:22:37Z</time>
      </trkpt>
      <trkpt lat="44.87939" lon="5.88627">
        <ele>1500.049</ele>
        <time>2021-11-13T12:22:37Z</time>
      </trkpt>
      <trkpt lat="44.8794" lon="5.88628">
        <ele>1501.854</ele>
        <time>2021-11-13T12:22:38Z</time>
      </trkpt>
      <trkpt lat="44.87941" lon="5.88628">
        <ele>1500.472</ele>
        <time>2021-11-13T12:22:41Z</time>
      </trkpt>
      <trkpt lat="44.87941" lon="5.88628">
        <ele>1500.472</ele>
        <time>2021-11-13T12:22:41Z</time>
      </trkpt>
      <trkpt lat="44.87941" lon="5.88629">
        <ele>1500.55</ele>
        <time>2021-11-13T12:22:42Z</time>
      </trkpt>
      <trkpt lat="44.87942" lon="5.8863">
        <ele>1501.75</ele>
        <time>2021-11-13T12:22:45Z</time>
      </trkpt>
      <trkpt lat="44.87942" lon="5.88631">
        <ele>1501.6</ele>
        <time>2021-11-13T12:22:46Z</time>
      </trkpt>
      <trkpt lat="44.87942" lon="5.8863">
        <ele>1501.336</ele>
        <time>2021-11-13T12:22:47Z</time>
      </trkpt>
      <trkpt lat="44.87942" lon="5.88629">
        <ele>1501.946</ele>
        <time>2021-11-13T12:22:48Z</time>
      </trkpt>
      <trkpt lat="44.87941" lon="5.88628">
        <ele>1500.217</ele>
        <time>2021-11-13T12:22:49Z</time>
      </trkpt>
      <trkpt lat="44.87941" lon="5.88628">
        <ele>1500.133</ele>
        <time>2021-11-13T12:22:50Z</time>
      </trkpt>
      <trkpt lat="44.87941" lon="5.88628">
        <ele>1499.928</ele>
        <time>2021-11-13T12:24:53Z</time>
      </trkpt>
      <trkpt lat="44.87939" lon="5.88624">
        <ele>1499.978</ele>
        <time>2021-11-13T12:24:54Z</time>
      </trkpt>
      <trkpt lat="44.87939" lon="5.88624">
        <ele>1499.958</ele>
        <time>2021-11-13T12:24:55Z</time>
      </trkpt>
      <trkpt lat="44.87939" lon="5.88624">
        <ele>1499.845</ele>
        <time>2021-11-13T12:26:02Z</time>
      </trkpt>
      <trkpt lat="44.87939" lon="5.88625">
        <ele>1500.104</ele>
        <time>2021-11-13T12:26:03Z</time>
      </trkpt>
      <trkpt lat="44.87933" lon="5.88619">
        <ele>1500.353</ele>
        <time>2021-11-13T12:26:13Z</time>
      </trkpt>
      <trkpt lat="44.87934" lon="5.88618">
        <ele>1499.607</ele>
        <time>2021-11-13T12:26:15Z</time>
      </trkpt>
      <trkpt lat="44.87934" lon="5.88618">
        <ele>1499.104</ele>
        <time>2021-11-13T12:26:16Z</time>
      </trkpt>
      <trkpt lat="44.87934" lon="5.88618">
        <ele>1498.418</ele>
        <time>2021-11-13T12:26:18Z</time>
      </trkpt>
      <trkpt lat="44.87934" lon="5.88618">
        <ele>1497.628</ele>
        <time>2021-11-13T12:26:19Z</time>
      </trkpt>
      <trkpt lat="44.87934" lon="5.88618">
        <ele>1497.628</ele>
        <time>2021-11-13T12:26:19Z</time>
      </trkpt>
      <trkpt lat="44.87934" lon="5.88618">
        <ele>1497.361</ele>
        <time>2021-11-13T12:26:20Z</time>
      </trkpt>
      <trkpt lat="44.87934" lon="5.88618">
        <ele>1497.375</ele>
        <time>2021-11-13T12:26:58Z</time>
      </trkpt>
      <trkpt lat="44.87933" lon="5.88618">
        <ele>1497.1</ele>
        <time>2021-11-13T12:26:59Z</time>
      </trkpt>
      <trkpt lat="44.87933" lon="5.88621">
        <ele>1497.869</ele>
        <time>2021-11-13T12:27:03Z</time>
      </trkpt>
      <trkpt lat="44.87933" lon="5.88621">
        <ele>1497.688</ele>
        <time>2021-11-13T12:27:04Z</time>
      </trkpt>
      <trkpt lat="44.87933" lon="5.88621">
        <ele>1498.687</ele>
        <time>2021-11-13T12:27:13Z</time>
      </trkpt>
      <trkpt lat="44.87934" lon="5.88621">
        <ele>1500.362</ele>
        <time>2021-11-13T12:27:14Z</time>
      </trkpt>
      <trkpt lat="44.87934" lon="5.88622">
        <ele>1500.986</ele>
        <time>2021-11-13T12:27:16Z</time>
      </trkpt>
      <trkpt lat="44.87934" lon="5.88622">
        <ele>1500.947</ele>
        <time>2021-11-13T12:27:17Z</time>
      </trkpt>
      <trkpt lat="44.87934" lon="5.88622">
        <ele>1500.947</ele>
        <time>2021-11-13T12:27:17Z</time>
      </trkpt>
      <trkpt lat="44.87935" lon="5.88622">
        <ele>1501.029</ele>
        <time>2021-11-13T12:27:18Z</time>
      </trkpt>
      <trkpt lat="44.87938" lon="5.88627">
        <ele>1500.736</ele>
        <time>2021-11-13T12:27:26Z</time>
      </trkpt>
      <trkpt lat="44.87938" lon="5.88627">
        <ele>1500.41</ele>
        <time>2021-11-13T12:27:49Z</time>
      </trkpt>
      <trkpt lat="44.8794" lon="5.88626">
        <ele>1500.877</ele>
        <time>2021-11-13T12:27:50Z</time>
      </trkpt>
      <trkpt lat="44.8794" lon="5.88626">
        <ele>1500.888</ele>
        <time>2021-11-13T12:27:51Z</time>
      </trkpt>
      <trkpt lat="44.8794" lon="5.88626">
        <ele>1500.504</ele>
        <time>2021-11-13T12:29:16Z</time>
      </trkpt>
      <trkpt lat="44.8794" lon="5.88626">
        <ele>1500.396</ele>
        <time>2021-11-13T12:29:17Z</time>
      </trkpt>
      <trkpt lat="44.8794" lon="5.88626">
        <ele>1500.284</ele>
        <time>2021-11-13T12:29:18Z</time>
      </trkpt>
      <trkpt lat="44.8794" lon="5.88626">
        <ele>1499.869</ele>
        <time>2021-11-13T12:29:24Z</time>
      </trkpt>
      <trkpt lat="44.87941" lon="5.88626">
        <ele>1500.479</ele>
        <time>2021-11-13T12:29:25Z</time>
      </trkpt>
      <trkpt lat="44.87941" lon="5.88625">
        <ele>1500.484</ele>
        <time>2021-11-13T12:29:27Z</time>
      </trkpt>
      <trkpt lat="44.87941" lon="5.88625">
        <ele>1500.512</ele>
        <time>2021-11-13T12:29:52Z</time>
      </trkpt>
      <trkpt lat="44.87941" lon="5.88623">
        <ele>1500.543</ele>
        <time>2021-11-13T12:29:53Z</time>
      </trkpt>
      <trkpt lat="44.87941" lon="5.88622">
        <ele>1500.303</ele>
        <time>2021-11-13T12:29:56Z</time>
      </trkpt>
      <trkpt lat="44.87941" lon="5.88622">
        <ele>1500.632</ele>
        <time>2021-11-13T12:29:57Z</time>
      </trkpt>
      <trkpt lat="44.87941" lon="5.88622">
        <ele>1500.511</ele>
        <time>2021-11-13T12:30:52Z</time>
      </trkpt>
      <trkpt lat="44.87942" lon="5.88623">
        <ele>1499.893</ele>
        <time>2021-11-13T12:30:53Z</time>
      </trkpt>
      <trkpt lat="44.87942" lon="5.88623">
        <ele>1499.892</ele>
        <time>2021-11-13T12:30:54Z</time>
      </trkpt>
      <trkpt lat="44.87942" lon="5.88623">
        <ele>1500.813</ele>
        <time>2021-11-13T12:31:51Z</time>
      </trkpt>
      <trkpt lat="44.8794" lon="5.88623">
        <ele>1501.798</ele>
        <time>2021-11-13T12:31:52Z</time>
      </trkpt>
      <trkpt lat="44.8794" lon="5.88623">
        <ele>1501.887</ele>
        <time>2021-11-13T12:31:53Z</time>
      </trkpt>
      <trkpt lat="44.8794" lon="5.88623">
        <ele>1502.117</ele>
        <time>2021-11-13T12:32:31Z</time>
      </trkpt>
      <trkpt lat="44.87939" lon="5.88621">
        <ele>1502.072</ele>
        <time>2021-11-13T12:32:32Z</time>
      </trkpt>
      <trkpt lat="44.87939" lon="5.88621">
        <ele>1503.584</ele>
        <time>2021-11-13T12:32:33Z</time>
      </trkpt>
      <trkpt lat="44.87938" lon="5.8862">
        <ele>1503.826</ele>
        <time>2021-11-13T12:32:37Z</time>
      </trkpt>
      <trkpt lat="44.87938" lon="5.8862">
        <ele>1503.178</ele>
        <time>2021-11-13T12:33:07Z</time>
      </trkpt>
      <trkpt lat="44.87937" lon="5.8862">
        <ele>1502.723</ele>
        <time>2021-11-13T12:33:08Z</time>
      </trkpt>
      <trkpt lat="44.87937" lon="5.8862">
        <ele>1502.606</ele>
        <time>2021-11-13T12:33:09Z</time>
      </trkpt>
      <trkpt lat="44.87937" lon="5.8862">
        <ele>1502.619</ele>
        <time>2021-11-13T12:33:37Z</time>
      </trkpt>
      <trkpt lat="44.87937" lon="5.88621">
        <ele>1502.791</ele>
        <time>2021-11-13T12:33:38Z</time>
      </trkpt>
      <trkpt lat="44.87938" lon="5.88621">
        <ele>1503.489</ele>
        <time>2021-11-13T12:33:40Z</time>
      </trkpt>
      <trkpt lat="44.87938" lon="5.88621">
        <ele>1503.487</ele>
        <time>2021-11-13T12:34:13Z</time>
      </trkpt>
      <trkpt lat="44.87938" lon="5.8862">
        <ele>1502.989</ele>
        <time>2021-11-13T12:34:14Z</time>
      </trkpt>
      <trkpt lat="44.87938" lon="5.8862">
        <ele>1502.989</ele>
        <time>2021-11-13T12:34:14Z</time>
      </trkpt>
      <trkpt lat="44.87938" lon="5.8862">
        <ele>1502.965</ele>
        <time>2021-11-13T12:34:15Z</time>
      </trkpt>
      <trkpt lat="44.87938" lon="5.8862">
        <ele>1502.968</ele>
        <time>2021-11-13T12:34:44Z</time>
      </trkpt>
      <trkpt lat="44.87938" lon="5.8862">
        <ele>1503.536</ele>
        <time>2021-11-13T12:34:45Z</time>
      </trkpt>
      <trkpt lat="44.87938" lon="5.88619">
        <ele>1502.725</ele>
        <time>2021-11-13T12:34:47Z</time>
      </trkpt>
      <trkpt lat="44.87938" lon="5.88619">
        <ele>1502.024</ele>
        <time>2021-11-13T12:35:42Z</time>
      </trkpt>
      <trkpt lat="44.87938" lon="5.88618">
        <ele>1501.787</ele>
        <time>2021-11-13T12:35:43Z</time>
      </trkpt>
      <trkpt lat="44.87938" lon="5.88618">
        <ele>1501.785</ele>
        <time>2021-11-13T12:35:44Z</time>
      </trkpt>
      <trkpt lat="44.87938" lon="5.88618">
        <ele>1500.494</ele>
        <time>2021-11-13T12:38:33Z</time>
      </trkpt>
      <trkpt lat="44.87939" lon="5.88619">
        <ele>1500.184</ele>
        <time>2021-11-13T12:38:34Z</time>
      </trkpt>
      <trkpt lat="44.87939" lon="5.88619">
        <ele>1500.042</ele>
        <time>2021-11-13T12:38:35Z</time>
      </trkpt>
      <trkpt lat="44.87939" lon="5.88619">
        <ele>1500.66</ele>
        <time>2021-11-13T12:39:04Z</time>
      </trkpt>
      <trkpt lat="44.87938" lon="5.88619">
        <ele>1500.482</ele>
        <time>2021-11-13T12:39:05Z</time>
      </trkpt>
      <trkpt lat="44.87938" lon="5.88619">
        <ele>1500.398</ele>
        <time>2021-11-13T12:39:06Z</time>
      </trkpt>
      <trkpt lat="44.87938" lon="5.88619">
        <ele>1500.398</ele>
        <time>2021-11-13T12:39:06Z</time>
      </trkpt>
      <trkpt lat="44.87938" lon="5.88619">
        <ele>1500.941</ele>
        <time>2021-11-13T12:39:07Z</time>
      </trkpt>
      <trkpt lat="44.87938" lon="5.88619">
        <ele>1502.303</ele>
        <time>2021-11-13T12:39:12Z</time>
      </trkpt>
      <trkpt lat="44.8794" lon="5.88618">
        <ele>1502.657</ele>
        <time>2021-11-13T12:39:13Z</time>
      </trkpt>
      <trkpt lat="44.87941" lon="5.88618">
        <ele>1505.744</ele>
        <time>2021-11-13T12:39:16Z</time>
      </trkpt>
      <trkpt lat="44.87941" lon="5.88618">
        <ele>1504.085</ele>
        <time>2021-11-13T12:54:21Z</time>
      </trkpt>
      <trkpt lat="44.8794" lon="5.88619">
        <ele>1503.172</ele>
        <time>2021-11-13T12:54:22Z</time>
      </trkpt>
      <trkpt lat="44.8794" lon="5.88619">
        <ele>1500.992</ele>
        <time>2021-11-13T12:54:23Z</time>
      </trkpt>
      <trkpt lat="44.8794" lon="5.88619">
        <ele>1500.885</ele>
        <time>2021-11-13T12:54:37Z</time>
      </trkpt>
      <trkpt lat="44.87941" lon="5.88621">
        <ele>1500.885</ele>
        <time>2021-11-13T12:54:38Z</time>
      </trkpt>
      <trkpt lat="44.87941" lon="5.88621">
        <ele>1500.843</ele>
        <time>2021-11-13T12:54:39Z</time>
      </trkpt>
      <trkpt lat="44.87941" lon="5.88621">
        <ele>1500.822</ele>
        <time>2021-11-13T12:54:52Z</time>
      </trkpt>
      <trkpt lat="44.87941" lon="5.88621">
        <ele>1500.089</ele>
        <time>2021-11-13T12:54:53Z</time>
      </trkpt>
      <trkpt lat="44.87941" lon="5.88621">
        <ele>1499.987</ele>
        <time>2021-11-13T12:54:54Z</time>
      </trkpt>
      <trkpt lat="44.87941" lon="5.88621">
        <ele>1499.938</ele>
        <time>2021-11-13T12:55:12Z</time>
      </trkpt>
      <trkpt lat="44.87941" lon="5.88621">
        <ele>1499.762</ele>
        <time>2021-11-13T12:55:13Z</time>
      </trkpt>
      <trkpt lat="44.87941" lon="5.88621">
        <ele>1498.239</ele>
        <time>2021-11-13T12:55:16Z</time>
      </trkpt>
      <trkpt lat="44.87941" lon="5.88621">
        <ele>1498.015</ele>
        <time>2021-11-13T13:01:38Z</time>
      </trkpt>
      <trkpt lat="44.87942" lon="5.88623">
        <ele>1498.117</ele>
        <time>2021-11-13T13:01:39Z</time>
      </trkpt>
      <trkpt lat="44.87942" lon="5.88623">
        <ele>1498.58</ele>
        <time>2021-11-13T13:01:41Z</time>
      </trkpt>
      <trkpt lat="44.87942" lon="5.88623">
        <ele>1498.206</ele>
        <time>2021-11-13T13:01:54Z</time>
      </trkpt>
      <trkpt lat="44.87941" lon="5.88621">
        <ele>1498.389</ele>
        <time>2021-11-13T13:01:55Z</time>
      </trkpt>
      <trkpt lat="44.87941" lon="5.88621">
        <ele>1498.379</ele>
        <time>2021-11-13T13:01:56Z</time>
      </trkpt>
      <trkpt lat="44.87941" lon="5.88621">
        <ele>1498.726</ele>
        <time>2021-11-13T13:02:11Z</time>
      </trkpt>
      <trkpt lat="44.87942" lon="5.88622">
        <ele>1498.281</ele>
        <time>2021-11-13T13:02:12Z</time>
      </trkpt>
      <trkpt lat="44.87942" lon="5.88622">
        <ele>1498.324</ele>
        <time>2021-11-13T13:02:13Z</time>
      </trkpt>
      <trkpt lat="44.87942" lon="5.88622">
        <ele>1498.319</ele>
        <time>2021-11-13T13:02:16Z</time>
      </trkpt>
      <trkpt lat="44.87942" lon="5.88622">
        <ele>1498.161</ele>
        <time>2021-11-13T13:02:17Z</time>
      </trkpt>
      <trkpt lat="44.87942" lon="5.88621">
        <ele>1499.559</ele>
        <time>2021-11-13T13:02:21Z</time>
      </trkpt>
      <trkpt lat="44.87942" lon="5.88621">
        <ele>1499.515</ele>
        <time>2021-11-13T13:02:26Z</time>
      </trkpt>
      <trkpt lat="44.8794" lon="5.88623">
        <ele>1499.032</ele>
        <time>2021-11-13T13:02:27Z</time>
      </trkpt>
      <trkpt lat="44.8794" lon="5.88623">
        <ele>1499.697</ele>
        <time>2021-11-13T13:02:28Z</time>
      </trkpt>
      <trkpt lat="44.8794" lon="5.88623">
        <ele>1499.699</ele>
        <time>2021-11-13T13:02:30Z</time>
      </trkpt>
      <trkpt lat="44.8794" lon="5.88623">
        <ele>1499.655</ele>
        <time>2021-11-13T13:02:31Z</time>
      </trkpt>
      <trkpt lat="44.8794" lon="5.88623">
        <ele>1499.806</ele>
        <time>2021-11-13T13:02:32Z</time>
      </trkpt>
      <trkpt lat="44.8794" lon="5.88623">
        <ele>1499.882</ele>
        <time>2021-11-13T13:02:40Z</time>
      </trkpt>
      <trkpt lat="44.8794" lon="5.88623">
        <ele>1499.286</ele>
        <time>2021-11-13T13:02:41Z</time>
      </trkpt>
      <trkpt lat="44.8794" lon="5.88622">
        <ele>1498.949</ele>
        <time>2021-11-13T13:02:42Z</time>
      </trkpt>
      <trkpt lat="44.8794" lon="5.88622">
        <ele>1498.949</ele>
        <time>2021-11-13T13:02:42Z</time>
      </trkpt>
      <trkpt lat="44.8794" lon="5.88622">
        <ele>1498.914</ele>
        <time>2021-11-13T13:02:43Z</time>
      </trkpt>
      <trkpt lat="44.8794" lon="5.88622">
        <ele>1498.914</ele>
        <time>2021-11-13T13:02:43Z</time>
      </trkpt>
      <trkpt lat="44.8794" lon="5.88622">
        <ele>1499.702</ele>
        <time>2021-11-13T13:02:44Z</time>
      </trkpt>
      <trkpt lat="44.8794" lon="5.88622">
        <ele>1499.702</ele>
        <time>2021-11-13T13:02:44Z</time>
      </trkpt>
      <trkpt lat="44.87939" lon="5.88622">
        <ele>1499.688</ele>
        <time>2021-11-13T13:02:45Z</time>
      </trkpt>
      <trkpt lat="44.87939" lon="5.88622">
        <ele>1499.56</ele>
        <time>2021-11-13T13:02:48Z</time>
      </trkpt>
      <trkpt lat="44.87939" lon="5.88622">
        <ele>1499.56</ele>
        <time>2021-11-13T13:02:48Z</time>
      </trkpt>
      <trkpt lat="44.87938" lon="5.88624">
        <ele>1500.733</ele>
        <time>2021-11-13T13:02:49Z</time>
      </trkpt>
      <trkpt lat="44.87938" lon="5.88624">
        <ele>1501.023</ele>
        <time>2021-11-13T13:02:50Z</time>
      </trkpt>
      <trkpt lat="44.87938" lon="5.88624">
        <ele>1501.328</ele>
        <time>2021-11-13T13:04:45Z</time>
      </trkpt>
      <trkpt lat="44.87938" lon="5.88618">
        <ele>1501.76</ele>
        <time>2021-11-13T13:04:46Z</time>
      </trkpt>
      <trkpt lat="44.87938" lon="5.88618">
        <ele>1502.035</ele>
        <time>2021-11-13T13:04:47Z</time>
      </trkpt>
      <trkpt lat="44.87938" lon="5.88618">
        <ele>1502.035</ele>
        <time>2021-11-13T13:04:47Z</time>
      </trkpt>
      <trkpt lat="44.87938" lon="5.88617">
        <ele>1501.817</ele>
        <time>2021-11-13T13:04:48Z</time>
      </trkpt>
      <trkpt lat="44.87938" lon="5.88617">
        <ele>1501.4</ele>
        <time>2021-11-13T13:04:49Z</time>
      </trkpt>
      <trkpt lat="44.87938" lon="5.88617">
        <ele>1501.272</ele>
        <time>2021-11-13T13:06:07Z</time>
      </trkpt>
      <trkpt lat="44.87939" lon="5.88618">
        <ele>1501.396</ele>
        <time>2021-11-13T13:06:08Z</time>
      </trkpt>
      <trkpt lat="44.87939" lon="5.88618">
        <ele>1501.396</ele>
        <time>2021-11-13T13:06:08Z</time>
      </trkpt>
      <trkpt lat="44.87939" lon="5.88618">
        <ele>1501.337</ele>
        <time>2021-11-13T13:06:09Z</time>
      </trkpt>
      <trkpt lat="44.87939" lon="5.88618">
        <ele>1501.337</ele>
        <time>2021-11-13T13:06:09Z</time>
      </trkpt>
      <trkpt lat="44.87939" lon="5.88618">
        <ele>1501.938</ele>
        <time>2021-11-13T13:06:10Z</time>
      </trkpt>
      <trkpt lat="44.87939" lon="5.88618">
        <ele>1501.938</ele>
        <time>2021-11-13T13:06:10Z</time>
      </trkpt>
      <trkpt lat="44.87939" lon="5.88618">
        <ele>1502.052</ele>
        <time>2021-11-13T13:06:11Z</time>
      </trkpt>
      <trkpt lat="44.87939" lon="5.88618">
        <ele>1501.976</ele>
        <time>2021-11-13T13:06:18Z</time>
      </trkpt>
      <trkpt lat="44.87938" lon="5.88617">
        <ele>1501.937</ele>
        <time>2021-11-13T13:06:19Z</time>
      </trkpt>
      <trkpt lat="44.87938" lon="5.88617">
        <ele>1501.697</ele>
        <time>2021-11-13T13:06:20Z</time>
      </trkpt>
      <trkpt lat="44.87938" lon="5.88617">
        <ele>1501.338</ele>
        <time>2021-11-13T13:06:28Z</time>
      </trkpt>
      <trkpt lat="44.87938" lon="5.88614">
        <ele>1501.331</ele>
        <time>2021-11-13T13:06:29Z</time>
      </trkpt>
      <trkpt lat="44.87938" lon="5.88614">
        <ele>1501.16</ele>
        <time>2021-11-13T13:06:30Z</time>
      </trkpt>
      <trkpt lat="44.87938" lon="5.88614">
        <ele>1501.4</ele>
        <time>2021-11-13T13:06:36Z</time>
      </trkpt>
      <trkpt lat="44.87939" lon="5.88611">
        <ele>1500.663</ele>
        <time>2021-11-13T13:06:37Z</time>
      </trkpt>
      <trkpt lat="44.87939" lon="5.8861">
        <ele>1500.1</ele>
        <time>2021-11-13T13:06:39Z</time>
      </trkpt>
      <trkpt lat="44.87939" lon="5.8861">
        <ele>1500.1</ele>
        <time>2021-11-13T13:06:39Z</time>
      </trkpt>
      <trkpt lat="44.87939" lon="5.88607">
        <ele>1500.25</ele>
        <time>2021-11-13T13:06:40Z</time>
      </trkpt>
      <trkpt lat="44.87939" lon="5.88606">
        <ele>1500.483</ele>
        <time>2021-11-13T13:06:41Z</time>
      </trkpt>
      <trkpt lat="44.87939" lon="5.88606">
        <ele>1499.78</ele>
        <time>2021-11-13T13:06:42Z</time>
      </trkpt>
      <trkpt lat="44.87939" lon="5.88606">
        <ele>1499.78</ele>
        <time>2021-11-13T13:06:42Z</time>
      </trkpt>
      <trkpt lat="44.8794" lon="5.88606">
        <ele>1498.935</ele>
        <time>2021-11-13T13:06:43Z</time>
      </trkpt>
      <trkpt lat="44.87941" lon="5.88607">
        <ele>1497.631</ele>
        <time>2021-11-13T13:06:45Z</time>
      </trkpt>
      <trkpt lat="44.87941" lon="5.88608">
        <ele>1497.649</ele>
        <time>2021-11-13T13:06:47Z</time>
      </trkpt>
      <trkpt lat="44.87941" lon="5.88608">
        <ele>1497.643</ele>
        <time>2021-11-13T13:07:16Z</time>
      </trkpt>
      <trkpt lat="44.87942" lon="5.88607">
        <ele>1497.647</ele>
        <time>2021-11-13T13:07:17Z</time>
      </trkpt>
      <trkpt lat="44.87943" lon="5.88608">
        <ele>1497.234</ele>
        <time>2021-11-13T13:07:18Z</time>
      </trkpt>
      <trkpt lat="44.87943" lon="5.88608">
        <ele>1497.318</ele>
        <time>2021-11-13T13:07:19Z</time>
      </trkpt>
      <trkpt lat="44.87943" lon="5.88608">
        <ele>1497.318</ele>
        <time>2021-11-13T13:07:19Z</time>
      </trkpt>
      <trkpt lat="44.87943" lon="5.88608">
        <ele>1497.487</ele>
        <time>2021-11-13T13:07:20Z</time>
      </trkpt>
      <trkpt lat="44.87942" lon="5.88609">
        <ele>1497.44</ele>
        <time>2021-11-13T13:07:22Z</time>
      </trkpt>
      <trkpt lat="44.87942" lon="5.88609">
        <ele>1497.219</ele>
        <time>2021-11-13T13:07:24Z</time>
      </trkpt>
      <trkpt lat="44.87942" lon="5.88609">
        <ele>1497.219</ele>
        <time>2021-11-13T13:07:24Z</time>
      </trkpt>
      <trkpt lat="44.87941" lon="5.88611">
        <ele>1496.943</ele>
        <time>2021-11-13T13:07:25Z</time>
      </trkpt>
      <trkpt lat="44.87942" lon="5.88613">
        <ele>1496.814</ele>
        <time>2021-11-13T13:07:29Z</time>
      </trkpt>
      <trkpt lat="44.87942" lon="5.88613">
        <ele>1496.804</ele>
        <time>2021-11-13T13:07:42Z</time>
      </trkpt>
      <trkpt lat="44.87943" lon="5.88615">
        <ele>1496.103</ele>
        <time>2021-11-13T13:07:43Z</time>
      </trkpt>
      <trkpt lat="44.87943" lon="5.88615">
        <ele>1495.968</ele>
        <time>2021-11-13T13:07:44Z</time>
      </trkpt>
      <trkpt lat="44.87943" lon="5.88615">
        <ele>1495.968</ele>
        <time>2021-11-13T13:07:44Z</time>
      </trkpt>
      <trkpt lat="44.87943" lon="5.88615">
        <ele>1496.331</ele>
        <time>2021-11-13T13:07:45Z</time>
      </trkpt>
      <trkpt lat="44.87943" lon="5.88615">
        <ele>1496.074</ele>
        <time>2021-11-13T13:07:46Z</time>
      </trkpt>
      <trkpt lat="44.87943" lon="5.88615">
        <ele>1494.332</ele>
        <time>2021-11-13T13:07:55Z</time>
      </trkpt>
      <trkpt lat="44.87945" lon="5.88621">
        <ele>1494.268</ele>
        <time>2021-11-13T13:07:56Z</time>
      </trkpt>
      <trkpt lat="44.87945" lon="5.88621">
        <ele>1495.477</ele>
        <time>2021-11-13T13:07:57Z</time>
      </trkpt>
      <trkpt lat="44.87941" lon="5.88619">
        <ele>1495.115</ele>
        <time>2021-11-13T13:10:19Z</time>
      </trkpt>
      <trkpt lat="44.87942" lon="5.88619">
        <ele>1494.852</ele>
        <time>2021-11-13T13:10:20Z</time>
      </trkpt>
      <trkpt lat="44.87945" lon="5.88619">
        <ele>1495.236</ele>
        <time>2021-11-13T13:10:23Z</time>
      </trkpt>
      <trkpt lat="44.87943" lon="5.88614">
        <ele>1496.385</ele>
        <time>2021-11-13T13:10:27Z</time>
      </trkpt>
      <trkpt lat="44.87939" lon="5.88614">
        <ele>1497.709</ele>
        <time>2021-11-13T13:10:30Z</time>
      </trkpt>
      <trkpt lat="44.87938" lon="5.88614">
        <ele>1497.847</ele>
        <time>2021-11-13T13:10:31Z</time>
      </trkpt>
      <trkpt lat="44.87938" lon="5.88614">
        <ele>1496.478</ele>
        <time>2021-11-13T13:10:35Z</time>
      </trkpt>
      <trkpt lat="44.87938" lon="5.88614">
        <ele>1496.478</ele>
        <time>2021-11-13T13:10:35Z</time>
      </trkpt>
      <trkpt lat="44.87938" lon="5.88614">
        <ele>1496.35</ele>
        <time>2021-11-13T13:10:36Z</time>
      </trkpt>
      <trkpt lat="44.87938" lon="5.88614">
        <ele>1495.708</ele>
        <time>2021-11-13T13:12:29Z</time>
      </trkpt>
      <trkpt lat="44.87938" lon="5.88618">
        <ele>1493.278</ele>
        <time>2021-11-13T13:12:30Z</time>
      </trkpt>
      <trkpt lat="44.87937" lon="5.88619">
        <ele>1491.079</ele>
        <time>2021-11-13T13:12:31Z</time>
      </trkpt>
      <trkpt lat="44.87937" lon="5.88619">
        <ele>1489.001</ele>
        <time>2021-11-13T13:12:32Z</time>
      </trkpt>
      <trkpt lat="44.87937" lon="5.88619">
        <ele>1489.198</ele>
        <time>2021-11-13T13:12:33Z</time>
      </trkpt>
      <trkpt lat="44.87939" lon="5.8862">
        <ele>1490.483</ele>
        <time>2021-11-13T13:12:34Z</time>
      </trkpt>
      <trkpt lat="44.87939" lon="5.8862">
        <ele>1490.483</ele>
        <time>2021-11-13T13:12:34Z</time>
      </trkpt>
      <trkpt lat="44.87939" lon="5.8862">
        <ele>1490.436</ele>
        <time>2021-11-13T13:12:35Z</time>
      </trkpt>
      <trkpt lat="44.87939" lon="5.8862">
        <ele>1490.044</ele>
        <time>2021-11-13T13:12:58Z</time>
      </trkpt>
      <trkpt lat="44.87941" lon="5.88619">
        <ele>1490</ele>
        <time>2021-11-13T13:12:59Z</time>
      </trkpt>
      <trkpt lat="44.87941" lon="5.88618">
        <ele>1490.765</ele>
        <time>2021-11-13T13:13:02Z</time>
      </trkpt>
      <trkpt lat="44.87941" lon="5.88618">
        <ele>1490.907</ele>
        <time>2021-11-13T13:13:03Z</time>
      </trkpt>
      <trkpt lat="44.87941" lon="5.88618">
        <ele>1491.359</ele>
        <time>2021-11-13T13:13:04Z</time>
      </trkpt>
      <trkpt lat="44.8794" lon="5.88619">
        <ele>1491.456</ele>
        <time>2021-11-13T13:13:05Z</time>
      </trkpt>
      <trkpt lat="44.87937" lon="5.88625">
        <ele>1491.686</ele>
        <time>2021-11-13T13:13:09Z</time>
      </trkpt>
      <trkpt lat="44.87938" lon="5.88626">
        <ele>1491.193</ele>
        <time>2021-11-13T13:13:10Z</time>
      </trkpt>
      <trkpt lat="44.87938" lon="5.88626">
        <ele>1490.329</ele>
        <time>2021-11-13T13:13:12Z</time>
      </trkpt>
      <trkpt lat="44.87938" lon="5.88626">
        <ele>1490.329</ele>
        <time>2021-11-13T13:13:12Z</time>
      </trkpt>
      <trkpt lat="44.87939" lon="5.88626">
        <ele>1492.332</ele>
        <time>2021-11-13T13:13:13Z</time>
      </trkpt>
      <trkpt lat="44.87941" lon="5.88624">
        <ele>1492.1</ele>
        <time>2021-11-13T13:13:15Z</time>
      </trkpt>
      <trkpt lat="44.87942" lon="5.88624">
        <ele>1492.357</ele>
        <time>2021-11-13T13:13:16Z</time>
      </trkpt>
      <trkpt lat="44.87942" lon="5.88623">
        <ele>1492.398</ele>
        <time>2021-11-13T13:13:18Z</time>
      </trkpt>
      <trkpt lat="44.87942" lon="5.88623">
        <ele>1493.079</ele>
        <time>2021-11-13T13:13:19Z</time>
      </trkpt>
      <trkpt lat="44.87943" lon="5.88623">
        <ele>1492.45</ele>
        <time>2021-11-13T13:13:20Z</time>
      </trkpt>
      <trkpt lat="44.87943" lon="5.88623">
        <ele>1492.43</ele>
        <time>2021-11-13T13:13:21Z</time>
      </trkpt>
      <trkpt lat="44.87943" lon="5.88623">
        <ele>1492.43</ele>
        <time>2021-11-13T13:13:21Z</time>
      </trkpt>
      <trkpt lat="44.87943" lon="5.88622">
        <ele>1493.135</ele>
        <time>2021-11-13T13:13:22Z</time>
      </trkpt>
      <trkpt lat="44.87942" lon="5.88621">
        <ele>1493.784</ele>
        <time>2021-11-13T13:13:23Z</time>
      </trkpt>
      <trkpt lat="44.87942" lon="5.88621">
        <ele>1494.534</ele>
        <time>2021-11-13T13:13:24Z</time>
      </trkpt>
      <trkpt lat="44.87942" lon="5.88621">
        <ele>1494.744</ele>
        <time>2021-11-13T13:29:19Z</time>
      </trkpt>
      <trkpt lat="44.87941" lon="5.8862">
        <ele>1491.919</ele>
        <time>2021-11-13T13:29:20Z</time>
      </trkpt>
      <trkpt lat="44.8794" lon="5.8862">
        <ele>1491.502</ele>
        <time>2021-11-13T13:29:21Z</time>
      </trkpt>
      <trkpt lat="44.87939" lon="5.8862">
        <ele>1489.873</ele>
        <time>2021-11-13T13:29:24Z</time>
      </trkpt>
      <trkpt lat="44.87939" lon="5.8862">
        <ele>1490.318</ele>
        <time>2021-11-13T13:29:25Z</time>
      </trkpt>
      <trkpt lat="44.87939" lon="5.8862">
        <ele>1490.84</ele>
        <time>2021-11-13T13:33:04Z</time>
      </trkpt>
      <trkpt lat="44.8794" lon="5.88621">
        <ele>1490.423</ele>
        <time>2021-11-13T13:33:05Z</time>
      </trkpt>
      <trkpt lat="44.87941" lon="5.8862">
        <ele>1490.782</ele>
        <time>2021-11-13T13:33:07Z</time>
      </trkpt>
      <trkpt lat="44.87942" lon="5.8862">
        <ele>1491.015</ele>
        <time>2021-11-13T13:33:08Z</time>
      </trkpt>
      <trkpt lat="44.87943" lon="5.88619">
        <ele>1491.354</ele>
        <time>2021-11-13T13:33:09Z</time>
      </trkpt>
      <trkpt lat="44.87944" lon="5.88618">
        <ele>1491.431</ele>
        <time>2021-11-13T13:33:10Z</time>
      </trkpt>
      <trkpt lat="44.87945" lon="5.88618">
        <ele>1491.945</ele>
        <time>2021-11-13T13:33:11Z</time>
      </trkpt>
      <trkpt lat="44.87945" lon="5.88617">
        <ele>1492.39</ele>
        <time>2021-11-13T13:33:12Z</time>
      </trkpt>
      <trkpt lat="44.87945" lon="5.88617">
        <ele>1493.225</ele>
        <time>2021-11-13T13:33:13Z</time>
      </trkpt>
      <trkpt lat="44.87945" lon="5.88617">
        <ele>1493.225</ele>
        <time>2021-11-13T13:33:13Z</time>
      </trkpt>
      <trkpt lat="44.87947" lon="5.88616">
        <ele>1493.393</ele>
        <time>2021-11-13T13:33:14Z</time>
      </trkpt>
      <trkpt lat="44.87947" lon="5.88615">
        <ele>1494.278</ele>
        <time>2021-11-13T13:33:16Z</time>
      </trkpt>
      <trkpt lat="44.87947" lon="5.88615">
        <ele>1494.278</ele>
        <time>2021-11-13T13:33:16Z</time>
      </trkpt>
      <trkpt lat="44.87947" lon="5.88614">
        <ele>1494.431</ele>
        <time>2021-11-13T13:33:17Z</time>
      </trkpt>
      <trkpt lat="44.87947" lon="5.88614">
        <ele>1494.672</ele>
        <time>2021-11-13T13:33:18Z</time>
      </trkpt>
      <trkpt lat="44.87947" lon="5.88613">
        <ele>1495.391</ele>
        <time>2021-11-13T13:33:19Z</time>
      </trkpt>
      <trkpt lat="44.87947" lon="5.88613">
        <ele>1496.192</ele>
        <time>2021-11-13T13:33:21Z</time>
      </trkpt>
      <trkpt lat="44.87947" lon="5.88613">
        <ele>1496.192</ele>
        <time>2021-11-13T13:33:21Z</time>
      </trkpt>
      <trkpt lat="44.87947" lon="5.88613">
        <ele>1495.957</ele>
        <time>2021-11-13T13:33:22Z</time>
      </trkpt>
      <trkpt lat="44.87947" lon="5.88613">
        <ele>1495.957</ele>
        <time>2021-11-13T13:33:22Z</time>
      </trkpt>
      <trkpt lat="44.87947" lon="5.88614">
        <ele>1496.898</ele>
        <time>2021-11-13T13:33:23Z</time>
      </trkpt>
      <trkpt lat="44.87947" lon="5.88615">
        <ele>1496.814</ele>
        <time>2021-11-13T13:33:24Z</time>
      </trkpt>
      <trkpt lat="44.87947" lon="5.88616">
        <ele>1499.377</ele>
        <time>2021-11-13T13:33:28Z</time>
      </trkpt>
      <trkpt lat="44.87947" lon="5.88616">
        <ele>1499.377</ele>
        <time>2021-11-13T13:33:28Z</time>
      </trkpt>
      <trkpt lat="44.87948" lon="5.88618">
        <ele>1498.792</ele>
        <time>2021-11-13T13:33:29Z</time>
      </trkpt>
      <trkpt lat="44.87948" lon="5.88619">
        <ele>1498.945</ele>
        <time>2021-11-13T13:33:31Z</time>
      </trkpt>
      <trkpt lat="44.87948" lon="5.88619">
        <ele>1498.945</ele>
        <time>2021-11-13T13:33:31Z</time>
      </trkpt>
      <trkpt lat="44.87947" lon="5.8862">
        <ele>1498.851</ele>
        <time>2021-11-13T13:33:32Z</time>
      </trkpt>
      <trkpt lat="44.87946" lon="5.88621">
        <ele>1498.613</ele>
        <time>2021-11-13T13:33:37Z</time>
      </trkpt>
      <trkpt lat="44.87946" lon="5.88621">
        <ele>1496.897</ele>
        <time>2021-11-13T13:35:56Z</time>
      </trkpt>
      <trkpt lat="44.87942" lon="5.8862">
        <ele>1496.37</ele>
        <time>2021-11-13T13:35:57Z</time>
      </trkpt>
      <trkpt lat="44.87942" lon="5.8862">
        <ele>1496.37</ele>
        <time>2021-11-13T13:35:57Z</time>
      </trkpt>
      <trkpt lat="44.87942" lon="5.8862">
        <ele>1499.632</ele>
        <time>2021-11-13T13:35:59Z</time>
      </trkpt>
      <trkpt lat="44.87942" lon="5.88618">
        <ele>1501.547</ele>
        <time>2021-11-13T13:36:02Z</time>
      </trkpt>
      <trkpt lat="44.87941" lon="5.88618">
        <ele>1500.139</ele>
        <time>2021-11-13T13:36:04Z</time>
      </trkpt>
      <trkpt lat="44.87941" lon="5.88618">
        <ele>1500.168</ele>
        <time>2021-11-13T13:36:06Z</time>
      </trkpt>
      <trkpt lat="44.8794" lon="5.88616">
        <ele>1499.606</ele>
        <time>2021-11-13T13:36:07Z</time>
      </trkpt>
      <trkpt lat="44.8794" lon="5.88616">
        <ele>1498.786</ele>
        <time>2021-11-13T13:36:09Z</time>
      </trkpt>
      <trkpt lat="44.8794" lon="5.88616">
        <ele>1498.505</ele>
        <time>2021-11-13T13:37:26Z</time>
      </trkpt>
      <trkpt lat="44.87939" lon="5.88617">
        <ele>1499.041</ele>
        <time>2021-11-13T13:37:27Z</time>
      </trkpt>
      <trkpt lat="44.87939" lon="5.88617">
        <ele>1499.916</ele>
        <time>2021-11-13T13:37:29Z</time>
      </trkpt>
      <trkpt lat="44.87939" lon="5.88617">
        <ele>1499.882</ele>
        <time>2021-11-13T13:38:07Z</time>
      </trkpt>
      <trkpt lat="44.87938" lon="5.88616">
        <ele>1498.002</ele>
        <time>2021-11-13T13:38:08Z</time>
      </trkpt>
      <trkpt lat="44.87938" lon="5.88617">
        <ele>1498.045</ele>
        <time>2021-11-13T13:38:10Z</time>
      </trkpt>
      <trkpt lat="44.87938" lon="5.88617">
        <ele>1498.124</ele>
        <time>2021-11-13T13:38:27Z</time>
      </trkpt>
      <trkpt lat="44.87938" lon="5.88617">
        <ele>1497.863</ele>
        <time>2021-11-13T13:38:28Z</time>
      </trkpt>
      <trkpt lat="44.87941" lon="5.88616">
        <ele>1500.18</ele>
        <time>2021-11-13T13:38:31Z</time>
      </trkpt>
      <trkpt lat="44.87941" lon="5.88616">
        <ele>1500.287</ele>
        <time>2021-11-13T13:38:32Z</time>
      </trkpt>
      <trkpt lat="44.87941" lon="5.88616">
        <ele>1500.287</ele>
        <time>2021-11-13T13:38:32Z</time>
      </trkpt>
      <trkpt lat="44.87942" lon="5.88616">
        <ele>1500.091</ele>
        <time>2021-11-13T13:38:33Z</time>
      </trkpt>
      <trkpt lat="44.87942" lon="5.88616">
        <ele>1500.091</ele>
        <time>2021-11-13T13:38:33Z</time>
      </trkpt>
      <trkpt lat="44.87942" lon="5.88616">
        <ele>1500.09</ele>
        <time>2021-11-13T13:38:34Z</time>
      </trkpt>
      <trkpt lat="44.87942" lon="5.88616">
        <ele>1500.231</ele>
        <time>2021-11-13T13:38:48Z</time>
      </trkpt>
      <trkpt lat="44.87943" lon="5.88617">
        <ele>1500.228</ele>
        <time>2021-11-13T13:38:49Z</time>
      </trkpt>
      <trkpt lat="44.87943" lon="5.88617">
        <ele>1500.234</ele>
        <time>2021-11-13T13:38:50Z</time>
      </trkpt>
      <trkpt lat="44.87943" lon="5.88617">
        <ele>1500.482</ele>
        <time>2021-11-13T13:38:57Z</time>
      </trkpt>
      <trkpt lat="44.87943" lon="5.88616">
        <ele>1500.688</ele>
        <time>2021-11-13T13:38:58Z</time>
      </trkpt>
      <trkpt lat="44.87943" lon="5.88616">
        <ele>1499.595</ele>
        <time>2021-11-13T13:39:04Z</time>
      </trkpt>
      <trkpt lat="44.87943" lon="5.88616">
        <ele>1499.595</ele>
        <time>2021-11-13T13:39:04Z</time>
      </trkpt>
      <trkpt lat="44.87944" lon="5.88615">
        <ele>1501.575</ele>
        <time>2021-11-13T13:39:05Z</time>
      </trkpt>
      <trkpt lat="44.87946" lon="5.88615">
        <ele>1500.749</ele>
        <time>2021-11-13T13:39:08Z</time>
      </trkpt>
      <trkpt lat="44.87945" lon="5.88616">
        <ele>1499.744</ele>
        <time>2021-11-13T13:39:09Z</time>
      </trkpt>
      <trkpt lat="44.87945" lon="5.88616">
        <ele>1498.946</ele>
        <time>2021-11-13T13:39:10Z</time>
      </trkpt>
      <trkpt lat="44.87945" lon="5.88616">
        <ele>1498.946</ele>
        <time>2021-11-13T13:39:10Z</time>
      </trkpt>
      <trkpt lat="44.87944" lon="5.88617">
        <ele>1498.186</ele>
        <time>2021-11-13T13:39:11Z</time>
      </trkpt>
      <trkpt lat="44.87944" lon="5.88617">
        <ele>1497.413</ele>
        <time>2021-11-13T13:39:12Z</time>
      </trkpt>
      <trkpt lat="44.87944" lon="5.88617">
        <ele>1497.413</ele>
        <time>2021-11-13T13:39:12Z</time>
      </trkpt>
      <trkpt lat="44.87944" lon="5.88617">
        <ele>1496.897</ele>
        <time>2021-11-13T13:39:13Z</time>
      </trkpt>
      <trkpt lat="44.87944" lon="5.88617">
        <ele>1496.882</ele>
        <time>2021-11-13T13:39:14Z</time>
      </trkpt>
      <trkpt lat="44.87944" lon="5.88617">
        <ele>1497.005</ele>
        <time>2021-11-13T13:39:24Z</time>
      </trkpt>
      <trkpt lat="44.87944" lon="5.88617">
        <ele>1497.787</ele>
        <time>2021-11-13T13:39:25Z</time>
      </trkpt>
      <trkpt lat="44.87944" lon="5.88617">
        <ele>1497.787</ele>
        <time>2021-11-13T13:39:25Z</time>
      </trkpt>
      <trkpt lat="44.87944" lon="5.88617">
        <ele>1497.827</ele>
        <time>2021-11-13T13:39:26Z</time>
      </trkpt>
      <trkpt lat="44.87944" lon="5.88617">
        <ele>1498.524</ele>
        <time>2021-11-13T13:39:46Z</time>
      </trkpt>
      <trkpt lat="44.87944" lon="5.88617">
        <ele>1498.803</ele>
        <time>2021-11-13T13:39:47Z</time>
      </trkpt>
      <trkpt lat="44.87944" lon="5.88617">
        <ele>1499.163</ele>
        <time>2021-11-13T13:39:48Z</time>
      </trkpt>
      <trkpt lat="44.87944" lon="5.88617">
        <ele>1499.158</ele>
        <time>2021-11-13T13:39:49Z</time>
      </trkpt>
      <trkpt lat="44.87944" lon="5.88617">
        <ele>1497.742</ele>
        <time>2021-11-13T13:40:28Z</time>
      </trkpt>
      <trkpt lat="44.87945" lon="5.88616">
        <ele>1497.984</ele>
        <time>2021-11-13T13:40:29Z</time>
      </trkpt>
      <trkpt lat="44.87945" lon="5.88615">
        <ele>1498.175</ele>
        <time>2021-11-13T13:40:30Z</time>
      </trkpt>
      <trkpt lat="44.87945" lon="5.88615">
        <ele>1498.557</ele>
        <time>2021-11-13T13:40:32Z</time>
      </trkpt>
      <trkpt lat="44.87945" lon="5.88615">
        <ele>1498.693</ele>
        <time>2021-11-13T13:40:47Z</time>
      </trkpt>
      <trkpt lat="44.87945" lon="5.88614">
        <ele>1498.547</ele>
        <time>2021-11-13T13:40:48Z</time>
      </trkpt>
      <trkpt lat="44.87945" lon="5.88614">
        <ele>1498.565</ele>
        <time>2021-11-13T13:40:49Z</time>
      </trkpt>
      <trkpt lat="44.87945" lon="5.88614">
        <ele>1498.512</ele>
        <time>2021-11-13T13:41:12Z</time>
      </trkpt>
      <trkpt lat="44.87944" lon="5.88615">
        <ele>1498.599</ele>
        <time>2021-11-13T13:41:13Z</time>
      </trkpt>
      <trkpt lat="44.87944" lon="5.88615">
        <ele>1497.908</ele>
        <time>2021-11-13T13:41:14Z</time>
      </trkpt>
      <trkpt lat="44.87943" lon="5.88615">
        <ele>1497.494</ele>
        <time>2021-11-13T13:41:15Z</time>
      </trkpt>
      <trkpt lat="44.87942" lon="5.88616">
        <ele>1497.448</ele>
        <time>2021-11-13T13:41:18Z</time>
      </trkpt>
      <trkpt lat="44.87942" lon="5.88616">
        <ele>1497.339</ele>
        <time>2021-11-13T13:41:19Z</time>
      </trkpt>
      <trkpt lat="44.87942" lon="5.88616">
        <ele>1497.328</ele>
        <time>2021-11-13T13:41:22Z</time>
      </trkpt>
      <trkpt lat="44.87942" lon="5.88617">
        <ele>1497.533</ele>
        <time>2021-11-13T13:41:23Z</time>
      </trkpt>
      <trkpt lat="44.87942" lon="5.88617">
        <ele>1497.56</ele>
        <time>2021-11-13T13:41:24Z</time>
      </trkpt>
      <trkpt lat="44.87942" lon="5.88617">
        <ele>1498.236</ele>
        <time>2021-11-13T13:42:17Z</time>
      </trkpt>
      <trkpt lat="44.87942" lon="5.88617">
        <ele>1498.263</ele>
        <time>2021-11-13T13:42:18Z</time>
      </trkpt>
      <trkpt lat="44.87942" lon="5.88618">
        <ele>1498.222</ele>
        <time>2021-11-13T13:42:19Z</time>
      </trkpt>
      <trkpt lat="44.87942" lon="5.8862">
        <ele>1498.77</ele>
        <time>2021-11-13T13:42:21Z</time>
      </trkpt>
      <trkpt lat="44.87942" lon="5.8862">
        <ele>1498.773</ele>
        <time>2021-11-13T13:42:22Z</time>
      </trkpt>
      <trkpt lat="44.87942" lon="5.8862">
        <ele>1496.173</ele>
        <time>2021-11-13T13:45:47Z</time>
      </trkpt>
      <trkpt lat="44.87939" lon="5.88621">
        <ele>1493.659</ele>
        <time>2021-11-13T13:45:48Z</time>
      </trkpt>
      <trkpt lat="44.87938" lon="5.88621">
        <ele>1493.892</ele>
        <time>2021-11-13T13:45:49Z</time>
      </trkpt>
      <trkpt lat="44.87938" lon="5.88621">
        <ele>1494.057</ele>
        <time>2021-11-13T13:45:50Z</time>
      </trkpt>
      <trkpt lat="44.87935" lon="5.88619">
        <ele>1496.144</ele>
        <time>2021-11-13T13:45:54Z</time>
      </trkpt>
      <trkpt lat="44.8793" lon="5.88619">
        <ele>1493.473</ele>
        <time>2021-11-13T13:45:58Z</time>
      </trkpt>
      <trkpt lat="44.87927" lon="5.88619">
        <ele>1494.048</ele>
        <time>2021-11-13T13:46:01Z</time>
      </trkpt>
      <trkpt lat="44.87926" lon="5.88623">
        <ele>1490.802</ele>
        <time>2021-11-13T13:46:10Z</time>
      </trkpt>
      <trkpt lat="44.87926" lon="5.88625">
        <ele>1489.426</ele>
        <time>2021-11-13T13:46:13Z</time>
      </trkpt>
      <trkpt lat="44.87926" lon="5.88625">
        <ele>1489.425</ele>
        <time>2021-11-13T13:46:21Z</time>
      </trkpt>
      <trkpt lat="44.87927" lon="5.88626">
        <ele>1489.516</ele>
        <time>2021-11-13T13:46:22Z</time>
      </trkpt>
      <trkpt lat="44.87927" lon="5.88629">
        <ele>1488.102</ele>
        <time>2021-11-13T13:46:28Z</time>
      </trkpt>
      <trkpt lat="44.87927" lon="5.8863">
        <ele>1486.445</ele>
        <time>2021-11-13T13:46:31Z</time>
      </trkpt>
      <trkpt lat="44.87927" lon="5.88632">
        <ele>1486.902</ele>
        <time>2021-11-13T13:46:36Z</time>
      </trkpt>
      <trkpt lat="44.87926" lon="5.8864">
        <ele>1489.185</ele>
        <time>2021-11-13T13:46:42Z</time>
      </trkpt>
      <trkpt lat="44.87927" lon="5.88652">
        <ele>1491.29</ele>
        <time>2021-11-13T13:46:51Z</time>
      </trkpt>
      <trkpt lat="44.87928" lon="5.88658">
        <ele>1488.342</ele>
        <time>2021-11-13T13:47:02Z</time>
      </trkpt>
      <trkpt lat="44.87929" lon="5.88659">
        <ele>1492.625</ele>
        <time>2021-11-13T13:47:05Z</time>
      </trkpt>
      <trkpt lat="44.87929" lon="5.88659">
        <ele>1492.625</ele>
        <time>2021-11-13T13:47:05Z</time>
      </trkpt>
      <trkpt lat="44.87929" lon="5.88661">
        <ele>1493.044</ele>
        <time>2021-11-13T13:47:06Z</time>
      </trkpt>
      <trkpt lat="44.87929" lon="5.88664">
        <ele>1492.683</ele>
        <time>2021-11-13T13:47:08Z</time>
      </trkpt>
      <trkpt lat="44.87928" lon="5.88674">
        <ele>1490.601</ele>
        <time>2021-11-13T13:47:16Z</time>
      </trkpt>
      <trkpt lat="44.87926" lon="5.88684">
        <ele>1490.439</ele>
        <time>2021-11-13T13:47:28Z</time>
      </trkpt>
      <trkpt lat="44.87926" lon="5.88684">
        <ele>1490.548</ele>
        <time>2021-11-13T13:47:29Z</time>
      </trkpt>
      <trkpt lat="44.87926" lon="5.88684">
        <ele>1490.488</ele>
        <time>2021-11-13T13:47:30Z</time>
      </trkpt>
      <trkpt lat="44.87925" lon="5.88684">
        <ele>1490.999</ele>
        <time>2021-11-13T13:47:31Z</time>
      </trkpt>
      <trkpt lat="44.87925" lon="5.88685">
        <ele>1492.01</ele>
        <time>2021-11-13T13:47:32Z</time>
      </trkpt>
      <trkpt lat="44.87925" lon="5.88686">
        <ele>1492.282</ele>
        <time>2021-11-13T13:47:33Z</time>
      </trkpt>
      <trkpt lat="44.87919" lon="5.88706">
        <ele>1494.329</ele>
        <time>2021-11-13T13:47:48Z</time>
      </trkpt>
      <trkpt lat="44.87916" lon="5.88719">
        <ele>1491.947</ele>
        <time>2021-11-13T13:47:58Z</time>
      </trkpt>
      <trkpt lat="44.87913" lon="5.88728">
        <ele>1489.606</ele>
        <time>2021-11-13T13:48:09Z</time>
      </trkpt>
      <trkpt lat="44.87909" lon="5.88741">
        <ele>1487.322</ele>
        <time>2021-11-13T13:48:22Z</time>
      </trkpt>
      <trkpt lat="44.87906" lon="5.88751">
        <ele>1485.197</ele>
        <time>2021-11-13T13:48:32Z</time>
      </trkpt>
      <trkpt lat="44.879" lon="5.88769">
        <ele>1482.916</ele>
        <time>2021-11-13T13:48:50Z</time>
      </trkpt>
      <trkpt lat="44.87894" lon="5.88793">
        <ele>1480.891</ele>
        <time>2021-11-13T13:49:12Z</time>
      </trkpt>
      <trkpt lat="44.87893" lon="5.88807">
        <ele>1478.534</ele>
        <time>2021-11-13T13:49:28Z</time>
      </trkpt>
      <trkpt lat="44.87894" lon="5.88812">
        <ele>1476.465</ele>
        <time>2021-11-13T13:49:34Z</time>
      </trkpt>
      <trkpt lat="44.87895" lon="5.88818">
        <ele>1474.11</ele>
        <time>2021-11-13T13:49:41Z</time>
      </trkpt>
      <trkpt lat="44.87894" lon="5.88823">
        <ele>1470.547</ele>
        <time>2021-11-13T13:49:48Z</time>
      </trkpt>
      <trkpt lat="44.87893" lon="5.88824">
        <ele>1471.635</ele>
        <time>2021-11-13T13:49:51Z</time>
      </trkpt>
      <trkpt lat="44.87892" lon="5.88826">
        <ele>1470.402</ele>
        <time>2021-11-13T13:49:55Z</time>
      </trkpt>
      <trkpt lat="44.87892" lon="5.88826">
        <ele>1470.914</ele>
        <time>2021-11-13T13:49:56Z</time>
      </trkpt>
      <trkpt lat="44.87892" lon="5.88826">
        <ele>1470.485</ele>
        <time>2021-11-13T13:49:57Z</time>
      </trkpt>
      <trkpt lat="44.87892" lon="5.88826">
        <ele>1470.485</ele>
        <time>2021-11-13T13:49:57Z</time>
      </trkpt>
      <trkpt lat="44.87893" lon="5.88827">
        <ele>1470.323</ele>
        <time>2021-11-13T13:49:58Z</time>
      </trkpt>
      <trkpt lat="44.87892" lon="5.88829">
        <ele>1470.506</ele>
        <time>2021-11-13T13:50:01Z</time>
      </trkpt>
      <trkpt lat="44.87892" lon="5.88831">
        <ele>1470.471</ele>
        <time>2021-11-13T13:50:05Z</time>
      </trkpt>
      <trkpt lat="44.87892" lon="5.88833">
        <ele>1469.722</ele>
        <time>2021-11-13T13:50:08Z</time>
      </trkpt>
      <trkpt lat="44.87891" lon="5.88835">
        <ele>1469.03</ele>
        <time>2021-11-13T13:50:11Z</time>
      </trkpt>
      <trkpt lat="44.87891" lon="5.88836">
        <ele>1468.591</ele>
        <time>2021-11-13T13:50:13Z</time>
      </trkpt>
      <trkpt lat="44.87891" lon="5.88836">
        <ele>1468.591</ele>
        <time>2021-11-13T13:50:13Z</time>
      </trkpt>
      <trkpt lat="44.87891" lon="5.88836">
        <ele>1468.18</ele>
        <time>2021-11-13T13:50:14Z</time>
      </trkpt>
      <trkpt lat="44.87891" lon="5.88836">
        <ele>1468.18</ele>
        <time>2021-11-13T13:50:14Z</time>
      </trkpt>
      <trkpt lat="44.87891" lon="5.88837">
        <ele>1468.176</ele>
        <time>2021-11-13T13:50:15Z</time>
      </trkpt>
      <trkpt lat="44.87891" lon="5.88838">
        <ele>1468.024</ele>
        <time>2021-11-13T13:50:17Z</time>
      </trkpt>
      <trkpt lat="44.87891" lon="5.88839">
        <ele>1467.911</ele>
        <time>2021-11-13T13:50:19Z</time>
      </trkpt>
      <trkpt lat="44.87891" lon="5.88839">
        <ele>1467.767</ele>
        <time>2021-11-13T13:50:20Z</time>
      </trkpt>
      <trkpt lat="44.87891" lon="5.88839">
        <ele>1467.767</ele>
        <time>2021-11-13T13:50:20Z</time>
      </trkpt>
      <trkpt lat="44.87891" lon="5.88839">
        <ele>1467.763</ele>
        <time>2021-11-13T13:50:21Z</time>
      </trkpt>
      <trkpt lat="44.87891" lon="5.8884">
        <ele>1468.012</ele>
        <time>2021-11-13T13:50:23Z</time>
      </trkpt>
      <trkpt lat="44.87891" lon="5.88841">
        <ele>1467.877</ele>
        <time>2021-11-13T13:50:24Z</time>
      </trkpt>
      <trkpt lat="44.87891" lon="5.88841">
        <ele>1468.384</ele>
        <time>2021-11-13T13:50:26Z</time>
      </trkpt>
      <trkpt lat="44.87891" lon="5.88841">
        <ele>1468.397</ele>
        <time>2021-11-13T13:50:27Z</time>
      </trkpt>
      <trkpt lat="44.87891" lon="5.88841">
        <ele>1468.147</ele>
        <time>2021-11-13T13:50:32Z</time>
      </trkpt>
      <trkpt lat="44.87891" lon="5.88842">
        <ele>1467.776</ele>
        <time>2021-11-13T13:50:33Z</time>
      </trkpt>
      <trkpt lat="44.87891" lon="5.88843">
        <ele>1467.802</ele>
        <time>2021-11-13T13:50:34Z</time>
      </trkpt>
      <trkpt lat="44.87891" lon="5.88843">
        <ele>1467.802</ele>
        <time>2021-11-13T13:50:34Z</time>
      </trkpt>
      <trkpt lat="44.87891" lon="5.88843">
        <ele>1467.863</ele>
        <time>2021-11-13T13:50:35Z</time>
      </trkpt>
      <trkpt lat="44.87891" lon="5.88843">
        <ele>1468.212</ele>
        <time>2021-11-13T13:50:38Z</time>
      </trkpt>
      <trkpt lat="44.87891" lon="5.88843">
        <ele>1468.375</ele>
        <time>2021-11-13T13:50:39Z</time>
      </trkpt>
      <trkpt lat="44.87891" lon="5.88845">
        <ele>1470.478</ele>
        <time>2021-11-13T13:50:42Z</time>
      </trkpt>
      <trkpt lat="44.87891" lon="5.88848">
        <ele>1470.247</ele>
        <time>2021-11-13T13:50:45Z</time>
      </trkpt>
      <trkpt lat="44.87891" lon="5.88849">
        <ele>1469.798</ele>
        <time>2021-11-13T13:50:48Z</time>
      </trkpt>
      <trkpt lat="44.87891" lon="5.88851">
        <ele>1469.727</ele>
        <time>2021-11-13T13:50:50Z</time>
      </trkpt>
      <trkpt lat="44.87891" lon="5.88852">
        <ele>1469.47</ele>
        <time>2021-11-13T13:50:51Z</time>
      </trkpt>
      <trkpt lat="44.87891" lon="5.88853">
        <ele>1468.951</ele>
        <time>2021-11-13T13:50:52Z</time>
      </trkpt>
      <trkpt lat="44.87891" lon="5.88854">
        <ele>1468.828</ele>
        <time>2021-11-13T13:50:53Z</time>
      </trkpt>
      <trkpt lat="44.87891" lon="5.88859">
        <ele>1467.877</ele>
        <time>2021-11-13T13:50:59Z</time>
      </trkpt>
      <trkpt lat="44.87891" lon="5.88859">
        <ele>1468.822</ele>
        <time>2021-11-13T13:51:01Z</time>
      </trkpt>
      <trkpt lat="44.8789" lon="5.88861">
        <ele>1468.357</ele>
        <time>2021-11-13T13:51:02Z</time>
      </trkpt>
      <trkpt lat="44.87891" lon="5.88862">
        <ele>1468.012</ele>
        <time>2021-11-13T13:51:03Z</time>
      </trkpt>
      <trkpt lat="44.8789" lon="5.8887">
        <ele>1466.858</ele>
        <time>2021-11-13T13:51:10Z</time>
      </trkpt>
      <trkpt lat="44.8789" lon="5.8887">
        <ele>1466.778</ele>
        <time>2021-11-13T13:51:11Z</time>
      </trkpt>
      <trkpt lat="44.87889" lon="5.8887">
        <ele>1466.148</ele>
        <time>2021-11-13T13:51:14Z</time>
      </trkpt>
      <trkpt lat="44.87889" lon="5.8887">
        <ele>1466.355</ele>
        <time>2021-11-13T13:51:16Z</time>
      </trkpt>
      <trkpt lat="44.87891" lon="5.8887">
        <ele>1466.885</ele>
        <time>2021-11-13T13:51:17Z</time>
      </trkpt>
      <trkpt lat="44.87891" lon="5.8887">
        <ele>1466.885</ele>
        <time>2021-11-13T13:51:17Z</time>
      </trkpt>
      <trkpt lat="44.87891" lon="5.8887">
        <ele>1467.271</ele>
        <time>2021-11-13T13:51:18Z</time>
      </trkpt>
      <trkpt lat="44.87891" lon="5.8887">
        <ele>1466.72</ele>
        <time>2021-11-13T13:51:20Z</time>
      </trkpt>
      <trkpt lat="44.87891" lon="5.8887">
        <ele>1466.72</ele>
        <time>2021-11-13T13:51:20Z</time>
      </trkpt>
      <trkpt lat="44.8789" lon="5.88871">
        <ele>1467.509</ele>
        <time>2021-11-13T13:51:21Z</time>
      </trkpt>
      <trkpt lat="44.8789" lon="5.88872">
        <ele>1467.958</ele>
        <time>2021-11-13T13:51:22Z</time>
      </trkpt>
      <trkpt lat="44.8789" lon="5.88873">
        <ele>1467.714</ele>
        <time>2021-11-13T13:51:23Z</time>
      </trkpt>
      <trkpt lat="44.8789" lon="5.88877">
        <ele>1467.071</ele>
        <time>2021-11-13T13:51:27Z</time>
      </trkpt>
      <trkpt lat="44.87891" lon="5.88878">
        <ele>1467.286</ele>
        <time>2021-11-13T13:51:30Z</time>
      </trkpt>
      <trkpt lat="44.87891" lon="5.88879">
        <ele>1467.227</ele>
        <time>2021-11-13T13:51:32Z</time>
      </trkpt>
      <trkpt lat="44.87892" lon="5.88884">
        <ele>1467.272</ele>
        <time>2021-11-13T13:51:35Z</time>
      </trkpt>
      <trkpt lat="44.8789" lon="5.88886">
        <ele>1466.704</ele>
        <time>2021-11-13T13:51:37Z</time>
      </trkpt>
      <trkpt lat="44.87889" lon="5.88888">
        <ele>1466.099</ele>
        <time>2021-11-13T13:51:40Z</time>
      </trkpt>
      <trkpt lat="44.8789" lon="5.88892">
        <ele>1464.347</ele>
        <time>2021-11-13T13:51:47Z</time>
      </trkpt>
      <trkpt lat="44.87889" lon="5.88896">
        <ele>1463.75</ele>
        <time>2021-11-13T13:51:52Z</time>
      </trkpt>
      <trkpt lat="44.87889" lon="5.889">
        <ele>1464.624</ele>
        <time>2021-11-13T13:51:55Z</time>
      </trkpt>
      <trkpt lat="44.87888" lon="5.88903">
        <ele>1465.222</ele>
        <time>2021-11-13T13:51:59Z</time>
      </trkpt>
      <trkpt lat="44.87887" lon="5.88903">
        <ele>1465.459</ele>
        <time>2021-11-13T13:52:01Z</time>
      </trkpt>
      <trkpt lat="44.87887" lon="5.88903">
        <ele>1465.459</ele>
        <time>2021-11-13T13:52:01Z</time>
      </trkpt>
      <trkpt lat="44.87887" lon="5.88904">
        <ele>1465.735</ele>
        <time>2021-11-13T13:52:02Z</time>
      </trkpt>
      <trkpt lat="44.87887" lon="5.88904">
        <ele>1465.878</ele>
        <time>2021-11-13T13:52:03Z</time>
      </trkpt>
      <trkpt lat="44.87887" lon="5.88904">
        <ele>1465.878</ele>
        <time>2021-11-13T13:52:03Z</time>
      </trkpt>
      <trkpt lat="44.87886" lon="5.88904">
        <ele>1465.425</ele>
        <time>2021-11-13T13:52:04Z</time>
      </trkpt>
      <trkpt lat="44.87886" lon="5.88906">
        <ele>1464.509</ele>
        <time>2021-11-13T13:52:06Z</time>
      </trkpt>
      <trkpt lat="44.87886" lon="5.88909">
        <ele>1464.066</ele>
        <time>2021-11-13T13:52:09Z</time>
      </trkpt>
      <trkpt lat="44.87886" lon="5.88909">
        <ele>1463.998</ele>
        <time>2021-11-13T13:52:10Z</time>
      </trkpt>
      <trkpt lat="44.87886" lon="5.88909">
        <ele>1464.111</ele>
        <time>2021-11-13T13:52:11Z</time>
      </trkpt>
      <trkpt lat="44.87886" lon="5.88909">
        <ele>1464.111</ele>
        <time>2021-11-13T13:52:11Z</time>
      </trkpt>
      <trkpt lat="44.87887" lon="5.8891">
        <ele>1464.326</ele>
        <time>2021-11-13T13:52:12Z</time>
      </trkpt>
      <trkpt lat="44.87886" lon="5.88918">
        <ele>1463.533</ele>
        <time>2021-11-13T13:52:20Z</time>
      </trkpt>
      <trkpt lat="44.87887" lon="5.88926">
        <ele>1462.679</ele>
        <time>2021-11-13T13:52:25Z</time>
      </trkpt>
      <trkpt lat="44.87887" lon="5.88928">
        <ele>1462.225</ele>
        <time>2021-11-13T13:52:27Z</time>
      </trkpt>
      <trkpt lat="44.87887" lon="5.88929">
        <ele>1461.059</ele>
        <time>2021-11-13T13:52:30Z</time>
      </trkpt>
      <trkpt lat="44.87887" lon="5.8893">
        <ele>1460.569</ele>
        <time>2021-11-13T13:52:32Z</time>
      </trkpt>
      <trkpt lat="44.87887" lon="5.8893">
        <ele>1460.569</ele>
        <time>2021-11-13T13:52:32Z</time>
      </trkpt>
      <trkpt lat="44.87887" lon="5.88931">
        <ele>1460.82</ele>
        <time>2021-11-13T13:52:33Z</time>
      </trkpt>
      <trkpt lat="44.87888" lon="5.88933">
        <ele>1460.225</ele>
        <time>2021-11-13T13:52:36Z</time>
      </trkpt>
      <trkpt lat="44.87888" lon="5.88933">
        <ele>1460.225</ele>
        <time>2021-11-13T13:52:36Z</time>
      </trkpt>
      <trkpt lat="44.87888" lon="5.88933">
        <ele>1460.838</ele>
        <time>2021-11-13T13:52:37Z</time>
      </trkpt>
      <trkpt lat="44.87888" lon="5.88933">
        <ele>1460.838</ele>
        <time>2021-11-13T13:52:37Z</time>
      </trkpt>
      <trkpt lat="44.87888" lon="5.88933">
        <ele>1460.582</ele>
        <time>2021-11-13T13:52:38Z</time>
      </trkpt>
      <trkpt lat="44.87888" lon="5.88935">
        <ele>1460.114</ele>
        <time>2021-11-13T13:52:40Z</time>
      </trkpt>
      <trkpt lat="44.87889" lon="5.88937">
        <ele>1459.506</ele>
        <time>2021-11-13T13:52:42Z</time>
      </trkpt>
      <trkpt lat="44.8789" lon="5.8894">
        <ele>1458.958</ele>
        <time>2021-11-13T13:52:45Z</time>
      </trkpt>
      <trkpt lat="44.8789" lon="5.88941">
        <ele>1458.448</ele>
        <time>2021-11-13T13:52:47Z</time>
      </trkpt>
      <trkpt lat="44.8789" lon="5.88942">
        <ele>1458.388</ele>
        <time>2021-11-13T13:52:48Z</time>
      </trkpt>
      <trkpt lat="44.87892" lon="5.88944">
        <ele>1457.664</ele>
        <time>2021-11-13T13:52:51Z</time>
      </trkpt>
      <trkpt lat="44.87893" lon="5.88953">
        <ele>1456.38</ele>
        <time>2021-11-13T13:52:58Z</time>
      </trkpt>
      <trkpt lat="44.87891" lon="5.88966">
        <ele>1454.165</ele>
        <time>2021-11-13T13:53:10Z</time>
      </trkpt>
      <trkpt lat="44.87891" lon="5.88967">
        <ele>1453.849</ele>
        <time>2021-11-13T13:53:12Z</time>
      </trkpt>
      <trkpt lat="44.87891" lon="5.88967">
        <ele>1453.475</ele>
        <time>2021-11-13T13:53:13Z</time>
      </trkpt>
      <trkpt lat="44.87891" lon="5.88967">
        <ele>1452.825</ele>
        <time>2021-11-13T13:53:15Z</time>
      </trkpt>
      <trkpt lat="44.8789" lon="5.88968">
        <ele>1452.71</ele>
        <time>2021-11-13T13:53:16Z</time>
      </trkpt>
      <trkpt lat="44.8789" lon="5.88969">
        <ele>1453.003</ele>
        <time>2021-11-13T13:53:17Z</time>
      </trkpt>
      <trkpt lat="44.8789" lon="5.88969">
        <ele>1452.228</ele>
        <time>2021-11-13T13:53:18Z</time>
      </trkpt>
      <trkpt lat="44.87891" lon="5.88971">
        <ele>1450.821</ele>
        <time>2021-11-13T13:53:21Z</time>
      </trkpt>
      <trkpt lat="44.87892" lon="5.88977">
        <ele>1449.716</ele>
        <time>2021-11-13T13:53:26Z</time>
      </trkpt>
      <trkpt lat="44.87894" lon="5.88986">
        <ele>1448.301</ele>
        <time>2021-11-13T13:53:36Z</time>
      </trkpt>
      <trkpt lat="44.87896" lon="5.88989">
        <ele>1447.469</ele>
        <time>2021-11-13T13:53:40Z</time>
      </trkpt>
      <trkpt lat="44.87897" lon="5.88994">
        <ele>1446.71</ele>
        <time>2021-11-13T13:53:44Z</time>
      </trkpt>
      <trkpt lat="44.87898" lon="5.88999">
        <ele>1446.624</ele>
        <time>2021-11-13T13:53:49Z</time>
      </trkpt>
      <trkpt lat="44.87896" lon="5.89001">
        <ele>1445.372</ele>
        <time>2021-11-13T13:53:54Z</time>
      </trkpt>
      <trkpt lat="44.87893" lon="5.89004">
        <ele>1444.963</ele>
        <time>2021-11-13T13:53:59Z</time>
      </trkpt>
      <trkpt lat="44.87891" lon="5.8901">
        <ele>1443.879</ele>
        <time>2021-11-13T13:54:06Z</time>
      </trkpt>
      <trkpt lat="44.87891" lon="5.89011">
        <ele>1443.337</ele>
        <time>2021-11-13T13:54:07Z</time>
      </trkpt>
      <trkpt lat="44.8789" lon="5.89015">
        <ele>1440.512</ele>
        <time>2021-11-13T13:54:12Z</time>
      </trkpt>
      <trkpt lat="44.8789" lon="5.89015">
        <ele>1440.535</ele>
        <time>2021-11-13T13:54:13Z</time>
      </trkpt>
      <trkpt lat="44.8789" lon="5.89015">
        <ele>1440.605</ele>
        <time>2021-11-13T13:54:14Z</time>
      </trkpt>
      <trkpt lat="44.87889" lon="5.89016">
        <ele>1440.284</ele>
        <time>2021-11-13T13:54:15Z</time>
      </trkpt>
      <trkpt lat="44.87889" lon="5.89016">
        <ele>1440.167</ele>
        <time>2021-11-13T13:54:16Z</time>
      </trkpt>
      <trkpt lat="44.87889" lon="5.89016">
        <ele>1440.167</ele>
        <time>2021-11-13T13:54:16Z</time>
      </trkpt>
      <trkpt lat="44.87889" lon="5.89017">
        <ele>1439.86</ele>
        <time>2021-11-13T13:54:17Z</time>
      </trkpt>
      <trkpt lat="44.87889" lon="5.89019">
        <ele>1438.742</ele>
        <time>2021-11-13T13:54:20Z</time>
      </trkpt>
      <trkpt lat="44.87889" lon="5.8902">
        <ele>1437.879</ele>
        <time>2021-11-13T13:54:22Z</time>
      </trkpt>
      <trkpt lat="44.87889" lon="5.8902">
        <ele>1437.427</ele>
        <time>2021-11-13T13:54:23Z</time>
      </trkpt>
      <trkpt lat="44.87889" lon="5.8902">
        <ele>1437.397</ele>
        <time>2021-11-13T13:54:26Z</time>
      </trkpt>
      <trkpt lat="44.87888" lon="5.8902">
        <ele>1436.98</ele>
        <time>2021-11-13T13:54:27Z</time>
      </trkpt>
      <trkpt lat="44.87888" lon="5.8902">
        <ele>1436.98</ele>
        <time>2021-11-13T13:54:27Z</time>
      </trkpt>
      <trkpt lat="44.87888" lon="5.8902">
        <ele>1437.093</ele>
        <time>2021-11-13T13:54:28Z</time>
      </trkpt>
      <trkpt lat="44.87885" lon="5.8903">
        <ele>1437.08</ele>
        <time>2021-11-13T13:54:37Z</time>
      </trkpt>
      <trkpt lat="44.87885" lon="5.89031">
        <ele>1436.713</ele>
        <time>2021-11-13T13:54:39Z</time>
      </trkpt>
      <trkpt lat="44.87884" lon="5.89031">
        <ele>1438.279</ele>
        <time>2021-11-13T13:54:41Z</time>
      </trkpt>
      <trkpt lat="44.87884" lon="5.89031">
        <ele>1438.279</ele>
        <time>2021-11-13T13:54:41Z</time>
      </trkpt>
      <trkpt lat="44.87884" lon="5.89031">
        <ele>1437.714</ele>
        <time>2021-11-13T13:54:42Z</time>
      </trkpt>
      <trkpt lat="44.87884" lon="5.89032">
        <ele>1436.88</ele>
        <time>2021-11-13T13:54:44Z</time>
      </trkpt>
      <trkpt lat="44.87884" lon="5.89032">
        <ele>1436.88</ele>
        <time>2021-11-13T13:54:44Z</time>
      </trkpt>
      <trkpt lat="44.87884" lon="5.89032">
        <ele>1435.495</ele>
        <time>2021-11-13T13:54:45Z</time>
      </trkpt>
      <trkpt lat="44.87884" lon="5.89032">
        <ele>1433.949</ele>
        <time>2021-11-13T13:54:51Z</time>
      </trkpt>
      <trkpt lat="44.87884" lon="5.89032">
        <ele>1433.926</ele>
        <time>2021-11-13T13:54:52Z</time>
      </trkpt>
      <trkpt lat="44.87884" lon="5.89032">
        <ele>1433.972</ele>
        <time>2021-11-13T13:54:53Z</time>
      </trkpt>
      <trkpt lat="44.87884" lon="5.89032">
        <ele>1434.835</ele>
        <time>2021-11-13T13:54:59Z</time>
      </trkpt>
      <trkpt lat="44.87885" lon="5.89034">
        <ele>1434.496</ele>
        <time>2021-11-13T13:55:00Z</time>
      </trkpt>
      <trkpt lat="44.87885" lon="5.89034">
        <ele>1434.496</ele>
        <time>2021-11-13T13:55:00Z</time>
      </trkpt>
      <trkpt lat="44.87885" lon="5.89035">
        <ele>1434.338</ele>
        <time>2021-11-13T13:55:01Z</time>
      </trkpt>
      <trkpt lat="44.87884" lon="5.89035">
        <ele>1433.926</ele>
        <time>2021-11-13T13:55:02Z</time>
      </trkpt>
      <trkpt lat="44.87884" lon="5.89034">
        <ele>1433.85</ele>
        <time>2021-11-13T13:55:03Z</time>
      </trkpt>
      <trkpt lat="44.87884" lon="5.89034">
        <ele>1433.851</ele>
        <time>2021-11-13T13:55:04Z</time>
      </trkpt>
      <trkpt lat="44.87884" lon="5.89034">
        <ele>1433.256</ele>
        <time>2021-11-13T13:55:06Z</time>
      </trkpt>
      <trkpt lat="44.87883" lon="5.89033">
        <ele>1432.908</ele>
        <time>2021-11-13T13:55:07Z</time>
      </trkpt>
      <trkpt lat="44.87883" lon="5.89032">
        <ele>1432.155</ele>
        <time>2021-11-13T13:55:09Z</time>
      </trkpt>
      <trkpt lat="44.87883" lon="5.89032">
        <ele>1432.297</ele>
        <time>2021-11-13T13:55:19Z</time>
      </trkpt>
      <trkpt lat="44.87883" lon="5.8903">
        <ele>1432.647</ele>
        <time>2021-11-13T13:55:20Z</time>
      </trkpt>
      <trkpt lat="44.87883" lon="5.8903">
        <ele>1430.912</ele>
        <time>2021-11-13T13:55:22Z</time>
      </trkpt>
      <trkpt lat="44.87883" lon="5.8903">
        <ele>1428.968</ele>
        <time>2021-11-13T13:56:09Z</time>
      </trkpt>
      <trkpt lat="44.87882" lon="5.89031">
        <ele>1428.89</ele>
        <time>2021-11-13T13:56:10Z</time>
      </trkpt>
      <trkpt lat="44.87882" lon="5.89031">
        <ele>1427.908</ele>
        <time>2021-11-13T13:56:13Z</time>
      </trkpt>
      <trkpt lat="44.87882" lon="5.89031">
        <ele>1427.908</ele>
        <time>2021-11-13T13:56:13Z</time>
      </trkpt>
      <trkpt lat="44.87883" lon="5.89032">
        <ele>1427.577</ele>
        <time>2021-11-13T13:56:14Z</time>
      </trkpt>
      <trkpt lat="44.87883" lon="5.89033">
        <ele>1426.616</ele>
        <time>2021-11-13T13:56:15Z</time>
      </trkpt>
      <trkpt lat="44.87882" lon="5.89035">
        <ele>1425.744</ele>
        <time>2021-11-13T13:56:18Z</time>
      </trkpt>
      <trkpt lat="44.87882" lon="5.89036">
        <ele>1425.778</ele>
        <time>2021-11-13T13:56:19Z</time>
      </trkpt>
      <trkpt lat="44.87884" lon="5.89041">
        <ele>1426.261</ele>
        <time>2021-11-13T13:56:23Z</time>
      </trkpt>
      <trkpt lat="44.87887" lon="5.89042">
        <ele>1424.588</ele>
        <time>2021-11-13T13:56:27Z</time>
      </trkpt>
      <trkpt lat="44.87891" lon="5.89043">
        <ele>1423.879</ele>
        <time>2021-11-13T13:56:30Z</time>
      </trkpt>
      <trkpt lat="44.87891" lon="5.89043">
        <ele>1423.576</ele>
        <time>2021-11-13T13:56:31Z</time>
      </trkpt>
      <trkpt lat="44.87894" lon="5.89044">
        <ele>1424.966</ele>
        <time>2021-11-13T13:56:34Z</time>
      </trkpt>
      <trkpt lat="44.879" lon="5.89046">
        <ele>1423.38</ele>
        <time>2021-11-13T13:56:40Z</time>
      </trkpt>
      <trkpt lat="44.879" lon="5.89046">
        <ele>1423.466</ele>
        <time>2021-11-13T13:56:41Z</time>
      </trkpt>
      <trkpt lat="44.87901" lon="5.89046">
        <ele>1423.851</ele>
        <time>2021-11-13T13:56:43Z</time>
      </trkpt>
      <trkpt lat="44.87903" lon="5.89046">
        <ele>1423.683</ele>
        <time>2021-11-13T13:56:45Z</time>
      </trkpt>
      <trkpt lat="44.87903" lon="5.89046">
        <ele>1423.805</ele>
        <time>2021-11-13T13:56:46Z</time>
      </trkpt>
      <trkpt lat="44.87904" lon="5.89047">
        <ele>1423.363</ele>
        <time>2021-11-13T13:56:48Z</time>
      </trkpt>
      <trkpt lat="44.87904" lon="5.89047">
        <ele>1423.363</ele>
        <time>2021-11-13T13:56:48Z</time>
      </trkpt>
      <trkpt lat="44.87904" lon="5.89047">
        <ele>1422.844</ele>
        <time>2021-11-13T13:56:49Z</time>
      </trkpt>
      <trkpt lat="44.87904" lon="5.89048">
        <ele>1421.851</ele>
        <time>2021-11-13T13:56:50Z</time>
      </trkpt>
      <trkpt lat="44.87904" lon="5.89048">
        <ele>1422.119</ele>
        <time>2021-11-13T13:56:51Z</time>
      </trkpt>
      <trkpt lat="44.87904" lon="5.89049">
        <ele>1422.083</ele>
        <time>2021-11-13T13:56:52Z</time>
      </trkpt>
      <trkpt lat="44.87904" lon="5.89049">
        <ele>1422.083</ele>
        <time>2021-11-13T13:56:52Z</time>
      </trkpt>
      <trkpt lat="44.87904" lon="5.89049">
        <ele>1422.115</ele>
        <time>2021-11-13T13:56:53Z</time>
      </trkpt>
      <trkpt lat="44.87904" lon="5.89049">
        <ele>1422.002</ele>
        <time>2021-11-13T13:57:00Z</time>
      </trkpt>
      <trkpt lat="44.87903" lon="5.89049">
        <ele>1421.813</ele>
        <time>2021-11-13T13:57:01Z</time>
      </trkpt>
      <trkpt lat="44.87904" lon="5.8905">
        <ele>1421.358</ele>
        <time>2021-11-13T13:57:02Z</time>
      </trkpt>
      <trkpt lat="44.87904" lon="5.8905">
        <ele>1421.76</ele>
        <time>2021-11-13T13:57:03Z</time>
      </trkpt>
      <trkpt lat="44.87905" lon="5.89051">
        <ele>1421.893</ele>
        <time>2021-11-13T13:57:05Z</time>
      </trkpt>
      <trkpt lat="44.87906" lon="5.89053">
        <ele>1421.756</ele>
        <time>2021-11-13T13:57:08Z</time>
      </trkpt>
      <trkpt lat="44.87906" lon="5.89053">
        <ele>1421.73</ele>
        <time>2021-11-13T13:57:12Z</time>
      </trkpt>
      <trkpt lat="44.87906" lon="5.89054">
        <ele>1422.239</ele>
        <time>2021-11-13T13:57:13Z</time>
      </trkpt>
      <trkpt lat="44.87906" lon="5.89054">
        <ele>1422.854</ele>
        <time>2021-11-13T13:57:15Z</time>
      </trkpt>
      <trkpt lat="44.87906" lon="5.89054">
        <ele>1422.686</ele>
        <time>2021-11-13T13:57:59Z</time>
      </trkpt>
      <trkpt lat="44.87907" lon="5.89056">
        <ele>1422.315</ele>
        <time>2021-11-13T13:58:00Z</time>
      </trkpt>
      <trkpt lat="44.87907" lon="5.89057">
        <ele>1421.727</ele>
        <time>2021-11-13T13:58:01Z</time>
      </trkpt>
      <trkpt lat="44.87907" lon="5.89058">
        <ele>1422.128</ele>
        <time>2021-11-13T13:58:02Z</time>
      </trkpt>
      <trkpt lat="44.87907" lon="5.89059">
        <ele>1422.206</ele>
        <time>2021-11-13T13:58:03Z</time>
      </trkpt>
      <trkpt lat="44.87906" lon="5.89062">
        <ele>1422.343</ele>
        <time>2021-11-13T13:58:05Z</time>
      </trkpt>
      <trkpt lat="44.87905" lon="5.89064">
        <ele>1423.662</ele>
        <time>2021-11-13T13:58:07Z</time>
      </trkpt>
      <trkpt lat="44.87906" lon="5.89068">
        <ele>1424.625</ele>
        <time>2021-11-13T13:58:10Z</time>
      </trkpt>
      <trkpt lat="44.87905" lon="5.89074">
        <ele>1425.525</ele>
        <time>2021-11-13T13:58:14Z</time>
      </trkpt>
      <trkpt lat="44.87904" lon="5.89078">
        <ele>1426.534</ele>
        <time>2021-11-13T13:58:17Z</time>
      </trkpt>
      <trkpt lat="44.87904" lon="5.8908">
        <ele>1428.329</ele>
        <time>2021-11-13T13:58:19Z</time>
      </trkpt>
      <trkpt lat="44.87901" lon="5.89086">
        <ele>1430.304</ele>
        <time>2021-11-13T13:58:26Z</time>
      </trkpt>
      <trkpt lat="44.87899" lon="5.891">
        <ele>1432.219</ele>
        <time>2021-11-13T13:58:38Z</time>
      </trkpt>
      <trkpt lat="44.87898" lon="5.89103">
        <ele>1433.167</ele>
        <time>2021-11-13T13:58:40Z</time>
      </trkpt>
      <trkpt lat="44.87899" lon="5.89106">
        <ele>1433.136</ele>
        <time>2021-11-13T13:58:43Z</time>
      </trkpt>
      <trkpt lat="44.879" lon="5.8911">
        <ele>1432.87</ele>
        <time>2021-11-13T13:58:47Z</time>
      </trkpt>
      <trkpt lat="44.87901" lon="5.89112">
        <ele>1432.545</ele>
        <time>2021-11-13T13:58:50Z</time>
      </trkpt>
      <trkpt lat="44.87901" lon="5.89113">
        <ele>1432.37</ele>
        <time>2021-11-13T13:58:51Z</time>
      </trkpt>
      <trkpt lat="44.87901" lon="5.89121">
        <ele>1434.519</ele>
        <time>2021-11-13T13:58:59Z</time>
      </trkpt>
      <trkpt lat="44.87901" lon="5.89127">
        <ele>1435.428</ele>
        <time>2021-11-13T13:59:04Z</time>
      </trkpt>
      <trkpt lat="44.87901" lon="5.89128">
        <ele>1435.578</ele>
        <time>2021-11-13T13:59:05Z</time>
      </trkpt>
      <trkpt lat="44.879" lon="5.89132">
        <ele>1435.582</ele>
        <time>2021-11-13T13:59:08Z</time>
      </trkpt>
      <trkpt lat="44.879" lon="5.89132">
        <ele>1435.94</ele>
        <time>2021-11-13T13:59:09Z</time>
      </trkpt>
      <trkpt lat="44.879" lon="5.89132">
        <ele>1435.379</ele>
        <time>2021-11-13T13:59:13Z</time>
      </trkpt>
      <trkpt lat="44.879" lon="5.89133">
        <ele>1435.271</ele>
        <time>2021-11-13T13:59:14Z</time>
      </trkpt>
      <trkpt lat="44.87899" lon="5.89134">
        <ele>1435.352</ele>
        <time>2021-11-13T13:59:15Z</time>
      </trkpt>
      <trkpt lat="44.87899" lon="5.89138">
        <ele>1434.099</ele>
        <time>2021-11-13T13:59:19Z</time>
      </trkpt>
      <trkpt lat="44.87898" lon="5.89138">
        <ele>1434.402</ele>
        <time>2021-11-13T13:59:20Z</time>
      </trkpt>
      <trkpt lat="44.87898" lon="5.89141">
        <ele>1435.069</ele>
        <time>2021-11-13T13:59:23Z</time>
      </trkpt>
      <trkpt lat="44.87898" lon="5.89142">
        <ele>1435.321</ele>
        <time>2021-11-13T13:59:24Z</time>
      </trkpt>
      <trkpt lat="44.87898" lon="5.89143">
        <ele>1435.7</ele>
        <time>2021-11-13T13:59:25Z</time>
      </trkpt>
      <trkpt lat="44.87898" lon="5.89144">
        <ele>1435.799</ele>
        <time>2021-11-13T13:59:26Z</time>
      </trkpt>
      <trkpt lat="44.87898" lon="5.89146">
        <ele>1436.234</ele>
        <time>2021-11-13T13:59:28Z</time>
      </trkpt>
      <trkpt lat="44.87895" lon="5.89165">
        <ele>1436.469</ele>
        <time>2021-11-13T13:59:45Z</time>
      </trkpt>
      <trkpt lat="44.87894" lon="5.89168">
        <ele>1436.536</ele>
        <time>2021-11-13T13:59:49Z</time>
      </trkpt>
      <trkpt lat="44.87892" lon="5.89174">
        <ele>1437.146</ele>
        <time>2021-11-13T13:59:55Z</time>
      </trkpt>
      <trkpt lat="44.87889" lon="5.89179">
        <ele>1438.012</ele>
        <time>2021-11-13T14:00:00Z</time>
      </trkpt>
      <trkpt lat="44.87888" lon="5.89183">
        <ele>1439.005</ele>
        <time>2021-11-13T14:00:05Z</time>
      </trkpt>
      <trkpt lat="44.87887" lon="5.89189">
        <ele>1439.074</ele>
        <time>2021-11-13T14:00:10Z</time>
      </trkpt>
      <trkpt lat="44.87887" lon="5.8919">
        <ele>1439.395</ele>
        <time>2021-11-13T14:00:11Z</time>
      </trkpt>
      <trkpt lat="44.87887" lon="5.89193">
        <ele>1439.844</ele>
        <time>2021-11-13T14:00:14Z</time>
      </trkpt>
      <trkpt lat="44.87887" lon="5.89194">
        <ele>1440.337</ele>
        <time>2021-11-13T14:00:15Z</time>
      </trkpt>
      <trkpt lat="44.87884" lon="5.89205">
        <ele>1440.801</ele>
        <time>2021-11-13T14:00:24Z</time>
      </trkpt>
      <trkpt lat="44.87884" lon="5.89207">
        <ele>1440.926</ele>
        <time>2021-11-13T14:00:26Z</time>
      </trkpt>
      <trkpt lat="44.87882" lon="5.89222">
        <ele>1440.178</ele>
        <time>2021-11-13T14:00:38Z</time>
      </trkpt>
      <trkpt lat="44.87883" lon="5.89229">
        <ele>1440.019</ele>
        <time>2021-11-13T14:00:45Z</time>
      </trkpt>
      <trkpt lat="44.87883" lon="5.89235">
        <ele>1440.238</ele>
        <time>2021-11-13T14:00:49Z</time>
      </trkpt>
      <trkpt lat="44.87887" lon="5.89245">
        <ele>1439.295</ele>
        <time>2021-11-13T14:01:00Z</time>
      </trkpt>
      <trkpt lat="44.87887" lon="5.89245">
        <ele>1439.295</ele>
        <time>2021-11-13T14:01:00Z</time>
      </trkpt>
      <trkpt lat="44.87887" lon="5.89245">
        <ele>1439.081</ele>
        <time>2021-11-13T14:01:01Z</time>
      </trkpt>
      <trkpt lat="44.87888" lon="5.89246">
        <ele>1438.893</ele>
        <time>2021-11-13T14:01:03Z</time>
      </trkpt>
      <trkpt lat="44.87888" lon="5.89246">
        <ele>1438.893</ele>
        <time>2021-11-13T14:01:03Z</time>
      </trkpt>
      <trkpt lat="44.87888" lon="5.89246">
        <ele>1439.26</ele>
        <time>2021-11-13T14:01:04Z</time>
      </trkpt>
      <trkpt lat="44.87888" lon="5.89246">
        <ele>1440.147</ele>
        <time>2021-11-13T14:01:07Z</time>
      </trkpt>
      <trkpt lat="44.87889" lon="5.89247">
        <ele>1439.657</ele>
        <time>2021-11-13T14:01:08Z</time>
      </trkpt>
      <trkpt lat="44.87889" lon="5.89247">
        <ele>1439.697</ele>
        <time>2021-11-13T14:01:09Z</time>
      </trkpt>
      <trkpt lat="44.87889" lon="5.89247">
        <ele>1439.697</ele>
        <time>2021-11-13T14:01:09Z</time>
      </trkpt>
      <trkpt lat="44.87889" lon="5.89249">
        <ele>1439.822</ele>
        <time>2021-11-13T14:01:10Z</time>
      </trkpt>
      <trkpt lat="44.8789" lon="5.89252">
        <ele>1439.369</ele>
        <time>2021-11-13T14:01:13Z</time>
      </trkpt>
      <trkpt lat="44.87894" lon="5.89257">
        <ele>1440.788</ele>
        <time>2021-11-13T14:01:19Z</time>
      </trkpt>
      <trkpt lat="44.87894" lon="5.89257">
        <ele>1440.788</ele>
        <time>2021-11-13T14:01:19Z</time>
      </trkpt>
      <trkpt lat="44.87894" lon="5.89258">
        <ele>1440.722</ele>
        <time>2021-11-13T14:01:20Z</time>
      </trkpt>
      <trkpt lat="44.87894" lon="5.8926">
        <ele>1440.404</ele>
        <time>2021-11-13T14:01:23Z</time>
      </trkpt>
      <trkpt lat="44.87894" lon="5.89266">
        <ele>1440.914</ele>
        <time>2021-11-13T14:01:28Z</time>
      </trkpt>
      <trkpt lat="44.87894" lon="5.89266">
        <ele>1440.914</ele>
        <time>2021-11-13T14:01:28Z</time>
      </trkpt>
      <trkpt lat="44.87894" lon="5.89267">
        <ele>1440.876</ele>
        <time>2021-11-13T14:01:29Z</time>
      </trkpt>
      <trkpt lat="44.87895" lon="5.89269">
        <ele>1440.977</ele>
        <time>2021-11-13T14:01:32Z</time>
      </trkpt>
      <trkpt lat="44.87896" lon="5.89271">
        <ele>1440.396</ele>
        <time>2021-11-13T14:01:35Z</time>
      </trkpt>
      <trkpt lat="44.87896" lon="5.89277">
        <ele>1441.662</ele>
        <time>2021-11-13T14:01:39Z</time>
      </trkpt>
      <trkpt lat="44.87898" lon="5.89285">
        <ele>1440.506</ele>
        <time>2021-11-13T14:01:47Z</time>
      </trkpt>
      <trkpt lat="44.879" lon="5.89287">
        <ele>1439.653</ele>
        <time>2021-11-13T14:01:50Z</time>
      </trkpt>
      <trkpt lat="44.879" lon="5.89288">
        <ele>1439.188</ele>
        <time>2021-11-13T14:01:51Z</time>
      </trkpt>
      <trkpt lat="44.87901" lon="5.89289">
        <ele>1439.132</ele>
        <time>2021-11-13T14:01:52Z</time>
      </trkpt>
      <trkpt lat="44.879" lon="5.8929">
        <ele>1439.24</ele>
        <time>2021-11-13T14:01:54Z</time>
      </trkpt>
      <trkpt lat="44.879" lon="5.89294">
        <ele>1438.413</ele>
        <time>2021-11-13T14:01:57Z</time>
      </trkpt>
      <trkpt lat="44.87901" lon="5.89296">
        <ele>1437.611</ele>
        <time>2021-11-13T14:01:59Z</time>
      </trkpt>
      <trkpt lat="44.87901" lon="5.89299">
        <ele>1437.604</ele>
        <time>2021-11-13T14:02:02Z</time>
      </trkpt>
      <trkpt lat="44.87902" lon="5.893">
        <ele>1437.658</ele>
        <time>2021-11-13T14:02:03Z</time>
      </trkpt>
      <trkpt lat="44.87902" lon="5.89301">
        <ele>1437.577</ele>
        <time>2021-11-13T14:02:04Z</time>
      </trkpt>
      <trkpt lat="44.87902" lon="5.89302">
        <ele>1436.445</ele>
        <time>2021-11-13T14:02:05Z</time>
      </trkpt>
      <trkpt lat="44.87901" lon="5.89305">
        <ele>1436.037</ele>
        <time>2021-11-13T14:02:07Z</time>
      </trkpt>
      <trkpt lat="44.87901" lon="5.89309">
        <ele>1435.897</ele>
        <time>2021-11-13T14:02:10Z</time>
      </trkpt>
      <trkpt lat="44.87902" lon="5.89313">
        <ele>1435.222</ele>
        <time>2021-11-13T14:02:16Z</time>
      </trkpt>
      <trkpt lat="44.87903" lon="5.89317">
        <ele>1434.659</ele>
        <time>2021-11-13T14:02:21Z</time>
      </trkpt>
      <trkpt lat="44.87905" lon="5.89321">
        <ele>1434.031</ele>
        <time>2021-11-13T14:02:25Z</time>
      </trkpt>
      <trkpt lat="44.8791" lon="5.89331">
        <ele>1432.022</ele>
        <time>2021-11-13T14:02:34Z</time>
      </trkpt>
      <trkpt lat="44.87914" lon="5.89334">
        <ele>1432.065</ele>
        <time>2021-11-13T14:02:38Z</time>
      </trkpt>
      <trkpt lat="44.87915" lon="5.89338">
        <ele>1432.041</ele>
        <time>2021-11-13T14:02:42Z</time>
      </trkpt>
      <trkpt lat="44.87913" lon="5.89345">
        <ele>1429.458</ele>
        <time>2021-11-13T14:02:49Z</time>
      </trkpt>
      <trkpt lat="44.87912" lon="5.8935">
        <ele>1428.946</ele>
        <time>2021-11-13T14:02:53Z</time>
      </trkpt>
      <trkpt lat="44.87915" lon="5.8936">
        <ele>1428.49</ele>
        <time>2021-11-13T14:03:03Z</time>
      </trkpt>
      <trkpt lat="44.87915" lon="5.8936">
        <ele>1428.49</ele>
        <time>2021-11-13T14:03:03Z</time>
      </trkpt>
      <trkpt lat="44.87915" lon="5.89361">
        <ele>1428.152</ele>
        <time>2021-11-13T14:03:04Z</time>
      </trkpt>
      <trkpt lat="44.87916" lon="5.89363">
        <ele>1427.515</ele>
        <time>2021-11-13T14:03:07Z</time>
      </trkpt>
      <trkpt lat="44.87916" lon="5.89363">
        <ele>1427.515</ele>
        <time>2021-11-13T14:03:07Z</time>
      </trkpt>
      <trkpt lat="44.87916" lon="5.89364">
        <ele>1427.326</ele>
        <time>2021-11-13T14:03:08Z</time>
      </trkpt>
      <trkpt lat="44.87917" lon="5.89367">
        <ele>1427.486</ele>
        <time>2021-11-13T14:03:12Z</time>
      </trkpt>
      <trkpt lat="44.87918" lon="5.89373">
        <ele>1426.542</ele>
        <time>2021-11-13T14:03:18Z</time>
      </trkpt>
      <trkpt lat="44.8792" lon="5.89378">
        <ele>1427.136</ele>
        <time>2021-11-13T14:03:22Z</time>
      </trkpt>
      <trkpt lat="44.87921" lon="5.89383">
        <ele>1425.854</ele>
        <time>2021-11-13T14:03:29Z</time>
      </trkpt>
      <trkpt lat="44.87922" lon="5.89386">
        <ele>1427.366</ele>
        <time>2021-11-13T14:03:33Z</time>
      </trkpt>
      <trkpt lat="44.87922" lon="5.89387">
        <ele>1426.245</ele>
        <time>2021-11-13T14:03:37Z</time>
      </trkpt>
      <trkpt lat="44.87923" lon="5.89387">
        <ele>1426.432</ele>
        <time>2021-11-13T14:03:38Z</time>
      </trkpt>
      <trkpt lat="44.87922" lon="5.89389">
        <ele>1425.736</ele>
        <time>2021-11-13T14:03:41Z</time>
      </trkpt>
      <trkpt lat="44.87922" lon="5.8939">
        <ele>1425.486</ele>
        <time>2021-11-13T14:03:43Z</time>
      </trkpt>
      <trkpt lat="44.87922" lon="5.8939">
        <ele>1425.486</ele>
        <time>2021-11-13T14:03:43Z</time>
      </trkpt>
      <trkpt lat="44.87923" lon="5.89391">
        <ele>1425.266</ele>
        <time>2021-11-13T14:03:44Z</time>
      </trkpt>
      <trkpt lat="44.87923" lon="5.89394">
        <ele>1425.202</ele>
        <time>2021-11-13T14:03:48Z</time>
      </trkpt>
      <trkpt lat="44.87922" lon="5.894">
        <ele>1424.395</ele>
        <time>2021-11-13T14:03:52Z</time>
      </trkpt>
      <trkpt lat="44.87922" lon="5.89404">
        <ele>1424.423</ele>
        <time>2021-11-13T14:03:55Z</time>
      </trkpt>
      <trkpt lat="44.87923" lon="5.89409">
        <ele>1425.085</ele>
        <time>2021-11-13T14:03:58Z</time>
      </trkpt>
      <trkpt lat="44.87922" lon="5.89414">
        <ele>1423.485</ele>
        <time>2021-11-13T14:04:02Z</time>
      </trkpt>
      <trkpt lat="44.87922" lon="5.89415">
        <ele>1423.536</ele>
        <time>2021-11-13T14:04:03Z</time>
      </trkpt>
      <trkpt lat="44.87921" lon="5.89423">
        <ele>1423.206</ele>
        <time>2021-11-13T14:04:10Z</time>
      </trkpt>
      <trkpt lat="44.87921" lon="5.89424">
        <ele>1423.332</ele>
        <time>2021-11-13T14:04:11Z</time>
      </trkpt>
      <trkpt lat="44.87922" lon="5.89426">
        <ele>1422.332</ele>
        <time>2021-11-13T14:04:14Z</time>
      </trkpt>
      <trkpt lat="44.87922" lon="5.89427">
        <ele>1421.958</ele>
        <time>2021-11-13T14:04:15Z</time>
      </trkpt>
      <trkpt lat="44.87922" lon="5.89427">
        <ele>1421.904</ele>
        <time>2021-11-13T14:04:16Z</time>
      </trkpt>
      <trkpt lat="44.87922" lon="5.89427">
        <ele>1421.904</ele>
        <time>2021-11-13T14:04:16Z</time>
      </trkpt>
      <trkpt lat="44.87922" lon="5.89427">
        <ele>1421.576</ele>
        <time>2021-11-13T14:04:17Z</time>
      </trkpt>
      <trkpt lat="44.87922" lon="5.89427">
        <ele>1422.431</ele>
        <time>2021-11-13T14:04:18Z</time>
      </trkpt>
      <trkpt lat="44.87922" lon="5.89427">
        <ele>1422.346</ele>
        <time>2021-11-13T14:04:19Z</time>
      </trkpt>
      <trkpt lat="44.87922" lon="5.89427">
        <ele>1422.804</ele>
        <time>2021-11-13T14:04:23Z</time>
      </trkpt>
      <trkpt lat="44.87922" lon="5.89426">
        <ele>1422.531</ele>
        <time>2021-11-13T14:04:24Z</time>
      </trkpt>
      <trkpt lat="44.87921" lon="5.89428">
        <ele>1423.839</ele>
        <time>2021-11-13T14:04:26Z</time>
      </trkpt>
      <trkpt lat="44.87921" lon="5.8943">
        <ele>1423.389</ele>
        <time>2021-11-13T14:04:27Z</time>
      </trkpt>
      <trkpt lat="44.8792" lon="5.89434">
        <ele>1423.418</ele>
        <time>2021-11-13T14:04:30Z</time>
      </trkpt>
      <trkpt lat="44.8792" lon="5.89436">
        <ele>1422.291</ele>
        <time>2021-11-13T14:04:32Z</time>
      </trkpt>
      <trkpt lat="44.87921" lon="5.8944">
        <ele>1421.71</ele>
        <time>2021-11-13T14:04:35Z</time>
      </trkpt>
      <trkpt lat="44.87922" lon="5.89447">
        <ele>1419.726</ele>
        <time>2021-11-13T14:04:42Z</time>
      </trkpt>
      <trkpt lat="44.87922" lon="5.89447">
        <ele>1419.62</ele>
        <time>2021-11-13T14:04:43Z</time>
      </trkpt>
      <trkpt lat="44.87921" lon="5.89448">
        <ele>1419.411</ele>
        <time>2021-11-13T14:04:46Z</time>
      </trkpt>
      <trkpt lat="44.87921" lon="5.8945">
        <ele>1419.216</ele>
        <time>2021-11-13T14:04:47Z</time>
      </trkpt>
      <trkpt lat="44.87919" lon="5.89454">
        <ele>1418.839</ele>
        <time>2021-11-13T14:04:51Z</time>
      </trkpt>
      <trkpt lat="44.87916" lon="5.89462">
        <ele>1418.741</ele>
        <time>2021-11-13T14:04:58Z</time>
      </trkpt>
      <trkpt lat="44.87916" lon="5.89471">
        <ele>1416.368</ele>
        <time>2021-11-13T14:05:04Z</time>
      </trkpt>
      <trkpt lat="44.87916" lon="5.89472">
        <ele>1415.616</ele>
        <time>2021-11-13T14:05:06Z</time>
      </trkpt>
      <trkpt lat="44.87916" lon="5.89477">
        <ele>1415.395</ele>
        <time>2021-11-13T14:05:11Z</time>
      </trkpt>
      <trkpt lat="44.87916" lon="5.89481">
        <ele>1412.778</ele>
        <time>2021-11-13T14:05:16Z</time>
      </trkpt>
      <trkpt lat="44.87914" lon="5.89507">
        <ele>1411.436</ele>
        <time>2021-11-13T14:05:39Z</time>
      </trkpt>
      <trkpt lat="44.87911" lon="5.89509">
        <ele>1409.736</ele>
        <time>2021-11-13T14:05:43Z</time>
      </trkpt>
      <trkpt lat="44.87906" lon="5.89513">
        <ele>1408.938</ele>
        <time>2021-11-13T14:05:50Z</time>
      </trkpt>
      <trkpt lat="44.87905" lon="5.89515">
        <ele>1408.549</ele>
        <time>2021-11-13T14:05:53Z</time>
      </trkpt>
      <trkpt lat="44.87904" lon="5.89518">
        <ele>1408.276</ele>
        <time>2021-11-13T14:05:58Z</time>
      </trkpt>
      <trkpt lat="44.87904" lon="5.89519">
        <ele>1408.213</ele>
        <time>2021-11-13T14:06:00Z</time>
      </trkpt>
      <trkpt lat="44.87904" lon="5.89521">
        <ele>1407.871</ele>
        <time>2021-11-13T14:06:03Z</time>
      </trkpt>
      <trkpt lat="44.87904" lon="5.89522">
        <ele>1407.75</ele>
        <time>2021-11-13T14:06:04Z</time>
      </trkpt>
      <trkpt lat="44.87901" lon="5.89529">
        <ele>1406.633</ele>
        <time>2021-11-13T14:06:13Z</time>
      </trkpt>
      <trkpt lat="44.87901" lon="5.8953">
        <ele>1406.374</ele>
        <time>2021-11-13T14:06:14Z</time>
      </trkpt>
      <trkpt lat="44.879" lon="5.89534">
        <ele>1406.126</ele>
        <time>2021-11-13T14:06:18Z</time>
      </trkpt>
      <trkpt lat="44.87899" lon="5.89538">
        <ele>1405.884</ele>
        <time>2021-11-13T14:06:23Z</time>
      </trkpt>
      <trkpt lat="44.87899" lon="5.89539">
        <ele>1405.55</ele>
        <time>2021-11-13T14:06:25Z</time>
      </trkpt>
      <trkpt lat="44.87898" lon="5.89541">
        <ele>1406.532</ele>
        <time>2021-11-13T14:06:30Z</time>
      </trkpt>
      <trkpt lat="44.87898" lon="5.89541">
        <ele>1406.532</ele>
        <time>2021-11-13T14:06:30Z</time>
      </trkpt>
      <trkpt lat="44.87898" lon="5.89541">
        <ele>1406.563</ele>
        <time>2021-11-13T14:06:31Z</time>
      </trkpt>
      <trkpt lat="44.87898" lon="5.89541">
        <ele>1406.166</ele>
        <time>2021-11-13T14:06:33Z</time>
      </trkpt>
      <trkpt lat="44.87898" lon="5.8954">
        <ele>1405.849</ele>
        <time>2021-11-13T14:06:34Z</time>
      </trkpt>
      <trkpt lat="44.87898" lon="5.8954">
        <ele>1405.992</ele>
        <time>2021-11-13T14:06:35Z</time>
      </trkpt>
      <trkpt lat="44.87898" lon="5.8954">
        <ele>1405.992</ele>
        <time>2021-11-13T14:06:35Z</time>
      </trkpt>
      <trkpt lat="44.87899" lon="5.89541">
        <ele>1406.719</ele>
        <time>2021-11-13T14:06:36Z</time>
      </trkpt>
      <trkpt lat="44.87899" lon="5.89541">
        <ele>1406.719</ele>
        <time>2021-11-13T14:06:36Z</time>
      </trkpt>
      <trkpt lat="44.87899" lon="5.89541">
        <ele>1407.238</ele>
        <time>2021-11-13T14:06:37Z</time>
      </trkpt>
      <trkpt lat="44.87899" lon="5.89541">
        <ele>1407.803</ele>
        <time>2021-11-13T14:06:38Z</time>
      </trkpt>
      <trkpt lat="44.87899" lon="5.89542">
        <ele>1409.662</ele>
        <time>2021-11-13T14:06:39Z</time>
      </trkpt>
      <trkpt lat="44.87899" lon="5.89542">
        <ele>1409.388</ele>
        <time>2021-11-13T14:06:40Z</time>
      </trkpt>
      <trkpt lat="44.87899" lon="5.89542">
        <ele>1409.167</ele>
        <time>2021-11-13T14:06:41Z</time>
      </trkpt>
      <trkpt lat="44.87898" lon="5.89543">
        <ele>1409.666</ele>
        <time>2021-11-13T14:06:42Z</time>
      </trkpt>
      <trkpt lat="44.87898" lon="5.89543">
        <ele>1408.867</ele>
        <time>2021-11-13T14:06:44Z</time>
      </trkpt>
      <trkpt lat="44.87898" lon="5.89543">
        <ele>1409.094</ele>
        <time>2021-11-13T14:06:57Z</time>
      </trkpt>
      <trkpt lat="44.87898" lon="5.89543">
        <ele>1408.499</ele>
        <time>2021-11-13T14:06:58Z</time>
      </trkpt>
      <trkpt lat="44.87898" lon="5.89543">
        <ele>1408.437</ele>
        <time>2021-11-13T14:06:59Z</time>
      </trkpt>
      <trkpt lat="44.87898" lon="5.89543">
        <ele>1408.421</ele>
        <time>2021-11-13T14:07:22Z</time>
      </trkpt>
      <trkpt lat="44.87898" lon="5.89542">
        <ele>1408.231</ele>
        <time>2021-11-13T14:07:23Z</time>
      </trkpt>
      <trkpt lat="44.87898" lon="5.89542">
        <ele>1408.201</ele>
        <time>2021-11-13T14:07:24Z</time>
      </trkpt>
      <trkpt lat="44.87898" lon="5.89542">
        <ele>1408.19</ele>
        <time>2021-11-13T14:07:47Z</time>
      </trkpt>
      <trkpt lat="44.87897" lon="5.89541">
        <ele>1407.802</ele>
        <time>2021-11-13T14:07:48Z</time>
      </trkpt>
      <trkpt lat="44.87897" lon="5.89541">
        <ele>1407.24</ele>
        <time>2021-11-13T14:07:49Z</time>
      </trkpt>
      <trkpt lat="44.87896" lon="5.89542">
        <ele>1407.362</ele>
        <time>2021-11-13T14:07:52Z</time>
      </trkpt>
      <trkpt lat="44.87896" lon="5.89542">
        <ele>1407.405</ele>
        <time>2021-11-13T14:08:14Z</time>
      </trkpt>
      <trkpt lat="44.87895" lon="5.89543">
        <ele>1407.763</ele>
        <time>2021-11-13T14:08:15Z</time>
      </trkpt>
      <trkpt lat="44.87895" lon="5.89543">
        <ele>1407.763</ele>
        <time>2021-11-13T14:08:15Z</time>
      </trkpt>
      <trkpt lat="44.87895" lon="5.89543">
        <ele>1407.67</ele>
        <time>2021-11-13T14:08:16Z</time>
      </trkpt>
      <trkpt lat="44.87895" lon="5.89543">
        <ele>1407.744</ele>
        <time>2021-11-13T14:08:25Z</time>
      </trkpt>
      <trkpt lat="44.87897" lon="5.89542">
        <ele>1408.876</ele>
        <time>2021-11-13T14:08:26Z</time>
      </trkpt>
      <trkpt lat="44.87897" lon="5.89542">
        <ele>1409.43</ele>
        <time>2021-11-13T14:08:27Z</time>
      </trkpt>
      <trkpt lat="44.87897" lon="5.89542">
        <ele>1409.43</ele>
        <time>2021-11-13T14:08:27Z</time>
      </trkpt>
      <trkpt lat="44.87898" lon="5.89542">
        <ele>1410.04</ele>
        <time>2021-11-13T14:08:28Z</time>
      </trkpt>
      <trkpt lat="44.87897" lon="5.89543">
        <ele>1409.988</ele>
        <time>2021-11-13T14:08:29Z</time>
      </trkpt>
      <trkpt lat="44.87897" lon="5.89543">
        <ele>1410.923</ele>
        <time>2021-11-13T14:08:30Z</time>
      </trkpt>
      <trkpt lat="44.87897" lon="5.89543">
        <ele>1410.429</ele>
        <time>2021-11-13T14:08:42Z</time>
      </trkpt>
      <trkpt lat="44.87897" lon="5.89542">
        <ele>1410.215</ele>
        <time>2021-11-13T14:08:43Z</time>
      </trkpt>
      <trkpt lat="44.87897" lon="5.89542">
        <ele>1409.833</ele>
        <time>2021-11-13T14:08:44Z</time>
      </trkpt>
      <trkpt lat="44.87897" lon="5.89542">
        <ele>1409.851</ele>
        <time>2021-11-13T14:08:48Z</time>
      </trkpt>
      <trkpt lat="44.87897" lon="5.89541">
        <ele>1410.036</ele>
        <time>2021-11-13T14:08:50Z</time>
      </trkpt>
      <trkpt lat="44.87897" lon="5.89541">
        <ele>1411.034</ele>
        <time>2021-11-13T14:08:53Z</time>
      </trkpt>
      <trkpt lat="44.87897" lon="5.89541">
        <ele>1411.351</ele>
        <time>2021-11-13T14:08:55Z</time>
      </trkpt>
      <trkpt lat="44.87897" lon="5.89541">
        <ele>1412.261</ele>
        <time>2021-11-13T14:09:07Z</time>
      </trkpt>
      <trkpt lat="44.87898" lon="5.89541">
        <ele>1412.76</ele>
        <time>2021-11-13T14:09:08Z</time>
      </trkpt>
      <trkpt lat="44.87898" lon="5.89541">
        <ele>1412.76</ele>
        <time>2021-11-13T14:09:08Z</time>
      </trkpt>
      <trkpt lat="44.87898" lon="5.89541">
        <ele>1412.78</ele>
        <time>2021-11-13T14:09:09Z</time>
      </trkpt>
      <trkpt lat="44.87898" lon="5.89541">
        <ele>1412.494</ele>
        <time>2021-11-13T14:09:29Z</time>
      </trkpt>
      <trkpt lat="44.87897" lon="5.89542">
        <ele>1413.24</ele>
        <time>2021-11-13T14:09:30Z</time>
      </trkpt>
      <trkpt lat="44.87897" lon="5.89542">
        <ele>1413.233</ele>
        <time>2021-11-13T14:09:31Z</time>
      </trkpt>
      <trkpt lat="44.87897" lon="5.89542">
        <ele>1414.172</ele>
        <time>2021-11-13T14:09:48Z</time>
      </trkpt>
      <trkpt lat="44.87897" lon="5.89544">
        <ele>1413.892</ele>
        <time>2021-11-13T14:09:49Z</time>
      </trkpt>
      <trkpt lat="44.87897" lon="5.89544">
        <ele>1413.892</ele>
        <time>2021-11-13T14:09:49Z</time>
      </trkpt>
      <trkpt lat="44.87897" lon="5.89544">
        <ele>1414</ele>
        <time>2021-11-13T14:09:50Z</time>
      </trkpt>
      <trkpt lat="44.87897" lon="5.89544">
        <ele>1414.29</ele>
        <time>2021-11-13T14:09:57Z</time>
      </trkpt>
      <trkpt lat="44.87898" lon="5.89543">
        <ele>1414.203</ele>
        <time>2021-11-13T14:09:58Z</time>
      </trkpt>
      <trkpt lat="44.87898" lon="5.89543">
        <ele>1414.193</ele>
        <time>2021-11-13T14:09:59Z</time>
      </trkpt>
      <trkpt lat="44.87898" lon="5.89543">
        <ele>1414.116</ele>
        <time>2021-11-13T14:10:16Z</time>
      </trkpt>
      <trkpt lat="44.87897" lon="5.89542">
        <ele>1413.892</ele>
        <time>2021-11-13T14:10:17Z</time>
      </trkpt>
      <trkpt lat="44.87897" lon="5.89542">
        <ele>1413.892</ele>
        <time>2021-11-13T14:10:17Z</time>
      </trkpt>
      <trkpt lat="44.87897" lon="5.89542">
        <ele>1413.546</ele>
        <time>2021-11-13T14:10:18Z</time>
      </trkpt>
      <trkpt lat="44.87898" lon="5.89542">
        <ele>1412.384</ele>
        <time>2021-11-13T14:10:22Z</time>
      </trkpt>
      <trkpt lat="44.87898" lon="5.89542">
        <ele>1411.952</ele>
        <time>2021-11-13T14:10:26Z</time>
      </trkpt>
      <trkpt lat="44.87899" lon="5.89542">
        <ele>1411.849</ele>
        <time>2021-11-13T14:10:27Z</time>
      </trkpt>
      <trkpt lat="44.87898" lon="5.89542">
        <ele>1411.987</ele>
        <time>2021-11-13T14:10:29Z</time>
      </trkpt>
      <trkpt lat="44.87898" lon="5.89542">
        <ele>1412.492</ele>
        <time>2021-11-13T14:10:30Z</time>
      </trkpt>
      <trkpt lat="44.87898" lon="5.89542">
        <ele>1412.187</ele>
        <time>2021-11-13T14:10:31Z</time>
      </trkpt>
      <trkpt lat="44.87898" lon="5.89542">
        <ele>1412.992</ele>
        <time>2021-11-13T14:10:32Z</time>
      </trkpt>
      <trkpt lat="44.87898" lon="5.89542">
        <ele>1412.992</ele>
        <time>2021-11-13T14:10:32Z</time>
      </trkpt>
      <trkpt lat="44.87898" lon="5.89542">
        <ele>1412.812</ele>
        <time>2021-11-13T14:10:33Z</time>
      </trkpt>
      <trkpt lat="44.87898" lon="5.89543">
        <ele>1411.836</ele>
        <time>2021-11-13T14:10:34Z</time>
      </trkpt>
      <trkpt lat="44.87898" lon="5.89543">
        <ele>1411.836</ele>
        <time>2021-11-13T14:10:34Z</time>
      </trkpt>
      <trkpt lat="44.87898" lon="5.89543">
        <ele>1412.023</ele>
        <time>2021-11-13T14:10:35Z</time>
      </trkpt>
      <trkpt lat="44.87898" lon="5.89543">
        <ele>1411.547</ele>
        <time>2021-11-13T14:10:50Z</time>
      </trkpt>
      <trkpt lat="44.87898" lon="5.89545">
        <ele>1411.918</ele>
        <time>2021-11-13T14:10:51Z</time>
      </trkpt>
      <trkpt lat="44.87898" lon="5.89545">
        <ele>1411.918</ele>
        <time>2021-11-13T14:10:51Z</time>
      </trkpt>
      <trkpt lat="44.87898" lon="5.89545">
        <ele>1411.979</ele>
        <time>2021-11-13T14:10:52Z</time>
      </trkpt>
      <trkpt lat="44.87898" lon="5.89545">
        <ele>1411.972</ele>
        <time>2021-11-13T14:11:08Z</time>
      </trkpt>
      <trkpt lat="44.87898" lon="5.89545">
        <ele>1411.091</ele>
        <time>2021-11-13T14:11:09Z</time>
      </trkpt>
      <trkpt lat="44.87898" lon="5.89545">
        <ele>1410.608</ele>
        <time>2021-11-13T14:11:10Z</time>
      </trkpt>
      <trkpt lat="44.87898" lon="5.89545">
        <ele>1410.608</ele>
        <time>2021-11-13T14:11:10Z</time>
      </trkpt>
      <trkpt lat="44.87898" lon="5.89544">
        <ele>1410.4</ele>
        <time>2021-11-13T14:11:11Z</time>
      </trkpt>
      <trkpt lat="44.87898" lon="5.89544">
        <ele>1410.339</ele>
        <time>2021-11-13T14:11:12Z</time>
      </trkpt>
      <trkpt lat="44.87898" lon="5.89544">
        <ele>1410.286</ele>
        <time>2021-11-13T14:11:21Z</time>
      </trkpt>
      <trkpt lat="44.87898" lon="5.89545">
        <ele>1411.034</ele>
        <time>2021-11-13T14:11:22Z</time>
      </trkpt>
      <trkpt lat="44.87899" lon="5.89547">
        <ele>1411.426</ele>
        <time>2021-11-13T14:11:26Z</time>
      </trkpt>
      <trkpt lat="44.87899" lon="5.89547">
        <ele>1411.426</ele>
        <time>2021-11-13T14:11:26Z</time>
      </trkpt>
      <trkpt lat="44.87899" lon="5.89547">
        <ele>1411.418</ele>
        <time>2021-11-13T14:11:27Z</time>
      </trkpt>
      <trkpt lat="44.87899" lon="5.89547">
        <ele>1411.396</ele>
        <time>2021-11-13T14:11:41Z</time>
      </trkpt>
      <trkpt lat="44.87898" lon="5.89546">
        <ele>1411.292</ele>
        <time>2021-11-13T14:11:42Z</time>
      </trkpt>
      <trkpt lat="44.87898" lon="5.89546">
        <ele>1411.867</ele>
        <time>2021-11-13T14:11:43Z</time>
      </trkpt>
      <trkpt lat="44.87897" lon="5.89547">
        <ele>1412.265</ele>
        <time>2021-11-13T14:11:44Z</time>
      </trkpt>
      <trkpt lat="44.87894" lon="5.8955">
        <ele>1411.962</ele>
        <time>2021-11-13T14:11:47Z</time>
      </trkpt>
      <trkpt lat="44.87892" lon="5.89553">
        <ele>1411.772</ele>
        <time>2021-11-13T14:11:50Z</time>
      </trkpt>
      <trkpt lat="44.87892" lon="5.89559">
        <ele>1411.176</ele>
        <time>2021-11-13T14:11:55Z</time>
      </trkpt>
      <trkpt lat="44.87892" lon="5.89559">
        <ele>1409.811</ele>
        <time>2021-11-13T14:11:57Z</time>
      </trkpt>
      <trkpt lat="44.87893" lon="5.8956">
        <ele>1409.417</ele>
        <time>2021-11-13T14:12:00Z</time>
      </trkpt>
      <trkpt lat="44.87893" lon="5.8956">
        <ele>1409.417</ele>
        <time>2021-11-13T14:12:00Z</time>
      </trkpt>
      <trkpt lat="44.87892" lon="5.89558">
        <ele>1408.511</ele>
        <time>2021-11-13T14:12:01Z</time>
      </trkpt>
      <trkpt lat="44.87892" lon="5.89558">
        <ele>1407.849</ele>
        <time>2021-11-13T14:12:03Z</time>
      </trkpt>
      <trkpt lat="44.87892" lon="5.89558">
        <ele>1408.13</ele>
        <time>2021-11-13T14:12:34Z</time>
      </trkpt>
      <trkpt lat="44.87892" lon="5.89557">
        <ele>1408.206</ele>
        <time>2021-11-13T14:12:35Z</time>
      </trkpt>
      <trkpt lat="44.87892" lon="5.89557">
        <ele>1408.245</ele>
        <time>2021-11-13T14:12:36Z</time>
      </trkpt>
      <trkpt lat="44.87892" lon="5.89557">
        <ele>1408.245</ele>
        <time>2021-11-13T14:12:37Z</time>
      </trkpt>
      <trkpt lat="44.87892" lon="5.89557">
        <ele>1408.239</ele>
        <time>2021-11-13T14:12:38Z</time>
      </trkpt>
      <trkpt lat="44.87892" lon="5.89558">
        <ele>1408.586</ele>
        <time>2021-11-13T14:12:39Z</time>
      </trkpt>
      <trkpt lat="44.87892" lon="5.89558">
        <ele>1408.586</ele>
        <time>2021-11-13T14:12:39Z</time>
      </trkpt>
      <trkpt lat="44.87892" lon="5.89558">
        <ele>1408.686</ele>
        <time>2021-11-13T14:12:40Z</time>
      </trkpt>
      <trkpt lat="44.87892" lon="5.89558">
        <ele>1408.992</ele>
        <time>2021-11-13T14:12:45Z</time>
      </trkpt>
      <trkpt lat="44.87892" lon="5.89558">
        <ele>1408.798</ele>
        <time>2021-11-13T14:12:46Z</time>
      </trkpt>
      <trkpt lat="44.87892" lon="5.89559">
        <ele>1408.674</ele>
        <time>2021-11-13T14:12:47Z</time>
      </trkpt>
      <trkpt lat="44.87892" lon="5.89559">
        <ele>1408.111</ele>
        <time>2021-11-13T14:12:48Z</time>
      </trkpt>
      <trkpt lat="44.87892" lon="5.89559">
        <ele>1408.111</ele>
        <time>2021-11-13T14:12:48Z</time>
      </trkpt>
      <trkpt lat="44.87892" lon="5.89559">
        <ele>1408.118</ele>
        <time>2021-11-13T14:12:49Z</time>
      </trkpt>
      <trkpt lat="44.87892" lon="5.89559">
        <ele>1408.102</ele>
        <time>2021-11-13T14:13:00Z</time>
      </trkpt>
      <trkpt lat="44.87892" lon="5.89559">
        <ele>1408.465</ele>
        <time>2021-11-13T14:13:01Z</time>
      </trkpt>
      <trkpt lat="44.87892" lon="5.89559">
        <ele>1408.465</ele>
        <time>2021-11-13T14:13:01Z</time>
      </trkpt>
      <trkpt lat="44.87892" lon="5.89559">
        <ele>1408.466</ele>
        <time>2021-11-13T14:13:02Z</time>
      </trkpt>
      <trkpt lat="44.87892" lon="5.89559">
        <ele>1408.47</ele>
        <time>2021-11-13T14:13:05Z</time>
      </trkpt>
      <trkpt lat="44.87893" lon="5.89559">
        <ele>1408.635</ele>
        <time>2021-11-13T14:13:06Z</time>
      </trkpt>
      <trkpt lat="44.87893" lon="5.89559">
        <ele>1408.635</ele>
        <time>2021-11-13T14:13:07Z</time>
      </trkpt>
      <trkpt lat="44.87893" lon="5.89559">
        <ele>1408.636</ele>
        <time>2021-11-13T14:13:39Z</time>
      </trkpt>
      <trkpt lat="44.87893" lon="5.89559">
        <ele>1408.334</ele>
        <time>2021-11-13T14:13:40Z</time>
      </trkpt>
      <trkpt lat="44.87893" lon="5.89559">
        <ele>1408.343</ele>
        <time>2021-11-13T14:13:41Z</time>
      </trkpt>
      <trkpt lat="44.87893" lon="5.89559">
        <ele>1407.272</ele>
        <time>2021-11-13T14:13:44Z</time>
      </trkpt>
      <trkpt lat="44.87893" lon="5.8956">
        <ele>1406.984</ele>
        <time>2021-11-13T14:13:45Z</time>
      </trkpt>
      <trkpt lat="44.87893" lon="5.8956">
        <ele>1407.212</ele>
        <time>2021-11-13T14:13:47Z</time>
      </trkpt>
      <trkpt lat="44.87893" lon="5.8956">
        <ele>1407.204</ele>
        <time>2021-11-13T14:13:55Z</time>
      </trkpt>
      <trkpt lat="44.87894" lon="5.89559">
        <ele>1407.341</ele>
        <time>2021-11-13T14:13:56Z</time>
      </trkpt>
      <trkpt lat="44.87894" lon="5.89559">
        <ele>1407.343</ele>
        <time>2021-11-13T14:13:57Z</time>
      </trkpt>
      <trkpt lat="44.87894" lon="5.89559">
        <ele>1407.338</ele>
        <time>2021-11-13T14:14:12Z</time>
      </trkpt>
      <trkpt lat="44.87894" lon="5.8956">
        <ele>1407.612</ele>
        <time>2021-11-13T14:14:13Z</time>
      </trkpt>
      <trkpt lat="44.87894" lon="5.8956">
        <ele>1408.038</ele>
        <time>2021-11-13T14:14:14Z</time>
      </trkpt>
      <trkpt lat="44.87894" lon="5.89563">
        <ele>1407.797</ele>
        <time>2021-11-13T14:14:17Z</time>
      </trkpt>
      <trkpt lat="44.87896" lon="5.89566">
        <ele>1408.265</ele>
        <time>2021-11-13T14:14:22Z</time>
      </trkpt>
      <trkpt lat="44.87896" lon="5.89566">
        <ele>1407.765</ele>
        <time>2021-11-13T14:14:23Z</time>
      </trkpt>
      <trkpt lat="44.87896" lon="5.89566">
        <ele>1408.137</ele>
        <time>2021-11-13T14:14:26Z</time>
      </trkpt>
      <trkpt lat="44.87896" lon="5.89565">
        <ele>1408.636</ele>
        <time>2021-11-13T14:14:27Z</time>
      </trkpt>
      <trkpt lat="44.87895" lon="5.89564">
        <ele>1408.422</ele>
        <time>2021-11-13T14:14:28Z</time>
      </trkpt>
      <trkpt lat="44.87894" lon="5.89562">
        <ele>1407.581</ele>
        <time>2021-11-13T14:14:32Z</time>
      </trkpt>
      <trkpt lat="44.87894" lon="5.89562">
        <ele>1407.594</ele>
        <time>2021-11-13T14:14:35Z</time>
      </trkpt>
      <trkpt lat="44.87893" lon="5.89562">
        <ele>1407.841</ele>
        <time>2021-11-13T14:14:36Z</time>
      </trkpt>
      <trkpt lat="44.87893" lon="5.89562">
        <ele>1408.077</ele>
        <time>2021-11-13T14:14:37Z</time>
      </trkpt>
      <trkpt lat="44.87893" lon="5.89563">
        <ele>1407.776</ele>
        <time>2021-11-13T14:14:40Z</time>
      </trkpt>
      <trkpt lat="44.87892" lon="5.89575">
        <ele>1408.659</ele>
        <time>2021-11-13T14:14:51Z</time>
      </trkpt>
      <trkpt lat="44.87892" lon="5.89575">
        <ele>1409.401</ele>
        <time>2021-11-13T14:14:52Z</time>
      </trkpt>
      <trkpt lat="44.87892" lon="5.89575">
        <ele>1409.906</ele>
        <time>2021-11-13T14:14:53Z</time>
      </trkpt>
      <trkpt lat="44.8789" lon="5.89574">
        <ele>1408.751</ele>
        <time>2021-11-13T14:14:56Z</time>
      </trkpt>
      <trkpt lat="44.8789" lon="5.89573">
        <ele>1408.769</ele>
        <time>2021-11-13T14:14:57Z</time>
      </trkpt>
      <trkpt lat="44.8789" lon="5.89573">
        <ele>1409.558</ele>
        <time>2021-11-13T14:14:58Z</time>
      </trkpt>
      <trkpt lat="44.8789" lon="5.89573">
        <ele>1409.763</ele>
        <time>2021-11-13T14:15:01Z</time>
      </trkpt>
      <trkpt lat="44.8789" lon="5.89573">
        <ele>1410.323</ele>
        <time>2021-11-13T14:15:02Z</time>
      </trkpt>
      <trkpt lat="44.8789" lon="5.89573">
        <ele>1409.997</ele>
        <time>2021-11-13T14:15:03Z</time>
      </trkpt>
      <trkpt lat="44.8789" lon="5.89573">
        <ele>1409.997</ele>
        <time>2021-11-13T14:15:03Z</time>
      </trkpt>
      <trkpt lat="44.8789" lon="5.89573">
        <ele>1409.792</ele>
        <time>2021-11-13T14:15:04Z</time>
      </trkpt>
      <trkpt lat="44.87891" lon="5.89575">
        <ele>1409.815</ele>
        <time>2021-11-13T14:15:06Z</time>
      </trkpt>
      <trkpt lat="44.8789" lon="5.8958">
        <ele>1410.362</ele>
        <time>2021-11-13T14:15:10Z</time>
      </trkpt>
      <trkpt lat="44.8789" lon="5.89582">
        <ele>1410.54</ele>
        <time>2021-11-13T14:15:12Z</time>
      </trkpt>
      <trkpt lat="44.87889" lon="5.89584">
        <ele>1411.595</ele>
        <time>2021-11-13T14:15:15Z</time>
      </trkpt>
      <trkpt lat="44.87887" lon="5.89594">
        <ele>1411.566</ele>
        <time>2021-11-13T14:15:23Z</time>
      </trkpt>
      <trkpt lat="44.87886" lon="5.89599">
        <ele>1412.491</ele>
        <time>2021-11-13T14:15:27Z</time>
      </trkpt>
      <trkpt lat="44.87885" lon="5.89603">
        <ele>1412.042</ele>
        <time>2021-11-13T14:15:31Z</time>
      </trkpt>
      <trkpt lat="44.87885" lon="5.89609">
        <ele>1413.837</ele>
        <time>2021-11-13T14:15:37Z</time>
      </trkpt>
      <trkpt lat="44.87885" lon="5.89609">
        <ele>1414.158</ele>
        <time>2021-11-13T14:15:38Z</time>
      </trkpt>
      <trkpt lat="44.87885" lon="5.89609">
        <ele>1414.158</ele>
        <time>2021-11-13T14:15:38Z</time>
      </trkpt>
      <trkpt lat="44.87885" lon="5.8961">
        <ele>1414.14</ele>
        <time>2021-11-13T14:15:39Z</time>
      </trkpt>
      <trkpt lat="44.87884" lon="5.89612">
        <ele>1413.994</ele>
        <time>2021-11-13T14:15:41Z</time>
      </trkpt>
      <trkpt lat="44.87884" lon="5.89621">
        <ele>1414.386</ele>
        <time>2021-11-13T14:15:50Z</time>
      </trkpt>
      <trkpt lat="44.87884" lon="5.89622">
        <ele>1414.661</ele>
        <time>2021-11-13T14:15:52Z</time>
      </trkpt>
      <trkpt lat="44.87884" lon="5.89624">
        <ele>1414.56</ele>
        <time>2021-11-13T14:15:55Z</time>
      </trkpt>
      <trkpt lat="44.87885" lon="5.89625">
        <ele>1415.041</ele>
        <time>2021-11-13T14:15:57Z</time>
      </trkpt>
      <trkpt lat="44.87884" lon="5.89626">
        <ele>1415.568</ele>
        <time>2021-11-13T14:16:02Z</time>
      </trkpt>
      <trkpt lat="44.87886" lon="5.8965">
        <ele>1417.865</ele>
        <time>2021-11-13T14:16:23Z</time>
      </trkpt>
      <trkpt lat="44.87886" lon="5.89659">
        <ele>1418.488</ele>
        <time>2021-11-13T14:16:31Z</time>
      </trkpt>
      <trkpt lat="44.87884" lon="5.89667">
        <ele>1419.75</ele>
        <time>2021-11-13T14:16:40Z</time>
      </trkpt>
      <trkpt lat="44.87885" lon="5.89677">
        <ele>1421.798</ele>
        <time>2021-11-13T14:16:50Z</time>
      </trkpt>
      <trkpt lat="44.87886" lon="5.89685">
        <ele>1424.395</ele>
        <time>2021-11-13T14:17:00Z</time>
      </trkpt>
      <trkpt lat="44.87886" lon="5.89686">
        <ele>1423.947</ele>
        <time>2021-11-13T14:17:01Z</time>
      </trkpt>
      <trkpt lat="44.87887" lon="5.89691">
        <ele>1426.026</ele>
        <time>2021-11-13T14:17:06Z</time>
      </trkpt>
      <trkpt lat="44.87887" lon="5.89692">
        <ele>1426.143</ele>
        <time>2021-11-13T14:17:07Z</time>
      </trkpt>
      <trkpt lat="44.87887" lon="5.89693">
        <ele>1426.027</ele>
        <time>2021-11-13T14:17:08Z</time>
      </trkpt>
      <trkpt lat="44.87887" lon="5.89696">
        <ele>1427.66</ele>
        <time>2021-11-13T14:17:11Z</time>
      </trkpt>
      <trkpt lat="44.87887" lon="5.897">
        <ele>1428.167</ele>
        <time>2021-11-13T14:17:15Z</time>
      </trkpt>
      <trkpt lat="44.87887" lon="5.89732">
        <ele>1430.556</ele>
        <time>2021-11-13T14:17:36Z</time>
      </trkpt>
      <trkpt lat="44.87888" lon="5.89741">
        <ele>1431.507</ele>
        <time>2021-11-13T14:17:46Z</time>
      </trkpt>
      <trkpt lat="44.87888" lon="5.89742">
        <ele>1431.46</ele>
        <time>2021-11-13T14:17:47Z</time>
      </trkpt>
      <trkpt lat="44.87888" lon="5.89746">
        <ele>1431.539</ele>
        <time>2021-11-13T14:17:50Z</time>
      </trkpt>
      <trkpt lat="44.87884" lon="5.89759">
        <ele>1430.179</ele>
        <time>2021-11-13T14:18:01Z</time>
      </trkpt>
      <trkpt lat="44.87881" lon="5.89783">
        <ele>1428.117</ele>
        <time>2021-11-13T14:18:26Z</time>
      </trkpt>
      <trkpt lat="44.87879" lon="5.89799">
        <ele>1427.444</ele>
        <time>2021-11-13T14:18:43Z</time>
      </trkpt>
      <trkpt lat="44.87879" lon="5.898">
        <ele>1427.259</ele>
        <time>2021-11-13T14:18:44Z</time>
      </trkpt>
      <trkpt lat="44.87879" lon="5.898">
        <ele>1427.181</ele>
        <time>2021-11-13T14:18:45Z</time>
      </trkpt>
      <trkpt lat="44.87879" lon="5.898">
        <ele>1427.033</ele>
        <time>2021-11-13T14:18:46Z</time>
      </trkpt>
      <trkpt lat="44.87879" lon="5.898">
        <ele>1427.033</ele>
        <time>2021-11-13T14:18:46Z</time>
      </trkpt>
      <trkpt lat="44.87879" lon="5.89801">
        <ele>1426.853</ele>
        <time>2021-11-13T14:18:47Z</time>
      </trkpt>
      <trkpt lat="44.87879" lon="5.89801">
        <ele>1426.778</ele>
        <time>2021-11-13T14:18:48Z</time>
      </trkpt>
      <trkpt lat="44.87879" lon="5.89801">
        <ele>1426.647</ele>
        <time>2021-11-13T14:18:50Z</time>
      </trkpt>
      <trkpt lat="44.87878" lon="5.89803">
        <ele>1426.491</ele>
        <time>2021-11-13T14:18:51Z</time>
      </trkpt>
      <trkpt lat="44.8787" lon="5.89817">
        <ele>1425.041</ele>
        <time>2021-11-13T14:19:04Z</time>
      </trkpt>
      <trkpt lat="44.87868" lon="5.89821">
        <ele>1424.767</ele>
        <time>2021-11-13T14:19:08Z</time>
      </trkpt>
      <trkpt lat="44.87864" lon="5.89832">
        <ele>1422.704</ele>
        <time>2021-11-13T14:19:20Z</time>
      </trkpt>
      <trkpt lat="44.87864" lon="5.89834">
        <ele>1422.615</ele>
        <time>2021-11-13T14:19:23Z</time>
      </trkpt>
      <trkpt lat="44.87864" lon="5.89834">
        <ele>1422.777</ele>
        <time>2021-11-13T14:19:24Z</time>
      </trkpt>
      <trkpt lat="44.87864" lon="5.89834">
        <ele>1423.307</ele>
        <time>2021-11-13T14:19:26Z</time>
      </trkpt>
      <trkpt lat="44.87864" lon="5.89834">
        <ele>1423.182</ele>
        <time>2021-11-13T14:19:27Z</time>
      </trkpt>
      <trkpt lat="44.87862" lon="5.89836">
        <ele>1422.858</ele>
        <time>2021-11-13T14:19:30Z</time>
      </trkpt>
      <trkpt lat="44.87862" lon="5.89836">
        <ele>1423.266</ele>
        <time>2021-11-13T14:19:32Z</time>
      </trkpt>
      <trkpt lat="44.87859" lon="5.89833">
        <ele>1423.178</ele>
        <time>2021-11-13T14:19:36Z</time>
      </trkpt>
      <trkpt lat="44.87858" lon="5.89832">
        <ele>1423.671</ele>
        <time>2021-11-13T14:19:38Z</time>
      </trkpt>
      <trkpt lat="44.87858" lon="5.89832">
        <ele>1423.726</ele>
        <time>2021-11-13T14:19:39Z</time>
      </trkpt>
      <trkpt lat="44.87858" lon="5.89832">
        <ele>1423.491</ele>
        <time>2021-11-13T14:19:47Z</time>
      </trkpt>
      <trkpt lat="44.87859" lon="5.89832">
        <ele>1423.369</ele>
        <time>2021-11-13T14:19:48Z</time>
      </trkpt>
      <trkpt lat="44.87859" lon="5.89832">
        <ele>1423.128</ele>
        <time>2021-11-13T14:19:49Z</time>
      </trkpt>
      <trkpt lat="44.87859" lon="5.89832">
        <ele>1423.344</ele>
        <time>2021-11-13T14:19:50Z</time>
      </trkpt>
      <trkpt lat="44.87859" lon="5.89832">
        <ele>1423.344</ele>
        <time>2021-11-13T14:19:50Z</time>
      </trkpt>
      <trkpt lat="44.87859" lon="5.89833">
        <ele>1423.363</ele>
        <time>2021-11-13T14:19:51Z</time>
      </trkpt>
      <trkpt lat="44.8786" lon="5.89838">
        <ele>1423.324</ele>
        <time>2021-11-13T14:19:54Z</time>
      </trkpt>
      <trkpt lat="44.87862" lon="5.89854">
        <ele>1422.637</ele>
        <time>2021-11-13T14:20:01Z</time>
      </trkpt>
      <trkpt lat="44.8786" lon="5.89867">
        <ele>1422.217</ele>
        <time>2021-11-13T14:20:07Z</time>
      </trkpt>
      <trkpt lat="44.87859" lon="5.89889">
        <ele>1421.468</ele>
        <time>2021-11-13T14:20:22Z</time>
      </trkpt>
      <trkpt lat="44.87861" lon="5.89893">
        <ele>1421.824</ele>
        <time>2021-11-13T14:20:25Z</time>
      </trkpt>
      <trkpt lat="44.87862" lon="5.89893">
        <ele>1421.828</ele>
        <time>2021-11-13T14:20:26Z</time>
      </trkpt>
      <trkpt lat="44.87862" lon="5.89893">
        <ele>1421.649</ele>
        <time>2021-11-13T14:20:28Z</time>
      </trkpt>
      <trkpt lat="44.87862" lon="5.89893">
        <ele>1421.517</ele>
        <time>2021-11-13T14:20:30Z</time>
      </trkpt>
      <trkpt lat="44.87861" lon="5.89893">
        <ele>1421.274</ele>
        <time>2021-11-13T14:20:31Z</time>
      </trkpt>
      <trkpt lat="44.87856" lon="5.899">
        <ele>1421.405</ele>
        <time>2021-11-13T14:20:38Z</time>
      </trkpt>
      <trkpt lat="44.87854" lon="5.89904">
        <ele>1421.233</ele>
        <time>2021-11-13T14:20:42Z</time>
      </trkpt>
      <trkpt lat="44.8785" lon="5.89919">
        <ele>1421.145</ele>
        <time>2021-11-13T14:20:50Z</time>
      </trkpt>
      <trkpt lat="44.87848" lon="5.89923">
        <ele>1421.465</ele>
        <time>2021-11-13T14:20:54Z</time>
      </trkpt>
      <trkpt lat="44.87844" lon="5.89932">
        <ele>1419.309</ele>
        <time>2021-11-13T14:21:04Z</time>
      </trkpt>
      <trkpt lat="44.87843" lon="5.89935">
        <ele>1419.422</ele>
        <time>2021-11-13T14:21:06Z</time>
      </trkpt>
      <trkpt lat="44.87839" lon="5.89943">
        <ele>1419.65</ele>
        <time>2021-11-13T14:21:11Z</time>
      </trkpt>
      <trkpt lat="44.87836" lon="5.89951">
        <ele>1419.778</ele>
        <time>2021-11-13T14:21:17Z</time>
      </trkpt>
      <trkpt lat="44.87827" lon="5.89966">
        <ele>1420.432</ele>
        <time>2021-11-13T14:21:28Z</time>
      </trkpt>
      <trkpt lat="44.8782" lon="5.89976">
        <ele>1420.145</ele>
        <time>2021-11-13T14:21:36Z</time>
      </trkpt>
      <trkpt lat="44.87818" lon="5.8998">
        <ele>1420.538</ele>
        <time>2021-11-13T14:21:39Z</time>
      </trkpt>
      <trkpt lat="44.87816" lon="5.89992">
        <ele>1419.749</ele>
        <time>2021-11-13T14:21:49Z</time>
      </trkpt>
      <trkpt lat="44.87814" lon="5.89998">
        <ele>1419.688</ele>
        <time>2021-11-13T14:21:53Z</time>
      </trkpt>
      <trkpt lat="44.87813" lon="5.90003">
        <ele>1419.379</ele>
        <time>2021-11-13T14:21:57Z</time>
      </trkpt>
      <trkpt lat="44.87811" lon="5.90007">
        <ele>1419.285</ele>
        <time>2021-11-13T14:22:00Z</time>
      </trkpt>
      <trkpt lat="44.87812" lon="5.90016">
        <ele>1417.548</ele>
        <time>2021-11-13T14:22:10Z</time>
      </trkpt>
      <trkpt lat="44.8781" lon="5.9002">
        <ele>1417.4</ele>
        <time>2021-11-13T14:22:14Z</time>
      </trkpt>
      <trkpt lat="44.87809" lon="5.90024">
        <ele>1417.885</ele>
        <time>2021-11-13T14:22:18Z</time>
      </trkpt>
      <trkpt lat="44.87808" lon="5.90028">
        <ele>1418.468</ele>
        <time>2021-11-13T14:22:21Z</time>
      </trkpt>
      <trkpt lat="44.87808" lon="5.90032">
        <ele>1418.328</ele>
        <time>2021-11-13T14:22:23Z</time>
      </trkpt>
      <trkpt lat="44.87807" lon="5.90037">
        <ele>1418.425</ele>
        <time>2021-11-13T14:22:26Z</time>
      </trkpt>
      <trkpt lat="44.87805" lon="5.90044">
        <ele>1418.878</ele>
        <time>2021-11-13T14:22:31Z</time>
      </trkpt>
      <trkpt lat="44.87804" lon="5.90045">
        <ele>1418.261</ele>
        <time>2021-11-13T14:22:34Z</time>
      </trkpt>
      <trkpt lat="44.87804" lon="5.90045">
        <ele>1418.261</ele>
        <time>2021-11-13T14:22:34Z</time>
      </trkpt>
      <trkpt lat="44.87804" lon="5.90045">
        <ele>1417.997</ele>
        <time>2021-11-13T14:22:35Z</time>
      </trkpt>
      <trkpt lat="44.87804" lon="5.90045">
        <ele>1418.167</ele>
        <time>2021-11-13T14:22:36Z</time>
      </trkpt>
      <trkpt lat="44.87804" lon="5.90045">
        <ele>1417.743</ele>
        <time>2021-11-13T14:22:42Z</time>
      </trkpt>
      <trkpt lat="44.87805" lon="5.9004">
        <ele>1418.115</ele>
        <time>2021-11-13T14:22:43Z</time>
      </trkpt>
      <trkpt lat="44.87804" lon="5.90041">
        <ele>1416.034</ele>
        <time>2021-11-13T14:22:46Z</time>
      </trkpt>
      <trkpt lat="44.87804" lon="5.90041">
        <ele>1415.388</ele>
        <time>2021-11-13T14:22:47Z</time>
      </trkpt>
      <trkpt lat="44.87804" lon="5.90044">
        <ele>1415.315</ele>
        <time>2021-11-13T14:22:51Z</time>
      </trkpt>
      <trkpt lat="44.87802" lon="5.9005">
        <ele>1416.59</ele>
        <time>2021-11-13T14:22:56Z</time>
      </trkpt>
      <trkpt lat="44.87802" lon="5.9005">
        <ele>1416.807</ele>
        <time>2021-11-13T14:22:58Z</time>
      </trkpt>
      <trkpt lat="44.87802" lon="5.90054">
        <ele>1416.578</ele>
        <time>2021-11-13T14:22:59Z</time>
      </trkpt>
      <trkpt lat="44.87801" lon="5.90059">
        <ele>1416.178</ele>
        <time>2021-11-13T14:23:02Z</time>
      </trkpt>
      <trkpt lat="44.87794" lon="5.90073">
        <ele>1415.258</ele>
        <time>2021-11-13T14:23:14Z</time>
      </trkpt>
      <trkpt lat="44.87794" lon="5.90078">
        <ele>1415.579</ele>
        <time>2021-11-13T14:23:17Z</time>
      </trkpt>
      <trkpt lat="44.87794" lon="5.90083">
        <ele>1416.24</ele>
        <time>2021-11-13T14:23:21Z</time>
      </trkpt>
      <trkpt lat="44.87792" lon="5.90097">
        <ele>1418.47</ele>
        <time>2021-11-13T14:23:33Z</time>
      </trkpt>
      <trkpt lat="44.87791" lon="5.90104">
        <ele>1418.421</ele>
        <time>2021-11-13T14:23:41Z</time>
      </trkpt>
      <trkpt lat="44.87791" lon="5.90104">
        <ele>1418.421</ele>
        <time>2021-11-13T14:23:41Z</time>
      </trkpt>
      <trkpt lat="44.87791" lon="5.90105">
        <ele>1418.4</ele>
        <time>2021-11-13T14:23:42Z</time>
      </trkpt>
      <trkpt lat="44.8779" lon="5.90105">
        <ele>1418.792</ele>
        <time>2021-11-13T14:23:43Z</time>
      </trkpt>
      <trkpt lat="44.8779" lon="5.90106">
        <ele>1418.749</ele>
        <time>2021-11-13T14:23:44Z</time>
      </trkpt>
      <trkpt lat="44.8779" lon="5.90106">
        <ele>1419.124</ele>
        <time>2021-11-13T14:23:46Z</time>
      </trkpt>
      <trkpt lat="44.8779" lon="5.90106">
        <ele>1418.922</ele>
        <time>2021-11-13T14:23:52Z</time>
      </trkpt>
      <trkpt lat="44.87789" lon="5.90107">
        <ele>1419.169</ele>
        <time>2021-11-13T14:23:53Z</time>
      </trkpt>
      <trkpt lat="44.87789" lon="5.90107">
        <ele>1418.587</ele>
        <time>2021-11-13T14:23:56Z</time>
      </trkpt>
      <trkpt lat="44.87789" lon="5.90107">
        <ele>1418.612</ele>
        <time>2021-11-13T14:23:57Z</time>
      </trkpt>
      <trkpt lat="44.87788" lon="5.90108">
        <ele>1419.085</ele>
        <time>2021-11-13T14:23:58Z</time>
      </trkpt>
      <trkpt lat="44.87786" lon="5.90112">
        <ele>1417.499</ele>
        <time>2021-11-13T14:24:03Z</time>
      </trkpt>
      <trkpt lat="44.87786" lon="5.90112">
        <ele>1417.62</ele>
        <time>2021-11-13T14:24:04Z</time>
      </trkpt>
      <trkpt lat="44.87786" lon="5.90112">
        <ele>1417.011</ele>
        <time>2021-11-13T14:24:05Z</time>
      </trkpt>
      <trkpt lat="44.87786" lon="5.90112">
        <ele>1417.011</ele>
        <time>2021-11-13T14:24:05Z</time>
      </trkpt>
      <trkpt lat="44.87787" lon="5.90113">
        <ele>1416.414</ele>
        <time>2021-11-13T14:24:06Z</time>
      </trkpt>
      <trkpt lat="44.87787" lon="5.90113">
        <ele>1416.441</ele>
        <time>2021-11-13T14:24:07Z</time>
      </trkpt>
      <trkpt lat="44.87787" lon="5.90113">
        <ele>1416.442</ele>
        <time>2021-11-13T14:24:08Z</time>
      </trkpt>
      <trkpt lat="44.87788" lon="5.90113">
        <ele>1417.083</ele>
        <time>2021-11-13T14:24:09Z</time>
      </trkpt>
      <trkpt lat="44.87788" lon="5.90114">
        <ele>1417.352</ele>
        <time>2021-11-13T14:24:11Z</time>
      </trkpt>
      <trkpt lat="44.87787" lon="5.90114">
        <ele>1417.585</ele>
        <time>2021-11-13T14:24:12Z</time>
      </trkpt>
      <trkpt lat="44.87785" lon="5.90115">
        <ele>1418.036</ele>
        <time>2021-11-13T14:24:15Z</time>
      </trkpt>
      <trkpt lat="44.87785" lon="5.90115">
        <ele>1417.671</ele>
        <time>2021-11-13T14:24:17Z</time>
      </trkpt>
      <trkpt lat="44.87785" lon="5.90115">
        <ele>1418.661</ele>
        <time>2021-11-13T14:25:19Z</time>
      </trkpt>
      <trkpt lat="44.87785" lon="5.90117">
        <ele>1419.233</ele>
        <time>2021-11-13T14:25:20Z</time>
      </trkpt>
      <trkpt lat="44.87785" lon="5.90117">
        <ele>1418.797</ele>
        <time>2021-11-13T14:25:21Z</time>
      </trkpt>
      <trkpt lat="44.87785" lon="5.90117">
        <ele>1418.519</ele>
        <time>2021-11-13T14:26:24Z</time>
      </trkpt>
      <trkpt lat="44.87786" lon="5.9012">
        <ele>1418.632</ele>
        <time>2021-11-13T14:26:25Z</time>
      </trkpt>
      <trkpt lat="44.87785" lon="5.90121">
        <ele>1418.27</ele>
        <time>2021-11-13T14:26:26Z</time>
      </trkpt>
      <trkpt lat="44.87785" lon="5.90122">
        <ele>1416.848</ele>
        <time>2021-11-13T14:26:28Z</time>
      </trkpt>
      <trkpt lat="44.87785" lon="5.90123">
        <ele>1417.292</ele>
        <time>2021-11-13T14:26:31Z</time>
      </trkpt>
      <trkpt lat="44.87785" lon="5.90123">
        <ele>1417.292</ele>
        <time>2021-11-13T14:26:31Z</time>
      </trkpt>
      <trkpt lat="44.87785" lon="5.90124">
        <ele>1416.953</ele>
        <time>2021-11-13T14:26:32Z</time>
      </trkpt>
      <trkpt lat="44.87786" lon="5.90126">
        <ele>1416.982</ele>
        <time>2021-11-13T14:26:34Z</time>
      </trkpt>
      <trkpt lat="44.87789" lon="5.9013">
        <ele>1416.711</ele>
        <time>2021-11-13T14:26:39Z</time>
      </trkpt>
      <trkpt lat="44.87789" lon="5.9013">
        <ele>1416.711</ele>
        <time>2021-11-13T14:26:39Z</time>
      </trkpt>
      <trkpt lat="44.87789" lon="5.9013">
        <ele>1416.846</ele>
        <time>2021-11-13T14:26:40Z</time>
      </trkpt>
      <trkpt lat="44.87793" lon="5.9013">
        <ele>1416.106</ele>
        <time>2021-11-13T14:26:46Z</time>
      </trkpt>
      <trkpt lat="44.87793" lon="5.90131">
        <ele>1416.125</ele>
        <time>2021-11-13T14:26:47Z</time>
      </trkpt>
      <trkpt lat="44.87793" lon="5.90131">
        <ele>1416.765</ele>
        <time>2021-11-13T14:26:49Z</time>
      </trkpt>
      <trkpt lat="44.87793" lon="5.90131">
        <ele>1417.855</ele>
        <time>2021-11-13T14:26:50Z</time>
      </trkpt>
      <trkpt lat="44.87793" lon="5.90131">
        <ele>1417.277</ele>
        <time>2021-11-13T14:26:51Z</time>
      </trkpt>
      <trkpt lat="44.87793" lon="5.90131">
        <ele>1417.277</ele>
        <time>2021-11-13T14:26:51Z</time>
      </trkpt>
      <trkpt lat="44.87793" lon="5.90131">
        <ele>1417.655</ele>
        <time>2021-11-13T14:26:52Z</time>
      </trkpt>
      <trkpt lat="44.87793" lon="5.90131">
        <ele>1417.866</ele>
        <time>2021-11-13T14:26:53Z</time>
      </trkpt>
      <trkpt lat="44.87792" lon="5.90131">
        <ele>1418.118</ele>
        <time>2021-11-13T14:26:54Z</time>
      </trkpt>
      <trkpt lat="44.87792" lon="5.9013">
        <ele>1417.507</ele>
        <time>2021-11-13T14:26:56Z</time>
      </trkpt>
      <trkpt lat="44.87792" lon="5.9013">
        <ele>1417.507</ele>
        <time>2021-11-13T14:26:56Z</time>
      </trkpt>
      <trkpt lat="44.87792" lon="5.90131">
        <ele>1417.72</ele>
        <time>2021-11-13T14:26:57Z</time>
      </trkpt>
      <trkpt lat="44.87792" lon="5.90131">
        <ele>1417.636</ele>
        <time>2021-11-13T14:26:58Z</time>
      </trkpt>
      <trkpt lat="44.87792" lon="5.90131">
        <ele>1417.635</ele>
        <time>2021-11-13T14:27:00Z</time>
      </trkpt>
      <trkpt lat="44.87792" lon="5.90132">
        <ele>1416.443</ele>
        <time>2021-11-13T14:27:01Z</time>
      </trkpt>
      <trkpt lat="44.87792" lon="5.90132">
        <ele>1416.31</ele>
        <time>2021-11-13T14:27:02Z</time>
      </trkpt>
      <trkpt lat="44.87792" lon="5.90132">
        <ele>1415.846</ele>
        <time>2021-11-13T14:27:26Z</time>
      </trkpt>
      <trkpt lat="44.87793" lon="5.90132">
        <ele>1415.513</ele>
        <time>2021-11-13T14:27:27Z</time>
      </trkpt>
      <trkpt lat="44.87793" lon="5.90132">
        <ele>1415.513</ele>
        <time>2021-11-13T14:27:27Z</time>
      </trkpt>
      <trkpt lat="44.87793" lon="5.90132">
        <ele>1415.596</ele>
        <time>2021-11-13T14:27:28Z</time>
      </trkpt>
      <trkpt lat="44.87793" lon="5.90132">
        <ele>1416.502</ele>
        <time>2021-11-13T14:27:46Z</time>
      </trkpt>
      <trkpt lat="44.87793" lon="5.9013">
        <ele>1416.771</ele>
        <time>2021-11-13T14:27:47Z</time>
      </trkpt>
      <trkpt lat="44.87793" lon="5.9013">
        <ele>1417.649</ele>
        <time>2021-11-13T14:27:49Z</time>
      </trkpt>
      <trkpt lat="44.87793" lon="5.9013">
        <ele>1417.805</ele>
        <time>2021-11-13T14:27:51Z</time>
      </trkpt>
      <trkpt lat="44.87792" lon="5.90131">
        <ele>1418.335</ele>
        <time>2021-11-13T14:27:52Z</time>
      </trkpt>
      <trkpt lat="44.87789" lon="5.90131">
        <ele>1418.009</ele>
        <time>2021-11-13T14:27:55Z</time>
      </trkpt>
      <trkpt lat="44.87787" lon="5.90133">
        <ele>1416.884</ele>
        <time>2021-11-13T14:27:57Z</time>
      </trkpt>
      <trkpt lat="44.87783" lon="5.90137">
        <ele>1419.497</ele>
        <time>2021-11-13T14:28:01Z</time>
      </trkpt>
      <trkpt lat="44.87782" lon="5.90141">
        <ele>1420.099</ele>
        <time>2021-11-13T14:28:05Z</time>
      </trkpt>
      <trkpt lat="44.87778" lon="5.90154">
        <ele>1417.89</ele>
        <time>2021-11-13T14:28:15Z</time>
      </trkpt>
      <trkpt lat="44.87778" lon="5.90158">
        <ele>1415.401</ele>
        <time>2021-11-13T14:28:18Z</time>
      </trkpt>
      <trkpt lat="44.87777" lon="5.90169">
        <ele>1413.165</ele>
        <time>2021-11-13T14:28:25Z</time>
      </trkpt>
      <trkpt lat="44.87775" lon="5.90177">
        <ele>1411.038</ele>
        <time>2021-11-13T14:28:31Z</time>
      </trkpt>
      <trkpt lat="44.87767" lon="5.90201">
        <ele>1410.54</ele>
        <time>2021-11-13T14:28:49Z</time>
      </trkpt>
      <trkpt lat="44.87764" lon="5.90214">
        <ele>1408.314</ele>
        <time>2021-11-13T14:28:55Z</time>
      </trkpt>
      <trkpt lat="44.87763" lon="5.90222">
        <ele>1407.705</ele>
        <time>2021-11-13T14:29:00Z</time>
      </trkpt>
      <trkpt lat="44.87763" lon="5.90229">
        <ele>1405.261</ele>
        <time>2021-11-13T14:29:04Z</time>
      </trkpt>
      <trkpt lat="44.87762" lon="5.90233">
        <ele>1404.971</ele>
        <time>2021-11-13T14:29:06Z</time>
      </trkpt>
      <trkpt lat="44.87757" lon="5.90244">
        <ele>1403.138</ele>
        <time>2021-11-13T14:29:14Z</time>
      </trkpt>
      <trkpt lat="44.87757" lon="5.90249">
        <ele>1403.267</ele>
        <time>2021-11-13T14:29:19Z</time>
      </trkpt>
      <trkpt lat="44.87756" lon="5.90251">
        <ele>1403.589</ele>
        <time>2021-11-13T14:29:21Z</time>
      </trkpt>
      <trkpt lat="44.87756" lon="5.90252">
        <ele>1402.951</ele>
        <time>2021-11-13T14:29:24Z</time>
      </trkpt>
      <trkpt lat="44.87756" lon="5.90252">
        <ele>1402.569</ele>
        <time>2021-11-13T14:29:25Z</time>
      </trkpt>
      <trkpt lat="44.87756" lon="5.90252">
        <ele>1402.368</ele>
        <time>2021-11-13T14:29:30Z</time>
      </trkpt>
      <trkpt lat="44.87755" lon="5.90254">
        <ele>1401.821</ele>
        <time>2021-11-13T14:29:31Z</time>
      </trkpt>
      <trkpt lat="44.87754" lon="5.9026">
        <ele>1401.125</ele>
        <time>2021-11-13T14:29:35Z</time>
      </trkpt>
      <trkpt lat="44.87755" lon="5.90262">
        <ele>1400.235</ele>
        <time>2021-11-13T14:29:39Z</time>
      </trkpt>
      <trkpt lat="44.87755" lon="5.90262">
        <ele>1399.947</ele>
        <time>2021-11-13T14:29:40Z</time>
      </trkpt>
      <trkpt lat="44.87756" lon="5.90263">
        <ele>1399.536</ele>
        <time>2021-11-13T14:29:41Z</time>
      </trkpt>
      <trkpt lat="44.87764" lon="5.90269">
        <ele>1399.551</ele>
        <time>2021-11-13T14:29:50Z</time>
      </trkpt>
      <trkpt lat="44.87764" lon="5.90273">
        <ele>1397.972</ele>
        <time>2021-11-13T14:29:55Z</time>
      </trkpt>
      <trkpt lat="44.87767" lon="5.90271">
        <ele>1397.571</ele>
        <time>2021-11-13T14:29:59Z</time>
      </trkpt>
      <trkpt lat="44.87768" lon="5.90271">
        <ele>1397.472</ele>
        <time>2021-11-13T14:30:00Z</time>
      </trkpt>
      <trkpt lat="44.87768" lon="5.90271">
        <ele>1397.231</ele>
        <time>2021-11-13T14:30:02Z</time>
      </trkpt>
      <trkpt lat="44.87766" lon="5.90273">
        <ele>1397.816</ele>
        <time>2021-11-13T14:30:04Z</time>
      </trkpt>
      <trkpt lat="44.87766" lon="5.90277">
        <ele>1397.423</ele>
        <time>2021-11-13T14:30:06Z</time>
      </trkpt>
      <trkpt lat="44.87767" lon="5.90301">
        <ele>1396.613</ele>
        <time>2021-11-13T14:30:19Z</time>
      </trkpt>
      <trkpt lat="44.87771" lon="5.90319">
        <ele>1395.219</ele>
        <time>2021-11-13T14:30:34Z</time>
      </trkpt>
      <trkpt lat="44.8777" lon="5.90323">
        <ele>1394.867</ele>
        <time>2021-11-13T14:30:39Z</time>
      </trkpt>
      <trkpt lat="44.87764" lon="5.90332">
        <ele>1395.384</ele>
        <time>2021-11-13T14:30:54Z</time>
      </trkpt>
      <trkpt lat="44.87764" lon="5.90332">
        <ele>1395.209</ele>
        <time>2021-11-13T14:30:58Z</time>
      </trkpt>
      <trkpt lat="44.87764" lon="5.90335">
        <ele>1394.788</ele>
        <time>2021-11-13T14:30:59Z</time>
      </trkpt>
      <trkpt lat="44.87759" lon="5.90347">
        <ele>1393.074</ele>
        <time>2021-11-13T14:31:11Z</time>
      </trkpt>
      <trkpt lat="44.87759" lon="5.90347">
        <ele>1393.241</ele>
        <time>2021-11-13T14:31:12Z</time>
      </trkpt>
      <trkpt lat="44.87759" lon="5.90347">
        <ele>1393.031</ele>
        <time>2021-11-13T14:31:15Z</time>
      </trkpt>
      <trkpt lat="44.87757" lon="5.90349">
        <ele>1392.732</ele>
        <time>2021-11-13T14:31:16Z</time>
      </trkpt>
      <trkpt lat="44.87752" lon="5.90351">
        <ele>1392.5</ele>
        <time>2021-11-13T14:31:23Z</time>
      </trkpt>
      <trkpt lat="44.87751" lon="5.9035">
        <ele>1391.504</ele>
        <time>2021-11-13T14:31:25Z</time>
      </trkpt>
      <trkpt lat="44.87751" lon="5.9035">
        <ele>1391.004</ele>
        <time>2021-11-13T14:31:26Z</time>
      </trkpt>
      <trkpt lat="44.87751" lon="5.9035">
        <ele>1389.999</ele>
        <time>2021-11-13T14:31:27Z</time>
      </trkpt>
      <trkpt lat="44.87751" lon="5.9035">
        <ele>1389.738</ele>
        <time>2021-11-13T14:32:29Z</time>
      </trkpt>
      <trkpt lat="44.87752" lon="5.9035">
        <ele>1389.644</ele>
        <time>2021-11-13T14:32:30Z</time>
      </trkpt>
      <trkpt lat="44.87751" lon="5.90351">
        <ele>1389.24</ele>
        <time>2021-11-13T14:32:31Z</time>
      </trkpt>
      <trkpt lat="44.87751" lon="5.90351">
        <ele>1389.514</ele>
        <time>2021-11-13T14:32:32Z</time>
      </trkpt>
      <trkpt lat="44.8775" lon="5.90352">
        <ele>1388.787</ele>
        <time>2021-11-13T14:32:34Z</time>
      </trkpt>
      <trkpt lat="44.8775" lon="5.90352">
        <ele>1388.614</ele>
        <time>2021-11-13T14:33:57Z</time>
      </trkpt>
      <trkpt lat="44.87751" lon="5.90352">
        <ele>1387.789</ele>
        <time>2021-11-13T14:33:58Z</time>
      </trkpt>
      <trkpt lat="44.87752" lon="5.90352">
        <ele>1388.512</ele>
        <time>2021-11-13T14:33:59Z</time>
      </trkpt>
      <trkpt lat="44.87752" lon="5.90351">
        <ele>1388.199</ele>
        <time>2021-11-13T14:34:00Z</time>
      </trkpt>
      <trkpt lat="44.87753" lon="5.90351">
        <ele>1388.447</ele>
        <time>2021-11-13T14:34:04Z</time>
      </trkpt>
      <trkpt lat="44.87755" lon="5.90349">
        <ele>1388.997</ele>
        <time>2021-11-13T14:34:08Z</time>
      </trkpt>
      <trkpt lat="44.87756" lon="5.90349">
        <ele>1388.459</ele>
        <time>2021-11-13T14:34:10Z</time>
      </trkpt>
      <trkpt lat="44.87756" lon="5.90349">
        <ele>1388.467</ele>
        <time>2021-11-13T14:34:45Z</time>
      </trkpt>
      <trkpt lat="44.87757" lon="5.90348">
        <ele>1388.662</ele>
        <time>2021-11-13T14:34:46Z</time>
      </trkpt>
      <trkpt lat="44.87757" lon="5.90348">
        <ele>1388.397</ele>
        <time>2021-11-13T14:34:47Z</time>
      </trkpt>
      <trkpt lat="44.87757" lon="5.90348">
        <ele>1388.296</ele>
        <time>2021-11-13T14:35:33Z</time>
      </trkpt>
      <trkpt lat="44.87757" lon="5.90348">
        <ele>1387.213</ele>
        <time>2021-11-13T14:35:34Z</time>
      </trkpt>
      <trkpt lat="44.87758" lon="5.90349">
        <ele>1389.204</ele>
        <time>2021-11-13T14:35:35Z</time>
      </trkpt>
      <trkpt lat="44.87759" lon="5.9035">
        <ele>1387.69</ele>
        <time>2021-11-13T14:35:38Z</time>
      </trkpt>
      <trkpt lat="44.87759" lon="5.9035">
        <ele>1388.15</ele>
        <time>2021-11-13T14:36:20Z</time>
      </trkpt>
      <trkpt lat="44.87756" lon="5.90352">
        <ele>1387.974</ele>
        <time>2021-11-13T14:36:21Z</time>
      </trkpt>
      <trkpt lat="44.87756" lon="5.90352">
        <ele>1387.979</ele>
        <time>2021-11-13T14:36:22Z</time>
      </trkpt>
      <trkpt lat="44.87756" lon="5.90352">
        <ele>1387.979</ele>
        <time>2021-11-13T14:36:22Z</time>
      </trkpt>
      <trkpt lat="44.87757" lon="5.90351">
        <ele>1386.756</ele>
        <time>2021-11-13T14:36:23Z</time>
      </trkpt>
      <trkpt lat="44.87757" lon="5.90351">
        <ele>1386.754</ele>
        <time>2021-11-13T14:36:24Z</time>
      </trkpt>
      <trkpt lat="44.87757" lon="5.90351">
        <ele>1386.754</ele>
        <time>2021-11-13T14:36:25Z</time>
      </trkpt>
      <trkpt lat="44.87756" lon="5.90351">
        <ele>1386.357</ele>
        <time>2021-11-13T14:36:26Z</time>
      </trkpt>
      <trkpt lat="44.87756" lon="5.90351">
        <ele>1386.326</ele>
        <time>2021-11-13T14:36:27Z</time>
      </trkpt>
      <trkpt lat="44.87756" lon="5.90351">
        <ele>1386.201</ele>
        <time>2021-11-13T14:37:34Z</time>
      </trkpt>
      <trkpt lat="44.87755" lon="5.90351">
        <ele>1385.841</ele>
        <time>2021-11-13T14:37:35Z</time>
      </trkpt>
      <trkpt lat="44.87755" lon="5.90351">
        <ele>1385.472</ele>
        <time>2021-11-13T14:37:36Z</time>
      </trkpt>
      <trkpt lat="44.87754" lon="5.90351">
        <ele>1384.755</ele>
        <time>2021-11-13T14:37:37Z</time>
      </trkpt>
      <trkpt lat="44.87754" lon="5.90351">
        <ele>1384.808</ele>
        <time>2021-11-13T14:37:38Z</time>
      </trkpt>
      <trkpt lat="44.87754" lon="5.90351">
        <ele>1384.79</ele>
        <time>2021-11-13T14:37:44Z</time>
      </trkpt>
      <trkpt lat="44.87755" lon="5.9035">
        <ele>1384.601</ele>
        <time>2021-11-13T14:37:45Z</time>
      </trkpt>
      <trkpt lat="44.87756" lon="5.90351">
        <ele>1385.553</ele>
        <time>2021-11-13T14:37:49Z</time>
      </trkpt>
      <trkpt lat="44.87757" lon="5.9035">
        <ele>1385.355</ele>
        <time>2021-11-13T14:37:50Z</time>
      </trkpt>
      <trkpt lat="44.87761" lon="5.90348">
        <ele>1384.824</ele>
        <time>2021-11-13T14:37:54Z</time>
      </trkpt>
      <trkpt lat="44.87763" lon="5.90349">
        <ele>1386.199</ele>
        <time>2021-11-13T14:37:57Z</time>
      </trkpt>
      <trkpt lat="44.87764" lon="5.9035">
        <ele>1386.305</ele>
        <time>2021-11-13T14:37:59Z</time>
      </trkpt>
      <trkpt lat="44.87764" lon="5.9035">
        <ele>1386.79</ele>
        <time>2021-11-13T14:38:00Z</time>
      </trkpt>
      <trkpt lat="44.87765" lon="5.90352">
        <ele>1386.613</ele>
        <time>2021-11-13T14:38:03Z</time>
      </trkpt>
      <trkpt lat="44.87765" lon="5.90353">
        <ele>1385.802</ele>
        <time>2021-11-13T14:38:04Z</time>
      </trkpt>
      <trkpt lat="44.87765" lon="5.90354">
        <ele>1386.048</ele>
        <time>2021-11-13T14:38:06Z</time>
      </trkpt>
      <trkpt lat="44.87767" lon="5.90356">
        <ele>1386.14</ele>
        <time>2021-11-13T14:38:10Z</time>
      </trkpt>
      <trkpt lat="44.87767" lon="5.90357">
        <ele>1386.105</ele>
        <time>2021-11-13T14:38:11Z</time>
      </trkpt>
      <trkpt lat="44.87769" lon="5.90358">
        <ele>1385.612</ele>
        <time>2021-11-13T14:38:14Z</time>
      </trkpt>
      <trkpt lat="44.87773" lon="5.90364">
        <ele>1387.938</ele>
        <time>2021-11-13T14:38:21Z</time>
      </trkpt>
      <trkpt lat="44.87775" lon="5.90368">
        <ele>1388.832</ele>
        <time>2021-11-13T14:38:24Z</time>
      </trkpt>
      <trkpt lat="44.87778" lon="5.90382">
        <ele>1386.189</ele>
        <time>2021-11-13T14:38:37Z</time>
      </trkpt>
      <trkpt lat="44.87779" lon="5.90385">
        <ele>1384.76</ele>
        <time>2021-11-13T14:38:42Z</time>
      </trkpt>
      <trkpt lat="44.8778" lon="5.90388">
        <ele>1384.476</ele>
        <time>2021-11-13T14:38:45Z</time>
      </trkpt>
      <trkpt lat="44.8778" lon="5.90388">
        <ele>1384.621</ele>
        <time>2021-11-13T14:38:47Z</time>
      </trkpt>
      <trkpt lat="44.8778" lon="5.90388">
        <ele>1384.79</ele>
        <time>2021-11-13T14:38:49Z</time>
      </trkpt>
      <trkpt lat="44.8778" lon="5.90388">
        <ele>1384.79</ele>
        <time>2021-11-13T14:38:49Z</time>
      </trkpt>
      <trkpt lat="44.87781" lon="5.90388">
        <ele>1384.756</ele>
        <time>2021-11-13T14:38:50Z</time>
      </trkpt>
      <trkpt lat="44.87783" lon="5.90394">
        <ele>1384.978</ele>
        <time>2021-11-13T14:38:58Z</time>
      </trkpt>
      <trkpt lat="44.87784" lon="5.90395">
        <ele>1384.336</ele>
        <time>2021-11-13T14:39:01Z</time>
      </trkpt>
      <trkpt lat="44.87784" lon="5.90395">
        <ele>1384.336</ele>
        <time>2021-11-13T14:39:01Z</time>
      </trkpt>
      <trkpt lat="44.87784" lon="5.90396">
        <ele>1384.567</ele>
        <time>2021-11-13T14:39:02Z</time>
      </trkpt>
      <trkpt lat="44.87784" lon="5.90396">
        <ele>1384.741</ele>
        <time>2021-11-13T14:39:03Z</time>
      </trkpt>
      <trkpt lat="44.87784" lon="5.90397">
        <ele>1384.162</ele>
        <time>2021-11-13T14:39:04Z</time>
      </trkpt>
      <trkpt lat="44.87785" lon="5.90402">
        <ele>1383.463</ele>
        <time>2021-11-13T14:39:09Z</time>
      </trkpt>
      <trkpt lat="44.87786" lon="5.90406">
        <ele>1381.319</ele>
        <time>2021-11-13T14:39:13Z</time>
      </trkpt>
      <trkpt lat="44.87787" lon="5.90411">
        <ele>1380.638</ele>
        <time>2021-11-13T14:39:17Z</time>
      </trkpt>
      <trkpt lat="44.87786" lon="5.90415">
        <ele>1379.463</ele>
        <time>2021-11-13T14:39:20Z</time>
      </trkpt>
      <trkpt lat="44.87787" lon="5.90416">
        <ele>1378.908</ele>
        <time>2021-11-13T14:39:24Z</time>
      </trkpt>
      <trkpt lat="44.87787" lon="5.90416">
        <ele>1379.445</ele>
        <time>2021-11-13T14:39:25Z</time>
      </trkpt>
      <trkpt lat="44.87787" lon="5.90415">
        <ele>1379.582</ele>
        <time>2021-11-13T14:39:26Z</time>
      </trkpt>
      <trkpt lat="44.87787" lon="5.90417">
        <ele>1378.774</ele>
        <time>2021-11-13T14:39:28Z</time>
      </trkpt>
      <trkpt lat="44.87786" lon="5.90419">
        <ele>1378.45</ele>
        <time>2021-11-13T14:39:30Z</time>
      </trkpt>
      <trkpt lat="44.87786" lon="5.90419">
        <ele>1378.322</ele>
        <time>2021-11-13T14:39:31Z</time>
      </trkpt>
      <trkpt lat="44.87786" lon="5.90421">
        <ele>1378.989</ele>
        <time>2021-11-13T14:39:33Z</time>
      </trkpt>
      <trkpt lat="44.87786" lon="5.90425">
        <ele>1379.24</ele>
        <time>2021-11-13T14:39:36Z</time>
      </trkpt>
      <trkpt lat="44.87786" lon="5.90431">
        <ele>1378.771</ele>
        <time>2021-11-13T14:39:41Z</time>
      </trkpt>
      <trkpt lat="44.87787" lon="5.90434">
        <ele>1378.159</ele>
        <time>2021-11-13T14:39:43Z</time>
      </trkpt>
      <trkpt lat="44.87787" lon="5.90436">
        <ele>1378.177</ele>
        <time>2021-11-13T14:39:45Z</time>
      </trkpt>
      <trkpt lat="44.87787" lon="5.90439">
        <ele>1377.79</ele>
        <time>2021-11-13T14:39:47Z</time>
      </trkpt>
      <trkpt lat="44.87787" lon="5.90441">
        <ele>1377.39</ele>
        <time>2021-11-13T14:39:51Z</time>
      </trkpt>
      <trkpt lat="44.87787" lon="5.90441">
        <ele>1377.39</ele>
        <time>2021-11-13T14:39:51Z</time>
      </trkpt>
      <trkpt lat="44.87787" lon="5.90442">
        <ele>1377.248</ele>
        <time>2021-11-13T14:39:52Z</time>
      </trkpt>
      <trkpt lat="44.87787" lon="5.90443">
        <ele>1377.357</ele>
        <time>2021-11-13T14:39:53Z</time>
      </trkpt>
      <trkpt lat="44.87787" lon="5.90449">
        <ele>1376.801</ele>
        <time>2021-11-13T14:39:58Z</time>
      </trkpt>
      <trkpt lat="44.87786" lon="5.90452">
        <ele>1375.151</ele>
        <time>2021-11-13T14:40:01Z</time>
      </trkpt>
      <trkpt lat="44.87786" lon="5.90454">
        <ele>1375.077</ele>
        <time>2021-11-13T14:40:02Z</time>
      </trkpt>
      <trkpt lat="44.87786" lon="5.90454">
        <ele>1374.375</ele>
        <time>2021-11-13T14:40:03Z</time>
      </trkpt>
      <trkpt lat="44.87786" lon="5.90454">
        <ele>1374.375</ele>
        <time>2021-11-13T14:40:03Z</time>
      </trkpt>
      <trkpt lat="44.87786" lon="5.90456">
        <ele>1374.142</ele>
        <time>2021-11-13T14:40:04Z</time>
      </trkpt>
      <trkpt lat="44.87786" lon="5.90459">
        <ele>1374.388</ele>
        <time>2021-11-13T14:40:06Z</time>
      </trkpt>
      <trkpt lat="44.87786" lon="5.90461">
        <ele>1373.761</ele>
        <time>2021-11-13T14:40:08Z</time>
      </trkpt>
      <trkpt lat="44.87786" lon="5.90467">
        <ele>1373.164</ele>
        <time>2021-11-13T14:40:12Z</time>
      </trkpt>
      <trkpt lat="44.87787" lon="5.90468">
        <ele>1372.756</ele>
        <time>2021-11-13T14:40:13Z</time>
      </trkpt>
      <trkpt lat="44.87789" lon="5.90471">
        <ele>1373.1</ele>
        <time>2021-11-13T14:40:17Z</time>
      </trkpt>
      <trkpt lat="44.87789" lon="5.90472">
        <ele>1372.803</ele>
        <time>2021-11-13T14:40:18Z</time>
      </trkpt>
      <trkpt lat="44.8779" lon="5.90494">
        <ele>1371.488</ele>
        <time>2021-11-13T14:40:32Z</time>
      </trkpt>
      <trkpt lat="44.87791" lon="5.90498">
        <ele>1371.324</ele>
        <time>2021-11-13T14:40:36Z</time>
      </trkpt>
      <trkpt lat="44.8779" lon="5.90504">
        <ele>1371.631</ele>
        <time>2021-11-13T14:40:40Z</time>
      </trkpt>
      <trkpt lat="44.8779" lon="5.90516">
        <ele>1370.542</ele>
        <time>2021-11-13T14:40:49Z</time>
      </trkpt>
      <trkpt lat="44.87791" lon="5.90517">
        <ele>1369.486</ele>
        <time>2021-11-13T14:40:51Z</time>
      </trkpt>
      <trkpt lat="44.87793" lon="5.90524">
        <ele>1368.408</ele>
        <time>2021-11-13T14:40:57Z</time>
      </trkpt>
      <trkpt lat="44.87794" lon="5.90528">
        <ele>1367.668</ele>
        <time>2021-11-13T14:41:01Z</time>
      </trkpt>
      <trkpt lat="44.87795" lon="5.90529">
        <ele>1368.013</ele>
        <time>2021-11-13T14:41:03Z</time>
      </trkpt>
      <trkpt lat="44.87795" lon="5.90531">
        <ele>1368.073</ele>
        <time>2021-11-13T14:41:06Z</time>
      </trkpt>
      <trkpt lat="44.87795" lon="5.90531">
        <ele>1368.073</ele>
        <time>2021-11-13T14:41:06Z</time>
      </trkpt>
      <trkpt lat="44.87795" lon="5.90531">
        <ele>1368.028</ele>
        <time>2021-11-13T14:41:07Z</time>
      </trkpt>
      <trkpt lat="44.87795" lon="5.90531">
        <ele>1368.028</ele>
        <time>2021-11-13T14:41:07Z</time>
      </trkpt>
      <trkpt lat="44.87795" lon="5.90531">
        <ele>1368.093</ele>
        <time>2021-11-13T14:41:08Z</time>
      </trkpt>
      <trkpt lat="44.87795" lon="5.90531">
        <ele>1368.093</ele>
        <time>2021-11-13T14:41:08Z</time>
      </trkpt>
      <trkpt lat="44.87795" lon="5.90532">
        <ele>1368.259</ele>
        <time>2021-11-13T14:41:09Z</time>
      </trkpt>
      <trkpt lat="44.87795" lon="5.90532">
        <ele>1367.274</ele>
        <time>2021-11-13T14:41:10Z</time>
      </trkpt>
      <trkpt lat="44.87795" lon="5.90532">
        <ele>1367.069</ele>
        <time>2021-11-13T14:41:12Z</time>
      </trkpt>
      <trkpt lat="44.87796" lon="5.90532">
        <ele>1367.232</ele>
        <time>2021-11-13T14:41:13Z</time>
      </trkpt>
      <trkpt lat="44.87797" lon="5.90533">
        <ele>1366.969</ele>
        <time>2021-11-13T14:41:14Z</time>
      </trkpt>
      <trkpt lat="44.878" lon="5.90537">
        <ele>1368.06</ele>
        <time>2021-11-13T14:41:20Z</time>
      </trkpt>
      <trkpt lat="44.87801" lon="5.90546">
        <ele>1371.083</ele>
        <time>2021-11-13T14:41:25Z</time>
      </trkpt>
      <trkpt lat="44.87801" lon="5.90547">
        <ele>1370.533</ele>
        <time>2021-11-13T14:41:26Z</time>
      </trkpt>
      <trkpt lat="44.878" lon="5.9055">
        <ele>1369.996</ele>
        <time>2021-11-13T14:41:28Z</time>
      </trkpt>
      <trkpt lat="44.878" lon="5.90552">
        <ele>1369.969</ele>
        <time>2021-11-13T14:41:29Z</time>
      </trkpt>
      <trkpt lat="44.87798" lon="5.90555">
        <ele>1367.8</ele>
        <time>2021-11-13T14:41:33Z</time>
      </trkpt>
      <trkpt lat="44.87797" lon="5.90565">
        <ele>1367.839</ele>
        <time>2021-11-13T14:41:42Z</time>
      </trkpt>
      <trkpt lat="44.87796" lon="5.90566">
        <ele>1368.085</ele>
        <time>2021-11-13T14:41:43Z</time>
      </trkpt>
      <trkpt lat="44.87796" lon="5.90567">
        <ele>1368.246</ele>
        <time>2021-11-13T14:41:44Z</time>
      </trkpt>
      <trkpt lat="44.87797" lon="5.90575">
        <ele>1368.427</ele>
        <time>2021-11-13T14:41:51Z</time>
      </trkpt>
      <trkpt lat="44.87798" lon="5.90586">
        <ele>1368.814</ele>
        <time>2021-11-13T14:42:01Z</time>
      </trkpt>
      <trkpt lat="44.87798" lon="5.90588">
        <ele>1368.755</ele>
        <time>2021-11-13T14:42:03Z</time>
      </trkpt>
      <trkpt lat="44.87798" lon="5.90589">
        <ele>1368.697</ele>
        <time>2021-11-13T14:42:04Z</time>
      </trkpt>
      <trkpt lat="44.87798" lon="5.9059">
        <ele>1368.889</ele>
        <time>2021-11-13T14:42:05Z</time>
      </trkpt>
      <trkpt lat="44.87799" lon="5.90591">
        <ele>1368.219</ele>
        <time>2021-11-13T14:42:06Z</time>
      </trkpt>
      <trkpt lat="44.878" lon="5.90595">
        <ele>1366.475</ele>
        <time>2021-11-13T14:42:11Z</time>
      </trkpt>
      <trkpt lat="44.87798" lon="5.90606">
        <ele>1366.645</ele>
        <time>2021-11-13T14:42:19Z</time>
      </trkpt>
      <trkpt lat="44.87798" lon="5.90609">
        <ele>1366.018</ele>
        <time>2021-11-13T14:42:22Z</time>
      </trkpt>
      <trkpt lat="44.87798" lon="5.9061">
        <ele>1365.289</ele>
        <time>2021-11-13T14:42:23Z</time>
      </trkpt>
      <trkpt lat="44.87798" lon="5.90611">
        <ele>1365.285</ele>
        <time>2021-11-13T14:42:24Z</time>
      </trkpt>
      <trkpt lat="44.87798" lon="5.90612">
        <ele>1364.897</ele>
        <time>2021-11-13T14:42:25Z</time>
      </trkpt>
      <trkpt lat="44.87798" lon="5.90612">
        <ele>1364.81</ele>
        <time>2021-11-13T14:42:26Z</time>
      </trkpt>
      <trkpt lat="44.87797" lon="5.90613">
        <ele>1364.633</ele>
        <time>2021-11-13T14:42:27Z</time>
      </trkpt>
      <trkpt lat="44.87797" lon="5.90613">
        <ele>1364.767</ele>
        <time>2021-11-13T14:42:28Z</time>
      </trkpt>
      <trkpt lat="44.87797" lon="5.90615">
        <ele>1364.943</ele>
        <time>2021-11-13T14:42:30Z</time>
      </trkpt>
      <trkpt lat="44.87798" lon="5.90616">
        <ele>1365.201</ele>
        <time>2021-11-13T14:42:32Z</time>
      </trkpt>
      <trkpt lat="44.87798" lon="5.90619">
        <ele>1363.986</ele>
        <time>2021-11-13T14:42:38Z</time>
      </trkpt>
      <trkpt lat="44.87799" lon="5.9062">
        <ele>1363.958</ele>
        <time>2021-11-13T14:42:39Z</time>
      </trkpt>
      <trkpt lat="44.87799" lon="5.90624">
        <ele>1363.748</ele>
        <time>2021-11-13T14:42:43Z</time>
      </trkpt>
      <trkpt lat="44.878" lon="5.90624">
        <ele>1364.166</ele>
        <time>2021-11-13T14:42:46Z</time>
      </trkpt>
      <trkpt lat="44.87802" lon="5.90626">
        <ele>1363.406</ele>
        <time>2021-11-13T14:42:51Z</time>
      </trkpt>
      <trkpt lat="44.87801" lon="5.9063">
        <ele>1363.362</ele>
        <time>2021-11-13T14:42:55Z</time>
      </trkpt>
      <trkpt lat="44.87801" lon="5.9063">
        <ele>1363.867</ele>
        <time>2021-11-13T14:42:56Z</time>
      </trkpt>
      <trkpt lat="44.87801" lon="5.9063">
        <ele>1363.992</ele>
        <time>2021-11-13T14:42:57Z</time>
      </trkpt>
      <trkpt lat="44.87801" lon="5.90632">
        <ele>1364.012</ele>
        <time>2021-11-13T14:42:58Z</time>
      </trkpt>
      <trkpt lat="44.87801" lon="5.90635">
        <ele>1363.082</ele>
        <time>2021-11-13T14:43:01Z</time>
      </trkpt>
      <trkpt lat="44.87801" lon="5.90635">
        <ele>1362.578</ele>
        <time>2021-11-13T14:43:02Z</time>
      </trkpt>
      <trkpt lat="44.87801" lon="5.90635">
        <ele>1361.815</ele>
        <time>2021-11-13T14:43:03Z</time>
      </trkpt>
      <trkpt lat="44.87801" lon="5.90635">
        <ele>1362.002</ele>
        <time>2021-11-13T14:43:05Z</time>
      </trkpt>
      <trkpt lat="44.87801" lon="5.90637">
        <ele>1362.141</ele>
        <time>2021-11-13T14:43:06Z</time>
      </trkpt>
      <trkpt lat="44.87801" lon="5.90638">
        <ele>1362.024</ele>
        <time>2021-11-13T14:43:07Z</time>
      </trkpt>
      <trkpt lat="44.87801" lon="5.90642">
        <ele>1361.402</ele>
        <time>2021-11-13T14:43:11Z</time>
      </trkpt>
      <trkpt lat="44.87802" lon="5.90646">
        <ele>1361.016</ele>
        <time>2021-11-13T14:43:15Z</time>
      </trkpt>
      <trkpt lat="44.87803" lon="5.90651">
        <ele>1361.081</ele>
        <time>2021-11-13T14:43:21Z</time>
      </trkpt>
      <trkpt lat="44.87803" lon="5.90652">
        <ele>1360.829</ele>
        <time>2021-11-13T14:43:22Z</time>
      </trkpt>
      <trkpt lat="44.87803" lon="5.90657">
        <ele>1359.571</ele>
        <time>2021-11-13T14:43:27Z</time>
      </trkpt>
      <trkpt lat="44.87803" lon="5.90665">
        <ele>1358.429</ele>
        <time>2021-11-13T14:43:34Z</time>
      </trkpt>
      <trkpt lat="44.87803" lon="5.90666">
        <ele>1358.179</ele>
        <time>2021-11-13T14:43:35Z</time>
      </trkpt>
      <trkpt lat="44.87804" lon="5.90667">
        <ele>1357.862</ele>
        <time>2021-11-13T14:43:37Z</time>
      </trkpt>
      <trkpt lat="44.87804" lon="5.90668">
        <ele>1357.781</ele>
        <time>2021-11-13T14:43:38Z</time>
      </trkpt>
      <trkpt lat="44.87804" lon="5.90669">
        <ele>1357.4</ele>
        <time>2021-11-13T14:43:39Z</time>
      </trkpt>
      <trkpt lat="44.87804" lon="5.90673">
        <ele>1356.933</ele>
        <time>2021-11-13T14:43:42Z</time>
      </trkpt>
      <trkpt lat="44.87803" lon="5.90678">
        <ele>1356.451</ele>
        <time>2021-11-13T14:43:47Z</time>
      </trkpt>
      <trkpt lat="44.87803" lon="5.90679">
        <ele>1356.694</ele>
        <time>2021-11-13T14:43:48Z</time>
      </trkpt>
      <trkpt lat="44.87803" lon="5.9068">
        <ele>1356.58</ele>
        <time>2021-11-13T14:43:49Z</time>
      </trkpt>
      <trkpt lat="44.87803" lon="5.90682">
        <ele>1356.566</ele>
        <time>2021-11-13T14:43:50Z</time>
      </trkpt>
      <trkpt lat="44.87804" lon="5.90686">
        <ele>1357.03</ele>
        <time>2021-11-13T14:43:54Z</time>
      </trkpt>
      <trkpt lat="44.87804" lon="5.9069">
        <ele>1355.915</ele>
        <time>2021-11-13T14:43:57Z</time>
      </trkpt>
      <trkpt lat="44.87802" lon="5.90706">
        <ele>1355.169</ele>
        <time>2021-11-13T14:44:11Z</time>
      </trkpt>
      <trkpt lat="44.87802" lon="5.90707">
        <ele>1354.77</ele>
        <time>2021-11-13T14:44:12Z</time>
      </trkpt>
      <trkpt lat="44.87801" lon="5.9071">
        <ele>1355.031</ele>
        <time>2021-11-13T14:44:16Z</time>
      </trkpt>
      <trkpt lat="44.87801" lon="5.90711">
        <ele>1354.773</ele>
        <time>2021-11-13T14:44:17Z</time>
      </trkpt>
      <trkpt lat="44.87799" lon="5.90714">
        <ele>1353.943</ele>
        <time>2021-11-13T14:44:21Z</time>
      </trkpt>
      <trkpt lat="44.87797" lon="5.90718">
        <ele>1352.578</ele>
        <time>2021-11-13T14:44:28Z</time>
      </trkpt>
      <trkpt lat="44.87796" lon="5.9072">
        <ele>1352.312</ele>
        <time>2021-11-13T14:44:31Z</time>
      </trkpt>
      <trkpt lat="44.87795" lon="5.90721">
        <ele>1352.651</ele>
        <time>2021-11-13T14:44:34Z</time>
      </trkpt>
      <trkpt lat="44.87795" lon="5.90721">
        <ele>1352.509</ele>
        <time>2021-11-13T14:44:35Z</time>
      </trkpt>
      <trkpt lat="44.87795" lon="5.90721">
        <ele>1351.576</ele>
        <time>2021-11-13T14:44:36Z</time>
      </trkpt>
      <trkpt lat="44.87796" lon="5.90726">
        <ele>1350.782</ele>
        <time>2021-11-13T14:44:41Z</time>
      </trkpt>
      <trkpt lat="44.87795" lon="5.90728">
        <ele>1349.938</ele>
        <time>2021-11-13T14:44:43Z</time>
      </trkpt>
      <trkpt lat="44.87795" lon="5.90728">
        <ele>1349.913</ele>
        <time>2021-11-13T14:44:46Z</time>
      </trkpt>
      <trkpt lat="44.87794" lon="5.90729">
        <ele>1349.818</ele>
        <time>2021-11-13T14:44:47Z</time>
      </trkpt>
      <trkpt lat="44.87794" lon="5.90731">
        <ele>1349.584</ele>
        <time>2021-11-13T14:44:49Z</time>
      </trkpt>
      <trkpt lat="44.87794" lon="5.90732">
        <ele>1349.345</ele>
        <time>2021-11-13T14:44:51Z</time>
      </trkpt>
      <trkpt lat="44.87794" lon="5.90733">
        <ele>1349.254</ele>
        <time>2021-11-13T14:44:52Z</time>
      </trkpt>
      <trkpt lat="44.87795" lon="5.90734">
        <ele>1349.396</ele>
        <time>2021-11-13T14:44:53Z</time>
      </trkpt>
      <trkpt lat="44.87796" lon="5.90736">
        <ele>1349.466</ele>
        <time>2021-11-13T14:44:56Z</time>
      </trkpt>
      <trkpt lat="44.87796" lon="5.90737">
        <ele>1348.695</ele>
        <time>2021-11-13T14:44:57Z</time>
      </trkpt>
      <trkpt lat="44.87798" lon="5.90737">
        <ele>1347.926</ele>
        <time>2021-11-13T14:45:01Z</time>
      </trkpt>
      <trkpt lat="44.87799" lon="5.90737">
        <ele>1347.904</ele>
        <time>2021-11-13T14:45:02Z</time>
      </trkpt>
      <trkpt lat="44.87802" lon="5.90735">
        <ele>1346.745</ele>
        <time>2021-11-13T14:45:06Z</time>
      </trkpt>
      <trkpt lat="44.87803" lon="5.90735">
        <ele>1346.657</ele>
        <time>2021-11-13T14:45:07Z</time>
      </trkpt>
      <trkpt lat="44.87804" lon="5.90736">
        <ele>1346.297</ele>
        <time>2021-11-13T14:45:08Z</time>
      </trkpt>
      <trkpt lat="44.87805" lon="5.90739">
        <ele>1346.972</ele>
        <time>2021-11-13T14:45:11Z</time>
      </trkpt>
      <trkpt lat="44.87805" lon="5.90744">
        <ele>1346.625</ele>
        <time>2021-11-13T14:45:15Z</time>
      </trkpt>
      <trkpt lat="44.87803" lon="5.9075">
        <ele>1348.244</ele>
        <time>2021-11-13T14:45:19Z</time>
      </trkpt>
      <trkpt lat="44.878" lon="5.90756">
        <ele>1345.247</ele>
        <time>2021-11-13T14:45:28Z</time>
      </trkpt>
      <trkpt lat="44.878" lon="5.90758">
        <ele>1344.806</ele>
        <time>2021-11-13T14:45:30Z</time>
      </trkpt>
      <trkpt lat="44.878" lon="5.90762">
        <ele>1343.956</ele>
        <time>2021-11-13T14:45:35Z</time>
      </trkpt>
      <trkpt lat="44.878" lon="5.90763">
        <ele>1344.057</ele>
        <time>2021-11-13T14:45:36Z</time>
      </trkpt>
      <trkpt lat="44.87801" lon="5.90767">
        <ele>1344.303</ele>
        <time>2021-11-13T14:45:39Z</time>
      </trkpt>
      <trkpt lat="44.87801" lon="5.90769">
        <ele>1343.755</ele>
        <time>2021-11-13T14:45:40Z</time>
      </trkpt>
      <trkpt lat="44.878" lon="5.90774">
        <ele>1343.548</ele>
        <time>2021-11-13T14:45:43Z</time>
      </trkpt>
      <trkpt lat="44.87799" lon="5.90776">
        <ele>1343.295</ele>
        <time>2021-11-13T14:45:46Z</time>
      </trkpt>
      <trkpt lat="44.87799" lon="5.90776">
        <ele>1344.459</ele>
        <time>2021-11-13T14:45:47Z</time>
      </trkpt>
      <trkpt lat="44.87799" lon="5.90776">
        <ele>1344.459</ele>
        <time>2021-11-13T14:45:47Z</time>
      </trkpt>
      <trkpt lat="44.87799" lon="5.90777">
        <ele>1344.1</ele>
        <time>2021-11-13T14:45:48Z</time>
      </trkpt>
      <trkpt lat="44.87799" lon="5.90778">
        <ele>1344.239</ele>
        <time>2021-11-13T14:45:49Z</time>
      </trkpt>
      <trkpt lat="44.87798" lon="5.90779">
        <ele>1344.475</ele>
        <time>2021-11-13T14:45:50Z</time>
      </trkpt>
      <trkpt lat="44.87798" lon="5.90779">
        <ele>1344.441</ele>
        <time>2021-11-13T14:45:51Z</time>
      </trkpt>
      <trkpt lat="44.87797" lon="5.90782">
        <ele>1344.155</ele>
        <time>2021-11-13T14:45:54Z</time>
      </trkpt>
      <trkpt lat="44.87796" lon="5.90784">
        <ele>1344.693</ele>
        <time>2021-11-13T14:45:56Z</time>
      </trkpt>
      <trkpt lat="44.87795" lon="5.90787">
        <ele>1344.682</ele>
        <time>2021-11-13T14:45:59Z</time>
      </trkpt>
      <trkpt lat="44.87795" lon="5.90787">
        <ele>1344.682</ele>
        <time>2021-11-13T14:45:59Z</time>
      </trkpt>
      <trkpt lat="44.87795" lon="5.90788">
        <ele>1343.972</ele>
        <time>2021-11-13T14:46:00Z</time>
      </trkpt>
      <trkpt lat="44.87794" lon="5.9079">
        <ele>1343.75</ele>
        <time>2021-11-13T14:46:02Z</time>
      </trkpt>
      <trkpt lat="44.87792" lon="5.90792">
        <ele>1343.824</ele>
        <time>2021-11-13T14:46:05Z</time>
      </trkpt>
      <trkpt lat="44.8779" lon="5.90794">
        <ele>1343.522</ele>
        <time>2021-11-13T14:46:07Z</time>
      </trkpt>
      <trkpt lat="44.87787" lon="5.90797">
        <ele>1344.804</ele>
        <time>2021-11-13T14:46:11Z</time>
      </trkpt>
      <trkpt lat="44.87786" lon="5.908">
        <ele>1342.716</ele>
        <time>2021-11-13T14:46:16Z</time>
      </trkpt>
      <trkpt lat="44.87786" lon="5.908">
        <ele>1342.716</ele>
        <time>2021-11-13T14:46:16Z</time>
      </trkpt>
      <trkpt lat="44.87786" lon="5.908">
        <ele>1342.804</ele>
        <time>2021-11-13T14:46:17Z</time>
      </trkpt>
      <trkpt lat="44.87786" lon="5.908">
        <ele>1341.592</ele>
        <time>2021-11-13T14:46:18Z</time>
      </trkpt>
      <trkpt lat="44.87786" lon="5.908">
        <ele>1341.592</ele>
        <time>2021-11-13T14:46:18Z</time>
      </trkpt>
      <trkpt lat="44.87787" lon="5.90801">
        <ele>1341.651</ele>
        <time>2021-11-13T14:46:19Z</time>
      </trkpt>
      <trkpt lat="44.87787" lon="5.90802">
        <ele>1340.849</ele>
        <time>2021-11-13T14:46:21Z</time>
      </trkpt>
      <trkpt lat="44.87787" lon="5.90802">
        <ele>1340.849</ele>
        <time>2021-11-13T14:46:21Z</time>
      </trkpt>
      <trkpt lat="44.87787" lon="5.90802">
        <ele>1341.057</ele>
        <time>2021-11-13T14:46:22Z</time>
      </trkpt>
      <trkpt lat="44.87786" lon="5.90803">
        <ele>1341.173</ele>
        <time>2021-11-13T14:46:25Z</time>
      </trkpt>
      <trkpt lat="44.87786" lon="5.90806">
        <ele>1341.434</ele>
        <time>2021-11-13T14:46:28Z</time>
      </trkpt>
      <trkpt lat="44.87786" lon="5.90807">
        <ele>1340.913</ele>
        <time>2021-11-13T14:46:30Z</time>
      </trkpt>
      <trkpt lat="44.87786" lon="5.90807">
        <ele>1340.744</ele>
        <time>2021-11-13T14:46:31Z</time>
      </trkpt>
      <trkpt lat="44.87785" lon="5.90808">
        <ele>1341.003</ele>
        <time>2021-11-13T14:46:32Z</time>
      </trkpt>
      <trkpt lat="44.87785" lon="5.90809">
        <ele>1340.046</ele>
        <time>2021-11-13T14:46:33Z</time>
      </trkpt>
      <trkpt lat="44.87784" lon="5.90811">
        <ele>1340.24</ele>
        <time>2021-11-13T14:46:35Z</time>
      </trkpt>
      <trkpt lat="44.87784" lon="5.90813">
        <ele>1340.443</ele>
        <time>2021-11-13T14:46:36Z</time>
      </trkpt>
      <trkpt lat="44.87784" lon="5.90814">
        <ele>1340.404</ele>
        <time>2021-11-13T14:46:36Z</time>
      </trkpt>
      <trkpt lat="44.87782" lon="5.90819">
        <ele>1340.41</ele>
        <time>2021-11-13T14:46:39Z</time>
      </trkpt>
      <trkpt lat="44.8778" lon="5.9083">
        <ele>1338.575</ele>
        <time>2021-11-13T14:46:46Z</time>
      </trkpt>
      <trkpt lat="44.8778" lon="5.90831">
        <ele>1338.711</ele>
        <time>2021-11-13T14:46:47Z</time>
      </trkpt>
      <trkpt lat="44.8778" lon="5.90837">
        <ele>1336.95</ele>
        <time>2021-11-13T14:46:52Z</time>
      </trkpt>
      <trkpt lat="44.8778" lon="5.90837">
        <ele>1336.807</ele>
        <time>2021-11-13T14:46:54Z</time>
      </trkpt>
      <trkpt lat="44.8778" lon="5.90837">
        <ele>1336.807</ele>
        <time>2021-11-13T14:46:54Z</time>
      </trkpt>
      <trkpt lat="44.87781" lon="5.90838">
        <ele>1336.834</ele>
        <time>2021-11-13T14:46:55Z</time>
      </trkpt>
      <trkpt lat="44.87782" lon="5.90838">
        <ele>1336.95</ele>
        <time>2021-11-13T14:46:58Z</time>
      </trkpt>
      <trkpt lat="44.87782" lon="5.90838">
        <ele>1337.166</ele>
        <time>2021-11-13T14:46:59Z</time>
      </trkpt>
      <trkpt lat="44.87782" lon="5.90838">
        <ele>1337.166</ele>
        <time>2021-11-13T14:46:59Z</time>
      </trkpt>
      <trkpt lat="44.87781" lon="5.90838">
        <ele>1337.031</ele>
        <time>2021-11-13T14:47:00Z</time>
      </trkpt>
      <trkpt lat="44.87781" lon="5.9084">
        <ele>1337.444</ele>
        <time>2021-11-13T14:47:03Z</time>
      </trkpt>
      <trkpt lat="44.87781" lon="5.9084">
        <ele>1337.444</ele>
        <time>2021-11-13T14:47:03Z</time>
      </trkpt>
      <trkpt lat="44.87781" lon="5.90841">
        <ele>1337.248</ele>
        <time>2021-11-13T14:47:04Z</time>
      </trkpt>
      <trkpt lat="44.87779" lon="5.90845">
        <ele>1336.249</ele>
        <time>2021-11-13T14:47:10Z</time>
      </trkpt>
      <trkpt lat="44.87778" lon="5.9085">
        <ele>1335.338</ele>
        <time>2021-11-13T14:47:14Z</time>
      </trkpt>
      <trkpt lat="44.87776" lon="5.90856">
        <ele>1333.937</ele>
        <time>2021-11-13T14:47:18Z</time>
      </trkpt>
      <trkpt lat="44.87775" lon="5.90857">
        <ele>1333.466</ele>
        <time>2021-11-13T14:47:19Z</time>
      </trkpt>
      <trkpt lat="44.87775" lon="5.90857">
        <ele>1333.41</ele>
        <time>2021-11-13T14:47:20Z</time>
      </trkpt>
      <trkpt lat="44.87775" lon="5.90857">
        <ele>1333.41</ele>
        <time>2021-11-13T14:47:20Z</time>
      </trkpt>
      <trkpt lat="44.87775" lon="5.90858">
        <ele>1332.815</ele>
        <time>2021-11-13T14:47:21Z</time>
      </trkpt>
      <trkpt lat="44.87773" lon="5.90861">
        <ele>1331.95</ele>
        <time>2021-11-13T14:47:25Z</time>
      </trkpt>
      <trkpt lat="44.87772" lon="5.90865">
        <ele>1330.568</ele>
        <time>2021-11-13T14:47:29Z</time>
      </trkpt>
      <trkpt lat="44.87772" lon="5.90866">
        <ele>1330.656</ele>
        <time>2021-11-13T14:47:30Z</time>
      </trkpt>
      <trkpt lat="44.87772" lon="5.90872">
        <ele>1330.363</ele>
        <time>2021-11-13T14:47:34Z</time>
      </trkpt>
      <trkpt lat="44.87772" lon="5.90876">
        <ele>1330.023</ele>
        <time>2021-11-13T14:47:39Z</time>
      </trkpt>
      <trkpt lat="44.87777" lon="5.90892">
        <ele>1329.408</ele>
        <time>2021-11-13T14:47:50Z</time>
      </trkpt>
      <trkpt lat="44.87777" lon="5.90901">
        <ele>1328.255</ele>
        <time>2021-11-13T14:47:56Z</time>
      </trkpt>
      <trkpt lat="44.87776" lon="5.90902">
        <ele>1328.113</ele>
        <time>2021-11-13T14:47:58Z</time>
      </trkpt>
      <trkpt lat="44.87775" lon="5.90903">
        <ele>1327.066</ele>
        <time>2021-11-13T14:48:00Z</time>
      </trkpt>
      <trkpt lat="44.87775" lon="5.90904">
        <ele>1327.214</ele>
        <time>2021-11-13T14:48:01Z</time>
      </trkpt>
      <trkpt lat="44.87775" lon="5.90905">
        <ele>1327.44</ele>
        <time>2021-11-13T14:48:02Z</time>
      </trkpt>
      <trkpt lat="44.87774" lon="5.90907">
        <ele>1327.827</ele>
        <time>2021-11-13T14:48:04Z</time>
      </trkpt>
      <trkpt lat="44.87774" lon="5.90911">
        <ele>1327.736</ele>
        <time>2021-11-13T14:48:10Z</time>
      </trkpt>
      <trkpt lat="44.87774" lon="5.90911">
        <ele>1327.357</ele>
        <time>2021-11-13T14:48:11Z</time>
      </trkpt>
      <trkpt lat="44.87774" lon="5.90911">
        <ele>1327.531</ele>
        <time>2021-11-13T14:48:27Z</time>
      </trkpt>
      <trkpt lat="44.87775" lon="5.90912">
        <ele>1327.551</ele>
        <time>2021-11-13T14:48:28Z</time>
      </trkpt>
      <trkpt lat="44.87774" lon="5.90912">
        <ele>1326.128</ele>
        <time>2021-11-13T14:48:29Z</time>
      </trkpt>
      <trkpt lat="44.87774" lon="5.90912">
        <ele>1325.811</ele>
        <time>2021-11-13T14:48:30Z</time>
      </trkpt>
      <trkpt lat="44.87774" lon="5.90912">
        <ele>1325.091</ele>
        <time>2021-11-13T14:48:31Z</time>
      </trkpt>
      <trkpt lat="44.87774" lon="5.90912">
        <ele>1325.126</ele>
        <time>2021-11-13T14:48:39Z</time>
      </trkpt>
      <trkpt lat="44.87773" lon="5.90911">
        <ele>1325.393</ele>
        <time>2021-11-13T14:48:40Z</time>
      </trkpt>
      <trkpt lat="44.87772" lon="5.9091">
        <ele>1325.095</ele>
        <time>2021-11-13T14:48:43Z</time>
      </trkpt>
      <trkpt lat="44.87772" lon="5.90909">
        <ele>1324.859</ele>
        <time>2021-11-13T14:48:44Z</time>
      </trkpt>
      <trkpt lat="44.87772" lon="5.90906">
        <ele>1324.529</ele>
        <time>2021-11-13T14:48:47Z</time>
      </trkpt>
      <trkpt lat="44.87772" lon="5.90906">
        <ele>1324.529</ele>
        <time>2021-11-13T14:48:47Z</time>
      </trkpt>
      <trkpt lat="44.87772" lon="5.90904">
        <ele>1323.549</ele>
        <time>2021-11-13T14:48:48Z</time>
      </trkpt>
      <trkpt lat="44.87772" lon="5.90904">
        <ele>1323.052</ele>
        <time>2021-11-13T14:48:49Z</time>
      </trkpt>
      <trkpt lat="44.87772" lon="5.90904">
        <ele>1323.052</ele>
        <time>2021-11-13T14:48:49Z</time>
      </trkpt>
      <trkpt lat="44.87772" lon="5.90904">
        <ele>1322.98</ele>
        <time>2021-11-13T14:48:50Z</time>
      </trkpt>
      <trkpt lat="44.87773" lon="5.90903">
        <ele>1323.631</ele>
        <time>2021-11-13T14:48:51Z</time>
      </trkpt>
      <trkpt lat="44.87774" lon="5.90903">
        <ele>1322.978</ele>
        <time>2021-11-13T14:48:52Z</time>
      </trkpt>
      <trkpt lat="44.87774" lon="5.90903">
        <ele>1323.338</ele>
        <time>2021-11-13T14:48:53Z</time>
      </trkpt>
      <trkpt lat="44.87774" lon="5.90903">
        <ele>1322.616</ele>
        <time>2021-11-13T14:49:07Z</time>
      </trkpt>
      <trkpt lat="44.87776" lon="5.90901">
        <ele>1320.388</ele>
        <time>2021-11-13T14:49:08Z</time>
      </trkpt>
      <trkpt lat="44.87775" lon="5.909">
        <ele>1320.55</ele>
        <time>2021-11-13T14:49:10Z</time>
      </trkpt>
      <trkpt lat="44.87775" lon="5.909">
        <ele>1321.691</ele>
        <time>2021-11-13T14:49:37Z</time>
      </trkpt>
      <trkpt lat="44.87773" lon="5.90903">
        <ele>1321.209</ele>
        <time>2021-11-13T14:49:38Z</time>
      </trkpt>
      <trkpt lat="44.87773" lon="5.90903">
        <ele>1321.209</ele>
        <time>2021-11-13T14:49:38Z</time>
      </trkpt>
      <trkpt lat="44.87773" lon="5.90903">
        <ele>1320.564</ele>
        <time>2021-11-13T14:49:39Z</time>
      </trkpt>
      <trkpt lat="44.87773" lon="5.90903">
        <ele>1321.322</ele>
        <time>2021-11-13T14:50:47Z</time>
      </trkpt>
      <trkpt lat="44.87775" lon="5.90905">
        <ele>1321.444</ele>
        <time>2021-11-13T14:50:48Z</time>
      </trkpt>
      <trkpt lat="44.87775" lon="5.90904">
        <ele>1321.4</ele>
        <time>2021-11-13T14:50:51Z</time>
      </trkpt>
      <trkpt lat="44.87775" lon="5.90904">
        <ele>1321.421</ele>
        <time>2021-11-13T14:51:45Z</time>
      </trkpt>
      <trkpt lat="44.87774" lon="5.90906">
        <ele>1321.911</ele>
        <time>2021-11-13T14:51:46Z</time>
      </trkpt>
      <trkpt lat="44.87774" lon="5.90906">
        <ele>1321.719</ele>
        <time>2021-11-13T14:51:47Z</time>
      </trkpt>
      <trkpt lat="44.87771" lon="5.90909">
        <ele>1323.354</ele>
        <time>2021-11-13T14:51:51Z</time>
      </trkpt>
      <trkpt lat="44.87764" lon="5.90923">
        <ele>1325.71</ele>
        <time>2021-11-13T14:52:04Z</time>
      </trkpt>
      <trkpt lat="44.87761" lon="5.90926">
        <ele>1327.921</ele>
        <time>2021-11-13T14:52:08Z</time>
      </trkpt>
      <trkpt lat="44.87758" lon="5.90927">
        <ele>1325.719</ele>
        <time>2021-11-13T14:52:11Z</time>
      </trkpt>
      <trkpt lat="44.87744" lon="5.90937">
        <ele>1327.114</ele>
        <time>2021-11-13T14:52:25Z</time>
      </trkpt>
      <trkpt lat="44.87715" lon="5.90974">
        <ele>1326.027</ele>
        <time>2021-11-13T14:53:05Z</time>
      </trkpt>
      <trkpt lat="44.87714" lon="5.90976">
        <ele>1325.93</ele>
        <time>2021-11-13T14:53:08Z</time>
      </trkpt>
      <trkpt lat="44.87712" lon="5.90979">
        <ele>1324.758</ele>
        <time>2021-11-13T14:53:13Z</time>
      </trkpt>
      <trkpt lat="44.87712" lon="5.90979">
        <ele>1324.886</ele>
        <time>2021-11-13T14:53:14Z</time>
      </trkpt>
      <trkpt lat="44.87712" lon="5.90979">
        <ele>1324.534</ele>
        <time>2021-11-13T14:53:15Z</time>
      </trkpt>
      <trkpt lat="44.87712" lon="5.90979">
        <ele>1324.447</ele>
        <time>2021-11-13T14:53:16Z</time>
      </trkpt>
      <trkpt lat="44.87711" lon="5.90979">
        <ele>1324.576</ele>
        <time>2021-11-13T14:53:18Z</time>
      </trkpt>
      <trkpt lat="44.8771" lon="5.90979">
        <ele>1323.732</ele>
        <time>2021-11-13T14:53:20Z</time>
      </trkpt>
      <trkpt lat="44.87704" lon="5.90974">
        <ele>1323.318</ele>
        <time>2021-11-13T14:53:28Z</time>
      </trkpt>
      <trkpt lat="44.87702" lon="5.90972">
        <ele>1323.204</ele>
        <time>2021-11-13T14:53:33Z</time>
      </trkpt>
      <trkpt lat="44.87702" lon="5.90972">
        <ele>1323.204</ele>
        <time>2021-11-13T14:53:33Z</time>
      </trkpt>
      <trkpt lat="44.87702" lon="5.90972">
        <ele>1322.839</ele>
        <time>2021-11-13T14:53:34Z</time>
      </trkpt>
      <trkpt lat="44.87702" lon="5.90972">
        <ele>1322.738</ele>
        <time>2021-11-13T14:53:35Z</time>
      </trkpt>
      <trkpt lat="44.87701" lon="5.90973">
        <ele>1323.117</ele>
        <time>2021-11-13T14:53:36Z</time>
      </trkpt>
      <trkpt lat="44.87699" lon="5.90972">
        <ele>1322.663</ele>
        <time>2021-11-13T14:53:38Z</time>
      </trkpt>
      <trkpt lat="44.87697" lon="5.90971">
        <ele>1321.845</ele>
        <time>2021-11-13T14:53:42Z</time>
      </trkpt>
      <trkpt lat="44.87696" lon="5.90971">
        <ele>1321.485</ele>
        <time>2021-11-13T14:53:43Z</time>
      </trkpt>
      <trkpt lat="44.87696" lon="5.90971">
        <ele>1321.46</ele>
        <time>2021-11-13T14:53:44Z</time>
      </trkpt>
      <trkpt lat="44.87696" lon="5.90971">
        <ele>1320.425</ele>
        <time>2021-11-13T14:53:53Z</time>
      </trkpt>
      <trkpt lat="44.87695" lon="5.90973">
        <ele>1320.366</ele>
        <time>2021-11-13T14:53:54Z</time>
      </trkpt>
      <trkpt lat="44.87695" lon="5.90973">
        <ele>1320.366</ele>
        <time>2021-11-13T14:53:54Z</time>
      </trkpt>
      <trkpt lat="44.87695" lon="5.90973">
        <ele>1320.375</ele>
        <time>2021-11-13T14:53:55Z</time>
      </trkpt>
      <trkpt lat="44.87695" lon="5.90973">
        <ele>1320.37</ele>
        <time>2021-11-13T14:53:59Z</time>
      </trkpt>
      <trkpt lat="44.87694" lon="5.90974">
        <ele>1320.447</ele>
        <time>2021-11-13T14:54:00Z</time>
      </trkpt>
      <trkpt lat="44.87691" lon="5.90974">
        <ele>1319.862</ele>
        <time>2021-11-13T14:54:05Z</time>
      </trkpt>
      <trkpt lat="44.87688" lon="5.90973">
        <ele>1319.846</ele>
        <time>2021-11-13T14:54:09Z</time>
      </trkpt>
      <trkpt lat="44.87687" lon="5.90973">
        <ele>1319.95</ele>
        <time>2021-11-13T14:54:10Z</time>
      </trkpt>
      <trkpt lat="44.87683" lon="5.90973">
        <ele>1319.887</ele>
        <time>2021-11-13T14:54:15Z</time>
      </trkpt>
      <trkpt lat="44.87678" lon="5.90974">
        <ele>1318.434</ele>
        <time>2021-11-13T14:54:22Z</time>
      </trkpt>
      <trkpt lat="44.87673" lon="5.90972">
        <ele>1319.186</ele>
        <time>2021-11-13T14:54:27Z</time>
      </trkpt>
      <trkpt lat="44.87671" lon="5.90971">
        <ele>1319.708</ele>
        <time>2021-11-13T14:54:29Z</time>
      </trkpt>
      <trkpt lat="44.87669" lon="5.90971">
        <ele>1318.96</ele>
        <time>2021-11-13T14:54:32Z</time>
      </trkpt>
      <trkpt lat="44.87668" lon="5.90971">
        <ele>1317.827</ele>
        <time>2021-11-13T14:54:34Z</time>
      </trkpt>
      <trkpt lat="44.87667" lon="5.90971">
        <ele>1318.753</ele>
        <time>2021-11-13T14:54:36Z</time>
      </trkpt>
      <trkpt lat="44.87666" lon="5.90971">
        <ele>1318.962</ele>
        <time>2021-11-13T14:54:37Z</time>
      </trkpt>
      <trkpt lat="44.87665" lon="5.90972">
        <ele>1318.422</ele>
        <time>2021-11-13T14:54:38Z</time>
      </trkpt>
      <trkpt lat="44.87663" lon="5.90972">
        <ele>1318.564</ele>
        <time>2021-11-13T14:54:40Z</time>
      </trkpt>
      <trkpt lat="44.8766" lon="5.90973">
        <ele>1318.844</ele>
        <time>2021-11-13T14:54:43Z</time>
      </trkpt>
      <trkpt lat="44.87654" lon="5.90974">
        <ele>1318.032</ele>
        <time>2021-11-13T14:54:48Z</time>
      </trkpt>
      <trkpt lat="44.87652" lon="5.90971">
        <ele>1318.348</ele>
        <time>2021-11-13T14:54:52Z</time>
      </trkpt>
      <trkpt lat="44.87649" lon="5.9097">
        <ele>1318.187</ele>
        <time>2021-11-13T14:54:55Z</time>
      </trkpt>
      <trkpt lat="44.87645" lon="5.9097">
        <ele>1318.304</ele>
        <time>2021-11-13T14:54:59Z</time>
      </trkpt>
      <trkpt lat="44.87642" lon="5.90969">
        <ele>1317.14</ele>
        <time>2021-11-13T14:55:03Z</time>
      </trkpt>
      <trkpt lat="44.8764" lon="5.9097">
        <ele>1317.381</ele>
        <time>2021-11-13T14:55:05Z</time>
      </trkpt>
      <trkpt lat="44.87623" lon="5.90967">
        <ele>1317.764</ele>
        <time>2021-11-13T14:55:21Z</time>
      </trkpt>
      <trkpt lat="44.87617" lon="5.90962">
        <ele>1316.898</ele>
        <time>2021-11-13T14:55:28Z</time>
      </trkpt>
      <trkpt lat="44.87614" lon="5.90961">
        <ele>1317.451</ele>
        <time>2021-11-13T14:55:31Z</time>
      </trkpt>
      <trkpt lat="44.87609" lon="5.90962">
        <ele>1318.357</ele>
        <time>2021-11-13T14:55:34Z</time>
      </trkpt>
      <trkpt lat="44.87608" lon="5.90962">
        <ele>1316.746</ele>
        <time>2021-11-13T14:55:36Z</time>
      </trkpt>
      <trkpt lat="44.87607" lon="5.90962">
        <ele>1316.06</ele>
        <time>2021-11-13T14:55:37Z</time>
      </trkpt>
      <trkpt lat="44.87604" lon="5.90961">
        <ele>1316.37</ele>
        <time>2021-11-13T14:55:41Z</time>
      </trkpt>
      <trkpt lat="44.87602" lon="5.90961">
        <ele>1315.818</ele>
        <time>2021-11-13T14:55:44Z</time>
      </trkpt>
      <trkpt lat="44.87601" lon="5.90961">
        <ele>1315.707</ele>
        <time>2021-11-13T14:55:45Z</time>
      </trkpt>
      <trkpt lat="44.87595" lon="5.9096">
        <ele>1313.615</ele>
        <time>2021-11-13T14:55:53Z</time>
      </trkpt>
      <trkpt lat="44.87592" lon="5.9096">
        <ele>1311.697</ele>
        <time>2021-11-13T14:55:57Z</time>
      </trkpt>
      <trkpt lat="44.87589" lon="5.90958">
        <ele>1309.692</ele>
        <time>2021-11-13T14:56:01Z</time>
      </trkpt>
      <trkpt lat="44.87585" lon="5.90956">
        <ele>1308.421</ele>
        <time>2021-11-13T14:56:06Z</time>
      </trkpt>
      <trkpt lat="44.87584" lon="5.90955">
        <ele>1307.155</ele>
        <time>2021-11-13T14:56:08Z</time>
      </trkpt>
      <trkpt lat="44.87582" lon="5.90952">
        <ele>1305.467</ele>
        <time>2021-11-13T14:56:11Z</time>
      </trkpt>
      <trkpt lat="44.87581" lon="5.90949">
        <ele>1305.216</ele>
        <time>2021-11-13T14:56:13Z</time>
      </trkpt>
      <trkpt lat="44.8758" lon="5.90948">
        <ele>1305.02</ele>
        <time>2021-11-13T14:56:14Z</time>
      </trkpt>
      <trkpt lat="44.87579" lon="5.90947">
        <ele>1304.76</ele>
        <time>2021-11-13T14:56:15Z</time>
      </trkpt>
      <trkpt lat="44.87579" lon="5.90946">
        <ele>1304.68</ele>
        <time>2021-11-13T14:56:16Z</time>
      </trkpt>
      <trkpt lat="44.87578" lon="5.90945">
        <ele>1304.375</ele>
        <time>2021-11-13T14:56:17Z</time>
      </trkpt>
      <trkpt lat="44.87575" lon="5.9094">
        <ele>1303.861</ele>
        <time>2021-11-13T14:56:20Z</time>
      </trkpt>
      <trkpt lat="44.87571" lon="5.90936">
        <ele>1304.457</ele>
        <time>2021-11-13T14:56:24Z</time>
      </trkpt>
      <trkpt lat="44.8757" lon="5.90933">
        <ele>1302.632</ele>
        <time>2021-11-13T14:56:28Z</time>
      </trkpt>
      <trkpt lat="44.87568" lon="5.9093">
        <ele>1301.449</ele>
        <time>2021-11-13T14:56:32Z</time>
      </trkpt>
      <trkpt lat="44.87567" lon="5.90928">
        <ele>1300.801</ele>
        <time>2021-11-13T14:56:36Z</time>
      </trkpt>
      <trkpt lat="44.87566" lon="5.90927">
        <ele>1299.917</ele>
        <time>2021-11-13T14:56:38Z</time>
      </trkpt>
      <trkpt lat="44.87566" lon="5.90926">
        <ele>1299.949</ele>
        <time>2021-11-13T14:56:39Z</time>
      </trkpt>
      <trkpt lat="44.87566" lon="5.90925">
        <ele>1300.429</ele>
        <time>2021-11-13T14:56:40Z</time>
      </trkpt>
      <trkpt lat="44.87565" lon="5.90921">
        <ele>1300.07</ele>
        <time>2021-11-13T14:56:44Z</time>
      </trkpt>
      <trkpt lat="44.87565" lon="5.9092">
        <ele>1299.622</ele>
        <time>2021-11-13T14:56:45Z</time>
      </trkpt>
      <trkpt lat="44.87565" lon="5.90919">
        <ele>1299.712</ele>
        <time>2021-11-13T14:56:46Z</time>
      </trkpt>
      <trkpt lat="44.87565" lon="5.90918">
        <ele>1299.514</ele>
        <time>2021-11-13T14:56:47Z</time>
      </trkpt>
      <trkpt lat="44.87563" lon="5.90917">
        <ele>1298.819</ele>
        <time>2021-11-13T14:56:49Z</time>
      </trkpt>
      <trkpt lat="44.87559" lon="5.90915">
        <ele>1296.657</ele>
        <time>2021-11-13T14:56:53Z</time>
      </trkpt>
      <trkpt lat="44.87551" lon="5.90918">
        <ele>1296.324</ele>
        <time>2021-11-13T14:57:01Z</time>
      </trkpt>
      <trkpt lat="44.87548" lon="5.9092">
        <ele>1294.83</ele>
        <time>2021-11-13T14:57:04Z</time>
      </trkpt>
      <trkpt lat="44.87546" lon="5.90923">
        <ele>1293.659</ele>
        <time>2021-11-13T14:57:06Z</time>
      </trkpt>
      <trkpt lat="44.87546" lon="5.90926">
        <ele>1292.679</ele>
        <time>2021-11-13T14:57:09Z</time>
      </trkpt>
      <trkpt lat="44.87546" lon="5.90926">
        <ele>1292.679</ele>
        <time>2021-11-13T14:57:09Z</time>
      </trkpt>
      <trkpt lat="44.87547" lon="5.90928">
        <ele>1292.376</ele>
        <time>2021-11-13T14:57:10Z</time>
      </trkpt>
      <trkpt lat="44.87547" lon="5.90929">
        <ele>1291.571</ele>
        <time>2021-11-13T14:57:11Z</time>
      </trkpt>
      <trkpt lat="44.87547" lon="5.90929">
        <ele>1291.571</ele>
        <time>2021-11-13T14:57:11Z</time>
      </trkpt>
      <trkpt lat="44.87548" lon="5.9093">
        <ele>1291.431</ele>
        <time>2021-11-13T14:57:12Z</time>
      </trkpt>
      <trkpt lat="44.87549" lon="5.90933">
        <ele>1290.37</ele>
        <time>2021-11-13T14:57:14Z</time>
      </trkpt>
      <trkpt lat="44.8755" lon="5.90938">
        <ele>1289.985</ele>
        <time>2021-11-13T14:57:17Z</time>
      </trkpt>
      <trkpt lat="44.8755" lon="5.90938">
        <ele>1289.779</ele>
        <time>2021-11-13T14:57:18Z</time>
      </trkpt>
      <trkpt lat="44.8755" lon="5.90938">
        <ele>1290.1</ele>
        <time>2021-11-13T14:57:19Z</time>
      </trkpt>
      <trkpt lat="44.8755" lon="5.9094">
        <ele>1290.249</ele>
        <time>2021-11-13T14:57:20Z</time>
      </trkpt>
      <trkpt lat="44.8755" lon="5.9094">
        <ele>1289.994</ele>
        <time>2021-11-13T14:57:21Z</time>
      </trkpt>
      <trkpt lat="44.8755" lon="5.9094">
        <ele>1289.994</ele>
        <time>2021-11-13T14:57:21Z</time>
      </trkpt>
      <trkpt lat="44.8755" lon="5.90942">
        <ele>1289.662</ele>
        <time>2021-11-13T14:57:22Z</time>
      </trkpt>
      <trkpt lat="44.87551" lon="5.90945">
        <ele>1289.301</ele>
        <time>2021-11-13T14:57:24Z</time>
      </trkpt>
      <trkpt lat="44.87551" lon="5.90947">
        <ele>1289.134</ele>
        <time>2021-11-13T14:57:26Z</time>
      </trkpt>
      <trkpt lat="44.87551" lon="5.90952">
        <ele>1288.827</ele>
        <time>2021-11-13T14:57:29Z</time>
      </trkpt>
      <trkpt lat="44.87551" lon="5.90955">
        <ele>1288.071</ele>
        <time>2021-11-13T14:57:31Z</time>
      </trkpt>
      <trkpt lat="44.8755" lon="5.90958">
        <ele>1288.069</ele>
        <time>2021-11-13T14:57:34Z</time>
      </trkpt>
      <trkpt lat="44.8755" lon="5.90959">
        <ele>1288.371</ele>
        <time>2021-11-13T14:57:35Z</time>
      </trkpt>
      <trkpt lat="44.8755" lon="5.90959">
        <ele>1287.87</ele>
        <time>2021-11-13T14:57:36Z</time>
      </trkpt>
      <trkpt lat="44.8755" lon="5.9096">
        <ele>1287.964</ele>
        <time>2021-11-13T14:57:37Z</time>
      </trkpt>
      <trkpt lat="44.8755" lon="5.90961">
        <ele>1287.522</ele>
        <time>2021-11-13T14:57:38Z</time>
      </trkpt>
      <trkpt lat="44.8755" lon="5.90961">
        <ele>1287.921</ele>
        <time>2021-11-13T14:57:39Z</time>
      </trkpt>
      <trkpt lat="44.8755" lon="5.90961">
        <ele>1287.921</ele>
        <time>2021-11-13T14:57:39Z</time>
      </trkpt>
      <trkpt lat="44.8755" lon="5.90962">
        <ele>1287.906</ele>
        <time>2021-11-13T14:57:40Z</time>
      </trkpt>
      <trkpt lat="44.87548" lon="5.90964">
        <ele>1287.653</ele>
        <time>2021-11-13T14:57:44Z</time>
      </trkpt>
      <trkpt lat="44.87544" lon="5.90975">
        <ele>1286.898</ele>
        <time>2021-11-13T14:57:52Z</time>
      </trkpt>
      <trkpt lat="44.87543" lon="5.90977">
        <ele>1286.429</ele>
        <time>2021-11-13T14:57:54Z</time>
      </trkpt>
      <trkpt lat="44.87541" lon="5.90982">
        <ele>1286.158</ele>
        <time>2021-11-13T14:57:58Z</time>
      </trkpt>
      <trkpt lat="44.87541" lon="5.90983">
        <ele>1285.54</ele>
        <time>2021-11-13T14:57:59Z</time>
      </trkpt>
      <trkpt lat="44.87541" lon="5.90984">
        <ele>1284.839</ele>
        <time>2021-11-13T14:58:00Z</time>
      </trkpt>
      <trkpt lat="44.8754" lon="5.90987">
        <ele>1283.715</ele>
        <time>2021-11-13T14:58:03Z</time>
      </trkpt>
      <trkpt lat="44.87539" lon="5.90991">
        <ele>1282.901</ele>
        <time>2021-11-13T14:58:06Z</time>
      </trkpt>
      <trkpt lat="44.87538" lon="5.90994">
        <ele>1281.584</ele>
        <time>2021-11-13T14:58:09Z</time>
      </trkpt>
      <trkpt lat="44.87538" lon="5.90995">
        <ele>1281.467</ele>
        <time>2021-11-13T14:58:10Z</time>
      </trkpt>
      <trkpt lat="44.87537" lon="5.91">
        <ele>1281.058</ele>
        <time>2021-11-13T14:58:14Z</time>
      </trkpt>
      <trkpt lat="44.87537" lon="5.91001">
        <ele>1281.688</ele>
        <time>2021-11-13T14:58:16Z</time>
      </trkpt>
      <trkpt lat="44.87537" lon="5.91002">
        <ele>1281.453</ele>
        <time>2021-11-13T14:58:18Z</time>
      </trkpt>
      <trkpt lat="44.87537" lon="5.91002">
        <ele>1281.305</ele>
        <time>2021-11-13T14:58:20Z</time>
      </trkpt>
      <trkpt lat="44.87537" lon="5.91002">
        <ele>1281.305</ele>
        <time>2021-11-13T14:58:20Z</time>
      </trkpt>
      <trkpt lat="44.87538" lon="5.91003">
        <ele>1281.737</ele>
        <time>2021-11-13T14:58:21Z</time>
      </trkpt>
      <trkpt lat="44.87538" lon="5.91003">
        <ele>1281.737</ele>
        <time>2021-11-13T14:58:21Z</time>
      </trkpt>
      <trkpt lat="44.87538" lon="5.91003">
        <ele>1282.016</ele>
        <time>2021-11-13T14:58:22Z</time>
      </trkpt>
      <trkpt lat="44.87538" lon="5.91003">
        <ele>1282.552</ele>
        <time>2021-11-13T14:58:23Z</time>
      </trkpt>
      <trkpt lat="44.87538" lon="5.91003">
        <ele>1282.308</ele>
        <time>2021-11-13T14:58:24Z</time>
      </trkpt>
      <trkpt lat="44.87539" lon="5.91003">
        <ele>1282.04</ele>
        <time>2021-11-13T14:58:25Z</time>
      </trkpt>
      <trkpt lat="44.87539" lon="5.91006">
        <ele>1281.63</ele>
        <time>2021-11-13T14:58:27Z</time>
      </trkpt>
      <trkpt lat="44.87538" lon="5.9101">
        <ele>1280.427</ele>
        <time>2021-11-13T14:58:30Z</time>
      </trkpt>
      <trkpt lat="44.87537" lon="5.91012">
        <ele>1280.053</ele>
        <time>2021-11-13T14:58:32Z</time>
      </trkpt>
      <trkpt lat="44.87537" lon="5.91012">
        <ele>1280.008</ele>
        <time>2021-11-13T14:58:33Z</time>
      </trkpt>
      <trkpt lat="44.87537" lon="5.91012">
        <ele>1280.008</ele>
        <time>2021-11-13T14:58:33Z</time>
      </trkpt>
      <trkpt lat="44.87537" lon="5.91013">
        <ele>1279.868</ele>
        <time>2021-11-13T14:58:34Z</time>
      </trkpt>
      <trkpt lat="44.87537" lon="5.91014">
        <ele>1279.742</ele>
        <time>2021-11-13T14:58:35Z</time>
      </trkpt>
      <trkpt lat="44.87537" lon="5.91018">
        <ele>1279.196</ele>
        <time>2021-11-13T14:58:38Z</time>
      </trkpt>
      <trkpt lat="44.87536" lon="5.91021">
        <ele>1278.222</ele>
        <time>2021-11-13T14:58:41Z</time>
      </trkpt>
      <trkpt lat="44.87534" lon="5.91022">
        <ele>1277.775</ele>
        <time>2021-11-13T14:58:43Z</time>
      </trkpt>
      <trkpt lat="44.87534" lon="5.91023">
        <ele>1277.823</ele>
        <time>2021-11-13T14:58:44Z</time>
      </trkpt>
      <trkpt lat="44.87533" lon="5.91024">
        <ele>1277.567</ele>
        <time>2021-11-13T14:58:45Z</time>
      </trkpt>
      <trkpt lat="44.87531" lon="5.91026">
        <ele>1275.296</ele>
        <time>2021-11-13T14:58:48Z</time>
      </trkpt>
      <trkpt lat="44.8753" lon="5.91026">
        <ele>1273.865</ele>
        <time>2021-11-13T14:58:49Z</time>
      </trkpt>
      <trkpt lat="44.8753" lon="5.91026">
        <ele>1272.767</ele>
        <time>2021-11-13T14:58:50Z</time>
      </trkpt>
      <trkpt lat="44.8753" lon="5.91026">
        <ele>1270.777</ele>
        <time>2021-11-13T14:58:54Z</time>
      </trkpt>
      <trkpt lat="44.87529" lon="5.91023">
        <ele>1270.291</ele>
        <time>2021-11-13T14:58:55Z</time>
      </trkpt>
      <trkpt lat="44.87526" lon="5.91022">
        <ele>1268.535</ele>
        <time>2021-11-13T14:59:00Z</time>
      </trkpt>
      <trkpt lat="44.87524" lon="5.91025">
        <ele>1267.658</ele>
        <time>2021-11-13T14:59:03Z</time>
      </trkpt>
      <trkpt lat="44.87521" lon="5.91029">
        <ele>1267.275</ele>
        <time>2021-11-13T14:59:09Z</time>
      </trkpt>
      <trkpt lat="44.87521" lon="5.91029">
        <ele>1267.145</ele>
        <time>2021-11-13T14:59:10Z</time>
      </trkpt>
      <trkpt lat="44.87521" lon="5.91029">
        <ele>1267.145</ele>
        <time>2021-11-13T14:59:10Z</time>
      </trkpt>
      <trkpt lat="44.87521" lon="5.91029">
        <ele>1267.39</ele>
        <time>2021-11-13T14:59:11Z</time>
      </trkpt>
      <trkpt lat="44.87521" lon="5.91029">
        <ele>1267.39</ele>
        <time>2021-11-13T14:59:11Z</time>
      </trkpt>
      <trkpt lat="44.87521" lon="5.91029">
        <ele>1267.018</ele>
        <time>2021-11-13T14:59:12Z</time>
      </trkpt>
      <trkpt lat="44.87521" lon="5.91029">
        <ele>1266.629</ele>
        <time>2021-11-13T14:59:13Z</time>
      </trkpt>
      <trkpt lat="44.8752" lon="5.91028">
        <ele>1266.167</ele>
        <time>2021-11-13T14:59:14Z</time>
      </trkpt>
      <trkpt lat="44.87515" lon="5.91028">
        <ele>1266.312</ele>
        <time>2021-11-13T14:59:19Z</time>
      </trkpt>
      <trkpt lat="44.87513" lon="5.9103">
        <ele>1266.639</ele>
        <time>2021-11-13T14:59:22Z</time>
      </trkpt>
      <trkpt lat="44.87509" lon="5.91032">
        <ele>1264.387</ele>
        <time>2021-11-13T14:59:27Z</time>
      </trkpt>
      <trkpt lat="44.87506" lon="5.91034">
        <ele>1262.344</ele>
        <time>2021-11-13T14:59:33Z</time>
      </trkpt>
      <trkpt lat="44.87501" lon="5.91037">
        <ele>1261.79</ele>
        <time>2021-11-13T14:59:39Z</time>
      </trkpt>
      <trkpt lat="44.87501" lon="5.91037">
        <ele>1261.454</ele>
        <time>2021-11-13T14:59:40Z</time>
      </trkpt>
      <trkpt lat="44.87491" lon="5.91039">
        <ele>1259.326</ele>
        <time>2021-11-13T14:59:53Z</time>
      </trkpt>
      <trkpt lat="44.87485" lon="5.91044">
        <ele>1257.769</ele>
        <time>2021-11-13T15:00:01Z</time>
      </trkpt>
      <trkpt lat="44.87482" lon="5.91043">
        <ele>1255.745</ele>
        <time>2021-11-13T15:00:06Z</time>
      </trkpt>
      <trkpt lat="44.87477" lon="5.91044">
        <ele>1255.539</ele>
        <time>2021-11-13T15:00:12Z</time>
      </trkpt>
      <trkpt lat="44.87462" lon="5.9105">
        <ele>1253.573</ele>
        <time>2021-11-13T15:00:31Z</time>
      </trkpt>
      <trkpt lat="44.87449" lon="5.91055">
        <ele>1253.125</ele>
        <time>2021-11-13T15:00:46Z</time>
      </trkpt>
      <trkpt lat="44.87449" lon="5.91056">
        <ele>1253.381</ele>
        <time>2021-11-13T15:00:48Z</time>
      </trkpt>
      <trkpt lat="44.87449" lon="5.91056">
        <ele>1253.197</ele>
        <time>2021-11-13T15:00:49Z</time>
      </trkpt>
      <trkpt lat="44.87448" lon="5.91057">
        <ele>1252.728</ele>
        <time>2021-11-13T15:00:50Z</time>
      </trkpt>
      <trkpt lat="44.87446" lon="5.91058">
        <ele>1252.494</ele>
        <time>2021-11-13T15:00:53Z</time>
      </trkpt>
      <trkpt lat="44.87446" lon="5.91058">
        <ele>1252.167</ele>
        <time>2021-11-13T15:00:54Z</time>
      </trkpt>
      <trkpt lat="44.87439" lon="5.91057">
        <ele>1249.504</ele>
        <time>2021-11-13T15:00:59Z</time>
      </trkpt>
      <trkpt lat="44.87428" lon="5.91057">
        <ele>1247.502</ele>
        <time>2021-11-13T15:01:11Z</time>
      </trkpt>
      <trkpt lat="44.87424" lon="5.91055">
        <ele>1246.79</ele>
        <time>2021-11-13T15:01:15Z</time>
      </trkpt>
      <trkpt lat="44.8742" lon="5.91051">
        <ele>1246.638</ele>
        <time>2021-11-13T15:01:20Z</time>
      </trkpt>
      <trkpt lat="44.87402" lon="5.91029">
        <ele>1245.94</ele>
        <time>2021-11-13T15:01:43Z</time>
      </trkpt>
      <trkpt lat="44.87385" lon="5.91014">
        <ele>1245.081</ele>
        <time>2021-11-13T15:02:06Z</time>
      </trkpt>
      <trkpt lat="44.8738" lon="5.91013">
        <ele>1244.456</ele>
        <time>2021-11-13T15:02:12Z</time>
      </trkpt>
      <trkpt lat="44.87373" lon="5.91014">
        <ele>1243.706</ele>
        <time>2021-11-13T15:02:22Z</time>
      </trkpt>
      <trkpt lat="44.87371" lon="5.91012">
        <ele>1242.561</ele>
        <time>2021-11-13T15:02:26Z</time>
      </trkpt>
      <trkpt lat="44.87368" lon="5.91012">
        <ele>1242.101</ele>
        <time>2021-11-13T15:02:31Z</time>
      </trkpt>
      <trkpt lat="44.87367" lon="5.91012">
        <ele>1242.385</ele>
        <time>2021-11-13T15:02:32Z</time>
      </trkpt>
      <trkpt lat="44.87367" lon="5.91012">
        <ele>1242.604</ele>
        <time>2021-11-13T15:02:33Z</time>
      </trkpt>
      <trkpt lat="44.87367" lon="5.91011">
        <ele>1242.709</ele>
        <time>2021-11-13T15:02:34Z</time>
      </trkpt>
      <trkpt lat="44.87365" lon="5.91009">
        <ele>1242.291</ele>
        <time>2021-11-13T15:02:37Z</time>
      </trkpt>
      <trkpt lat="44.87362" lon="5.9101">
        <ele>1242.01</ele>
        <time>2021-11-13T15:02:40Z</time>
      </trkpt>
      <trkpt lat="44.87359" lon="5.91011">
        <ele>1241.73</ele>
        <time>2021-11-13T15:02:43Z</time>
      </trkpt>
      <trkpt lat="44.87354" lon="5.91009">
        <ele>1241.464</ele>
        <time>2021-11-13T15:02:48Z</time>
      </trkpt>
      <trkpt lat="44.87344" lon="5.90998">
        <ele>1240.646</ele>
        <time>2021-11-13T15:03:00Z</time>
      </trkpt>
      <trkpt lat="44.87336" lon="5.90978">
        <ele>1237.763</ele>
        <time>2021-11-13T15:03:15Z</time>
      </trkpt>
      <trkpt lat="44.87337" lon="5.90971">
        <ele>1239.044</ele>
        <time>2021-11-13T15:03:21Z</time>
      </trkpt>
      <trkpt lat="44.87337" lon="5.90964">
        <ele>1237.812</ele>
        <time>2021-11-13T15:03:26Z</time>
      </trkpt>
      <trkpt lat="44.87335" lon="5.90955">
        <ele>1237.26</ele>
        <time>2021-11-13T15:03:32Z</time>
      </trkpt>
      <trkpt lat="44.87332" lon="5.90943">
        <ele>1236.189</ele>
        <time>2021-11-13T15:03:41Z</time>
      </trkpt>
      <trkpt lat="44.87329" lon="5.90923">
        <ele>1235.411</ele>
        <time>2021-11-13T15:03:59Z</time>
      </trkpt>
      <trkpt lat="44.87317" lon="5.90899">
        <ele>1233.678</ele>
        <time>2021-11-13T15:04:16Z</time>
      </trkpt>
      <trkpt lat="44.873" lon="5.90879">
        <ele>1234.314</ele>
        <time>2021-11-13T15:04:36Z</time>
      </trkpt>
      <trkpt lat="44.87287" lon="5.90869">
        <ele>1233.801</ele>
        <time>2021-11-13T15:04:51Z</time>
      </trkpt>
      <trkpt lat="44.87252" lon="5.90828">
        <ele>1232.45</ele>
        <time>2021-11-13T15:05:37Z</time>
      </trkpt>
      <trkpt lat="44.8725" lon="5.90825">
        <ele>1231.849</ele>
        <time>2021-11-13T15:05:41Z</time>
      </trkpt>
      <trkpt lat="44.87237" lon="5.90808">
        <ele>1230.429</ele>
        <time>2021-11-13T15:05:56Z</time>
      </trkpt>
      <trkpt lat="44.87222" lon="5.90792">
        <ele>1229.223</ele>
        <time>2021-11-13T15:06:15Z</time>
      </trkpt>
      <trkpt lat="44.87222" lon="5.90792">
        <ele>1229.223</ele>
        <time>2021-11-13T15:06:15Z</time>
      </trkpt>
      <trkpt lat="44.87222" lon="5.90792">
        <ele>1229.705</ele>
        <time>2021-11-13T15:06:16Z</time>
      </trkpt>
      <trkpt lat="44.87222" lon="5.90792">
        <ele>1230.171</ele>
        <time>2021-11-13T15:06:18Z</time>
      </trkpt>
      <trkpt lat="44.87222" lon="5.90792">
        <ele>1229.377</ele>
        <time>2021-11-13T15:06:19Z</time>
      </trkpt>
      <trkpt lat="44.87223" lon="5.90792">
        <ele>1229.362</ele>
        <time>2021-11-13T15:06:21Z</time>
      </trkpt>
      <trkpt lat="44.87223" lon="5.90792">
        <ele>1230.157</ele>
        <time>2021-11-13T15:06:22Z</time>
      </trkpt>
      <trkpt lat="44.87223" lon="5.90792">
        <ele>1229.917</ele>
        <time>2021-11-13T15:06:23Z</time>
      </trkpt>
      <trkpt lat="44.87221" lon="5.90791">
        <ele>1229.394</ele>
        <time>2021-11-13T15:06:27Z</time>
      </trkpt>
      <trkpt lat="44.8722" lon="5.9079">
        <ele>1229.773</ele>
        <time>2021-11-13T15:06:29Z</time>
      </trkpt>
      <trkpt lat="44.8722" lon="5.9079">
        <ele>1230</ele>
        <time>2021-11-13T15:06:30Z</time>
      </trkpt>
      <trkpt lat="44.8722" lon="5.9079">
        <ele>1229.823</ele>
        <time>2021-11-13T15:06:32Z</time>
      </trkpt>
      <trkpt lat="44.87223" lon="5.90792">
        <ele>1229.65</ele>
        <time>2021-11-13T15:06:33Z</time>
      </trkpt>
      <trkpt lat="44.87222" lon="5.90791">
        <ele>1229.382</ele>
        <time>2021-11-13T15:06:34Z</time>
      </trkpt>
      <trkpt lat="44.8722" lon="5.90789">
        <ele>1228.188</ele>
        <time>2021-11-13T15:06:37Z</time>
      </trkpt>
      <trkpt lat="44.87217" lon="5.90787">
        <ele>1228.693</ele>
        <time>2021-11-13T15:06:40Z</time>
      </trkpt>
      <trkpt lat="44.87216" lon="5.90788">
        <ele>1227.964</ele>
        <time>2021-11-13T15:06:43Z</time>
      </trkpt>
      <trkpt lat="44.87215" lon="5.90788">
        <ele>1228.648</ele>
        <time>2021-11-13T15:06:44Z</time>
      </trkpt>
      <trkpt lat="44.87207" lon="5.90779">
        <ele>1227.93</ele>
        <time>2021-11-13T15:06:52Z</time>
      </trkpt>
      <trkpt lat="44.87198" lon="5.90764">
        <ele>1227.799</ele>
        <time>2021-11-13T15:07:06Z</time>
      </trkpt>
      <trkpt lat="44.87155" lon="5.90693">
        <ele>1226.342</ele>
        <time>2021-11-13T15:08:07Z</time>
      </trkpt>
      <trkpt lat="44.87152" lon="5.90694">
        <ele>1226.141</ele>
        <time>2021-11-13T15:08:11Z</time>
      </trkpt>
      <trkpt lat="44.87122" lon="5.90667">
        <ele>1223.75</ele>
        <time>2021-11-13T15:08:44Z</time>
      </trkpt>
      <trkpt lat="44.87109" lon="5.9065">
        <ele>1223.137</ele>
        <time>2021-11-13T15:09:01Z</time>
      </trkpt>
      <trkpt lat="44.87108" lon="5.90647">
        <ele>1223.633</ele>
        <time>2021-11-13T15:09:02Z</time>
      </trkpt>
      <trkpt lat="44.87104" lon="5.90636">
        <ele>1223.898</ele>
        <time>2021-11-13T15:09:06Z</time>
      </trkpt>
      <trkpt lat="44.87096" lon="5.90626">
        <ele>1221.062</ele>
        <time>2021-11-13T15:09:19Z</time>
      </trkpt>
      <trkpt lat="44.87093" lon="5.90622">
        <ele>1220.603</ele>
        <time>2021-11-13T15:09:24Z</time>
      </trkpt>
      <trkpt lat="44.87086" lon="5.90612">
        <ele>1218.88</ele>
        <time>2021-11-13T15:09:33Z</time>
      </trkpt>
      <trkpt lat="44.87079" lon="5.90599">
        <ele>1221.299</ele>
        <time>2021-11-13T15:09:42Z</time>
      </trkpt>
      <trkpt lat="44.87069" lon="5.90587">
        <ele>1219.096</ele>
        <time>2021-11-13T15:09:55Z</time>
      </trkpt>
      <trkpt lat="44.87066" lon="5.90582">
        <ele>1219.096</ele>
        <time>2021-11-13T15:10:00Z</time>
      </trkpt>
      <trkpt lat="44.87064" lon="5.90577">
        <ele>1218.765</ele>
        <time>2021-11-13T15:10:06Z</time>
      </trkpt>
      <trkpt lat="44.8706" lon="5.90563">
        <ele>1216.656</ele>
        <time>2021-11-13T15:10:16Z</time>
      </trkpt>
      <trkpt lat="44.87052" lon="5.90541">
        <ele>1214.642</ele>
        <time>2021-11-13T15:10:31Z</time>
      </trkpt>
      <trkpt lat="44.87052" lon="5.9054">
        <ele>1214.703</ele>
        <time>2021-11-13T15:10:32Z</time>
      </trkpt>
      <trkpt lat="44.87052" lon="5.9054">
        <ele>1213.56</ele>
        <time>2021-11-13T15:10:33Z</time>
      </trkpt>
      <trkpt lat="44.87052" lon="5.9054">
        <ele>1211.255</ele>
        <time>2021-11-13T15:10:36Z</time>
      </trkpt>
      <trkpt lat="44.87054" lon="5.90543">
        <ele>1210.961</ele>
        <time>2021-11-13T15:10:37Z</time>
      </trkpt>
      <trkpt lat="44.87054" lon="5.90544">
        <ele>1209.882</ele>
        <time>2021-11-13T15:10:40Z</time>
      </trkpt>
      <trkpt lat="44.87054" lon="5.90544">
        <ele>1208.778</ele>
        <time>2021-11-13T15:10:42Z</time>
      </trkpt>
      <trkpt lat="44.87054" lon="5.90544">
        <ele>1208.773</ele>
        <time>2021-11-13T15:10:43Z</time>
      </trkpt>
      <trkpt lat="44.87054" lon="5.90544">
        <ele>1208.856</ele>
        <time>2021-11-13T15:11:15Z</time>
      </trkpt>
      <trkpt lat="44.87055" lon="5.90543">
        <ele>1208.624</ele>
        <time>2021-11-13T15:11:16Z</time>
      </trkpt>
      <trkpt lat="44.87056" lon="5.90541">
        <ele>1208.398</ele>
        <time>2021-11-13T15:11:17Z</time>
      </trkpt>
      <trkpt lat="44.87057" lon="5.90533">
        <ele>1206.935</ele>
        <time>2021-11-13T15:11:23Z</time>
      </trkpt>
      <trkpt lat="44.87056" lon="5.90519">
        <ele>1206.07</ele>
        <time>2021-11-13T15:11:30Z</time>
      </trkpt>
      <trkpt lat="44.87052" lon="5.90497">
        <ele>1206.828</ele>
        <time>2021-11-13T15:11:45Z</time>
      </trkpt>
      <trkpt lat="44.87022" lon="5.90441">
        <ele>1206.378</ele>
        <time>2021-11-13T15:12:32Z</time>
      </trkpt>
      <trkpt lat="44.87022" lon="5.90441">
        <ele>1206.906</ele>
        <time>2021-11-13T15:12:34Z</time>
      </trkpt>
      <trkpt lat="44.87022" lon="5.90441">
        <ele>1206.906</ele>
        <time>2021-11-13T15:12:34Z</time>
      </trkpt>
      <trkpt lat="44.87022" lon="5.90441">
        <ele>1206.791</ele>
        <time>2021-11-13T15:12:35Z</time>
      </trkpt>
      <trkpt lat="44.87022" lon="5.9044">
        <ele>1207.744</ele>
        <time>2021-11-13T15:12:36Z</time>
      </trkpt>
      <trkpt lat="44.87021" lon="5.90439">
        <ele>1207.655</ele>
        <time>2021-11-13T15:12:37Z</time>
      </trkpt>
      <trkpt lat="44.87011" lon="5.90417">
        <ele>1207.886</ele>
        <time>2021-11-13T15:12:56Z</time>
      </trkpt>
      <trkpt lat="44.87011" lon="5.90416">
        <ele>1207.957</ele>
        <time>2021-11-13T15:12:57Z</time>
      </trkpt>
      <trkpt lat="44.86996" lon="5.90369">
        <ele>1205.818</ele>
        <time>2021-11-13T15:13:31Z</time>
      </trkpt>
      <trkpt lat="44.86979" lon="5.90292">
        <ele>1206.431</ele>
        <time>2021-11-13T15:14:25Z</time>
      </trkpt>
      <trkpt lat="44.86979" lon="5.90288">
        <ele>1206.174</ele>
        <time>2021-11-13T15:14:28Z</time>
      </trkpt>
      <trkpt lat="44.86956" lon="5.90208">
        <ele>1203.877</ele>
        <time>2021-11-13T15:15:25Z</time>
      </trkpt>
      <trkpt lat="44.86907" lon="5.90139">
        <ele>1205.906</ele>
        <time>2021-11-13T15:16:29Z</time>
      </trkpt>
      <trkpt lat="44.86897" lon="5.90124">
        <ele>1207.927</ele>
        <time>2021-11-13T15:16:44Z</time>
      </trkpt>
      <trkpt lat="44.86881" lon="5.90097">
        <ele>1208.995</ele>
        <time>2021-11-13T15:17:09Z</time>
      </trkpt>
      <trkpt lat="44.86881" lon="5.90095">
        <ele>1208.611</ele>
        <time>2021-11-13T15:17:11Z</time>
      </trkpt>
      <trkpt lat="44.86877" lon="5.90087">
        <ele>1208.873</ele>
        <time>2021-11-13T15:17:16Z</time>
      </trkpt>
      <trkpt lat="44.8687" lon="5.90078">
        <ele>1209.156</ele>
        <time>2021-11-13T15:17:23Z</time>
      </trkpt>
      <trkpt lat="44.86853" lon="5.90042">
        <ele>1206.77</ele>
        <time>2021-11-13T15:17:58Z</time>
      </trkpt>
      <trkpt lat="44.8685" lon="5.90034">
        <ele>1206.369</ele>
        <time>2021-11-13T15:18:07Z</time>
      </trkpt>
      <trkpt lat="44.86848" lon="5.90027">
        <ele>1205.981</ele>
        <time>2021-11-13T15:18:13Z</time>
      </trkpt>
      <trkpt lat="44.86847" lon="5.90026">
        <ele>1206.653</ele>
        <time>2021-11-13T15:18:16Z</time>
      </trkpt>
      <trkpt lat="44.86847" lon="5.90026">
        <ele>1207.1</ele>
        <time>2021-11-13T15:18:17Z</time>
      </trkpt>
      <trkpt lat="44.86847" lon="5.90026">
        <ele>1207.177</ele>
        <time>2021-11-13T15:18:27Z</time>
      </trkpt>
      <trkpt lat="44.86845" lon="5.90025">
        <ele>1206.799</ele>
        <time>2021-11-13T15:18:28Z</time>
      </trkpt>
      <trkpt lat="44.86842" lon="5.90013">
        <ele>1204.522</ele>
        <time>2021-11-13T15:18:38Z</time>
      </trkpt>
      <trkpt lat="44.86835" lon="5.89998">
        <ele>1206.882</ele>
        <time>2021-11-13T15:18:52Z</time>
      </trkpt>
      <trkpt lat="44.86833" lon="5.89989">
        <ele>1205.914</ele>
        <time>2021-11-13T15:18:59Z</time>
      </trkpt>
      <trkpt lat="44.86841" lon="5.89978">
        <ele>1206.36</ele>
        <time>2021-11-13T15:19:12Z</time>
      </trkpt>
      <trkpt lat="44.86845" lon="5.89973">
        <ele>1204.817</ele>
        <time>2021-11-13T15:19:18Z</time>
      </trkpt>
      <trkpt lat="44.86845" lon="5.89973">
        <ele>1204.817</ele>
        <time>2021-11-13T15:19:25Z</time>
      </trkpt>
    </trkseg>
  </trk>
</gpx>